<?xml version="1.0" encoding="UTF-8"?>
<gpx version="1.0" creator="Trackator" xmlns:xsi="http://www.w3.org/2001/XMLSchema-instance" xmlns="http://www.topografix.com/GPX/1/0" xmlns:topografix="http://www.topografix.com/GPX/Private/TopoGrafix/0/1" xsi:schemaLocation="http://www.topografix.com/GPX/1/0 http://www.topografix.com/GPX/1/0/gpx.xsd http://www.topografix.com/GPX/Private/TopoGrafix/0/1 http://www.topografix.com/GPX/Private/TopoGrafix/0/1/topografix.xsd">
<metadata>
<link href="http://www.trackator.com">
<text>Trackator</text>
</link>
</metadata>
<time>2017-03-02T:52:41Z</time>
<trk>
<name>Track: </name>
<desc>Hiking</desc>
<trkseg>
<trkpt lat="40.635459999999995" lon="-3.1552833333333337">
<ele>693</ele>
<time>2017-03-02T:52:41Z</time>
</trkpt>
<trkpt lat="40.635470000000005" lon="-3.155265">
<ele>695</ele>
<time>2017-03-02T10:52:43Z</time>
</trkpt>
<trkpt lat="40.63545166666667" lon="-3.1552316666666664">
<ele>696</ele>
<time>2017-03-02T10:52:45Z</time>
</trkpt>
<trkpt lat="40.635395" lon="-3.1551949999999995">
<ele>703</ele>
<time>2017-03-02T10:52:47Z</time>
</trkpt>
<trkpt lat="40.635355" lon="-3.1551283333333333">
<ele>703</ele>
<time>2017-03-02T10:52:50Z</time>
</trkpt>
<trkpt lat="40.635351666666665" lon="-3.155116666666667">
<ele>705</ele>
<time>2017-03-02T10:52:52Z</time>
</trkpt>
<trkpt lat="40.63533833333334" lon="-3.155115">
<ele>707</ele>
<time>2017-03-02T10:52:54Z</time>
</trkpt>
<trkpt lat="40.63533333333333" lon="-3.1551200000000006">
<ele>705</ele>
<time>2017-03-02T10:52:56Z</time>
</trkpt>
<trkpt lat="40.635331666666666" lon="-3.1550816666666663">
<ele>706</ele>
<time>2017-03-02T10:52:58Z</time>
</trkpt>
<trkpt lat="40.63532166666666" lon="-3.1550533333333335">
<ele>708</ele>
<time>2017-03-02T10:53:00Z</time>
</trkpt>
<trkpt lat="40.63530166666667" lon="-3.1550133333333332">
<ele>707</ele>
<time>2017-03-02T10:53:02Z</time>
</trkpt>
<trkpt lat="40.635290000000005" lon="-3.15496">
<ele>706</ele>
<time>2017-03-02T10:53:04Z</time>
</trkpt>
<trkpt lat="40.63529666666667" lon="-3.1549400000000003">
<ele>706</ele>
<time>2017-03-02T10:53:06Z</time>
</trkpt>
<trkpt lat="40.63530166666667" lon="-3.15492">
<ele>706</ele>
<time>2017-03-02T10:53:08Z</time>
</trkpt>
<trkpt lat="40.635313333333336" lon="-3.1548900000000004">
<ele>706</ele>
<time>2017-03-02T10:53:10Z</time>
</trkpt>
<trkpt lat="40.635328333333334" lon="-3.1548916666666664">
<ele>706</ele>
<time>2017-03-02T10:53:12Z</time>
</trkpt>
<trkpt lat="40.635255" lon="-3.1549433333333337">
<ele>706</ele>
<time>2017-03-02T10:53:14Z</time>
</trkpt>
<trkpt lat="40.63518666666666" lon="-3.1549716666666665">
<ele>706</ele>
<time>2017-03-02T10:53:16Z</time>
</trkpt>
<trkpt lat="40.63513833333333" lon="-3.154983333333333">
<ele>706</ele>
<time>2017-03-02T10:53:18Z</time>
</trkpt>
<trkpt lat="40.635106666666665" lon="-3.1549366666666665">
<ele>706</ele>
<time>2017-03-02T10:53:20Z</time>
</trkpt>
<trkpt lat="40.63507833333333" lon="-3.1549283333333333">
<ele>706</ele>
<time>2017-03-02T10:53:22Z</time>
</trkpt>
<trkpt lat="40.635038333333334" lon="-3.1549666666666667">
<ele>706</ele>
<time>2017-03-02T10:53:24Z</time>
</trkpt>
<trkpt lat="40.63500833333333" lon="-3.1550266666666666">
<ele>707</ele>
<time>2017-03-02T10:53:26Z</time>
</trkpt>
<trkpt lat="40.634978333333336" lon="-3.155035">
<ele>708</ele>
<time>2017-03-02T10:53:28Z</time>
</trkpt>
<trkpt lat="40.63497666666667" lon="-3.1549850000000004">
<ele>707</ele>
<time>2017-03-02T10:53:30Z</time>
</trkpt>
<trkpt lat="40.63496333333333" lon="-3.1549449999999997">
<ele>706</ele>
<time>2017-03-02T10:53:32Z</time>
</trkpt>
<trkpt lat="40.63496" lon="-3.1549283333333333">
<ele>705</ele>
<time>2017-03-02T10:53:34Z</time>
</trkpt>
<trkpt lat="40.634978333333336" lon="-3.15491">
<ele>703</ele>
<time>2017-03-02T10:53:36Z</time>
</trkpt>
<trkpt lat="40.63497666666667" lon="-3.154888333333333">
<ele>702</ele>
<time>2017-03-02T10:53:38Z</time>
</trkpt>
<trkpt lat="40.634996666666666" lon="-3.1548816666666664">
<ele>702</ele>
<time>2017-03-02T10:53:40Z</time>
</trkpt>
<trkpt lat="40.635036666666664" lon="-3.1548900000000004">
<ele>702</ele>
<time>2017-03-02T10:53:42Z</time>
</trkpt>
<trkpt lat="40.635146666666664" lon="-3.154835">
<ele>703</ele>
<time>2017-03-02T10:53:44Z</time>
</trkpt>
<trkpt lat="40.63531666666667" lon="-3.1548016666666663">
<ele>703</ele>
<time>2017-03-02T10:53:46Z</time>
</trkpt>
<trkpt lat="40.635470000000005" lon="-3.154751666666667">
<ele>703</ele>
<time>2017-03-02T10:53:48Z</time>
</trkpt>
<trkpt lat="40.63562666666667" lon="-3.154701666666667">
<ele>703</ele>
<time>2017-03-02T10:53:50Z</time>
</trkpt>
<trkpt lat="40.6358" lon="-3.15467">
<ele>703</ele>
<time>2017-03-02T10:53:52Z</time>
</trkpt>
<trkpt lat="40.635115000000006" lon="-3.1548816666666664">
<ele>703</ele>
<time>2017-03-02T10:54:22Z</time>
</trkpt>
<trkpt lat="40.635083333333334" lon="-3.1548916666666664">
<ele>710</ele>
<time>2017-03-02T10:54:24Z</time>
</trkpt>
<trkpt lat="40.63506666666667" lon="-3.1548933333333338">
<ele>711</ele>
<time>2017-03-02T10:54:26Z</time>
</trkpt>
<trkpt lat="40.63506333333333" lon="-3.154838333333333">
<ele>707</ele>
<time>2017-03-02T10:54:28Z</time>
</trkpt>
<trkpt lat="40.63505166666666" lon="-3.1548099999999994">
<ele>703</ele>
<time>2017-03-02T10:54:30Z</time>
</trkpt>
<trkpt lat="40.63505" lon="-3.1547766666666672">
<ele>700</ele>
<time>2017-03-02T10:54:32Z</time>
</trkpt>
<trkpt lat="40.63505" lon="-3.154731666666667">
<ele>698</ele>
<time>2017-03-02T10:54:34Z</time>
</trkpt>
<trkpt lat="40.63504833333333" lon="-3.1547233333333327">
<ele>697</ele>
<time>2017-03-02T10:54:36Z</time>
</trkpt>
<trkpt lat="40.635043333333336" lon="-3.154716666666667">
<ele>696</ele>
<time>2017-03-02T10:54:38Z</time>
</trkpt>
<trkpt lat="40.63503" lon="-3.154716666666667">
<ele>696</ele>
<time>2017-03-02T10:54:40Z</time>
</trkpt>
<trkpt lat="40.63500333333333" lon="-3.1547366666666665">
<ele>696</ele>
<time>2017-03-02T10:54:42Z</time>
</trkpt>
<trkpt lat="40.63497333333333" lon="-3.154753333333333">
<ele>696</ele>
<time>2017-03-02T10:54:44Z</time>
</trkpt>
<trkpt lat="40.63495" lon="-3.1547633333333334">
<ele>697</ele>
<time>2017-03-02T10:54:46Z</time>
</trkpt>
<trkpt lat="40.634926666666665" lon="-3.1547183333333333">
<ele>698</ele>
<time>2017-03-02T10:54:48Z</time>
</trkpt>
<trkpt lat="40.634903333333334" lon="-3.154716666666667">
<ele>698</ele>
<time>2017-03-02T10:54:50Z</time>
</trkpt>
<trkpt lat="40.63487833333333" lon="-3.154716666666667">
<ele>699</ele>
<time>2017-03-02T10:54:52Z</time>
</trkpt>
<trkpt lat="40.63487" lon="-3.154695">
<ele>699</ele>
<time>2017-03-02T10:54:54Z</time>
</trkpt>
<trkpt lat="40.63487333333333" lon="-3.1546900000000004">
<ele>699</ele>
<time>2017-03-02T10:54:56Z</time>
</trkpt>
<trkpt lat="40.63484666666667" lon="-3.1547083333333337">
<ele>699</ele>
<time>2017-03-02T10:54:58Z</time>
</trkpt>
<trkpt lat="40.63483833333333" lon="-3.154703333333333">
<ele>699</ele>
<time>2017-03-02T10:55:00Z</time>
</trkpt>
<trkpt lat="40.63483333333333" lon="-3.1546816666666664">
<ele>699</ele>
<time>2017-03-02T10:55:02Z</time>
</trkpt>
<trkpt lat="40.63483" lon="-3.1546600000000002">
<ele>699</ele>
<time>2017-03-02T10:55:04Z</time>
</trkpt>
<trkpt lat="40.63483833333333" lon="-3.1546549999999995">
<ele>699</ele>
<time>2017-03-02T10:55:06Z</time>
</trkpt>
<trkpt lat="40.63484666666667" lon="-3.1546600000000002">
<ele>699</ele>
<time>2017-03-02T10:55:08Z</time>
</trkpt>
<trkpt lat="40.63485166666667" lon="-3.154665">
<ele>699</ele>
<time>2017-03-02T10:55:10Z</time>
</trkpt>
<trkpt lat="40.634840000000004" lon="-3.154643333333333">
<ele>699</ele>
<time>2017-03-02T10:55:12Z</time>
</trkpt>
<trkpt lat="40.63483833333333" lon="-3.1546399999999997">
<ele>699</ele>
<time>2017-03-02T10:55:14Z</time>
</trkpt>
<trkpt lat="40.634836666666665" lon="-3.1546399999999997">
<ele>699</ele>
<time>2017-03-02T10:55:16Z</time>
</trkpt>
<trkpt lat="40.634836666666665" lon="-3.1546399999999997">
<ele>699</ele>
<time>2017-03-02T10:55:18Z</time>
</trkpt>
<trkpt lat="40.634836666666665" lon="-3.1546399999999997">
<ele>699</ele>
<time>2017-03-02T10:55:20Z</time>
</trkpt>
<trkpt lat="40.63516166666667" lon="-3.154625">
<ele>681</ele>
<time>2017-03-02T10:55:46Z</time>
</trkpt>
<trkpt lat="40.63514333333333" lon="-3.154585">
<ele>686</ele>
<time>2017-03-02T10:55:48Z</time>
</trkpt>
<trkpt lat="40.635056666666664" lon="-3.154548333333333">
<ele>692</ele>
<time>2017-03-02T10:55:50Z</time>
</trkpt>
<trkpt lat="40.635005" lon="-3.1545716666666666">
<ele>695</ele>
<time>2017-03-02T10:55:52Z</time>
</trkpt>
<trkpt lat="40.63498333333334" lon="-3.154538333333333">
<ele>695</ele>
<time>2017-03-02T10:55:54Z</time>
</trkpt>
<trkpt lat="40.634991666666664" lon="-3.1545083333333337">
<ele>695</ele>
<time>2017-03-02T10:55:56Z</time>
</trkpt>
<trkpt lat="40.634993333333334" lon="-3.154501666666667">
<ele>695</ele>
<time>2017-03-02T10:55:58Z</time>
</trkpt>
<trkpt lat="40.634980000000006" lon="-3.1545266666666665">
<ele>696</ele>
<time>2017-03-02T10:56:00Z</time>
</trkpt>
<trkpt lat="40.63495833333333" lon="-3.154546666666667">
<ele>696</ele>
<time>2017-03-02T10:56:02Z</time>
</trkpt>
<trkpt lat="40.63495833333333" lon="-3.154546666666667">
<ele>696</ele>
<time>2017-03-02T10:56:04Z</time>
</trkpt>
<trkpt lat="40.63495833333333" lon="-3.154546666666667">
<ele>696</ele>
<time>2017-03-02T10:56:06Z</time>
</trkpt>
<trkpt lat="40.63495833333333" lon="-3.154546666666667">
<ele>696</ele>
<time>2017-03-02T10:56:08Z</time>
</trkpt>
<trkpt lat="40.634924999999996" lon="-3.154576666666667">
<ele>696</ele>
<time>2017-03-02T10:56:10Z</time>
</trkpt>
<trkpt lat="40.63492166666666" lon="-3.1545783333333333">
<ele>696</ele>
<time>2017-03-02T10:56:12Z</time>
</trkpt>
<trkpt lat="40.634924999999996" lon="-3.154576666666667">
<ele>696</ele>
<time>2017-03-02T10:56:14Z</time>
</trkpt>
<trkpt lat="40.634924999999996" lon="-3.154576666666667">
<ele>696</ele>
<time>2017-03-02T10:56:16Z</time>
</trkpt>
<trkpt lat="40.63487166666666" lon="-3.1545683333333328">
<ele>697</ele>
<time>2017-03-02T10:56:18Z</time>
</trkpt>
<trkpt lat="40.63483333333333" lon="-3.1545500000000004">
<ele>697</ele>
<time>2017-03-02T10:56:20Z</time>
</trkpt>
<trkpt lat="40.634813333333334" lon="-3.1545366666666665">
<ele>697</ele>
<time>2017-03-02T10:56:22Z</time>
</trkpt>
<trkpt lat="40.63479666666667" lon="-3.1545316666666667">
<ele>697</ele>
<time>2017-03-02T10:56:24Z</time>
</trkpt>
<trkpt lat="40.634775" lon="-3.154533333333333">
<ele>697</ele>
<time>2017-03-02T10:56:26Z</time>
</trkpt>
<trkpt lat="40.634768333333334" lon="-3.1545433333333337">
<ele>697</ele>
<time>2017-03-02T10:56:28Z</time>
</trkpt>
<trkpt lat="40.634751666666666" lon="-3.154561666666667">
<ele>697</ele>
<time>2017-03-02T10:56:30Z</time>
</trkpt>
<trkpt lat="40.634728333333335" lon="-3.1545866666666664">
<ele>698</ele>
<time>2017-03-02T10:56:32Z</time>
</trkpt>
<trkpt lat="40.634728333333335" lon="-3.1545866666666664">
<ele>698</ele>
<time>2017-03-02T10:56:34Z</time>
</trkpt>
<trkpt lat="40.634728333333335" lon="-3.1545866666666664">
<ele>698</ele>
<time>2017-03-02T10:56:36Z</time>
</trkpt>
<trkpt lat="40.634728333333335" lon="-3.1545866666666664">
<ele>698</ele>
<time>2017-03-02T10:56:38Z</time>
</trkpt>
<trkpt lat="40.634728333333335" lon="-3.1545866666666664">
<ele>698</ele>
<time>2017-03-02T10:56:40Z</time>
</trkpt>
<trkpt lat="40.634728333333335" lon="-3.1545866666666664">
<ele>698</ele>
<time>2017-03-02T10:56:42Z</time>
</trkpt>
<trkpt lat="40.63468666666667" lon="-3.154596666666667">
<ele>697</ele>
<time>2017-03-02T10:56:44Z</time>
</trkpt>
<trkpt lat="40.63461333333333" lon="-3.1546316666666665">
<ele>697</ele>
<time>2017-03-02T10:56:46Z</time>
</trkpt>
<trkpt lat="40.634555" lon="-3.1545949999999996">
<ele>695</ele>
<time>2017-03-02T10:56:48Z</time>
</trkpt>
<trkpt lat="40.63453333333334" lon="-3.154585">
<ele>695</ele>
<time>2017-03-02T10:56:50Z</time>
</trkpt>
<trkpt lat="40.634548333333335" lon="-3.15452">
<ele>694</ele>
<time>2017-03-02T10:56:52Z</time>
</trkpt>
<trkpt lat="40.63457666666667" lon="-3.154503333333333">
<ele>695</ele>
<time>2017-03-02T10:56:54Z</time>
</trkpt>
<trkpt lat="40.634625" lon="-3.1544983333333336">
<ele>695</ele>
<time>2017-03-02T10:56:56Z</time>
</trkpt>
<trkpt lat="40.634676666666664" lon="-3.154493333333334">
<ele>694</ele>
<time>2017-03-02T10:56:58Z</time>
</trkpt>
<trkpt lat="40.634726666666666" lon="-3.1544916666666665">
<ele>695</ele>
<time>2017-03-02T10:57:00Z</time>
</trkpt>
<trkpt lat="40.63474" lon="-3.1544916666666665">
<ele>695</ele>
<time>2017-03-02T10:57:02Z</time>
</trkpt>
<trkpt lat="40.63476166666667" lon="-3.154493333333334">
<ele>696</ele>
<time>2017-03-02T10:57:04Z</time>
</trkpt>
<trkpt lat="40.634765" lon="-3.1545050000000003">
<ele>697</ele>
<time>2017-03-02T10:57:06Z</time>
</trkpt>
<trkpt lat="40.634775" lon="-3.1545149999999995">
<ele>698</ele>
<time>2017-03-02T10:57:08Z</time>
</trkpt>
<trkpt lat="40.63477833333333" lon="-3.154523333333334">
<ele>699</ele>
<time>2017-03-02T10:57:10Z</time>
</trkpt>
<trkpt lat="40.63478666666666" lon="-3.1545266666666665">
<ele>699</ele>
<time>2017-03-02T10:57:12Z</time>
</trkpt>
<trkpt lat="40.63478666666666" lon="-3.154533333333333">
<ele>698</ele>
<time>2017-03-02T10:57:14Z</time>
</trkpt>
<trkpt lat="40.63478666666666" lon="-3.154533333333333">
<ele>698</ele>
<time>2017-03-02T10:57:16Z</time>
</trkpt>
<trkpt lat="40.634811666666664" lon="-3.154553333333333">
<ele>696</ele>
<time>2017-03-02T10:57:18Z</time>
</trkpt>
<trkpt lat="40.63482" lon="-3.1545633333333334">
<ele>696</ele>
<time>2017-03-02T10:57:20Z</time>
</trkpt>
<trkpt lat="40.63482" lon="-3.15457">
<ele>696</ele>
<time>2017-03-02T10:57:22Z</time>
</trkpt>
<trkpt lat="40.63480833333333" lon="-3.15457">
<ele>695</ele>
<time>2017-03-02T10:57:24Z</time>
</trkpt>
<trkpt lat="40.63480833333333" lon="-3.15457">
<ele>695</ele>
<time>2017-03-02T10:57:26Z</time>
</trkpt>
<trkpt lat="40.63480833333333" lon="-3.15457">
<ele>695</ele>
<time>2017-03-02T10:57:28Z</time>
</trkpt>
<trkpt lat="40.63480833333333" lon="-3.15457">
<ele>695</ele>
<time>2017-03-02T10:57:30Z</time>
</trkpt>
<trkpt lat="40.63480833333333" lon="-3.15457">
<ele>695</ele>
<time>2017-03-02T10:57:32Z</time>
</trkpt>
<trkpt lat="40.63480833333333" lon="-3.15457">
<ele>695</ele>
<time>2017-03-02T10:57:34Z</time>
</trkpt>
<trkpt lat="40.63480833333333" lon="-3.15457">
<ele>695</ele>
<time>2017-03-02T10:57:36Z</time>
</trkpt>
<trkpt lat="40.63480833333333" lon="-3.15457">
<ele>695</ele>
<time>2017-03-02T10:57:38Z</time>
</trkpt>
<trkpt lat="40.63480833333333" lon="-3.15457">
<ele>695</ele>
<time>2017-03-02T10:57:40Z</time>
</trkpt>
<trkpt lat="40.63480833333333" lon="-3.15457">
<ele>695</ele>
<time>2017-03-02T10:57:42Z</time>
</trkpt>
<trkpt lat="40.63480833333333" lon="-3.15457">
<ele>695</ele>
<time>2017-03-02T10:57:44Z</time>
</trkpt>
<trkpt lat="40.63480833333333" lon="-3.15457">
<ele>695</ele>
<time>2017-03-02T10:57:46Z</time>
</trkpt>
<trkpt lat="40.63480833333333" lon="-3.15457">
<ele>695</ele>
<time>2017-03-02T10:57:48Z</time>
</trkpt>
<trkpt lat="40.63480833333333" lon="-3.15457">
<ele>695</ele>
<time>2017-03-02T10:57:50Z</time>
</trkpt>
<trkpt lat="40.63480833333333" lon="-3.15457">
<ele>695</ele>
<time>2017-03-02T10:57:52Z</time>
</trkpt>
<trkpt lat="40.63480833333333" lon="-3.15457">
<ele>695</ele>
<time>2017-03-02T10:57:54Z</time>
</trkpt>
<trkpt lat="40.63480833333333" lon="-3.15457">
<ele>695</ele>
<time>2017-03-02T10:57:56Z</time>
</trkpt>
<trkpt lat="40.63480833333333" lon="-3.15457">
<ele>695</ele>
<time>2017-03-02T10:57:58Z</time>
</trkpt>
<trkpt lat="40.63480833333333" lon="-3.15457">
<ele>695</ele>
<time>2017-03-02T10:58:00Z</time>
</trkpt>
<trkpt lat="40.63480833333333" lon="-3.15457">
<ele>695</ele>
<time>2017-03-02T10:58:02Z</time>
</trkpt>
<trkpt lat="40.63480833333333" lon="-3.15457">
<ele>695</ele>
<time>2017-03-02T10:58:04Z</time>
</trkpt>
<trkpt lat="40.634879999999995" lon="-3.1546016666666663">
<ele>699</ele>
<time>2017-03-02T10:58:06Z</time>
</trkpt>
<trkpt lat="40.634875" lon="-3.154606666666667">
<ele>700</ele>
<time>2017-03-02T10:58:08Z</time>
</trkpt>
<trkpt lat="40.634881666666665" lon="-3.1546183333333335">
<ele>703</ele>
<time>2017-03-02T10:58:10Z</time>
</trkpt>
<trkpt lat="40.63489833333333" lon="-3.154625">
<ele>705</ele>
<time>2017-03-02T10:58:12Z</time>
</trkpt>
<trkpt lat="40.63491" lon="-3.1546399999999997">
<ele>709</ele>
<time>2017-03-02T10:58:14Z</time>
</trkpt>
<trkpt lat="40.63493166666667" lon="-3.1546466666666664">
<ele>710</ele>
<time>2017-03-02T10:58:16Z</time>
</trkpt>
<trkpt lat="40.634951666666666" lon="-3.154665">
<ele>712</ele>
<time>2017-03-02T10:58:18Z</time>
</trkpt>
<trkpt lat="40.634965" lon="-3.1546916666666664">
<ele>713</ele>
<time>2017-03-02T10:58:20Z</time>
</trkpt>
<trkpt lat="40.634966666666664" lon="-3.1547050000000003">
<ele>715</ele>
<time>2017-03-02T10:58:22Z</time>
</trkpt>
<trkpt lat="40.634980000000006" lon="-3.1547050000000003">
<ele>715</ele>
<time>2017-03-02T10:58:24Z</time>
</trkpt>
<trkpt lat="40.63499" lon="-3.1547183333333333">
<ele>714</ele>
<time>2017-03-02T10:58:26Z</time>
</trkpt>
<trkpt lat="40.635005" lon="-3.1547266666666665">
<ele>713</ele>
<time>2017-03-02T10:58:28Z</time>
</trkpt>
<trkpt lat="40.63502666666667" lon="-3.1547183333333333">
<ele>712</ele>
<time>2017-03-02T10:58:30Z</time>
</trkpt>
<trkpt lat="40.63504833333333" lon="-3.1547216666666666">
<ele>710</ele>
<time>2017-03-02T10:58:32Z</time>
</trkpt>
<trkpt lat="40.63507333333334" lon="-3.1547500000000004">
<ele>710</ele>
<time>2017-03-02T10:58:34Z</time>
</trkpt>
<trkpt lat="40.635095" lon="-3.154783333333333">
<ele>712</ele>
<time>2017-03-02T10:58:36Z</time>
</trkpt>
<trkpt lat="40.635110000000005" lon="-3.15482">
<ele>711</ele>
<time>2017-03-02T10:58:38Z</time>
</trkpt>
<trkpt lat="40.63511333333334" lon="-3.1548683333333334">
<ele>715</ele>
<time>2017-03-02T10:58:40Z</time>
</trkpt>
<trkpt lat="40.635133333333336" lon="-3.1548916666666664">
<ele>713</ele>
<time>2017-03-02T10:58:42Z</time>
</trkpt>
<trkpt lat="40.63516666666667" lon="-3.154916666666667">
<ele>713</ele>
<time>2017-03-02T10:58:44Z</time>
</trkpt>
<trkpt lat="40.63518166666667" lon="-3.1549416666666663">
<ele>710</ele>
<time>2017-03-02T10:58:46Z</time>
</trkpt>
<trkpt lat="40.63516333333334" lon="-3.1549733333333334">
<ele>708</ele>
<time>2017-03-02T10:58:48Z</time>
</trkpt>
<trkpt lat="40.635135" lon="-3.1550233333333333">
<ele>712</ele>
<time>2017-03-02T10:58:50Z</time>
</trkpt>
<trkpt lat="40.635130000000004" lon="-3.1550583333333333">
<ele>711</ele>
<time>2017-03-02T10:58:52Z</time>
</trkpt>
<trkpt lat="40.63511333333334" lon="-3.1550999999999996">
<ele>712</ele>
<time>2017-03-02T10:58:54Z</time>
</trkpt>
<trkpt lat="40.635101666666664" lon="-3.1551433333333336">
<ele>712</ele>
<time>2017-03-02T10:58:56Z</time>
</trkpt>
<trkpt lat="40.63507833333333" lon="-3.1551733333333334">
<ele>712</ele>
<time>2017-03-02T10:58:58Z</time>
</trkpt>
<trkpt lat="40.63505" lon="-3.155196666666667">
<ele>713</ele>
<time>2017-03-02T10:59:00Z</time>
</trkpt>
<trkpt lat="40.635041666666666" lon="-3.155215">
<ele>713</ele>
<time>2017-03-02T10:59:02Z</time>
</trkpt>
<trkpt lat="40.635041666666666" lon="-3.1552383333333336">
<ele>714</ele>
<time>2017-03-02T10:59:04Z</time>
</trkpt>
<trkpt lat="40.63503333333333" lon="-3.15526">
<ele>715</ele>
<time>2017-03-02T10:59:06Z</time>
</trkpt>
<trkpt lat="40.63502166666667" lon="-3.155273333333333">
<ele>716</ele>
<time>2017-03-02T10:59:08Z</time>
</trkpt>
<trkpt lat="40.63501833333333" lon="-3.1552750000000005">
<ele>717</ele>
<time>2017-03-02T10:59:10Z</time>
</trkpt>
<trkpt lat="40.634998333333336" lon="-3.1552983333333335">
<ele>718</ele>
<time>2017-03-02T10:59:12Z</time>
</trkpt>
<trkpt lat="40.634998333333336" lon="-3.1552983333333335">
<ele>718</ele>
<time>2017-03-02T10:59:14Z</time>
</trkpt>
<trkpt lat="40.634998333333336" lon="-3.1552983333333335">
<ele>718</ele>
<time>2017-03-02T10:59:16Z</time>
</trkpt>
<trkpt lat="40.63502166666667" lon="-3.1553449999999996">
<ele>719</ele>
<time>2017-03-02T10:59:18Z</time>
</trkpt>
<trkpt lat="40.635036666666664" lon="-3.155353333333333">
<ele>721</ele>
<time>2017-03-02T10:59:20Z</time>
</trkpt>
<trkpt lat="40.635065000000004" lon="-3.1553483333333334">
<ele>720</ele>
<time>2017-03-02T10:59:22Z</time>
</trkpt>
<trkpt lat="40.635065000000004" lon="-3.1553483333333334">
<ele>720</ele>
<time>2017-03-02T10:59:24Z</time>
</trkpt>
<trkpt lat="40.635135" lon="-3.1553516666666668">
<ele>715</ele>
<time>2017-03-02T10:59:26Z</time>
</trkpt>
<trkpt lat="40.635146666666664" lon="-3.155346666666667">
<ele>715</ele>
<time>2017-03-02T10:59:28Z</time>
</trkpt>
<trkpt lat="40.635145" lon="-3.1553449999999996">
<ele>713</ele>
<time>2017-03-02T10:59:30Z</time>
</trkpt>
<trkpt lat="40.635145" lon="-3.1553449999999996">
<ele>713</ele>
<time>2017-03-02T10:59:32Z</time>
</trkpt>
<trkpt lat="40.635145" lon="-3.1553449999999996">
<ele>713</ele>
<time>2017-03-02T10:59:34Z</time>
</trkpt>
<trkpt lat="40.635145" lon="-3.1553449999999996">
<ele>713</ele>
<time>2017-03-02T10:59:36Z</time>
</trkpt>
<trkpt lat="40.635145" lon="-3.1553449999999996">
<ele>713</ele>
<time>2017-03-02T10:59:38Z</time>
</trkpt>
<trkpt lat="40.635145" lon="-3.1553449999999996">
<ele>713</ele>
<time>2017-03-02T10:59:40Z</time>
</trkpt>
<trkpt lat="40.63525" lon="-3.155376666666667">
<ele>704</ele>
<time>2017-03-02T10:59:42Z</time>
</trkpt>
<trkpt lat="40.635255" lon="-3.1553866666666663">
<ele>704</ele>
<time>2017-03-02T10:59:44Z</time>
</trkpt>
<trkpt lat="40.63526" lon="-3.1553949999999995">
<ele>704</ele>
<time>2017-03-02T10:59:46Z</time>
</trkpt>
<trkpt lat="40.63526" lon="-3.1553949999999995">
<ele>704</ele>
<time>2017-03-02T10:59:48Z</time>
</trkpt>
<trkpt lat="40.63526" lon="-3.1553949999999995">
<ele>704</ele>
<time>2017-03-02T10:59:50Z</time>
</trkpt>
<trkpt lat="40.635279999999995" lon="-3.1553933333333335">
<ele>703</ele>
<time>2017-03-02T10:59:52Z</time>
</trkpt>
<trkpt lat="40.635290000000005" lon="-3.155405">
<ele>703</ele>
<time>2017-03-02T10:59:54Z</time>
</trkpt>
<trkpt lat="40.635290000000005" lon="-3.155405">
<ele>703</ele>
<time>2017-03-02T10:59:56Z</time>
</trkpt>
<trkpt lat="40.635290000000005" lon="-3.155405">
<ele>703</ele>
<time>2017-03-02T10:59:58Z</time>
</trkpt>
<trkpt lat="40.635290000000005" lon="-3.155405">
<ele>703</ele>
<time>2017-03-02T11:00:00Z</time>
</trkpt>
<trkpt lat="40.635290000000005" lon="-3.155405">
<ele>703</ele>
<time>2017-03-02T11:00:02Z</time>
</trkpt>
<trkpt lat="40.635290000000005" lon="-3.155405">
<ele>703</ele>
<time>2017-03-02T11:00:04Z</time>
</trkpt>
<trkpt lat="40.635290000000005" lon="-3.155405">
<ele>703</ele>
<time>2017-03-02T11:00:06Z</time>
</trkpt>
<trkpt lat="40.635290000000005" lon="-3.155405">
<ele>703</ele>
<time>2017-03-02T11:00:08Z</time>
</trkpt>
<trkpt lat="40.635290000000005" lon="-3.155405">
<ele>703</ele>
<time>2017-03-02T11:00:10Z</time>
</trkpt>
<trkpt lat="40.635290000000005" lon="-3.155405">
<ele>703</ele>
<time>2017-03-02T11:00:12Z</time>
</trkpt>
<trkpt lat="40.635290000000005" lon="-3.155405">
<ele>703</ele>
<time>2017-03-02T11:00:14Z</time>
</trkpt>
<trkpt lat="40.635290000000005" lon="-3.155405">
<ele>703</ele>
<time>2017-03-02T11:00:16Z</time>
</trkpt>
<trkpt lat="40.635290000000005" lon="-3.155405">
<ele>703</ele>
<time>2017-03-02T11:00:18Z</time>
</trkpt>
<trkpt lat="40.635290000000005" lon="-3.155405">
<ele>703</ele>
<time>2017-03-02T11:00:20Z</time>
</trkpt>
<trkpt lat="40.635290000000005" lon="-3.155405">
<ele>703</ele>
<time>2017-03-02T11:00:22Z</time>
</trkpt>
<trkpt lat="40.635290000000005" lon="-3.155405">
<ele>703</ele>
<time>2017-03-02T11:00:24Z</time>
</trkpt>
<trkpt lat="40.635290000000005" lon="-3.155405">
<ele>703</ele>
<time>2017-03-02T11:00:26Z</time>
</trkpt>
<trkpt lat="40.63532" lon="-3.1554666666666664">
<ele>697</ele>
<time>2017-03-02T11:00:28Z</time>
</trkpt>
<trkpt lat="40.63529666666667" lon="-3.1554216666666672">
<ele>700</ele>
<time>2017-03-02T11:00:30Z</time>
</trkpt>
<trkpt lat="40.635286666666666" lon="-3.1554116666666667">
<ele>699</ele>
<time>2017-03-02T11:00:32Z</time>
</trkpt>
<trkpt lat="40.635286666666666" lon="-3.1554116666666667">
<ele>699</ele>
<time>2017-03-02T11:00:34Z</time>
</trkpt>
<trkpt lat="40.635286666666666" lon="-3.1554116666666667">
<ele>699</ele>
<time>2017-03-02T11:00:36Z</time>
</trkpt>
<trkpt lat="40.63533333333333" lon="-3.15542">
<ele>697</ele>
<time>2017-03-02T11:00:38Z</time>
</trkpt>
<trkpt lat="40.635335000000005" lon="-3.1554216666666672">
<ele>701</ele>
<time>2017-03-02T11:00:40Z</time>
</trkpt>
<trkpt lat="40.63532" lon="-3.155418333333334">
<ele>704</ele>
<time>2017-03-02T11:00:42Z</time>
</trkpt>
<trkpt lat="40.635315" lon="-3.155406666666667">
<ele>706</ele>
<time>2017-03-02T11:00:44Z</time>
</trkpt>
<trkpt lat="40.635315" lon="-3.155406666666667">
<ele>706</ele>
<time>2017-03-02T11:00:46Z</time>
</trkpt>
<trkpt lat="40.635263333333334" lon="-3.1553583333333335">
<ele>711</ele>
<time>2017-03-02T11:00:48Z</time>
</trkpt>
<trkpt lat="40.635176666666666" lon="-3.1553216666666666">
<ele>717</ele>
<time>2017-03-02T11:00:50Z</time>
</trkpt>
<trkpt lat="40.63516333333334" lon="-3.1553416666666663">
<ele>720</ele>
<time>2017-03-02T11:00:52Z</time>
</trkpt>
<trkpt lat="40.63516666666667" lon="-3.1553516666666668">
<ele>722</ele>
<time>2017-03-02T11:00:54Z</time>
</trkpt>
<trkpt lat="40.63514166666666" lon="-3.1553566666666666">
<ele>727</ele>
<time>2017-03-02T11:00:56Z</time>
</trkpt>
<trkpt lat="40.635115000000006" lon="-3.1553500000000003">
<ele>733</ele>
<time>2017-03-02T11:00:58Z</time>
</trkpt>
<trkpt lat="40.63509166666667" lon="-3.1553566666666666">
<ele>737</ele>
<time>2017-03-02T11:01:00Z</time>
</trkpt>
<trkpt lat="40.635130000000004" lon="-3.155376666666667">
<ele>739</ele>
<time>2017-03-02T11:01:02Z</time>
</trkpt>
<trkpt lat="40.635135" lon="-3.1553566666666666">
<ele>746</ele>
<time>2017-03-02T11:01:04Z</time>
</trkpt>
<trkpt lat="40.635081666666665" lon="-3.1553299999999997">
<ele>751</ele>
<time>2017-03-02T11:01:06Z</time>
</trkpt>
<trkpt lat="40.63510833333333" lon="-3.155338333333333">
<ele>751</ele>
<time>2017-03-02T11:01:08Z</time>
</trkpt>
<trkpt lat="40.635056666666664" lon="-3.155375">
<ele>754</ele>
<time>2017-03-02T11:01:10Z</time>
</trkpt>
<trkpt lat="40.634998333333336" lon="-3.155405">
<ele>760</ele>
<time>2017-03-02T11:01:12Z</time>
</trkpt>
<trkpt lat="40.634915" lon="-3.1554450000000003">
<ele>764</ele>
<time>2017-03-02T11:01:14Z</time>
</trkpt>
<trkpt lat="40.634966666666664" lon="-3.1553949999999995">
<ele>759</ele>
<time>2017-03-02T11:01:16Z</time>
</trkpt>
<trkpt lat="40.635106666666665" lon="-3.1553200000000006">
<ele>746</ele>
<time>2017-03-02T11:01:18Z</time>
</trkpt>
<trkpt lat="40.635146666666664" lon="-3.1553133333333334">
<ele>745</ele>
<time>2017-03-02T11:01:20Z</time>
</trkpt>
<trkpt lat="40.63518" lon="-3.1553266666666664">
<ele>730</ele>
<time>2017-03-02T11:01:22Z</time>
</trkpt>
<trkpt lat="40.63514333333333" lon="-3.1553500000000003">
<ele>724</ele>
<time>2017-03-02T11:01:24Z</time>
</trkpt>
<trkpt lat="40.635128333333334" lon="-3.1553716666666665">
<ele>720</ele>
<time>2017-03-02T11:01:26Z</time>
</trkpt>
<trkpt lat="40.635104999999996" lon="-3.155375">
<ele>716</ele>
<time>2017-03-02T11:01:28Z</time>
</trkpt>
<trkpt lat="40.63512" lon="-3.1553666666666667">
<ele>715</ele>
<time>2017-03-02T11:01:30Z</time>
</trkpt>
<trkpt lat="40.63511666666667" lon="-3.1552916666666664">
<ele>714</ele>
<time>2017-03-02T11:01:32Z</time>
</trkpt>
<trkpt lat="40.63509333333333" lon="-3.155278333333334">
<ele>707</ele>
<time>2017-03-02T11:01:34Z</time>
</trkpt>
<trkpt lat="40.635086666666666" lon="-3.155273333333333">
<ele>704</ele>
<time>2017-03-02T11:01:36Z</time>
</trkpt>
<trkpt lat="40.63506833333334" lon="-3.1552750000000005">
<ele>705</ele>
<time>2017-03-02T11:01:38Z</time>
</trkpt>
<trkpt lat="40.63505833333333" lon="-3.155278333333334">
<ele>704</ele>
<time>2017-03-02T11:01:40Z</time>
</trkpt>
<trkpt lat="40.63506333333333" lon="-3.1553299999999997">
<ele>706</ele>
<time>2017-03-02T11:01:42Z</time>
</trkpt>
<trkpt lat="40.63509" lon="-3.155398333333333">
<ele>707</ele>
<time>2017-03-02T11:01:44Z</time>
</trkpt>
<trkpt lat="40.63506666666667" lon="-3.1554583333333333">
<ele>707</ele>
<time>2017-03-02T11:01:46Z</time>
</trkpt>
<trkpt lat="40.635036666666664" lon="-3.155495">
<ele>711</ele>
<time>2017-03-02T11:01:48Z</time>
</trkpt>
<trkpt lat="40.635038333333334" lon="-3.1555350000000004">
<ele>715</ele>
<time>2017-03-02T11:01:50Z</time>
</trkpt>
<trkpt lat="40.635070000000006" lon="-3.1555716666666664">
<ele>716</ele>
<time>2017-03-02T11:01:52Z</time>
</trkpt>
<trkpt lat="40.63509333333333" lon="-3.155598333333333">
<ele>716</ele>
<time>2017-03-02T11:01:54Z</time>
</trkpt>
<trkpt lat="40.63512166666667" lon="-3.155618333333334">
<ele>715</ele>
<time>2017-03-02T11:01:56Z</time>
</trkpt>
<trkpt lat="40.635125" lon="-3.1556233333333332">
<ele>714</ele>
<time>2017-03-02T11:01:58Z</time>
</trkpt>
<trkpt lat="40.63511833333334" lon="-3.1556166666666665">
<ele>714</ele>
<time>2017-03-02T11:02:00Z</time>
</trkpt>
<trkpt lat="40.63511666666667" lon="-3.1556083333333333">
<ele>714</ele>
<time>2017-03-02T11:02:02Z</time>
</trkpt>
<trkpt lat="40.63510833333333" lon="-3.1556">
<ele>716</ele>
<time>2017-03-02T11:02:04Z</time>
</trkpt>
<trkpt lat="40.63509166666667" lon="-3.1556016666666666">
<ele>718</ele>
<time>2017-03-02T11:02:06Z</time>
</trkpt>
<trkpt lat="40.635085000000004" lon="-3.1556083333333333">
<ele>718</ele>
<time>2017-03-02T11:02:08Z</time>
</trkpt>
<trkpt lat="40.63507833333333" lon="-3.155621666666667">
<ele>718</ele>
<time>2017-03-02T11:02:10Z</time>
</trkpt>
<trkpt lat="40.63507833333333" lon="-3.15562">
<ele>718</ele>
<time>2017-03-02T11:02:12Z</time>
</trkpt>
<trkpt lat="40.63507833333333" lon="-3.1556116666666667">
<ele>719</ele>
<time>2017-03-02T11:02:14Z</time>
</trkpt>
<trkpt lat="40.63507333333334" lon="-3.1556166666666665">
<ele>722</ele>
<time>2017-03-02T11:02:16Z</time>
</trkpt>
<trkpt lat="40.63507333333334" lon="-3.1556166666666665">
<ele>722</ele>
<time>2017-03-02T11:02:18Z</time>
</trkpt>
<trkpt lat="40.635086666666666" lon="-3.1556249999999997">
<ele>724</ele>
<time>2017-03-02T11:02:20Z</time>
</trkpt>
<trkpt lat="40.635101666666664" lon="-3.155618333333334">
<ele>723</ele>
<time>2017-03-02T11:02:22Z</time>
</trkpt>
<trkpt lat="40.63509333333333" lon="-3.155636666666666">
<ele>722</ele>
<time>2017-03-02T11:02:24Z</time>
</trkpt>
<trkpt lat="40.635101666666664" lon="-3.1556349999999997">
<ele>720</ele>
<time>2017-03-02T11:02:26Z</time>
</trkpt>
<trkpt lat="40.635106666666665" lon="-3.155618333333334">
<ele>719</ele>
<time>2017-03-02T11:02:28Z</time>
</trkpt>
<trkpt lat="40.635106666666665" lon="-3.155615">
<ele>717</ele>
<time>2017-03-02T11:02:30Z</time>
</trkpt>
<trkpt lat="40.635106666666665" lon="-3.155615">
<ele>717</ele>
<time>2017-03-02T11:02:32Z</time>
</trkpt>
<trkpt lat="40.635106666666665" lon="-3.155615">
<ele>717</ele>
<time>2017-03-02T11:02:34Z</time>
</trkpt>
<trkpt lat="40.63509833333333" lon="-3.155591666666667">
<ele>704</ele>
<time>2017-03-02T11:02:36Z</time>
</trkpt>
<trkpt lat="40.635088333333336" lon="-3.1555949999999995">
<ele>703</ele>
<time>2017-03-02T11:02:38Z</time>
</trkpt>
<trkpt lat="40.635088333333336" lon="-3.1555949999999995">
<ele>703</ele>
<time>2017-03-02T11:02:40Z</time>
</trkpt>
<trkpt lat="40.635088333333336" lon="-3.1555949999999995">
<ele>703</ele>
<time>2017-03-02T11:02:42Z</time>
</trkpt>
<trkpt lat="40.635088333333336" lon="-3.1555949999999995">
<ele>703</ele>
<time>2017-03-02T11:02:44Z</time>
</trkpt>
<trkpt lat="40.635088333333336" lon="-3.1555949999999995">
<ele>703</ele>
<time>2017-03-02T11:02:46Z</time>
</trkpt>
<trkpt lat="40.635088333333336" lon="-3.1555949999999995">
<ele>703</ele>
<time>2017-03-02T11:02:48Z</time>
</trkpt>
<trkpt lat="40.635130000000004" lon="-3.155561666666667">
<ele>700</ele>
<time>2017-03-02T11:02:50Z</time>
</trkpt>
<trkpt lat="40.63509166666667" lon="-3.155581666666667">
<ele>700</ele>
<time>2017-03-02T11:02:52Z</time>
</trkpt>
<trkpt lat="40.635088333333336" lon="-3.1555583333333335">
<ele>699</ele>
<time>2017-03-02T11:02:54Z</time>
</trkpt>
<trkpt lat="40.635088333333336" lon="-3.1555583333333335">
<ele>699</ele>
<time>2017-03-02T11:02:56Z</time>
</trkpt>
<trkpt lat="40.63503333333333" lon="-3.155536666666667">
<ele>702</ele>
<time>2017-03-02T11:02:58Z</time>
</trkpt>
<trkpt lat="40.635025000000006" lon="-3.1555433333333336">
<ele>705</ele>
<time>2017-03-02T11:03:00Z</time>
</trkpt>
<trkpt lat="40.635016666666665" lon="-3.1555483333333334">
<ele>705</ele>
<time>2017-03-02T11:03:02Z</time>
</trkpt>
<trkpt lat="40.63503166666667" lon="-3.155531666666667">
<ele>706</ele>
<time>2017-03-02T11:03:04Z</time>
</trkpt>
<trkpt lat="40.63500333333333" lon="-3.1555116666666665">
<ele>704</ele>
<time>2017-03-02T11:03:06Z</time>
</trkpt>
<trkpt lat="40.634969999999996" lon="-3.155488333333333">
<ele>702</ele>
<time>2017-03-02T11:03:08Z</time>
</trkpt>
<trkpt lat="40.634935000000006" lon="-3.1554666666666664">
<ele>700</ele>
<time>2017-03-02T11:03:10Z</time>
</trkpt>
<trkpt lat="40.634908333333335" lon="-3.15545">
<ele>698</ele>
<time>2017-03-02T11:03:12Z</time>
</trkpt>
<trkpt lat="40.634856666666664" lon="-3.1554383333333336">
<ele>697</ele>
<time>2017-03-02T11:03:14Z</time>
</trkpt>
<trkpt lat="40.63482333333333" lon="-3.1554266666666666">
<ele>697</ele>
<time>2017-03-02T11:03:16Z</time>
</trkpt>
<trkpt lat="40.634805" lon="-3.1554249999999997">
<ele>696</ele>
<time>2017-03-02T11:03:18Z</time>
</trkpt>
<trkpt lat="40.634785" lon="-3.1554216666666672">
<ele>696</ele>
<time>2017-03-02T11:03:20Z</time>
</trkpt>
<trkpt lat="40.63478333333333" lon="-3.1554216666666672">
<ele>695</ele>
<time>2017-03-02T11:03:22Z</time>
</trkpt>
<trkpt lat="40.63478333333333" lon="-3.1554166666666665">
<ele>695</ele>
<time>2017-03-02T11:03:24Z</time>
</trkpt>
<trkpt lat="40.63478333333333" lon="-3.1554166666666665">
<ele>695</ele>
<time>2017-03-02T11:03:26Z</time>
</trkpt>
<trkpt lat="40.63478333333333" lon="-3.1554166666666665">
<ele>695</ele>
<time>2017-03-02T11:03:28Z</time>
</trkpt>
<trkpt lat="40.63478333333333" lon="-3.1554166666666665">
<ele>695</ele>
<time>2017-03-02T11:03:30Z</time>
</trkpt>
<trkpt lat="40.63478333333333" lon="-3.1554166666666665">
<ele>695</ele>
<time>2017-03-02T11:03:32Z</time>
</trkpt>
<trkpt lat="40.634685" lon="-3.15542">
<ele>698</ele>
<time>2017-03-02T11:03:34Z</time>
</trkpt>
<trkpt lat="40.63469333333333" lon="-3.1554099999999994">
<ele>698</ele>
<time>2017-03-02T11:03:36Z</time>
</trkpt>
<trkpt lat="40.63469333333333" lon="-3.1554016666666667">
<ele>698</ele>
<time>2017-03-02T11:03:38Z</time>
</trkpt>
<trkpt lat="40.634685" lon="-3.1554099999999994">
<ele>699</ele>
<time>2017-03-02T11:03:40Z</time>
</trkpt>
<trkpt lat="40.63467" lon="-3.1553949999999995">
<ele>700</ele>
<time>2017-03-02T11:03:42Z</time>
</trkpt>
<trkpt lat="40.63464833333333" lon="-3.1553583333333335">
<ele>700</ele>
<time>2017-03-02T11:03:44Z</time>
</trkpt>
<trkpt lat="40.63467166666667" lon="-3.155241666666667">
<ele>694</ele>
<time>2017-03-02T11:03:46Z</time>
</trkpt>
<trkpt lat="40.634728333333335" lon="-3.1550833333333332">
<ele>685</ele>
<time>2017-03-02T11:03:48Z</time>
</trkpt>
<trkpt lat="40.63484833333334" lon="-3.154976666666667">
<ele>675</ele>
<time>2017-03-02T11:03:50Z</time>
</trkpt>
<trkpt lat="40.63491666666666" lon="-3.1548466666666664">
<ele>665</ele>
<time>2017-03-02T11:03:52Z</time>
</trkpt>
<trkpt lat="40.63492833333333" lon="-3.1548816666666664">
<ele>698</ele>
<time>2017-03-02T11:03:54Z</time>
</trkpt>
<trkpt lat="40.63488333333333" lon="-3.1548766666666666">
<ele>697</ele>
<time>2017-03-02T11:03:56Z</time>
</trkpt>
<trkpt lat="40.634906666666666" lon="-3.154838333333333">
<ele>696</ele>
<time>2017-03-02T11:03:58Z</time>
</trkpt>
<trkpt lat="40.634935000000006" lon="-3.1548166666666666">
<ele>696</ele>
<time>2017-03-02T11:04:00Z</time>
</trkpt>
<trkpt lat="40.634906666666666" lon="-3.154865">
<ele>694</ele>
<time>2017-03-02T11:04:02Z</time>
</trkpt>
<trkpt lat="40.63486" lon="-3.1549183333333333">
<ele>693</ele>
<time>2017-03-02T11:04:04Z</time>
</trkpt>
<trkpt lat="40.63482833333333" lon="-3.154978333333333">
<ele>693</ele>
<time>2017-03-02T11:04:06Z</time>
</trkpt>
<trkpt lat="40.63483833333333" lon="-3.1550183333333335">
<ele>693</ele>
<time>2017-03-02T11:04:08Z</time>
</trkpt>
<trkpt lat="40.63486666666667" lon="-3.1550466666666663">
<ele>693</ele>
<time>2017-03-02T11:04:10Z</time>
</trkpt>
<trkpt lat="40.63487833333333" lon="-3.1550633333333336">
<ele>693</ele>
<time>2017-03-02T11:04:12Z</time>
</trkpt>
<trkpt lat="40.63486666666667" lon="-3.1550750000000005">
<ele>692</ele>
<time>2017-03-02T11:04:14Z</time>
</trkpt>
<trkpt lat="40.63485333333333" lon="-3.1550766666666665">
<ele>692</ele>
<time>2017-03-02T11:04:16Z</time>
</trkpt>
<trkpt lat="40.63427166666667" lon="-3.1537800000000002">
<ele>688</ele>
<time>2017-03-02T11:04:18Z</time>
</trkpt>
<trkpt lat="40.633981666666664" lon="-3.153286666666667">
<ele>682</ele>
<time>2017-03-02T11:04:20Z</time>
</trkpt>
<trkpt lat="40.634185" lon="-3.153953333333333">
<ele>657</ele>
<time>2017-03-02T11:04:22Z</time>
</trkpt>
<trkpt lat="40.634321666666665" lon="-3.154501666666667">
<ele>655</ele>
<time>2017-03-02T11:04:24Z</time>
</trkpt>
<trkpt lat="40.63441833333333" lon="-3.154488333333333">
<ele>645</ele>
<time>2017-03-02T11:04:26Z</time>
</trkpt>
<trkpt lat="40.63444666666667" lon="-3.1546966666666663">
<ele>647</ele>
<time>2017-03-02T11:04:28Z</time>
</trkpt>
<trkpt lat="40.634425" lon="-3.1549066666666667">
<ele>651</ele>
<time>2017-03-02T11:04:30Z</time>
</trkpt>
<trkpt lat="40.63440333333333" lon="-3.154915">
<ele>651</ele>
<time>2017-03-02T11:04:32Z</time>
</trkpt>
<trkpt lat="40.63439833333334" lon="-3.1548983333333336">
<ele>652</ele>
<time>2017-03-02T11:04:34Z</time>
</trkpt>
<trkpt lat="40.63442666666666" lon="-3.154916666666667">
<ele>657</ele>
<time>2017-03-02T11:04:36Z</time>
</trkpt>
<trkpt lat="40.63446" lon="-3.154955">
<ele>669</ele>
<time>2017-03-02T11:04:38Z</time>
</trkpt>
<trkpt lat="40.63444833333333" lon="-3.1549650000000002">
<ele>674</ele>
<time>2017-03-02T11:04:40Z</time>
</trkpt>
<trkpt lat="40.634431666666664" lon="-3.1549816666666666">
<ele>679</ele>
<time>2017-03-02T11:04:42Z</time>
</trkpt>
<trkpt lat="40.63445166666667" lon="-3.1550000000000002">
<ele>685</ele>
<time>2017-03-02T11:04:44Z</time>
</trkpt>
<trkpt lat="40.63444166666667" lon="-3.1550099999999994">
<ele>688</ele>
<time>2017-03-02T11:04:46Z</time>
</trkpt>
<trkpt lat="40.63444333333334" lon="-3.1550216666666673">
<ele>691</ele>
<time>2017-03-02T11:04:48Z</time>
</trkpt>
<trkpt lat="40.63444666666667" lon="-3.155028333333333">
<ele>693</ele>
<time>2017-03-02T11:04:50Z</time>
</trkpt>
<trkpt lat="40.63446" lon="-3.1550316666666665">
<ele>696</ele>
<time>2017-03-02T11:04:52Z</time>
</trkpt>
<trkpt lat="40.63446" lon="-3.1550316666666665">
<ele>696</ele>
<time>2017-03-02T11:04:54Z</time>
</trkpt>
<trkpt lat="40.63446" lon="-3.1550316666666665">
<ele>696</ele>
<time>2017-03-02T11:04:56Z</time>
</trkpt>
<trkpt lat="40.63446" lon="-3.1550316666666665">
<ele>696</ele>
<time>2017-03-02T11:04:58Z</time>
</trkpt>
<trkpt lat="40.634476666666664" lon="-3.154993333333333">
<ele>700</ele>
<time>2017-03-02T11:05:00Z</time>
</trkpt>
<trkpt lat="40.63448166666667" lon="-3.154978333333333">
<ele>703</ele>
<time>2017-03-02T11:05:02Z</time>
</trkpt>
<trkpt lat="40.63449166666667" lon="-3.154968333333333">
<ele>707</ele>
<time>2017-03-02T11:05:04Z</time>
</trkpt>
<trkpt lat="40.63449666666667" lon="-3.154953333333333">
<ele>710</ele>
<time>2017-03-02T11:05:06Z</time>
</trkpt>
<trkpt lat="40.634505" lon="-3.154938333333333">
<ele>713</ele>
<time>2017-03-02T11:05:08Z</time>
</trkpt>
<trkpt lat="40.63450666666667" lon="-3.1548900000000004">
<ele>716</ele>
<time>2017-03-02T11:05:10Z</time>
</trkpt>
<trkpt lat="40.6345" lon="-3.1548466666666664">
<ele>719</ele>
<time>2017-03-02T11:05:12Z</time>
</trkpt>
<trkpt lat="40.63449166666667" lon="-3.1548549999999995">
<ele>722</ele>
<time>2017-03-02T11:05:14Z</time>
</trkpt>
<trkpt lat="40.634465" lon="-3.1548900000000004">
<ele>721</ele>
<time>2017-03-02T11:05:16Z</time>
</trkpt>
<trkpt lat="40.634458333333335" lon="-3.154888333333333">
<ele>710</ele>
<time>2017-03-02T11:05:18Z</time>
</trkpt>
<trkpt lat="40.63447166666666" lon="-3.1548816666666664">
<ele>700</ele>
<time>2017-03-02T11:05:20Z</time>
</trkpt>
<trkpt lat="40.63446833333333" lon="-3.1548616666666667">
<ele>701</ele>
<time>2017-03-02T11:05:22Z</time>
</trkpt>
<trkpt lat="40.634483333333336" lon="-3.154838333333333">
<ele>700</ele>
<time>2017-03-02T11:05:24Z</time>
</trkpt>
<trkpt lat="40.634495" lon="-3.1548249999999998">
<ele>701</ele>
<time>2017-03-02T11:05:26Z</time>
</trkpt>
<trkpt lat="40.63450666666667" lon="-3.154811666666667">
<ele>700</ele>
<time>2017-03-02T11:05:28Z</time>
</trkpt>
<trkpt lat="40.634530000000005" lon="-3.154806666666667">
<ele>699</ele>
<time>2017-03-02T11:05:30Z</time>
</trkpt>
<trkpt lat="40.63458" lon="-3.1548316666666665">
<ele>698</ele>
<time>2017-03-02T11:05:32Z</time>
</trkpt>
<trkpt lat="40.63465166666666" lon="-3.1548849999999997">
<ele>698</ele>
<time>2017-03-02T11:05:34Z</time>
</trkpt>
<trkpt lat="40.634791666666665" lon="-3.1548966666666662">
<ele>698</ele>
<time>2017-03-02T11:05:36Z</time>
</trkpt>
<trkpt lat="40.634946666666664" lon="-3.154886666666667">
<ele>698</ele>
<time>2017-03-02T11:05:38Z</time>
</trkpt>
<trkpt lat="40.63503" lon="-3.154888333333333">
<ele>698</ele>
<time>2017-03-02T11:05:40Z</time>
</trkpt>
<trkpt lat="40.63506666666667" lon="-3.1548900000000004">
<ele>698</ele>
<time>2017-03-02T11:05:42Z</time>
</trkpt>
<trkpt lat="40.63498333333334" lon="-3.1548683333333334">
<ele>698</ele>
<time>2017-03-02T11:05:44Z</time>
</trkpt>
<trkpt lat="40.63496166666666" lon="-3.154858333333333">
<ele>698</ele>
<time>2017-03-02T11:05:46Z</time>
</trkpt>
<trkpt lat="40.63491333333333" lon="-3.154858333333333">
<ele>698</ele>
<time>2017-03-02T11:05:48Z</time>
</trkpt>
<trkpt lat="40.634856666666664" lon="-3.154856666666667">
<ele>698</ele>
<time>2017-03-02T11:05:50Z</time>
</trkpt>
<trkpt lat="40.63474333333333" lon="-3.15486">
<ele>697</ele>
<time>2017-03-02T11:05:52Z</time>
</trkpt>
<trkpt lat="40.634661666666666" lon="-3.15485">
<ele>697</ele>
<time>2017-03-02T11:05:54Z</time>
</trkpt>
<trkpt lat="40.634638333333335" lon="-3.15483">
<ele>697</ele>
<time>2017-03-02T11:05:56Z</time>
</trkpt>
<trkpt lat="40.634618333333336" lon="-3.154828333333333">
<ele>697</ele>
<time>2017-03-02T11:05:58Z</time>
</trkpt>
<trkpt lat="40.634625" lon="-3.154835">
<ele>697</ele>
<time>2017-03-02T11:06:00Z</time>
</trkpt>
<trkpt lat="40.634605" lon="-3.1548399999999996">
<ele>697</ele>
<time>2017-03-02T11:06:02Z</time>
</trkpt>
<trkpt lat="40.63457833333334" lon="-3.154828333333333">
<ele>697</ele>
<time>2017-03-02T11:06:04Z</time>
</trkpt>
<trkpt lat="40.63457833333334" lon="-3.154828333333333">
<ele>697</ele>
<time>2017-03-02T11:06:06Z</time>
</trkpt>
<trkpt lat="40.63457833333334" lon="-3.154828333333333">
<ele>697</ele>
<time>2017-03-02T11:06:08Z</time>
</trkpt>
<trkpt lat="40.634515" lon="-3.154746666666667">
<ele>696</ele>
<time>2017-03-02T11:06:10Z</time>
</trkpt>
<trkpt lat="40.634495" lon="-3.154711666666666">
<ele>696</ele>
<time>2017-03-02T11:06:12Z</time>
</trkpt>
<trkpt lat="40.634465" lon="-3.1547500000000004">
<ele>696</ele>
<time>2017-03-02T11:06:14Z</time>
</trkpt>
<trkpt lat="40.634440000000005" lon="-3.15476">
<ele>696</ele>
<time>2017-03-02T11:06:16Z</time>
</trkpt>
<trkpt lat="40.63440666666667" lon="-3.1547800000000006">
<ele>696</ele>
<time>2017-03-02T11:06:18Z</time>
</trkpt>
<trkpt lat="40.634440000000005" lon="-3.154785">
<ele>696</ele>
<time>2017-03-02T11:06:20Z</time>
</trkpt>
<trkpt lat="40.63444166666667" lon="-3.15477">
<ele>696</ele>
<time>2017-03-02T11:06:22Z</time>
</trkpt>
<trkpt lat="40.63449833333333" lon="-3.1547433333333337">
<ele>695</ele>
<time>2017-03-02T11:06:24Z</time>
</trkpt>
<trkpt lat="40.634545" lon="-3.1546983333333336">
<ele>694</ele>
<time>2017-03-02T11:06:26Z</time>
</trkpt>
<trkpt lat="40.634566666666665" lon="-3.15467">
<ele>694</ele>
<time>2017-03-02T11:06:28Z</time>
</trkpt>
<trkpt lat="40.634593333333335" lon="-3.154651666666667">
<ele>694</ele>
<time>2017-03-02T11:06:30Z</time>
</trkpt>
<trkpt lat="40.63461333333333" lon="-3.154643333333333">
<ele>694</ele>
<time>2017-03-02T11:06:32Z</time>
</trkpt>
<trkpt lat="40.634620000000005" lon="-3.154641666666667">
<ele>694</ele>
<time>2017-03-02T11:06:34Z</time>
</trkpt>
<trkpt lat="40.634620000000005" lon="-3.154641666666667">
<ele>694</ele>
<time>2017-03-02T11:06:36Z</time>
</trkpt>
<trkpt lat="40.634620000000005" lon="-3.154641666666667">
<ele>694</ele>
<time>2017-03-02T11:06:38Z</time>
</trkpt>
<trkpt lat="40.634620000000005" lon="-3.154641666666667">
<ele>694</ele>
<time>2017-03-02T11:06:40Z</time>
</trkpt>
<trkpt lat="40.634620000000005" lon="-3.154641666666667">
<ele>694</ele>
<time>2017-03-02T11:06:42Z</time>
</trkpt>
<trkpt lat="40.634620000000005" lon="-3.154641666666667">
<ele>694</ele>
<time>2017-03-02T11:06:44Z</time>
</trkpt>
<trkpt lat="40.634620000000005" lon="-3.154641666666667">
<ele>694</ele>
<time>2017-03-02T11:06:46Z</time>
</trkpt>
<trkpt lat="40.634620000000005" lon="-3.154641666666667">
<ele>694</ele>
<time>2017-03-02T11:06:48Z</time>
</trkpt>
<trkpt lat="40.634620000000005" lon="-3.154641666666667">
<ele>694</ele>
<time>2017-03-02T11:06:50Z</time>
</trkpt>
<trkpt lat="40.634710000000005" lon="-3.1546616666666667">
<ele>695</ele>
<time>2017-03-02T11:06:52Z</time>
</trkpt>
<trkpt lat="40.634681666666665" lon="-3.1546600000000002">
<ele>695</ele>
<time>2017-03-02T11:06:54Z</time>
</trkpt>
<trkpt lat="40.634654999999995" lon="-3.154665">
<ele>695</ele>
<time>2017-03-02T11:06:56Z</time>
</trkpt>
<trkpt lat="40.634593333333335" lon="-3.154716666666667">
<ele>695</ele>
<time>2017-03-02T11:06:58Z</time>
</trkpt>
<trkpt lat="40.63457166666667" lon="-3.154751666666667">
<ele>695</ele>
<time>2017-03-02T11:07:00Z</time>
</trkpt>
<trkpt lat="40.634570000000004" lon="-3.1547800000000006">
<ele>695</ele>
<time>2017-03-02T11:07:02Z</time>
</trkpt>
<trkpt lat="40.63456333333333" lon="-3.154811666666667">
<ele>696</ele>
<time>2017-03-02T11:07:04Z</time>
</trkpt>
<trkpt lat="40.63456833333333" lon="-3.1548450000000003">
<ele>696</ele>
<time>2017-03-02T11:07:06Z</time>
</trkpt>
<trkpt lat="40.634595" lon="-3.1548983333333336">
<ele>696</ele>
<time>2017-03-02T11:07:08Z</time>
</trkpt>
<trkpt lat="40.63462166666667" lon="-3.154948333333333">
<ele>696</ele>
<time>2017-03-02T11:07:10Z</time>
</trkpt>
<trkpt lat="40.63463166666667" lon="-3.154976666666667">
<ele>696</ele>
<time>2017-03-02T11:07:12Z</time>
</trkpt>
<trkpt lat="40.634635" lon="-3.155006666666667">
<ele>696</ele>
<time>2017-03-02T11:07:14Z</time>
</trkpt>
<trkpt lat="40.63461666666667" lon="-3.155033333333334">
<ele>696</ele>
<time>2017-03-02T11:07:16Z</time>
</trkpt>
<trkpt lat="40.634566666666665" lon="-3.155035">
<ele>696</ele>
<time>2017-03-02T11:07:18Z</time>
</trkpt>
<trkpt lat="40.63456166666666" lon="-3.155033333333334">
<ele>696</ele>
<time>2017-03-02T11:07:20Z</time>
</trkpt>
<trkpt lat="40.63456166666666" lon="-3.155033333333334">
<ele>696</ele>
<time>2017-03-02T11:07:22Z</time>
</trkpt>
<trkpt lat="40.63456166666666" lon="-3.155033333333334">
<ele>696</ele>
<time>2017-03-02T11:07:24Z</time>
</trkpt>
<trkpt lat="40.63456166666666" lon="-3.155033333333334">
<ele>696</ele>
<time>2017-03-02T11:07:26Z</time>
</trkpt>
<trkpt lat="40.634548333333335" lon="-3.154996666666667">
<ele>697</ele>
<time>2017-03-02T11:07:28Z</time>
</trkpt>
<trkpt lat="40.63453833333333" lon="-3.1550399999999996">
<ele>697</ele>
<time>2017-03-02T11:07:30Z</time>
</trkpt>
<trkpt lat="40.63453333333334" lon="-3.155065">
<ele>697</ele>
<time>2017-03-02T11:07:32Z</time>
</trkpt>
<trkpt lat="40.63453333333334" lon="-3.155065">
<ele>697</ele>
<time>2017-03-02T11:07:34Z</time>
</trkpt>
<trkpt lat="40.63453333333334" lon="-3.155065">
<ele>697</ele>
<time>2017-03-02T11:07:36Z</time>
</trkpt>
<trkpt lat="40.63449166666667" lon="-3.155183333333333">
<ele>698</ele>
<time>2017-03-02T11:07:38Z</time>
</trkpt>
<trkpt lat="40.63451" lon="-3.1551733333333334">
<ele>698</ele>
<time>2017-03-02T11:07:40Z</time>
</trkpt>
<trkpt lat="40.63451" lon="-3.1551733333333334">
<ele>698</ele>
<time>2017-03-02T11:07:42Z</time>
</trkpt>
<trkpt lat="40.63451" lon="-3.1551733333333334">
<ele>698</ele>
<time>2017-03-02T11:07:44Z</time>
</trkpt>
<trkpt lat="40.63451" lon="-3.1551733333333334">
<ele>698</ele>
<time>2017-03-02T11:07:46Z</time>
</trkpt>
<trkpt lat="40.63451" lon="-3.1551733333333334">
<ele>698</ele>
<time>2017-03-02T11:07:48Z</time>
</trkpt>
<trkpt lat="40.634585" lon="-3.1550999999999996">
<ele>698</ele>
<time>2017-03-02T11:07:50Z</time>
</trkpt>
<trkpt lat="40.63458333333333" lon="-3.155088333333333">
<ele>698</ele>
<time>2017-03-02T11:07:52Z</time>
</trkpt>
<trkpt lat="40.634585" lon="-3.1550849999999997">
<ele>698</ele>
<time>2017-03-02T11:07:54Z</time>
</trkpt>
<trkpt lat="40.634585" lon="-3.1550849999999997">
<ele>698</ele>
<time>2017-03-02T11:07:56Z</time>
</trkpt>
<trkpt lat="40.634585" lon="-3.1550849999999997">
<ele>698</ele>
<time>2017-03-02T11:07:58Z</time>
</trkpt>
<trkpt lat="40.634585" lon="-3.1550849999999997">
<ele>698</ele>
<time>2017-03-02T11:08:00Z</time>
</trkpt>
<trkpt lat="40.634585" lon="-3.1550849999999997">
<ele>698</ele>
<time>2017-03-02T11:08:02Z</time>
</trkpt>
<trkpt lat="40.634585" lon="-3.1550849999999997">
<ele>698</ele>
<time>2017-03-02T11:08:04Z</time>
</trkpt>
<trkpt lat="40.634585" lon="-3.1550849999999997">
<ele>698</ele>
<time>2017-03-02T11:08:06Z</time>
</trkpt>
<trkpt lat="40.634555" lon="-3.1550816666666663">
<ele>696</ele>
<time>2017-03-02T11:08:08Z</time>
</trkpt>
<trkpt lat="40.634521666666664" lon="-3.1550616666666667">
<ele>696</ele>
<time>2017-03-02T11:08:10Z</time>
</trkpt>
<trkpt lat="40.63453833333333" lon="-3.1550300000000004">
<ele>696</ele>
<time>2017-03-02T11:08:12Z</time>
</trkpt>
<trkpt lat="40.634575000000005" lon="-3.1549883333333337">
<ele>696</ele>
<time>2017-03-02T11:08:14Z</time>
</trkpt>
<trkpt lat="40.634570000000004" lon="-3.1549633333333333">
<ele>696</ele>
<time>2017-03-02T11:08:16Z</time>
</trkpt>
<trkpt lat="40.634570000000004" lon="-3.1549633333333333">
<ele>696</ele>
<time>2017-03-02T11:08:18Z</time>
</trkpt>
<trkpt lat="40.63461333333333" lon="-3.15491">
<ele>696</ele>
<time>2017-03-02T11:08:20Z</time>
</trkpt>
<trkpt lat="40.63461666666667" lon="-3.15487">
<ele>698</ele>
<time>2017-03-02T11:08:22Z</time>
</trkpt>
<trkpt lat="40.634609999999995" lon="-3.154851666666666">
<ele>699</ele>
<time>2017-03-02T11:08:24Z</time>
</trkpt>
<trkpt lat="40.63459833333333" lon="-3.1548266666666667">
<ele>700</ele>
<time>2017-03-02T11:08:26Z</time>
</trkpt>
<trkpt lat="40.63459" lon="-3.154798333333333">
<ele>701</ele>
<time>2017-03-02T11:08:28Z</time>
</trkpt>
<trkpt lat="40.63458166666667" lon="-3.1547800000000006">
<ele>702</ele>
<time>2017-03-02T11:08:30Z</time>
</trkpt>
<trkpt lat="40.63458" lon="-3.1547816666666666">
<ele>703</ele>
<time>2017-03-02T11:08:32Z</time>
</trkpt>
<trkpt lat="40.63457833333334" lon="-3.1548266666666667">
<ele>704</ele>
<time>2017-03-02T11:08:34Z</time>
</trkpt>
<trkpt lat="40.63458333333333" lon="-3.154836666666667">
<ele>705</ele>
<time>2017-03-02T11:08:36Z</time>
</trkpt>
<trkpt lat="40.63458666666667" lon="-3.154835">
<ele>707</ele>
<time>2017-03-02T11:08:38Z</time>
</trkpt>
<trkpt lat="40.63458666666667" lon="-3.1548466666666664">
<ele>708</ele>
<time>2017-03-02T11:08:40Z</time>
</trkpt>
<trkpt lat="40.63458666666667" lon="-3.1548466666666664">
<ele>708</ele>
<time>2017-03-02T11:08:42Z</time>
</trkpt>
<trkpt lat="40.63458666666667" lon="-3.1548466666666664">
<ele>708</ele>
<time>2017-03-02T11:08:44Z</time>
</trkpt>
<trkpt lat="40.63458666666667" lon="-3.1548466666666664">
<ele>708</ele>
<time>2017-03-02T11:08:46Z</time>
</trkpt>
<trkpt lat="40.63458666666667" lon="-3.1548466666666664">
<ele>708</ele>
<time>2017-03-02T11:08:48Z</time>
</trkpt>
<trkpt lat="40.63458666666667" lon="-3.1548466666666664">
<ele>708</ele>
<time>2017-03-02T11:08:50Z</time>
</trkpt>
<trkpt lat="40.63458666666667" lon="-3.1548466666666664">
<ele>708</ele>
<time>2017-03-02T11:08:52Z</time>
</trkpt>
<trkpt lat="40.63458666666667" lon="-3.1548466666666664">
<ele>708</ele>
<time>2017-03-02T11:08:54Z</time>
</trkpt>
<trkpt lat="40.63458666666667" lon="-3.1548466666666664">
<ele>708</ele>
<time>2017-03-02T11:08:56Z</time>
</trkpt>
<trkpt lat="40.63458666666667" lon="-3.1548466666666664">
<ele>708</ele>
<time>2017-03-02T11:08:58Z</time>
</trkpt>
<trkpt lat="40.63458666666667" lon="-3.1548466666666664">
<ele>708</ele>
<time>2017-03-02T11:09:00Z</time>
</trkpt>
<trkpt lat="40.634519999999995" lon="-3.154938333333333">
<ele>717</ele>
<time>2017-03-02T11:09:02Z</time>
</trkpt>
<trkpt lat="40.63452666666667" lon="-3.1549500000000004">
<ele>717</ele>
<time>2017-03-02T11:09:04Z</time>
</trkpt>
<trkpt lat="40.63452666666667" lon="-3.1549500000000004">
<ele>717</ele>
<time>2017-03-02T11:09:06Z</time>
</trkpt>
<trkpt lat="40.63452666666667" lon="-3.1549500000000004">
<ele>717</ele>
<time>2017-03-02T11:09:08Z</time>
</trkpt>
<trkpt lat="40.63452666666667" lon="-3.1549500000000004">
<ele>717</ele>
<time>2017-03-02T11:09:10Z</time>
</trkpt>
<trkpt lat="40.63452666666667" lon="-3.1549500000000004">
<ele>717</ele>
<time>2017-03-02T11:09:12Z</time>
</trkpt>
<trkpt lat="40.63452666666667" lon="-3.1549500000000004">
<ele>717</ele>
<time>2017-03-02T11:09:14Z</time>
</trkpt>
<trkpt lat="40.63452666666667" lon="-3.1549500000000004">
<ele>717</ele>
<time>2017-03-02T11:09:16Z</time>
</trkpt>
<trkpt lat="40.63452666666667" lon="-3.1549500000000004">
<ele>717</ele>
<time>2017-03-02T11:09:18Z</time>
</trkpt>
<trkpt lat="40.63452666666667" lon="-3.1549500000000004">
<ele>717</ele>
<time>2017-03-02T11:09:20Z</time>
</trkpt>
<trkpt lat="40.634485000000005" lon="-3.15491">
<ele>716</ele>
<time>2017-03-02T11:09:22Z</time>
</trkpt>
<trkpt lat="40.63447333333333" lon="-3.1548833333333333">
<ele>716</ele>
<time>2017-03-02T11:09:24Z</time>
</trkpt>
<trkpt lat="40.634465" lon="-3.15486">
<ele>715</ele>
<time>2017-03-02T11:09:26Z</time>
</trkpt>
<trkpt lat="40.634440000000005" lon="-3.15485">
<ele>715</ele>
<time>2017-03-02T11:09:28Z</time>
</trkpt>
<trkpt lat="40.634429999999995" lon="-3.154851666666666">
<ele>715</ele>
<time>2017-03-02T11:09:30Z</time>
</trkpt>
<trkpt lat="40.634465" lon="-3.154851666666666">
<ele>715</ele>
<time>2017-03-02T11:09:32Z</time>
</trkpt>
<trkpt lat="40.634495" lon="-3.1548716666666667">
<ele>714</ele>
<time>2017-03-02T11:09:34Z</time>
</trkpt>
<trkpt lat="40.634495" lon="-3.1548716666666667">
<ele>714</ele>
<time>2017-03-02T11:09:36Z</time>
</trkpt>
<trkpt lat="40.634495" lon="-3.1548716666666667">
<ele>714</ele>
<time>2017-03-02T11:09:38Z</time>
</trkpt>
<trkpt lat="40.634546666666665" lon="-3.154951666666667">
<ele>713</ele>
<time>2017-03-02T11:09:40Z</time>
</trkpt>
<trkpt lat="40.634570000000004" lon="-3.154996666666667">
<ele>713</ele>
<time>2017-03-02T11:09:42Z</time>
</trkpt>
<trkpt lat="40.634605" lon="-3.1550549999999995">
<ele>713</ele>
<time>2017-03-02T11:09:44Z</time>
</trkpt>
<trkpt lat="40.63463333333333" lon="-3.1550983333333336">
<ele>713</ele>
<time>2017-03-02T11:09:46Z</time>
</trkpt>
<trkpt lat="40.634656666666665" lon="-3.155131666666667">
<ele>713</ele>
<time>2017-03-02T11:09:48Z</time>
</trkpt>
<trkpt lat="40.63467" lon="-3.15516">
<ele>712</ele>
<time>2017-03-02T11:09:50Z</time>
</trkpt>
<trkpt lat="40.634676666666664" lon="-3.1551716666666665">
<ele>712</ele>
<time>2017-03-02T11:09:52Z</time>
</trkpt>
<trkpt lat="40.634645" lon="-3.155151666666667">
<ele>712</ele>
<time>2017-03-02T11:09:54Z</time>
</trkpt>
<trkpt lat="40.634611666666665" lon="-3.1551416666666663">
<ele>712</ele>
<time>2017-03-02T11:09:56Z</time>
</trkpt>
<trkpt lat="40.634591666666665" lon="-3.1551350000000005">
<ele>712</ele>
<time>2017-03-02T11:09:58Z</time>
</trkpt>
<trkpt lat="40.63457166666667" lon="-3.1551216666666666">
<ele>712</ele>
<time>2017-03-02T11:10:00Z</time>
</trkpt>
<trkpt lat="40.634546666666665" lon="-3.155095">
<ele>712</ele>
<time>2017-03-02T11:10:02Z</time>
</trkpt>
<trkpt lat="40.63451166666667" lon="-3.155078333333334">
<ele>712</ele>
<time>2017-03-02T11:10:04Z</time>
</trkpt>
<trkpt lat="40.63449" lon="-3.1550716666666667">
<ele>712</ele>
<time>2017-03-02T11:10:06Z</time>
</trkpt>
<trkpt lat="40.634483333333336" lon="-3.1550716666666667">
<ele>712</ele>
<time>2017-03-02T11:10:08Z</time>
</trkpt>
<trkpt lat="40.634476666666664" lon="-3.1550816666666663">
<ele>712</ele>
<time>2017-03-02T11:10:10Z</time>
</trkpt>
<trkpt lat="40.63447" lon="-3.155043333333333">
<ele>712</ele>
<time>2017-03-02T11:10:12Z</time>
</trkpt>
<trkpt lat="40.63447333333333" lon="-3.1550099999999994">
<ele>712</ele>
<time>2017-03-02T11:10:14Z</time>
</trkpt>
<trkpt lat="40.63449166666667" lon="-3.1550216666666673">
<ele>712</ele>
<time>2017-03-02T11:10:16Z</time>
</trkpt>
<trkpt lat="40.634985" lon="-3.155568333333333">
<ele>688</ele>
<time>2017-03-02T11:10:36Z</time>
</trkpt>
<trkpt lat="40.63492833333333" lon="-3.155606666666667">
<ele>698</ele>
<time>2017-03-02T11:10:38Z</time>
</trkpt>
<trkpt lat="40.63489666666667" lon="-3.1556683333333333">
<ele>695</ele>
<time>2017-03-02T11:10:40Z</time>
</trkpt>
<trkpt lat="40.63492" lon="-3.1557583333333334">
<ele>692</ele>
<time>2017-03-02T11:10:42Z</time>
</trkpt>
<trkpt lat="40.63489833333333" lon="-3.1557866666666663">
<ele>692</ele>
<time>2017-03-02T11:10:44Z</time>
</trkpt>
<trkpt lat="40.634863333333335" lon="-3.15579">
<ele>692</ele>
<time>2017-03-02T11:10:46Z</time>
</trkpt>
<trkpt lat="40.63482666666666" lon="-3.155805">
<ele>691</ele>
<time>2017-03-02T11:10:48Z</time>
</trkpt>
<trkpt lat="40.634800000000006" lon="-3.15581">
<ele>691</ele>
<time>2017-03-02T11:10:50Z</time>
</trkpt>
<trkpt lat="40.634785" lon="-3.1558450000000002">
<ele>691</ele>
<time>2017-03-02T11:10:52Z</time>
</trkpt>
<trkpt lat="40.634785" lon="-3.155871666666667">
<ele>692</ele>
<time>2017-03-02T11:10:54Z</time>
</trkpt>
<trkpt lat="40.634645" lon="-3.1558900000000003">
<ele>693</ele>
<time>2017-03-02T11:10:56Z</time>
</trkpt>
<trkpt lat="40.63458666666667" lon="-3.155936666666667">
<ele>693</ele>
<time>2017-03-02T11:10:58Z</time>
</trkpt>
<trkpt lat="40.63458666666667" lon="-3.1559516666666667">
<ele>693</ele>
<time>2017-03-02T11:11:00Z</time>
</trkpt>
<trkpt lat="40.63460666666666" lon="-3.1559799999999996">
<ele>694</ele>
<time>2017-03-02T11:11:02Z</time>
</trkpt>
<trkpt lat="40.634609999999995" lon="-3.1560333333333337">
<ele>696</ele>
<time>2017-03-02T11:11:04Z</time>
</trkpt>
<trkpt lat="40.634609999999995" lon="-3.156058333333333">
<ele>697</ele>
<time>2017-03-02T11:11:06Z</time>
</trkpt>
<trkpt lat="40.63460833333333" lon="-3.1560816666666662">
<ele>699</ele>
<time>2017-03-02T11:11:08Z</time>
</trkpt>
<trkpt lat="40.63460833333333" lon="-3.1560816666666662">
<ele>699</ele>
<time>2017-03-02T11:11:10Z</time>
</trkpt>
<trkpt lat="40.63460833333333" lon="-3.1560816666666662">
<ele>699</ele>
<time>2017-03-02T11:11:12Z</time>
</trkpt>
<trkpt lat="40.63460833333333" lon="-3.1560816666666662">
<ele>699</ele>
<time>2017-03-02T11:11:14Z</time>
</trkpt>
<trkpt lat="40.63460833333333" lon="-3.1560816666666662">
<ele>699</ele>
<time>2017-03-02T11:11:16Z</time>
</trkpt>
<trkpt lat="40.63460833333333" lon="-3.1560816666666662">
<ele>699</ele>
<time>2017-03-02T11:11:18Z</time>
</trkpt>
<trkpt lat="40.634503333333335" lon="-3.155981666666667">
<ele>701</ele>
<time>2017-03-02T11:11:20Z</time>
</trkpt>
<trkpt lat="40.634519999999995" lon="-3.1557666666666666">
<ele>701</ele>
<time>2017-03-02T11:11:22Z</time>
</trkpt>
<trkpt lat="40.634575000000005" lon="-3.1554983333333335">
<ele>701</ele>
<time>2017-03-02T11:11:24Z</time>
</trkpt>
<trkpt lat="40.63464166666667" lon="-3.1552116666666667">
<ele>701</ele>
<time>2017-03-02T11:11:26Z</time>
</trkpt>
<trkpt lat="40.634699999999995" lon="-3.15491">
<ele>701</ele>
<time>2017-03-02T11:11:28Z</time>
</trkpt>
<trkpt lat="40.63477" lon="-3.1546233333333333">
<ele>700</ele>
<time>2017-03-02T11:11:30Z</time>
</trkpt>
<trkpt lat="40.63484166666667" lon="-3.1543666666666668">
<ele>700</ele>
<time>2017-03-02T11:11:32Z</time>
</trkpt>
<trkpt lat="40.63479666666667" lon="-3.1543350000000006">
<ele>700</ele>
<time>2017-03-02T11:11:34Z</time>
</trkpt>
<trkpt lat="40.63480333333334" lon="-3.1544683333333334">
<ele>700</ele>
<time>2017-03-02T11:11:36Z</time>
</trkpt>
<trkpt lat="40.63471666666667" lon="-3.1546833333333333">
<ele>699</ele>
<time>2017-03-02T11:11:38Z</time>
</trkpt>
<trkpt lat="40.634636666666665" lon="-3.154923333333333">
<ele>698</ele>
<time>2017-03-02T11:11:40Z</time>
</trkpt>
<trkpt lat="40.634605" lon="-3.1549850000000004">
<ele>698</ele>
<time>2017-03-02T11:11:42Z</time>
</trkpt>
<trkpt lat="40.634635" lon="-3.1552533333333335">
<ele>698</ele>
<time>2017-03-02T11:11:44Z</time>
</trkpt>
<trkpt lat="40.634681666666665" lon="-3.1552816666666663">
<ele>698</ele>
<time>2017-03-02T11:11:46Z</time>
</trkpt>
<trkpt lat="40.63473" lon="-3.155241666666667">
<ele>698</ele>
<time>2017-03-02T11:11:48Z</time>
</trkpt>
<trkpt lat="40.63477833333333" lon="-3.1552099999999994">
<ele>698</ele>
<time>2017-03-02T11:11:50Z</time>
</trkpt>
<trkpt lat="40.634699999999995" lon="-3.155325">
<ele>698</ele>
<time>2017-03-02T11:11:52Z</time>
</trkpt>
<trkpt lat="40.63467" lon="-3.15542">
<ele>698</ele>
<time>2017-03-02T11:11:56Z</time>
</trkpt>
<trkpt lat="40.634638333333335" lon="-3.155605">
<ele>698</ele>
<time>2017-03-02T11:12:00Z</time>
</trkpt>
<trkpt lat="40.63462833333333" lon="-3.155628333333333">
<ele>698</ele>
<time>2017-03-02T11:12:02Z</time>
</trkpt>
<trkpt lat="40.63463" lon="-3.15557">
<ele>698</ele>
<time>2017-03-02T11:12:04Z</time>
</trkpt>
<trkpt lat="40.63478" lon="-3.1556616666666666">
<ele>699</ele>
<time>2017-03-02T11:12:06Z</time>
</trkpt>
<trkpt lat="40.63488333333333" lon="-3.155768333333333">
<ele>699</ele>
<time>2017-03-02T11:12:08Z</time>
</trkpt>
<trkpt lat="40.634955" lon="-3.155835">
<ele>699</ele>
<time>2017-03-02T11:12:10Z</time>
</trkpt>
<trkpt lat="40.634890000000006" lon="-3.155955">
<ele>700</ele>
<time>2017-03-02T11:12:12Z</time>
</trkpt>
<trkpt lat="40.634721666666664" lon="-3.156155">
<ele>701</ele>
<time>2017-03-02T11:12:14Z</time>
</trkpt>
<trkpt lat="40.634685" lon="-3.15625">
<ele>701</ele>
<time>2017-03-02T11:12:16Z</time>
</trkpt>
<trkpt lat="40.634654999999995" lon="-3.1562983333333334">
<ele>701</ele>
<time>2017-03-02T11:12:18Z</time>
</trkpt>
<trkpt lat="40.63463166666667" lon="-3.1563216666666665">
<ele>700</ele>
<time>2017-03-02T11:12:20Z</time>
</trkpt>
<trkpt lat="40.63463166666667" lon="-3.1563216666666665">
<ele>700</ele>
<time>2017-03-02T11:12:22Z</time>
</trkpt>
<trkpt lat="40.63463166666667" lon="-3.1563216666666665">
<ele>700</ele>
<time>2017-03-02T11:12:24Z</time>
</trkpt>
<trkpt lat="40.63463166666667" lon="-3.1563216666666665">
<ele>700</ele>
<time>2017-03-02T11:12:26Z</time>
</trkpt>
<trkpt lat="40.63463166666667" lon="-3.1563216666666665">
<ele>700</ele>
<time>2017-03-02T11:12:28Z</time>
</trkpt>
<trkpt lat="40.63463166666667" lon="-3.1563216666666665">
<ele>700</ele>
<time>2017-03-02T11:12:30Z</time>
</trkpt>
<trkpt lat="40.63454" lon="-3.156398333333333">
<ele>697</ele>
<time>2017-03-02T11:12:32Z</time>
</trkpt>
<trkpt lat="40.63451166666667" lon="-3.15645">
<ele>697</ele>
<time>2017-03-02T11:12:34Z</time>
</trkpt>
<trkpt lat="40.634485000000005" lon="-3.156476666666667">
<ele>698</ele>
<time>2017-03-02T11:12:36Z</time>
</trkpt>
<trkpt lat="40.63444333333334" lon="-3.1565066666666666">
<ele>698</ele>
<time>2017-03-02T11:12:38Z</time>
</trkpt>
<trkpt lat="40.63436166666667" lon="-3.156558333333334">
<ele>698</ele>
<time>2017-03-02T11:12:40Z</time>
</trkpt>
<trkpt lat="40.634255" lon="-3.1565716666666663">
<ele>698</ele>
<time>2017-03-02T11:12:42Z</time>
</trkpt>
<trkpt lat="40.63426333333334" lon="-3.1564083333333333">
<ele>697</ele>
<time>2017-03-02T11:12:44Z</time>
</trkpt>
<trkpt lat="40.63430166666667" lon="-3.1563299999999996">
<ele>696</ele>
<time>2017-03-02T11:12:46Z</time>
</trkpt>
<trkpt lat="40.634323333333334" lon="-3.1562383333333335">
<ele>695</ele>
<time>2017-03-02T11:12:48Z</time>
</trkpt>
<trkpt lat="40.634325" lon="-3.1561700000000004">
<ele>695</ele>
<time>2017-03-02T11:12:50Z</time>
</trkpt>
<trkpt lat="40.634285" lon="-3.1561350000000004">
<ele>694</ele>
<time>2017-03-02T11:12:52Z</time>
</trkpt>
<trkpt lat="40.63426666666667" lon="-3.1561033333333333">
<ele>694</ele>
<time>2017-03-02T11:12:54Z</time>
</trkpt>
<trkpt lat="40.634236666666666" lon="-3.1560683333333333">
<ele>693</ele>
<time>2017-03-02T11:12:56Z</time>
</trkpt>
<trkpt lat="40.634225" lon="-3.156035">
<ele>693</ele>
<time>2017-03-02T11:12:58Z</time>
</trkpt>
<trkpt lat="40.634213333333335" lon="-3.1559933333333334">
<ele>692</ele>
<time>2017-03-02T11:13:00Z</time>
</trkpt>
<trkpt lat="40.634235" lon="-3.1559649999999997">
<ele>692</ele>
<time>2017-03-02T11:13:02Z</time>
</trkpt>
<trkpt lat="40.63426666666667" lon="-3.155938333333333">
<ele>692</ele>
<time>2017-03-02T11:13:04Z</time>
</trkpt>
<trkpt lat="40.63419333333333" lon="-3.1560116666666667">
<ele>692</ele>
<time>2017-03-02T11:13:06Z</time>
</trkpt>
<trkpt lat="40.63409166666667" lon="-3.156026666666667">
<ele>692</ele>
<time>2017-03-02T11:13:08Z</time>
</trkpt>
<trkpt lat="40.634065" lon="-3.155955">
<ele>691</ele>
<time>2017-03-02T11:13:10Z</time>
</trkpt>
<trkpt lat="40.63406833333333" lon="-3.15596">
<ele>690</ele>
<time>2017-03-02T11:13:12Z</time>
</trkpt>
<trkpt lat="40.63407333333334" lon="-3.15594">
<ele>690</ele>
<time>2017-03-02T11:13:14Z</time>
</trkpt>
<trkpt lat="40.634135" lon="-3.1558800000000002">
<ele>689</ele>
<time>2017-03-02T11:13:16Z</time>
</trkpt>
<trkpt lat="40.63412" lon="-3.15581">
<ele>690</ele>
<time>2017-03-02T11:13:18Z</time>
</trkpt>
<trkpt lat="40.63421833333334" lon="-3.15577">
<ele>690</ele>
<time>2017-03-02T11:13:20Z</time>
</trkpt>
<trkpt lat="40.63431666666667" lon="-3.15577">
<ele>690</ele>
<time>2017-03-02T11:13:22Z</time>
</trkpt>
<trkpt lat="40.634438333333335" lon="-3.1557749999999998">
<ele>691</ele>
<time>2017-03-02T11:13:24Z</time>
</trkpt>
<trkpt lat="40.63453333333334" lon="-3.1557883333333336">
<ele>691</ele>
<time>2017-03-02T11:13:26Z</time>
</trkpt>
<trkpt lat="40.63461333333333" lon="-3.155783333333333">
<ele>691</ele>
<time>2017-03-02T11:13:28Z</time>
</trkpt>
<trkpt lat="40.634675" lon="-3.1557933333333335">
<ele>692</ele>
<time>2017-03-02T11:13:30Z</time>
</trkpt>
<trkpt lat="40.634708333333336" lon="-3.1558">
<ele>692</ele>
<time>2017-03-02T11:13:32Z</time>
</trkpt>
<trkpt lat="40.634765" lon="-3.155813333333333">
<ele>693</ele>
<time>2017-03-02T11:13:34Z</time>
</trkpt>
<trkpt lat="40.634840000000004" lon="-3.15582">
<ele>693</ele>
<time>2017-03-02T11:13:36Z</time>
</trkpt>
<trkpt lat="40.634924999999996" lon="-3.1558300000000004">
<ele>693</ele>
<time>2017-03-02T11:13:38Z</time>
</trkpt>
<trkpt lat="40.63500166666667" lon="-3.155843333333333">
<ele>694</ele>
<time>2017-03-02T11:13:40Z</time>
</trkpt>
<trkpt lat="40.63498166666667" lon="-3.15586">
<ele>694</ele>
<time>2017-03-02T11:13:42Z</time>
</trkpt>
<trkpt lat="40.634735" lon="-3.155873333333333">
<ele>694</ele>
<time>2017-03-02T11:13:44Z</time>
</trkpt>
<trkpt lat="40.634476666666664" lon="-3.1558699999999997">
<ele>694</ele>
<time>2017-03-02T11:13:46Z</time>
</trkpt>
<trkpt lat="40.6344" lon="-3.1558800000000002">
<ele>695</ele>
<time>2017-03-02T11:13:48Z</time>
</trkpt>
<trkpt lat="40.6344" lon="-3.1558800000000002">
<ele>695</ele>
<time>2017-03-02T11:13:50Z</time>
</trkpt>
<trkpt lat="40.6344" lon="-3.1558800000000002">
<ele>695</ele>
<time>2017-03-02T11:13:52Z</time>
</trkpt>
<trkpt lat="40.6344" lon="-3.1558800000000002">
<ele>695</ele>
<time>2017-03-02T11:13:54Z</time>
</trkpt>
<trkpt lat="40.6344" lon="-3.1558800000000002">
<ele>695</ele>
<time>2017-03-02T11:13:56Z</time>
</trkpt>
<trkpt lat="40.63441833333333" lon="-3.1558916666666668">
<ele>697</ele>
<time>2017-03-02T11:13:58Z</time>
</trkpt>
<trkpt lat="40.634429999999995" lon="-3.155905">
<ele>698</ele>
<time>2017-03-02T11:14:00Z</time>
</trkpt>
<trkpt lat="40.63441833333333" lon="-3.15591">
<ele>698</ele>
<time>2017-03-02T11:14:02Z</time>
</trkpt>
<trkpt lat="40.63441833333333" lon="-3.155916666666667">
<ele>699</ele>
<time>2017-03-02T11:14:04Z</time>
</trkpt>
<trkpt lat="40.63441833333333" lon="-3.155916666666667">
<ele>699</ele>
<time>2017-03-02T11:14:06Z</time>
</trkpt>
<trkpt lat="40.63441833333333" lon="-3.155916666666667">
<ele>699</ele>
<time>2017-03-02T11:14:08Z</time>
</trkpt>
<trkpt lat="40.63430666666667" lon="-3.1558983333333335">
<ele>700</ele>
<time>2017-03-02T11:14:10Z</time>
</trkpt>
<trkpt lat="40.63435333333334" lon="-3.1559066666666666">
<ele>699</ele>
<time>2017-03-02T11:14:12Z</time>
</trkpt>
<trkpt lat="40.634365" lon="-3.1558983333333335">
<ele>699</ele>
<time>2017-03-02T11:14:14Z</time>
</trkpt>
<trkpt lat="40.634365" lon="-3.1558983333333335">
<ele>699</ele>
<time>2017-03-02T11:14:16Z</time>
</trkpt>
<trkpt lat="40.634365" lon="-3.1558983333333335">
<ele>699</ele>
<time>2017-03-02T11:14:18Z</time>
</trkpt>
<trkpt lat="40.634345" lon="-3.1558983333333335">
<ele>699</ele>
<time>2017-03-02T11:14:20Z</time>
</trkpt>
<trkpt lat="40.634265" lon="-3.155976666666667">
<ele>700</ele>
<time>2017-03-02T11:14:22Z</time>
</trkpt>
<trkpt lat="40.63404666666667" lon="-3.1561649999999997">
<ele>699</ele>
<time>2017-03-02T11:14:24Z</time>
</trkpt>
<trkpt lat="40.634125000000004" lon="-3.1561850000000002">
<ele>699</ele>
<time>2017-03-02T11:14:26Z</time>
</trkpt>
<trkpt lat="40.634161666666664" lon="-3.155908333333333">
<ele>692</ele>
<time>2017-03-02T11:15:44Z</time>
</trkpt>
<trkpt lat="40.63421166666667" lon="-3.155936666666667">
<ele>693</ele>
<time>2017-03-02T11:15:46Z</time>
</trkpt>
<trkpt lat="40.634296666666664" lon="-3.1559799999999996">
<ele>699</ele>
<time>2017-03-02T11:15:48Z</time>
</trkpt>
<trkpt lat="40.63425333333333" lon="-3.1560300000000003">
<ele>705</ele>
<time>2017-03-02T11:15:50Z</time>
</trkpt>
<trkpt lat="40.634281666666666" lon="-3.1560699999999997">
<ele>703</ele>
<time>2017-03-02T11:15:52Z</time>
</trkpt>
<trkpt lat="40.63429833333333" lon="-3.156116666666667">
<ele>703</ele>
<time>2017-03-02T11:15:54Z</time>
</trkpt>
<trkpt lat="40.63438333333333" lon="-3.1561850000000002">
<ele>703</ele>
<time>2017-03-02T11:15:56Z</time>
</trkpt>
<trkpt lat="40.634365" lon="-3.156213333333333">
<ele>703</ele>
<time>2017-03-02T11:15:58Z</time>
</trkpt>
<trkpt lat="40.63434666666667" lon="-3.156245">
<ele>704</ele>
<time>2017-03-02T11:16:00Z</time>
</trkpt>
<trkpt lat="40.63431333333333" lon="-3.1562566666666667">
<ele>706</ele>
<time>2017-03-02T11:16:02Z</time>
</trkpt>
<trkpt lat="40.63430166666667" lon="-3.156281666666666">
<ele>707</ele>
<time>2017-03-02T11:16:04Z</time>
</trkpt>
<trkpt lat="40.63429" lon="-3.1562966666666665">
<ele>708</ele>
<time>2017-03-02T11:16:06Z</time>
</trkpt>
<trkpt lat="40.63429" lon="-3.1563133333333337">
<ele>705</ele>
<time>2017-03-02T11:16:08Z</time>
</trkpt>
<trkpt lat="40.634296666666664" lon="-3.1563216666666665">
<ele>707</ele>
<time>2017-03-02T11:16:10Z</time>
</trkpt>
<trkpt lat="40.63429166666666" lon="-3.156345">
<ele>704</ele>
<time>2017-03-02T11:16:12Z</time>
</trkpt>
<trkpt lat="40.63429166666666" lon="-3.156345">
<ele>704</ele>
<time>2017-03-02T11:16:14Z</time>
</trkpt>
<trkpt lat="40.63429166666666" lon="-3.156345">
<ele>704</ele>
<time>2017-03-02T11:16:16Z</time>
</trkpt>
<trkpt lat="40.63429166666666" lon="-3.156345">
<ele>704</ele>
<time>2017-03-02T11:16:18Z</time>
</trkpt>
<trkpt lat="40.63429166666666" lon="-3.156345">
<ele>704</ele>
<time>2017-03-02T11:16:20Z</time>
</trkpt>
<trkpt lat="40.63429166666666" lon="-3.156345">
<ele>704</ele>
<time>2017-03-02T11:16:22Z</time>
</trkpt>
<trkpt lat="40.63429166666666" lon="-3.156345">
<ele>704</ele>
<time>2017-03-02T11:16:24Z</time>
</trkpt>
<trkpt lat="40.63429166666666" lon="-3.156345">
<ele>704</ele>
<time>2017-03-02T11:16:26Z</time>
</trkpt>
<trkpt lat="40.63429166666666" lon="-3.156345">
<ele>704</ele>
<time>2017-03-02T11:16:28Z</time>
</trkpt>
<trkpt lat="40.63429166666666" lon="-3.156345">
<ele>704</ele>
<time>2017-03-02T11:16:30Z</time>
</trkpt>
<trkpt lat="40.63424833333333" lon="-3.156465">
<ele>703</ele>
<time>2017-03-02T11:16:32Z</time>
</trkpt>
<trkpt lat="40.63424666666666" lon="-3.156465">
<ele>703</ele>
<time>2017-03-02T11:16:34Z</time>
</trkpt>
<trkpt lat="40.63424666666666" lon="-3.156465">
<ele>703</ele>
<time>2017-03-02T11:16:36Z</time>
</trkpt>
<trkpt lat="40.63424666666666" lon="-3.156465">
<ele>703</ele>
<time>2017-03-02T11:16:38Z</time>
</trkpt>
<trkpt lat="40.63424666666666" lon="-3.156465">
<ele>703</ele>
<time>2017-03-02T11:16:40Z</time>
</trkpt>
<trkpt lat="40.63424666666666" lon="-3.156465">
<ele>703</ele>
<time>2017-03-02T11:16:42Z</time>
</trkpt>
<trkpt lat="40.63424666666666" lon="-3.156465">
<ele>703</ele>
<time>2017-03-02T11:16:44Z</time>
</trkpt>
<trkpt lat="40.63424666666666" lon="-3.156465">
<ele>703</ele>
<time>2017-03-02T11:16:46Z</time>
</trkpt>
<trkpt lat="40.63424666666666" lon="-3.156465">
<ele>703</ele>
<time>2017-03-02T11:16:48Z</time>
</trkpt>
<trkpt lat="40.63424666666666" lon="-3.156465">
<ele>703</ele>
<time>2017-03-02T11:16:50Z</time>
</trkpt>
<trkpt lat="40.63424666666666" lon="-3.156465">
<ele>703</ele>
<time>2017-03-02T11:16:52Z</time>
</trkpt>
<trkpt lat="40.63424666666666" lon="-3.156465">
<ele>703</ele>
<time>2017-03-02T11:16:54Z</time>
</trkpt>
<trkpt lat="40.63424666666666" lon="-3.156465">
<ele>703</ele>
<time>2017-03-02T11:16:56Z</time>
</trkpt>
<trkpt lat="40.63424666666666" lon="-3.156465">
<ele>703</ele>
<time>2017-03-02T11:16:58Z</time>
</trkpt>
<trkpt lat="40.63424666666666" lon="-3.156465">
<ele>703</ele>
<time>2017-03-02T11:17:00Z</time>
</trkpt>
<trkpt lat="40.63424666666666" lon="-3.156465">
<ele>703</ele>
<time>2017-03-02T11:17:02Z</time>
</trkpt>
<trkpt lat="40.63424666666666" lon="-3.156465">
<ele>703</ele>
<time>2017-03-02T11:17:04Z</time>
</trkpt>
<trkpt lat="40.63422166666667" lon="-3.1564399999999995">
<ele>703</ele>
<time>2017-03-02T11:17:06Z</time>
</trkpt>
<trkpt lat="40.6342" lon="-3.1564300000000003">
<ele>703</ele>
<time>2017-03-02T11:17:08Z</time>
</trkpt>
<trkpt lat="40.63417833333333" lon="-3.1564216666666662">
<ele>703</ele>
<time>2017-03-02T11:17:10Z</time>
</trkpt>
<trkpt lat="40.63415166666667" lon="-3.1564183333333338">
<ele>703</ele>
<time>2017-03-02T11:17:12Z</time>
</trkpt>
<trkpt lat="40.634118333333326" lon="-3.1564099999999997">
<ele>703</ele>
<time>2017-03-02T11:17:14Z</time>
</trkpt>
<trkpt lat="40.634078333333335" lon="-3.1563949999999994">
<ele>703</ele>
<time>2017-03-02T11:17:16Z</time>
</trkpt>
<trkpt lat="40.63402" lon="-3.156435">
<ele>703</ele>
<time>2017-03-02T11:17:18Z</time>
</trkpt>
<trkpt lat="40.633955" lon="-3.1564883333333333">
<ele>703</ele>
<time>2017-03-02T11:17:20Z</time>
</trkpt>
<trkpt lat="40.633903333333336" lon="-3.156566666666667">
<ele>703</ele>
<time>2017-03-02T11:17:22Z</time>
</trkpt>
<trkpt lat="40.63383666666667" lon="-3.156628333333333">
<ele>703</ele>
<time>2017-03-02T11:17:24Z</time>
</trkpt>
<trkpt lat="40.63388333333333" lon="-3.1566099999999997">
<ele>703</ele>
<time>2017-03-02T11:17:26Z</time>
</trkpt>
<trkpt lat="40.63388333333333" lon="-3.1566099999999997">
<ele>703</ele>
<time>2017-03-02T11:17:28Z</time>
</trkpt>
<trkpt lat="40.633921666666666" lon="-3.156626666666667">
<ele>703</ele>
<time>2017-03-02T11:17:30Z</time>
</trkpt>
<trkpt lat="40.633919999999996" lon="-3.156648333333334">
<ele>703</ele>
<time>2017-03-02T11:17:32Z</time>
</trkpt>
<trkpt lat="40.633918333333334" lon="-3.1566516666666664">
<ele>704</ele>
<time>2017-03-02T11:17:34Z</time>
</trkpt>
<trkpt lat="40.633905" lon="-3.1566516666666664">
<ele>704</ele>
<time>2017-03-02T11:17:36Z</time>
</trkpt>
<trkpt lat="40.633905" lon="-3.1566516666666664">
<ele>704</ele>
<time>2017-03-02T11:17:38Z</time>
</trkpt>
<trkpt lat="40.633905" lon="-3.1566516666666664">
<ele>704</ele>
<time>2017-03-02T11:17:40Z</time>
</trkpt>
<trkpt lat="40.633905" lon="-3.1566516666666664">
<ele>704</ele>
<time>2017-03-02T11:17:42Z</time>
</trkpt>
<trkpt lat="40.633905" lon="-3.1566516666666664">
<ele>704</ele>
<time>2017-03-02T11:17:44Z</time>
</trkpt>
<trkpt lat="40.633905" lon="-3.1566516666666664">
<ele>704</ele>
<time>2017-03-02T11:17:46Z</time>
</trkpt>
<trkpt lat="40.633905" lon="-3.1566516666666664">
<ele>704</ele>
<time>2017-03-02T11:17:48Z</time>
</trkpt>
<trkpt lat="40.633905" lon="-3.1566516666666664">
<ele>704</ele>
<time>2017-03-02T11:17:50Z</time>
</trkpt>
<trkpt lat="40.633905" lon="-3.1566516666666664">
<ele>704</ele>
<time>2017-03-02T11:17:52Z</time>
</trkpt>
<trkpt lat="40.633905" lon="-3.1566516666666664">
<ele>704</ele>
<time>2017-03-02T11:17:54Z</time>
</trkpt>
<trkpt lat="40.633905" lon="-3.1566516666666664">
<ele>704</ele>
<time>2017-03-02T11:17:56Z</time>
</trkpt>
<trkpt lat="40.633905" lon="-3.1566516666666664">
<ele>704</ele>
<time>2017-03-02T11:17:58Z</time>
</trkpt>
<trkpt lat="40.633905" lon="-3.1566516666666664">
<ele>704</ele>
<time>2017-03-02T11:18:00Z</time>
</trkpt>
<trkpt lat="40.633905" lon="-3.1566516666666664">
<ele>704</ele>
<time>2017-03-02T11:18:02Z</time>
</trkpt>
<trkpt lat="40.633905" lon="-3.1566516666666664">
<ele>704</ele>
<time>2017-03-02T11:18:04Z</time>
</trkpt>
<trkpt lat="40.633905" lon="-3.1566516666666664">
<ele>704</ele>
<time>2017-03-02T11:18:06Z</time>
</trkpt>
<trkpt lat="40.63388333333333" lon="-3.156636666666666">
<ele>708</ele>
<time>2017-03-02T11:18:08Z</time>
</trkpt>
<trkpt lat="40.63391333333333" lon="-3.1566066666666672">
<ele>708</ele>
<time>2017-03-02T11:18:10Z</time>
</trkpt>
<trkpt lat="40.63394166666667" lon="-3.1565799999999995">
<ele>708</ele>
<time>2017-03-02T11:18:12Z</time>
</trkpt>
<trkpt lat="40.63397166666667" lon="-3.156555">
<ele>708</ele>
<time>2017-03-02T11:18:14Z</time>
</trkpt>
<trkpt lat="40.63397333333333" lon="-3.15673">
<ele>707</ele>
<time>2017-03-02T11:18:30Z</time>
</trkpt>
<trkpt lat="40.63397333333333" lon="-3.15673">
<ele>707</ele>
<time>2017-03-02T11:18:32Z</time>
</trkpt>
<trkpt lat="40.63397333333333" lon="-3.15673">
<ele>707</ele>
<time>2017-03-02T11:18:34Z</time>
</trkpt>
<trkpt lat="40.634035000000004" lon="-3.156686666666667">
<ele>705</ele>
<time>2017-03-02T11:18:36Z</time>
</trkpt>
<trkpt lat="40.63409" lon="-3.156595">
<ele>709</ele>
<time>2017-03-02T11:18:38Z</time>
</trkpt>
<trkpt lat="40.634058333333336" lon="-3.156636666666666">
<ele>706</ele>
<time>2017-03-02T11:18:40Z</time>
</trkpt>
<trkpt lat="40.63403666666667" lon="-3.1566466666666666">
<ele>708</ele>
<time>2017-03-02T11:18:42Z</time>
</trkpt>
<trkpt lat="40.63403666666667" lon="-3.1566466666666666">
<ele>708</ele>
<time>2017-03-02T11:18:44Z</time>
</trkpt>
<trkpt lat="40.633964999999996" lon="-3.156648333333334">
<ele>700</ele>
<time>2017-03-02T11:18:46Z</time>
</trkpt>
<trkpt lat="40.633963333333334" lon="-3.1566533333333333">
<ele>701</ele>
<time>2017-03-02T11:18:48Z</time>
</trkpt>
<trkpt lat="40.633964999999996" lon="-3.1566600000000005">
<ele>703</ele>
<time>2017-03-02T11:18:50Z</time>
</trkpt>
<trkpt lat="40.633963333333334" lon="-3.156686666666667">
<ele>703</ele>
<time>2017-03-02T11:18:52Z</time>
</trkpt>
<trkpt lat="40.633963333333334" lon="-3.156686666666667">
<ele>703</ele>
<time>2017-03-02T11:18:54Z</time>
</trkpt>
<trkpt lat="40.633963333333334" lon="-3.156686666666667">
<ele>703</ele>
<time>2017-03-02T11:18:56Z</time>
</trkpt>
<trkpt lat="40.633963333333334" lon="-3.156686666666667">
<ele>703</ele>
<time>2017-03-02T11:18:58Z</time>
</trkpt>
<trkpt lat="40.63388666666666" lon="-3.1567799999999995">
<ele>711</ele>
<time>2017-03-02T11:19:00Z</time>
</trkpt>
<trkpt lat="40.633874999999996" lon="-3.15679">
<ele>711</ele>
<time>2017-03-02T11:19:02Z</time>
</trkpt>
<trkpt lat="40.63386833333333" lon="-3.156795">
<ele>712</ele>
<time>2017-03-02T11:19:04Z</time>
</trkpt>
<trkpt lat="40.63386833333333" lon="-3.156795">
<ele>712</ele>
<time>2017-03-02T11:19:06Z</time>
</trkpt>
<trkpt lat="40.63386833333333" lon="-3.156795">
<ele>712</ele>
<time>2017-03-02T11:19:08Z</time>
</trkpt>
<trkpt lat="40.63386833333333" lon="-3.156795">
<ele>712</ele>
<time>2017-03-02T11:19:10Z</time>
</trkpt>
<trkpt lat="40.63386833333333" lon="-3.156795">
<ele>712</ele>
<time>2017-03-02T11:19:12Z</time>
</trkpt>
<trkpt lat="40.63386833333333" lon="-3.156795">
<ele>712</ele>
<time>2017-03-02T11:19:14Z</time>
</trkpt>
<trkpt lat="40.63386833333333" lon="-3.156795">
<ele>712</ele>
<time>2017-03-02T11:19:16Z</time>
</trkpt>
<trkpt lat="40.63386833333333" lon="-3.156795">
<ele>712</ele>
<time>2017-03-02T11:19:18Z</time>
</trkpt>
<trkpt lat="40.63386833333333" lon="-3.156795">
<ele>712</ele>
<time>2017-03-02T11:19:20Z</time>
</trkpt>
<trkpt lat="40.63386833333333" lon="-3.156795">
<ele>712</ele>
<time>2017-03-02T11:19:22Z</time>
</trkpt>
<trkpt lat="40.63386833333333" lon="-3.156795">
<ele>712</ele>
<time>2017-03-02T11:19:24Z</time>
</trkpt>
<trkpt lat="40.63377833333333" lon="-3.1567883333333335">
<ele>713</ele>
<time>2017-03-02T11:19:26Z</time>
</trkpt>
<trkpt lat="40.633763333333334" lon="-3.156776666666667">
<ele>713</ele>
<time>2017-03-02T11:19:28Z</time>
</trkpt>
<trkpt lat="40.633919999999996" lon="-3.156923333333333">
<ele>700</ele>
<time>2017-03-02T11:19:46Z</time>
</trkpt>
<trkpt lat="40.63389666666667" lon="-3.1569366666666667">
<ele>699</ele>
<time>2017-03-02T11:19:48Z</time>
</trkpt>
<trkpt lat="40.63388333333333" lon="-3.156931666666667">
<ele>698</ele>
<time>2017-03-02T11:19:50Z</time>
</trkpt>
<trkpt lat="40.63388166666667" lon="-3.1569349999999994">
<ele>699</ele>
<time>2017-03-02T11:19:52Z</time>
</trkpt>
<trkpt lat="40.63388166666667" lon="-3.1569349999999994">
<ele>699</ele>
<time>2017-03-02T11:19:54Z</time>
</trkpt>
<trkpt lat="40.63388166666667" lon="-3.1569349999999994">
<ele>699</ele>
<time>2017-03-02T11:19:56Z</time>
</trkpt>
<trkpt lat="40.63388166666667" lon="-3.1569349999999994">
<ele>699</ele>
<time>2017-03-02T11:19:58Z</time>
</trkpt>
<trkpt lat="40.63388166666667" lon="-3.1569349999999994">
<ele>699</ele>
<time>2017-03-02T11:20:00Z</time>
</trkpt>
<trkpt lat="40.63388166666667" lon="-3.1569349999999994">
<ele>699</ele>
<time>2017-03-02T11:20:02Z</time>
</trkpt>
<trkpt lat="40.63388166666667" lon="-3.1569349999999994">
<ele>699</ele>
<time>2017-03-02T11:20:04Z</time>
</trkpt>
<trkpt lat="40.63388166666667" lon="-3.1569349999999994">
<ele>699</ele>
<time>2017-03-02T11:20:06Z</time>
</trkpt>
<trkpt lat="40.63388166666667" lon="-3.1569349999999994">
<ele>699</ele>
<time>2017-03-02T11:20:08Z</time>
</trkpt>
<trkpt lat="40.63388166666667" lon="-3.1569349999999994">
<ele>699</ele>
<time>2017-03-02T11:20:10Z</time>
</trkpt>
<trkpt lat="40.63388166666667" lon="-3.1569349999999994">
<ele>699</ele>
<time>2017-03-02T11:20:12Z</time>
</trkpt>
<trkpt lat="40.63388166666667" lon="-3.1569349999999994">
<ele>699</ele>
<time>2017-03-02T11:20:14Z</time>
</trkpt>
<trkpt lat="40.633808333333334" lon="-3.1570233333333335">
<ele>703</ele>
<time>2017-03-02T11:20:16Z</time>
</trkpt>
<trkpt lat="40.633775" lon="-3.1570066666666663">
<ele>703</ele>
<time>2017-03-02T11:20:18Z</time>
</trkpt>
<trkpt lat="40.633720000000004" lon="-3.15685">
<ele>702</ele>
<time>2017-03-02T11:20:20Z</time>
</trkpt>
<trkpt lat="40.633698333333335" lon="-3.1567149999999997">
<ele>702</ele>
<time>2017-03-02T11:20:22Z</time>
</trkpt>
<trkpt lat="40.63368166666667" lon="-3.1566600000000005">
<ele>702</ele>
<time>2017-03-02T11:20:24Z</time>
</trkpt>
<trkpt lat="40.633685" lon="-3.1566516666666664">
<ele>703</ele>
<time>2017-03-02T11:20:26Z</time>
</trkpt>
<trkpt lat="40.63368166666667" lon="-3.156641666666667">
<ele>704</ele>
<time>2017-03-02T11:20:28Z</time>
</trkpt>
<trkpt lat="40.63368666666667" lon="-3.156676666666667">
<ele>705</ele>
<time>2017-03-02T11:20:30Z</time>
</trkpt>
<trkpt lat="40.633675000000004" lon="-3.15673">
<ele>706</ele>
<time>2017-03-02T11:20:32Z</time>
</trkpt>
<trkpt lat="40.633675000000004" lon="-3.15673">
<ele>706</ele>
<time>2017-03-02T11:20:34Z</time>
</trkpt>
<trkpt lat="40.633675000000004" lon="-3.15673">
<ele>706</ele>
<time>2017-03-02T11:20:36Z</time>
</trkpt>
<trkpt lat="40.633675000000004" lon="-3.15673">
<ele>706</ele>
<time>2017-03-02T11:20:38Z</time>
</trkpt>
<trkpt lat="40.633675000000004" lon="-3.15673">
<ele>706</ele>
<time>2017-03-02T11:20:40Z</time>
</trkpt>
<trkpt lat="40.633675000000004" lon="-3.15673">
<ele>706</ele>
<time>2017-03-02T11:20:42Z</time>
</trkpt>
<trkpt lat="40.633675000000004" lon="-3.15673">
<ele>706</ele>
<time>2017-03-02T11:20:44Z</time>
</trkpt>
<trkpt lat="40.63365666666667" lon="-3.15685">
<ele>710</ele>
<time>2017-03-02T11:20:46Z</time>
</trkpt>
<trkpt lat="40.633655" lon="-3.1568766666666668">
<ele>710</ele>
<time>2017-03-02T11:20:48Z</time>
</trkpt>
<trkpt lat="40.633651666666665" lon="-3.1569050000000005">
<ele>710</ele>
<time>2017-03-02T11:20:50Z</time>
</trkpt>
<trkpt lat="40.63391166666667" lon="-3.156903333333333">
<ele>704</ele>
<time>2017-03-02T11:21:06Z</time>
</trkpt>
<trkpt lat="40.63391166666667" lon="-3.156903333333333">
<ele>704</ele>
<time>2017-03-02T11:21:08Z</time>
</trkpt>
<trkpt lat="40.63382" lon="-3.1569516666666666">
<ele>703</ele>
<time>2017-03-02T11:21:10Z</time>
</trkpt>
<trkpt lat="40.633799999999994" lon="-3.1569466666666672">
<ele>705</ele>
<time>2017-03-02T11:21:12Z</time>
</trkpt>
<trkpt lat="40.633775" lon="-3.1569583333333338">
<ele>704</ele>
<time>2017-03-02T11:21:14Z</time>
</trkpt>
<trkpt lat="40.63375333333333" lon="-3.156976666666667">
<ele>705</ele>
<time>2017-03-02T11:21:16Z</time>
</trkpt>
<trkpt lat="40.633720000000004" lon="-3.1569966666666667">
<ele>704</ele>
<time>2017-03-02T11:21:18Z</time>
</trkpt>
<trkpt lat="40.63368" lon="-3.1570383333333334">
<ele>702</ele>
<time>2017-03-02T11:21:20Z</time>
</trkpt>
<trkpt lat="40.63366499999999" lon="-3.1570650000000002">
<ele>700</ele>
<time>2017-03-02T11:21:22Z</time>
</trkpt>
<trkpt lat="40.633651666666665" lon="-3.15708">
<ele>698</ele>
<time>2017-03-02T11:21:24Z</time>
</trkpt>
<trkpt lat="40.633645" lon="-3.1570966666666664">
<ele>697</ele>
<time>2017-03-02T11:21:26Z</time>
</trkpt>
<trkpt lat="40.633631666666666" lon="-3.1571100000000003">
<ele>697</ele>
<time>2017-03-02T11:21:28Z</time>
</trkpt>
<trkpt lat="40.633625" lon="-3.1571200000000004">
<ele>696</ele>
<time>2017-03-02T11:21:30Z</time>
</trkpt>
<trkpt lat="40.633615" lon="-3.157131666666667">
<ele>695</ele>
<time>2017-03-02T11:21:32Z</time>
</trkpt>
<trkpt lat="40.63361333333333" lon="-3.15714">
<ele>695</ele>
<time>2017-03-02T11:21:34Z</time>
</trkpt>
<trkpt lat="40.633601666666664" lon="-3.1571583333333337">
<ele>693</ele>
<time>2017-03-02T11:21:36Z</time>
</trkpt>
<trkpt lat="40.633583333333334" lon="-3.1571716666666663">
<ele>692</ele>
<time>2017-03-02T11:21:38Z</time>
</trkpt>
<trkpt lat="40.633561666666665" lon="-3.1571866666666666">
<ele>692</ele>
<time>2017-03-02T11:21:40Z</time>
</trkpt>
<trkpt lat="40.63355" lon="-3.15722">
<ele>691</ele>
<time>2017-03-02T11:21:42Z</time>
</trkpt>
<trkpt lat="40.63352666666666" lon="-3.157243333333333">
<ele>691</ele>
<time>2017-03-02T11:21:44Z</time>
</trkpt>
<trkpt lat="40.63352333333333" lon="-3.1572766666666667">
<ele>691</ele>
<time>2017-03-02T11:21:46Z</time>
</trkpt>
<trkpt lat="40.63350333333334" lon="-3.1573200000000003">
<ele>690</ele>
<time>2017-03-02T11:21:48Z</time>
</trkpt>
<trkpt lat="40.63348333333333" lon="-3.1573566666666664">
<ele>690</ele>
<time>2017-03-02T11:21:50Z</time>
</trkpt>
<trkpt lat="40.63347" lon="-3.157403333333334">
<ele>690</ele>
<time>2017-03-02T11:21:52Z</time>
</trkpt>
<trkpt lat="40.633465" lon="-3.157426666666667">
<ele>689</ele>
<time>2017-03-02T11:21:54Z</time>
</trkpt>
<trkpt lat="40.63346166666667" lon="-3.1574166666666668">
<ele>689</ele>
<time>2017-03-02T11:21:56Z</time>
</trkpt>
<trkpt lat="40.63346166666667" lon="-3.1574166666666668">
<ele>689</ele>
<time>2017-03-02T11:21:58Z</time>
</trkpt>
<trkpt lat="40.63346166666667" lon="-3.1574166666666668">
<ele>689</ele>
<time>2017-03-02T11:22:00Z</time>
</trkpt>
<trkpt lat="40.63346166666667" lon="-3.1574166666666668">
<ele>689</ele>
<time>2017-03-02T11:22:02Z</time>
</trkpt>
<trkpt lat="40.63346166666667" lon="-3.1574166666666668">
<ele>689</ele>
<time>2017-03-02T11:22:04Z</time>
</trkpt>
<trkpt lat="40.63346166666667" lon="-3.1574166666666668">
<ele>689</ele>
<time>2017-03-02T11:22:06Z</time>
</trkpt>
<trkpt lat="40.6334" lon="-3.1574249999999995">
<ele>689</ele>
<time>2017-03-02T11:22:08Z</time>
</trkpt>
<trkpt lat="40.633358333333334" lon="-3.157435">
<ele>689</ele>
<time>2017-03-02T11:22:10Z</time>
</trkpt>
<trkpt lat="40.633338333333334" lon="-3.157465">
<ele>690</ele>
<time>2017-03-02T11:22:12Z</time>
</trkpt>
<trkpt lat="40.63332833333333" lon="-3.1574900000000006">
<ele>690</ele>
<time>2017-03-02T11:22:14Z</time>
</trkpt>
<trkpt lat="40.63332166666667" lon="-3.1575149999999996">
<ele>690</ele>
<time>2017-03-02T11:22:16Z</time>
</trkpt>
<trkpt lat="40.633335" lon="-3.1575183333333334">
<ele>689</ele>
<time>2017-03-02T11:22:18Z</time>
</trkpt>
<trkpt lat="40.63333333333333" lon="-3.157546666666667">
<ele>688</ele>
<time>2017-03-02T11:22:20Z</time>
</trkpt>
<trkpt lat="40.633335" lon="-3.1575733333333336">
<ele>688</ele>
<time>2017-03-02T11:22:22Z</time>
</trkpt>
<trkpt lat="40.63334166666667" lon="-3.1576000000000004">
<ele>688</ele>
<time>2017-03-02T11:22:24Z</time>
</trkpt>
<trkpt lat="40.63334166666667" lon="-3.1576000000000004">
<ele>688</ele>
<time>2017-03-02T11:22:26Z</time>
</trkpt>
<trkpt lat="40.63334166666667" lon="-3.1576000000000004">
<ele>688</ele>
<time>2017-03-02T11:22:28Z</time>
</trkpt>
<trkpt lat="40.63334833333333" lon="-3.157688333333333">
<ele>689</ele>
<time>2017-03-02T11:22:30Z</time>
</trkpt>
<trkpt lat="40.633345" lon="-3.1577233333333328">
<ele>689</ele>
<time>2017-03-02T11:22:32Z</time>
</trkpt>
<trkpt lat="40.633315" lon="-3.1577716666666666">
<ele>690</ele>
<time>2017-03-02T11:22:34Z</time>
</trkpt>
<trkpt lat="40.63327833333334" lon="-3.157833333333334">
<ele>690</ele>
<time>2017-03-02T11:22:36Z</time>
</trkpt>
<trkpt lat="40.633248333333334" lon="-3.1578816666666665">
<ele>691</ele>
<time>2017-03-02T11:22:38Z</time>
</trkpt>
<trkpt lat="40.63322" lon="-3.1579416666666664">
<ele>691</ele>
<time>2017-03-02T11:22:40Z</time>
</trkpt>
<trkpt lat="40.63322166666667" lon="-3.1579850000000005">
<ele>691</ele>
<time>2017-03-02T11:22:42Z</time>
</trkpt>
<trkpt lat="40.63319666666666" lon="-3.1580150000000002">
<ele>692</ele>
<time>2017-03-02T11:22:44Z</time>
</trkpt>
<trkpt lat="40.633185000000005" lon="-3.1580616666666668">
<ele>691</ele>
<time>2017-03-02T11:22:46Z</time>
</trkpt>
<trkpt lat="40.633183333333335" lon="-3.158108333333333">
<ele>691</ele>
<time>2017-03-02T11:22:48Z</time>
</trkpt>
<trkpt lat="40.633183333333335" lon="-3.1581566666666663">
<ele>691</ele>
<time>2017-03-02T11:22:50Z</time>
</trkpt>
<trkpt lat="40.63317666666667" lon="-3.158205">
<ele>691</ele>
<time>2017-03-02T11:22:52Z</time>
</trkpt>
<trkpt lat="40.63317333333334" lon="-3.1582549999999996">
<ele>691</ele>
<time>2017-03-02T11:22:54Z</time>
</trkpt>
<trkpt lat="40.63316666666666" lon="-3.1582966666666663">
<ele>691</ele>
<time>2017-03-02T11:22:56Z</time>
</trkpt>
<trkpt lat="40.633145" lon="-3.1583483333333335">
<ele>691</ele>
<time>2017-03-02T11:22:58Z</time>
</trkpt>
<trkpt lat="40.63312833333334" lon="-3.1583933333333336">
<ele>692</ele>
<time>2017-03-02T11:23:00Z</time>
</trkpt>
<trkpt lat="40.633113333333334" lon="-3.158435">
<ele>692</ele>
<time>2017-03-02T11:23:02Z</time>
</trkpt>
<trkpt lat="40.633116666666666" lon="-3.15847">
<ele>692</ele>
<time>2017-03-02T11:23:04Z</time>
</trkpt>
<trkpt lat="40.63313" lon="-3.158506666666667">
<ele>692</ele>
<time>2017-03-02T11:23:06Z</time>
</trkpt>
<trkpt lat="40.63316" lon="-3.158546666666667">
<ele>692</ele>
<time>2017-03-02T11:23:08Z</time>
</trkpt>
<trkpt lat="40.633165" lon="-3.15859">
<ele>692</ele>
<time>2017-03-02T11:23:10Z</time>
</trkpt>
<trkpt lat="40.63316833333333" lon="-3.1586300000000005">
<ele>691</ele>
<time>2017-03-02T11:23:12Z</time>
</trkpt>
<trkpt lat="40.63316833333333" lon="-3.1586583333333333">
<ele>691</ele>
<time>2017-03-02T11:23:14Z</time>
</trkpt>
<trkpt lat="40.633165" lon="-3.158693333333333">
<ele>691</ele>
<time>2017-03-02T11:23:16Z</time>
</trkpt>
<trkpt lat="40.633165" lon="-3.1587166666666673">
<ele>690</ele>
<time>2017-03-02T11:23:18Z</time>
</trkpt>
<trkpt lat="40.633165" lon="-3.158751666666667">
<ele>690</ele>
<time>2017-03-02T11:23:20Z</time>
</trkpt>
<trkpt lat="40.63319833333333" lon="-3.1587866666666664">
<ele>690</ele>
<time>2017-03-02T11:23:22Z</time>
</trkpt>
<trkpt lat="40.63325833333333" lon="-3.158811666666667">
<ele>688</ele>
<time>2017-03-02T11:23:24Z</time>
</trkpt>
<trkpt lat="40.63331166666667" lon="-3.1588450000000003">
<ele>687</ele>
<time>2017-03-02T11:23:26Z</time>
</trkpt>
<trkpt lat="40.63330333333333" lon="-3.158888333333333">
<ele>687</ele>
<time>2017-03-02T11:23:28Z</time>
</trkpt>
<trkpt lat="40.63330166666666" lon="-3.158888333333333">
<ele>686</ele>
<time>2017-03-02T11:23:30Z</time>
</trkpt>
<trkpt lat="40.63328833333333" lon="-3.1588966666666662">
<ele>686</ele>
<time>2017-03-02T11:23:32Z</time>
</trkpt>
<trkpt lat="40.63325" lon="-3.15893">
<ele>685</ele>
<time>2017-03-02T11:23:34Z</time>
</trkpt>
<trkpt lat="40.63325" lon="-3.15893">
<ele>685</ele>
<time>2017-03-02T11:23:36Z</time>
</trkpt>
<trkpt lat="40.633195" lon="-3.1590166666666666">
<ele>686</ele>
<time>2017-03-02T11:23:38Z</time>
</trkpt>
<trkpt lat="40.63317333333334" lon="-3.159073333333333">
<ele>687</ele>
<time>2017-03-02T11:23:40Z</time>
</trkpt>
<trkpt lat="40.63314833333333" lon="-3.1591299999999998">
<ele>688</ele>
<time>2017-03-02T11:23:42Z</time>
</trkpt>
<trkpt lat="40.63313" lon="-3.1591633333333333">
<ele>688</ele>
<time>2017-03-02T11:23:44Z</time>
</trkpt>
<trkpt lat="40.633116666666666" lon="-3.1591949999999995">
<ele>689</ele>
<time>2017-03-02T11:23:46Z</time>
</trkpt>
<trkpt lat="40.633085" lon="-3.1592583333333333">
<ele>691</ele>
<time>2017-03-02T11:23:48Z</time>
</trkpt>
<trkpt lat="40.633055" lon="-3.159268333333334">
<ele>693</ele>
<time>2017-03-02T11:23:50Z</time>
</trkpt>
<trkpt lat="40.633055" lon="-3.159268333333334">
<ele>693</ele>
<time>2017-03-02T11:23:52Z</time>
</trkpt>
<trkpt lat="40.633003333333335" lon="-3.159295">
<ele>696</ele>
<time>2017-03-02T11:23:54Z</time>
</trkpt>
<trkpt lat="40.63303333333333" lon="-3.159345">
<ele>697</ele>
<time>2017-03-02T11:23:56Z</time>
</trkpt>
<trkpt lat="40.63310333333333" lon="-3.1594116666666667">
<ele>697</ele>
<time>2017-03-02T11:23:58Z</time>
</trkpt>
<trkpt lat="40.63308" lon="-3.159428333333333">
<ele>697</ele>
<time>2017-03-02T11:24:00Z</time>
</trkpt>
<trkpt lat="40.63309" lon="-3.15942">
<ele>697</ele>
<time>2017-03-02T11:24:02Z</time>
</trkpt>
<trkpt lat="40.63308666666667" lon="-3.1594166666666665">
<ele>697</ele>
<time>2017-03-02T11:24:04Z</time>
</trkpt>
<trkpt lat="40.63301166666667" lon="-3.1593566666666666">
<ele>697</ele>
<time>2017-03-02T11:24:06Z</time>
</trkpt>
<trkpt lat="40.63301166666667" lon="-3.1593633333333333">
<ele>696</ele>
<time>2017-03-02T11:24:08Z</time>
</trkpt>
<trkpt lat="40.63298833333333" lon="-3.15936">
<ele>696</ele>
<time>2017-03-02T11:24:10Z</time>
</trkpt>
<trkpt lat="40.63292166666667" lon="-3.1593333333333335">
<ele>696</ele>
<time>2017-03-02T11:24:12Z</time>
</trkpt>
<trkpt lat="40.63292166666667" lon="-3.159336666666667">
<ele>696</ele>
<time>2017-03-02T11:24:14Z</time>
</trkpt>
<trkpt lat="40.632925" lon="-3.159323333333333">
<ele>696</ele>
<time>2017-03-02T11:24:16Z</time>
</trkpt>
<trkpt lat="40.632918333333336" lon="-3.159323333333333">
<ele>697</ele>
<time>2017-03-02T11:24:18Z</time>
</trkpt>
<trkpt lat="40.632913333333335" lon="-3.1593250000000004">
<ele>697</ele>
<time>2017-03-02T11:24:20Z</time>
</trkpt>
<trkpt lat="40.632888333333334" lon="-3.1593349999999996">
<ele>698</ele>
<time>2017-03-02T11:24:22Z</time>
</trkpt>
<trkpt lat="40.632886666666664" lon="-3.1593533333333332">
<ele>699</ele>
<time>2017-03-02T11:24:24Z</time>
</trkpt>
<trkpt lat="40.632891666666666" lon="-3.1593633333333333">
<ele>700</ele>
<time>2017-03-02T11:24:26Z</time>
</trkpt>
<trkpt lat="40.632925" lon="-3.1594116666666667">
<ele>700</ele>
<time>2017-03-02T11:24:28Z</time>
</trkpt>
<trkpt lat="40.632965" lon="-3.159531666666667">
<ele>700</ele>
<time>2017-03-02T11:24:30Z</time>
</trkpt>
<trkpt lat="40.632976666666664" lon="-3.159581666666667">
<ele>699</ele>
<time>2017-03-02T11:24:32Z</time>
</trkpt>
<trkpt lat="40.633035" lon="-3.159583333333333">
<ele>699</ele>
<time>2017-03-02T11:24:34Z</time>
</trkpt>
<trkpt lat="40.63307333333333" lon="-3.1596016666666666">
<ele>699</ele>
<time>2017-03-02T11:24:36Z</time>
</trkpt>
<trkpt lat="40.63308833333333" lon="-3.1596699999999998">
<ele>698</ele>
<time>2017-03-02T11:24:38Z</time>
</trkpt>
<trkpt lat="40.63310666666666" lon="-3.1596883333333334">
<ele>698</ele>
<time>2017-03-02T11:24:40Z</time>
</trkpt>
<trkpt lat="40.63315333333333" lon="-3.1597416666666667">
<ele>698</ele>
<time>2017-03-02T11:24:42Z</time>
</trkpt>
<trkpt lat="40.63315166666666" lon="-3.1598016666666666">
<ele>698</ele>
<time>2017-03-02T11:24:44Z</time>
</trkpt>
<trkpt lat="40.63317333333334" lon="-3.159878333333333">
<ele>697</ele>
<time>2017-03-02T11:24:46Z</time>
</trkpt>
<trkpt lat="40.63319" lon="-3.159923333333333">
<ele>697</ele>
<time>2017-03-02T11:24:48Z</time>
</trkpt>
<trkpt lat="40.63312333333333" lon="-3.1598800000000002">
<ele>697</ele>
<time>2017-03-02T11:24:50Z</time>
</trkpt>
<trkpt lat="40.63319166666667" lon="-3.159803333333333">
<ele>697</ele>
<time>2017-03-02T11:24:52Z</time>
</trkpt>
<trkpt lat="40.63317333333334" lon="-3.159721666666667">
<ele>696</ele>
<time>2017-03-02T11:24:54Z</time>
</trkpt>
<trkpt lat="40.633136666666665" lon="-3.159686666666667">
<ele>696</ele>
<time>2017-03-02T11:24:56Z</time>
</trkpt>
<trkpt lat="40.63308333333334" lon="-3.159626666666667">
<ele>695</ele>
<time>2017-03-02T11:24:58Z</time>
</trkpt>
<trkpt lat="40.633035" lon="-3.1595516666666668">
<ele>695</ele>
<time>2017-03-02T11:25:00Z</time>
</trkpt>
<trkpt lat="40.63299833333333" lon="-3.1594833333333336">
<ele>695</ele>
<time>2017-03-02T11:25:02Z</time>
</trkpt>
<trkpt lat="40.63296166666667" lon="-3.1594150000000005">
<ele>695</ele>
<time>2017-03-02T11:25:04Z</time>
</trkpt>
<trkpt lat="40.63294666666666" lon="-3.159173333333334">
<ele>703</ele>
<time>2017-03-02T11:26:12Z</time>
</trkpt>
<trkpt lat="40.63297333333333" lon="-3.15919">
<ele>699</ele>
<time>2017-03-02T11:26:14Z</time>
</trkpt>
<trkpt lat="40.63297333333333" lon="-3.15919">
<ele>699</ele>
<time>2017-03-02T11:26:16Z</time>
</trkpt>
<trkpt lat="40.63297333333333" lon="-3.15919">
<ele>699</ele>
<time>2017-03-02T11:26:18Z</time>
</trkpt>
<trkpt lat="40.63297333333333" lon="-3.15919">
<ele>699</ele>
<time>2017-03-02T11:26:20Z</time>
</trkpt>
<trkpt lat="40.63297333333333" lon="-3.15919">
<ele>699</ele>
<time>2017-03-02T11:26:22Z</time>
</trkpt>
<trkpt lat="40.63297333333333" lon="-3.15919">
<ele>699</ele>
<time>2017-03-02T11:26:24Z</time>
</trkpt>
<trkpt lat="40.63297333333333" lon="-3.15919">
<ele>699</ele>
<time>2017-03-02T11:26:26Z</time>
</trkpt>
<trkpt lat="40.63297333333333" lon="-3.15919">
<ele>699</ele>
<time>2017-03-02T11:26:28Z</time>
</trkpt>
<trkpt lat="40.63297333333333" lon="-3.15919">
<ele>699</ele>
<time>2017-03-02T11:26:30Z</time>
</trkpt>
<trkpt lat="40.63297333333333" lon="-3.15919">
<ele>699</ele>
<time>2017-03-02T11:26:32Z</time>
</trkpt>
<trkpt lat="40.63297333333333" lon="-3.15919">
<ele>699</ele>
<time>2017-03-02T11:26:34Z</time>
</trkpt>
<trkpt lat="40.632978333333334" lon="-3.1592483333333328">
<ele>698</ele>
<time>2017-03-02T11:26:36Z</time>
</trkpt>
<trkpt lat="40.632963333333336" lon="-3.15927">
<ele>698</ele>
<time>2017-03-02T11:26:38Z</time>
</trkpt>
<trkpt lat="40.63297166666667" lon="-3.1592616666666666">
<ele>698</ele>
<time>2017-03-02T11:26:40Z</time>
</trkpt>
<trkpt lat="40.63297166666667" lon="-3.1592616666666666">
<ele>698</ele>
<time>2017-03-02T11:26:42Z</time>
</trkpt>
<trkpt lat="40.63305666666667" lon="-3.159265">
<ele>698</ele>
<time>2017-03-02T11:26:44Z</time>
</trkpt>
<trkpt lat="40.63309666666667" lon="-3.1592600000000006">
<ele>697</ele>
<time>2017-03-02T11:26:46Z</time>
</trkpt>
<trkpt lat="40.633138333333335" lon="-3.15927">
<ele>697</ele>
<time>2017-03-02T11:26:48Z</time>
</trkpt>
<trkpt lat="40.633181666666665" lon="-3.1592983333333335">
<ele>697</ele>
<time>2017-03-02T11:26:50Z</time>
</trkpt>
<trkpt lat="40.63321833333334" lon="-3.159336666666667">
<ele>697</ele>
<time>2017-03-02T11:26:52Z</time>
</trkpt>
<trkpt lat="40.63326" lon="-3.1593649999999998">
<ele>697</ele>
<time>2017-03-02T11:26:54Z</time>
</trkpt>
<trkpt lat="40.633305" lon="-3.1594016666666667">
<ele>697</ele>
<time>2017-03-02T11:26:56Z</time>
</trkpt>
<trkpt lat="40.633316666666666" lon="-3.15941">
<ele>696</ele>
<time>2017-03-02T11:26:58Z</time>
</trkpt>
<trkpt lat="40.63400166666667" lon="-3.1593033333333334">
<ele>553</ele>
<time>2017-03-02T11:28:04Z</time>
</trkpt>
<trkpt lat="40.633246666666665" lon="-3.1592300000000004">
<ele>671</ele>
<time>2017-03-02T11:28:06Z</time>
</trkpt>
<trkpt lat="40.63308666666667" lon="-3.159181666666667">
<ele>694</ele>
<time>2017-03-02T11:28:08Z</time>
</trkpt>
<trkpt lat="40.63308" lon="-3.1591483333333334">
<ele>698</ele>
<time>2017-03-02T11:28:10Z</time>
</trkpt>
<trkpt lat="40.63309666666667" lon="-3.1591400000000003">
<ele>697</ele>
<time>2017-03-02T11:28:12Z</time>
</trkpt>
<trkpt lat="40.63309666666667" lon="-3.1591400000000003">
<ele>697</ele>
<time>2017-03-02T11:28:14Z</time>
</trkpt>
<trkpt lat="40.63309666666667" lon="-3.1591400000000003">
<ele>697</ele>
<time>2017-03-02T11:28:16Z</time>
</trkpt>
<trkpt lat="40.633145" lon="-3.1591066666666667">
<ele>696</ele>
<time>2017-03-02T11:28:18Z</time>
</trkpt>
<trkpt lat="40.633165" lon="-3.1590849999999997">
<ele>696</ele>
<time>2017-03-02T11:28:20Z</time>
</trkpt>
<trkpt lat="40.633195" lon="-3.159071666666667">
<ele>695</ele>
<time>2017-03-02T11:28:22Z</time>
</trkpt>
<trkpt lat="40.633206666666666" lon="-3.1590683333333334">
<ele>694</ele>
<time>2017-03-02T11:28:24Z</time>
</trkpt>
<trkpt lat="40.633136666666665" lon="-3.1590166666666666">
<ele>696</ele>
<time>2017-03-02T11:28:26Z</time>
</trkpt>
<trkpt lat="40.633053333333336" lon="-3.1590666666666665">
<ele>698</ele>
<time>2017-03-02T11:28:28Z</time>
</trkpt>
<trkpt lat="40.63307" lon="-3.1592300000000004">
<ele>698</ele>
<time>2017-03-02T11:28:30Z</time>
</trkpt>
<trkpt lat="40.633098333333336" lon="-3.1594399999999996">
<ele>699</ele>
<time>2017-03-02T11:28:32Z</time>
</trkpt>
<trkpt lat="40.63329" lon="-3.1596583333333332">
<ele>699</ele>
<time>2017-03-02T11:28:34Z</time>
</trkpt>
<trkpt lat="40.63355166666667" lon="-3.159856666666667">
<ele>698</ele>
<time>2017-03-02T11:28:36Z</time>
</trkpt>
<trkpt lat="40.63380333333334" lon="-3.160063333333333">
<ele>697</ele>
<time>2017-03-02T11:28:38Z</time>
</trkpt>
<trkpt lat="40.633251666666666" lon="-3.159895">
<ele>696</ele>
<time>2017-03-02T11:28:40Z</time>
</trkpt>
<trkpt lat="40.63322" lon="-3.15996">
<ele>695</ele>
<time>2017-03-02T11:28:42Z</time>
</trkpt>
<trkpt lat="40.63330166666666" lon="-3.159981666666667">
<ele>695</ele>
<time>2017-03-02T11:28:44Z</time>
</trkpt>
<trkpt lat="40.6333" lon="-3.1599116666666665">
<ele>694</ele>
<time>2017-03-02T11:28:46Z</time>
</trkpt>
<trkpt lat="40.63330666666666" lon="-3.15981">
<ele>693</ele>
<time>2017-03-02T11:28:48Z</time>
</trkpt>
<trkpt lat="40.63331" lon="-3.159695">
<ele>692</ele>
<time>2017-03-02T11:28:50Z</time>
</trkpt>
<trkpt lat="40.633320000000005" lon="-3.15961">
<ele>691</ele>
<time>2017-03-02T11:28:52Z</time>
</trkpt>
<trkpt lat="40.63335333333334" lon="-3.159536666666667">
<ele>691</ele>
<time>2017-03-02T11:28:54Z</time>
</trkpt>
<trkpt lat="40.63339" lon="-3.1594516666666665">
<ele>691</ele>
<time>2017-03-02T11:28:56Z</time>
</trkpt>
<trkpt lat="40.63339166666666" lon="-3.1593949999999995">
<ele>691</ele>
<time>2017-03-02T11:28:58Z</time>
</trkpt>
<trkpt lat="40.63338" lon="-3.1593499999999994">
<ele>691</ele>
<time>2017-03-02T11:29:00Z</time>
</trkpt>
<trkpt lat="40.63336" lon="-3.1593400000000003">
<ele>691</ele>
<time>2017-03-02T11:29:02Z</time>
</trkpt>
<trkpt lat="40.63333166666666" lon="-3.1593283333333337">
<ele>690</ele>
<time>2017-03-02T11:29:04Z</time>
</trkpt>
<trkpt lat="40.63331" lon="-3.159308333333333">
<ele>690</ele>
<time>2017-03-02T11:29:06Z</time>
</trkpt>
<trkpt lat="40.633295" lon="-3.159271666666667">
<ele>690</ele>
<time>2017-03-02T11:29:08Z</time>
</trkpt>
<trkpt lat="40.63327666666667" lon="-3.1592583333333333">
<ele>690</ele>
<time>2017-03-02T11:29:10Z</time>
</trkpt>
<trkpt lat="40.63326" lon="-3.1592383333333336">
<ele>690</ele>
<time>2017-03-02T11:29:12Z</time>
</trkpt>
<trkpt lat="40.63327" lon="-3.1592233333333337">
<ele>690</ele>
<time>2017-03-02T11:29:14Z</time>
</trkpt>
<trkpt lat="40.63330166666666" lon="-3.1591866666666664">
<ele>690</ele>
<time>2017-03-02T11:29:16Z</time>
</trkpt>
<trkpt lat="40.63329" lon="-3.1592116666666668">
<ele>690</ele>
<time>2017-03-02T11:29:18Z</time>
</trkpt>
<trkpt lat="40.63328166666667" lon="-3.159241666666667">
<ele>690</ele>
<time>2017-03-02T11:29:20Z</time>
</trkpt>
<trkpt lat="40.63328166666667" lon="-3.159241666666667">
<ele>690</ele>
<time>2017-03-02T11:29:22Z</time>
</trkpt>
<trkpt lat="40.63328166666667" lon="-3.159241666666667">
<ele>690</ele>
<time>2017-03-02T11:29:24Z</time>
</trkpt>
<trkpt lat="40.63328166666667" lon="-3.159241666666667">
<ele>690</ele>
<time>2017-03-02T11:29:26Z</time>
</trkpt>
<trkpt lat="40.63337833333333" lon="-3.1592150000000006">
<ele>690</ele>
<time>2017-03-02T11:29:28Z</time>
</trkpt>
<trkpt lat="40.63339166666666" lon="-3.1592116666666668">
<ele>690</ele>
<time>2017-03-02T11:29:30Z</time>
</trkpt>
<trkpt lat="40.63339166666666" lon="-3.1592116666666668">
<ele>690</ele>
<time>2017-03-02T11:29:32Z</time>
</trkpt>
<trkpt lat="40.63342" lon="-3.1590816666666663">
<ele>690</ele>
<time>2017-03-02T11:29:34Z</time>
</trkpt>
<trkpt lat="40.63345666666667" lon="-3.1589949999999996">
<ele>690</ele>
<time>2017-03-02T11:29:36Z</time>
</trkpt>
<trkpt lat="40.633485" lon="-3.1590216666666664">
<ele>690</ele>
<time>2017-03-02T11:29:38Z</time>
</trkpt>
<trkpt lat="40.633495" lon="-3.1590150000000006">
<ele>690</ele>
<time>2017-03-02T11:29:40Z</time>
</trkpt>
<trkpt lat="40.63348666666666" lon="-3.1590316666666665">
<ele>690</ele>
<time>2017-03-02T11:29:42Z</time>
</trkpt>
<trkpt lat="40.633465" lon="-3.1590116666666668">
<ele>690</ele>
<time>2017-03-02T11:29:44Z</time>
</trkpt>
<trkpt lat="40.633445" lon="-3.1590116666666668">
<ele>690</ele>
<time>2017-03-02T11:29:46Z</time>
</trkpt>
<trkpt lat="40.63343333333333" lon="-3.159026666666667">
<ele>690</ele>
<time>2017-03-02T11:29:48Z</time>
</trkpt>
<trkpt lat="40.63343333333333" lon="-3.159026666666667">
<ele>690</ele>
<time>2017-03-02T11:29:50Z</time>
</trkpt>
<trkpt lat="40.63343333333333" lon="-3.159026666666667">
<ele>690</ele>
<time>2017-03-02T11:29:52Z</time>
</trkpt>
<trkpt lat="40.63343333333333" lon="-3.159026666666667">
<ele>690</ele>
<time>2017-03-02T11:29:54Z</time>
</trkpt>
<trkpt lat="40.63343333333333" lon="-3.159026666666667">
<ele>690</ele>
<time>2017-03-02T11:29:56Z</time>
</trkpt>
<trkpt lat="40.63343333333333" lon="-3.159026666666667">
<ele>690</ele>
<time>2017-03-02T11:29:58Z</time>
</trkpt>
<trkpt lat="40.63343333333333" lon="-3.159026666666667">
<ele>690</ele>
<time>2017-03-02T11:30:00Z</time>
</trkpt>
<trkpt lat="40.633316666666666" lon="-3.1591349999999996">
<ele>696</ele>
<time>2017-03-02T11:30:18Z</time>
</trkpt>
<trkpt lat="40.63325833333333" lon="-3.15911">
<ele>687</ele>
<time>2017-03-02T11:30:20Z</time>
</trkpt>
<trkpt lat="40.63323333333334" lon="-3.1591">
<ele>688</ele>
<time>2017-03-02T11:30:22Z</time>
</trkpt>
<trkpt lat="40.63323166666667" lon="-3.1591">
<ele>688</ele>
<time>2017-03-02T11:30:24Z</time>
</trkpt>
<trkpt lat="40.63323166666667" lon="-3.1591">
<ele>688</ele>
<time>2017-03-02T11:30:26Z</time>
</trkpt>
<trkpt lat="40.63317666666667" lon="-3.1590216666666664">
<ele>689</ele>
<time>2017-03-02T11:30:28Z</time>
</trkpt>
<trkpt lat="40.63317" lon="-3.15902">
<ele>689</ele>
<time>2017-03-02T11:30:30Z</time>
</trkpt>
<trkpt lat="40.63315333333333" lon="-3.1589850000000004">
<ele>691</ele>
<time>2017-03-02T11:30:32Z</time>
</trkpt>
<trkpt lat="40.63313" lon="-3.1589633333333333">
<ele>695</ele>
<time>2017-03-02T11:30:34Z</time>
</trkpt>
<trkpt lat="40.63312333333333" lon="-3.1589499999999995">
<ele>696</ele>
<time>2017-03-02T11:30:36Z</time>
</trkpt>
<trkpt lat="40.63312333333333" lon="-3.1589499999999995">
<ele>696</ele>
<time>2017-03-02T11:30:38Z</time>
</trkpt>
<trkpt lat="40.63312333333333" lon="-3.1589499999999995">
<ele>696</ele>
<time>2017-03-02T11:30:40Z</time>
</trkpt>
<trkpt lat="40.63312333333333" lon="-3.1589499999999995">
<ele>696</ele>
<time>2017-03-02T11:30:42Z</time>
</trkpt>
<trkpt lat="40.63312333333333" lon="-3.1589499999999995">
<ele>696</ele>
<time>2017-03-02T11:30:44Z</time>
</trkpt>
<trkpt lat="40.63312333333333" lon="-3.1589499999999995">
<ele>696</ele>
<time>2017-03-02T11:30:46Z</time>
</trkpt>
<trkpt lat="40.63312333333333" lon="-3.1589499999999995">
<ele>696</ele>
<time>2017-03-02T11:30:48Z</time>
</trkpt>
<trkpt lat="40.63312333333333" lon="-3.1589499999999995">
<ele>696</ele>
<time>2017-03-02T11:30:50Z</time>
</trkpt>
<trkpt lat="40.63312333333333" lon="-3.1589499999999995">
<ele>696</ele>
<time>2017-03-02T11:30:52Z</time>
</trkpt>
<trkpt lat="40.63312333333333" lon="-3.1589499999999995">
<ele>696</ele>
<time>2017-03-02T11:30:54Z</time>
</trkpt>
<trkpt lat="40.63312333333333" lon="-3.1589499999999995">
<ele>696</ele>
<time>2017-03-02T11:30:56Z</time>
</trkpt>
<trkpt lat="40.63312333333333" lon="-3.1589499999999995">
<ele>696</ele>
<time>2017-03-02T11:30:58Z</time>
</trkpt>
<trkpt lat="40.63312333333333" lon="-3.1589499999999995">
<ele>696</ele>
<time>2017-03-02T11:31:00Z</time>
</trkpt>
<trkpt lat="40.63304166666667" lon="-3.158901666666667">
<ele>702</ele>
<time>2017-03-02T11:31:02Z</time>
</trkpt>
<trkpt lat="40.633035" lon="-3.1588966666666662">
<ele>702</ele>
<time>2017-03-02T11:31:04Z</time>
</trkpt>
<trkpt lat="40.633035" lon="-3.1588966666666662">
<ele>702</ele>
<time>2017-03-02T11:31:06Z</time>
</trkpt>
<trkpt lat="40.633035" lon="-3.1588966666666662">
<ele>702</ele>
<time>2017-03-02T11:31:08Z</time>
</trkpt>
<trkpt lat="40.633035" lon="-3.1588966666666662">
<ele>702</ele>
<time>2017-03-02T11:31:10Z</time>
</trkpt>
<trkpt lat="40.633035" lon="-3.1588966666666662">
<ele>702</ele>
<time>2017-03-02T11:31:12Z</time>
</trkpt>
<trkpt lat="40.633035" lon="-3.1588966666666662">
<ele>702</ele>
<time>2017-03-02T11:31:14Z</time>
</trkpt>
<trkpt lat="40.633035" lon="-3.1588966666666662">
<ele>702</ele>
<time>2017-03-02T11:31:16Z</time>
</trkpt>
<trkpt lat="40.633035" lon="-3.1588966666666662">
<ele>702</ele>
<time>2017-03-02T11:31:18Z</time>
</trkpt>
<trkpt lat="40.633035" lon="-3.1588966666666662">
<ele>702</ele>
<time>2017-03-02T11:31:20Z</time>
</trkpt>
<trkpt lat="40.633035" lon="-3.1588966666666662">
<ele>702</ele>
<time>2017-03-02T11:31:22Z</time>
</trkpt>
<trkpt lat="40.633035" lon="-3.1588966666666662">
<ele>702</ele>
<time>2017-03-02T11:31:24Z</time>
</trkpt>
<trkpt lat="40.633035" lon="-3.1588966666666662">
<ele>702</ele>
<time>2017-03-02T11:31:26Z</time>
</trkpt>
<trkpt lat="40.632934999999996" lon="-3.159046666666667">
<ele>701</ele>
<time>2017-03-02T11:31:28Z</time>
</trkpt>
<trkpt lat="40.63289666666667" lon="-3.15919">
<ele>701</ele>
<time>2017-03-02T11:31:30Z</time>
</trkpt>
<trkpt lat="40.632978333333334" lon="-3.1592750000000005">
<ele>700</ele>
<time>2017-03-02T11:31:32Z</time>
</trkpt>
<trkpt lat="40.63296833333333" lon="-3.1593483333333334">
<ele>700</ele>
<time>2017-03-02T11:31:34Z</time>
</trkpt>
<trkpt lat="40.632905" lon="-3.159428333333333">
<ele>699</ele>
<time>2017-03-02T11:31:36Z</time>
</trkpt>
<trkpt lat="40.63281" lon="-3.1594166666666665">
<ele>699</ele>
<time>2017-03-02T11:31:38Z</time>
</trkpt>
<trkpt lat="40.63284" lon="-3.1592483333333328">
<ele>699</ele>
<time>2017-03-02T11:31:40Z</time>
</trkpt>
<trkpt lat="40.632828333333336" lon="-3.1590883333333335">
<ele>698</ele>
<time>2017-03-02T11:31:42Z</time>
</trkpt>
<trkpt lat="40.63274" lon="-3.1589583333333335">
<ele>698</ele>
<time>2017-03-02T11:31:44Z</time>
</trkpt>
<trkpt lat="40.63264166666667" lon="-3.1588083333333334">
<ele>698</ele>
<time>2017-03-02T11:31:46Z</time>
</trkpt>
<trkpt lat="40.632576666666665" lon="-3.1586383333333337">
<ele>697</ele>
<time>2017-03-02T11:31:48Z</time>
</trkpt>
<trkpt lat="40.63298833333333" lon="-3.15902">
<ele>705</ele>
<time>2017-03-02T11:32:04Z</time>
</trkpt>
<trkpt lat="40.632955" lon="-3.1589949999999996">
<ele>699</ele>
<time>2017-03-02T11:32:06Z</time>
</trkpt>
<trkpt lat="40.63302" lon="-3.15901">
<ele>698</ele>
<time>2017-03-02T11:32:08Z</time>
</trkpt>
<trkpt lat="40.633024999999996" lon="-3.1589633333333333">
<ele>699</ele>
<time>2017-03-02T11:32:10Z</time>
</trkpt>
<trkpt lat="40.63301166666667" lon="-3.1589266666666664">
<ele>699</ele>
<time>2017-03-02T11:32:12Z</time>
</trkpt>
<trkpt lat="40.632985" lon="-3.1588083333333334">
<ele>700</ele>
<time>2017-03-02T11:32:14Z</time>
</trkpt>
<trkpt lat="40.63297333333333" lon="-3.1587583333333336">
<ele>703</ele>
<time>2017-03-02T11:32:16Z</time>
</trkpt>
<trkpt lat="40.63295666666667" lon="-3.1587066666666668">
<ele>704</ele>
<time>2017-03-02T11:32:18Z</time>
</trkpt>
<trkpt lat="40.63294833333334" lon="-3.158693333333333">
<ele>705</ele>
<time>2017-03-02T11:32:20Z</time>
</trkpt>
<trkpt lat="40.63294333333333" lon="-3.1586900000000004">
<ele>705</ele>
<time>2017-03-02T11:32:22Z</time>
</trkpt>
<trkpt lat="40.63294333333333" lon="-3.1586900000000004">
<ele>705</ele>
<time>2017-03-02T11:32:24Z</time>
</trkpt>
<trkpt lat="40.63294333333333" lon="-3.1586900000000004">
<ele>705</ele>
<time>2017-03-02T11:32:26Z</time>
</trkpt>
<trkpt lat="40.63294333333333" lon="-3.1586900000000004">
<ele>705</ele>
<time>2017-03-02T11:32:28Z</time>
</trkpt>
<trkpt lat="40.63294333333333" lon="-3.1586900000000004">
<ele>705</ele>
<time>2017-03-02T11:32:30Z</time>
</trkpt>
<trkpt lat="40.63297166666667" lon="-3.1587349999999996">
<ele>705</ele>
<time>2017-03-02T11:32:32Z</time>
</trkpt>
<trkpt lat="40.63308166666666" lon="-3.158851666666666">
<ele>705</ele>
<time>2017-03-02T11:32:34Z</time>
</trkpt>
<trkpt lat="40.63321666666666" lon="-3.1589949999999996">
<ele>705</ele>
<time>2017-03-02T11:32:36Z</time>
</trkpt>
<trkpt lat="40.63339" lon="-3.159136666666667">
<ele>705</ele>
<time>2017-03-02T11:32:38Z</time>
</trkpt>
<trkpt lat="40.63354833333334" lon="-3.1592883333333335">
<ele>706</ele>
<time>2017-03-02T11:32:40Z</time>
</trkpt>
<trkpt lat="40.63346833333333" lon="-3.15961">
<ele>706</ele>
<time>2017-03-02T11:32:42Z</time>
</trkpt>
<trkpt lat="40.633296666666666" lon="-3.159396666666667">
<ele>706</ele>
<time>2017-03-02T11:32:44Z</time>
</trkpt>
<trkpt lat="40.63332666666667" lon="-3.1588033333333336">
<ele>705</ele>
<time>2017-03-02T11:32:46Z</time>
</trkpt>
<trkpt lat="40.63335666666667" lon="-3.158101666666667">
<ele>705</ele>
<time>2017-03-02T11:32:48Z</time>
</trkpt>
<trkpt lat="40.633375" lon="-3.157583333333333">
<ele>705</ele>
<time>2017-03-02T11:32:50Z</time>
</trkpt>
<trkpt lat="40.633375" lon="-3.1571516666666666">
<ele>705</ele>
<time>2017-03-02T11:32:52Z</time>
</trkpt>
<trkpt lat="40.63333" lon="-3.1586816666666664">
<ele>708</ele>
<time>2017-03-02T11:33:50Z</time>
</trkpt>
<trkpt lat="40.63333" lon="-3.1586816666666664">
<ele>708</ele>
<time>2017-03-02T11:33:52Z</time>
</trkpt>
<trkpt lat="40.63333" lon="-3.1586816666666664">
<ele>708</ele>
<time>2017-03-02T11:33:54Z</time>
</trkpt>
<trkpt lat="40.63333" lon="-3.1586816666666664">
<ele>708</ele>
<time>2017-03-02T11:33:56Z</time>
</trkpt>
<trkpt lat="40.63330666666666" lon="-3.1587949999999996">
<ele>705</ele>
<time>2017-03-02T11:33:58Z</time>
</trkpt>
<trkpt lat="40.6332" lon="-3.158755">
<ele>705</ele>
<time>2017-03-02T11:34:04Z</time>
</trkpt>
<trkpt lat="40.63322166666667" lon="-3.1587349999999996">
<ele>705</ele>
<time>2017-03-02T11:34:06Z</time>
</trkpt>
<trkpt lat="40.63323333333334" lon="-3.1587633333333334">
<ele>705</ele>
<time>2017-03-02T11:34:08Z</time>
</trkpt>
<trkpt lat="40.633230000000005" lon="-3.158768333333333">
<ele>706</ele>
<time>2017-03-02T11:34:10Z</time>
</trkpt>
<trkpt lat="40.63327666666667" lon="-3.158751666666667">
<ele>707</ele>
<time>2017-03-02T11:34:12Z</time>
</trkpt>
<trkpt lat="40.63331" lon="-3.1586950000000003">
<ele>707</ele>
<time>2017-03-02T11:34:14Z</time>
</trkpt>
<trkpt lat="40.633338333333334" lon="-3.158646666666667">
<ele>708</ele>
<time>2017-03-02T11:34:16Z</time>
</trkpt>
<trkpt lat="40.63317666666667" lon="-3.1585033333333334">
<ele>699</ele>
<time>2017-03-02T11:34:42Z</time>
</trkpt>
<trkpt lat="40.63321833333334" lon="-3.1584833333333338">
<ele>701</ele>
<time>2017-03-02T11:34:44Z</time>
</trkpt>
<trkpt lat="40.63327" lon="-3.1584666666666665">
<ele>704</ele>
<time>2017-03-02T11:34:46Z</time>
</trkpt>
<trkpt lat="40.63331166666667" lon="-3.1584383333333337">
<ele>705</ele>
<time>2017-03-02T11:34:48Z</time>
</trkpt>
<trkpt lat="40.633318333333335" lon="-3.1584233333333334">
<ele>705</ele>
<time>2017-03-02T11:34:50Z</time>
</trkpt>
<trkpt lat="40.633285" lon="-3.1584983333333336">
<ele>705</ele>
<time>2017-03-02T11:34:52Z</time>
</trkpt>
<trkpt lat="40.63334" lon="-3.1585116666666666">
<ele>705</ele>
<time>2017-03-02T11:34:54Z</time>
</trkpt>
<trkpt lat="40.633410000000005" lon="-3.1585566666666667">
<ele>705</ele>
<time>2017-03-02T11:34:56Z</time>
</trkpt>
<trkpt lat="40.63343333333333" lon="-3.158596666666667">
<ele>705</ele>
<time>2017-03-02T11:34:58Z</time>
</trkpt>
<trkpt lat="40.63344333333334" lon="-3.158618333333334">
<ele>707</ele>
<time>2017-03-02T11:35:00Z</time>
</trkpt>
<trkpt lat="40.63341166666667" lon="-3.158628333333333">
<ele>707</ele>
<time>2017-03-02T11:35:02Z</time>
</trkpt>
<trkpt lat="40.63341166666667" lon="-3.158628333333333">
<ele>707</ele>
<time>2017-03-02T11:35:04Z</time>
</trkpt>
<trkpt lat="40.63341166666667" lon="-3.158628333333333">
<ele>707</ele>
<time>2017-03-02T11:35:06Z</time>
</trkpt>
<trkpt lat="40.63341166666667" lon="-3.158628333333333">
<ele>707</ele>
<time>2017-03-02T11:35:08Z</time>
</trkpt>
<trkpt lat="40.633248333333334" lon="-3.158626666666667">
<ele>708</ele>
<time>2017-03-02T11:35:10Z</time>
</trkpt>
<trkpt lat="40.633215" lon="-3.1586316666666665">
<ele>708</ele>
<time>2017-03-02T11:35:12Z</time>
</trkpt>
<trkpt lat="40.63319333333333" lon="-3.158598333333333">
<ele>708</ele>
<time>2017-03-02T11:35:14Z</time>
</trkpt>
<trkpt lat="40.633161666666666" lon="-3.158561666666666">
<ele>707</ele>
<time>2017-03-02T11:35:16Z</time>
</trkpt>
<trkpt lat="40.633145" lon="-3.158523333333333">
<ele>707</ele>
<time>2017-03-02T11:35:18Z</time>
</trkpt>
<trkpt lat="40.63311833333333" lon="-3.1584766666666666">
<ele>707</ele>
<time>2017-03-02T11:35:20Z</time>
</trkpt>
<trkpt lat="40.63312333333333" lon="-3.1584549999999996">
<ele>707</ele>
<time>2017-03-02T11:35:22Z</time>
</trkpt>
<trkpt lat="40.63313" lon="-3.158441666666667">
<ele>707</ele>
<time>2017-03-02T11:35:24Z</time>
</trkpt>
<trkpt lat="40.63313" lon="-3.158441666666667">
<ele>707</ele>
<time>2017-03-02T11:35:26Z</time>
</trkpt>
<trkpt lat="40.63313" lon="-3.158441666666667">
<ele>707</ele>
<time>2017-03-02T11:35:28Z</time>
</trkpt>
<trkpt lat="40.63313" lon="-3.158441666666667">
<ele>707</ele>
<time>2017-03-02T11:35:30Z</time>
</trkpt>
<trkpt lat="40.63313" lon="-3.158441666666667">
<ele>707</ele>
<time>2017-03-02T11:35:32Z</time>
</trkpt>
<trkpt lat="40.63313" lon="-3.158441666666667">
<ele>707</ele>
<time>2017-03-02T11:35:34Z</time>
</trkpt>
<trkpt lat="40.63306166666667" lon="-3.1583816666666666">
<ele>704</ele>
<time>2017-03-02T11:35:36Z</time>
</trkpt>
<trkpt lat="40.633053333333336" lon="-3.15837">
<ele>704</ele>
<time>2017-03-02T11:35:38Z</time>
</trkpt>
<trkpt lat="40.633053333333336" lon="-3.15837">
<ele>704</ele>
<time>2017-03-02T11:35:40Z</time>
</trkpt>
<trkpt lat="40.633053333333336" lon="-3.15837">
<ele>704</ele>
<time>2017-03-02T11:35:42Z</time>
</trkpt>
<trkpt lat="40.633053333333336" lon="-3.15837">
<ele>704</ele>
<time>2017-03-02T11:35:44Z</time>
</trkpt>
<trkpt lat="40.633053333333336" lon="-3.15837">
<ele>704</ele>
<time>2017-03-02T11:35:46Z</time>
</trkpt>
<trkpt lat="40.633053333333336" lon="-3.15837">
<ele>704</ele>
<time>2017-03-02T11:35:48Z</time>
</trkpt>
<trkpt lat="40.633053333333336" lon="-3.15837">
<ele>704</ele>
<time>2017-03-02T11:35:50Z</time>
</trkpt>
<trkpt lat="40.633053333333336" lon="-3.15837">
<ele>704</ele>
<time>2017-03-02T11:35:52Z</time>
</trkpt>
<trkpt lat="40.633053333333336" lon="-3.15837">
<ele>704</ele>
<time>2017-03-02T11:35:54Z</time>
</trkpt>
<trkpt lat="40.633053333333336" lon="-3.15837">
<ele>704</ele>
<time>2017-03-02T11:35:56Z</time>
</trkpt>
<trkpt lat="40.63295666666667" lon="-3.1583816666666666">
<ele>702</ele>
<time>2017-03-02T11:35:58Z</time>
</trkpt>
<trkpt lat="40.632936666666666" lon="-3.1583766666666664">
<ele>702</ele>
<time>2017-03-02T11:36:00Z</time>
</trkpt>
<trkpt lat="40.63291" lon="-3.1583666666666668">
<ele>702</ele>
<time>2017-03-02T11:36:02Z</time>
</trkpt>
<trkpt lat="40.63289666666667" lon="-3.1583400000000004">
<ele>702</ele>
<time>2017-03-02T11:36:04Z</time>
</trkpt>
<trkpt lat="40.633003333333335" lon="-3.158288333333333">
<ele>682</ele>
<time>2017-03-02T11:36:16Z</time>
</trkpt>
<trkpt lat="40.63304333333333" lon="-3.1582633333333328">
<ele>685</ele>
<time>2017-03-02T11:36:18Z</time>
</trkpt>
<trkpt lat="40.63307666666666" lon="-3.158243333333333">
<ele>688</ele>
<time>2017-03-02T11:36:20Z</time>
</trkpt>
<trkpt lat="40.63307833333333" lon="-3.1582033333333337">
<ele>689</ele>
<time>2017-03-02T11:36:22Z</time>
</trkpt>
<trkpt lat="40.63309" lon="-3.158166666666667">
<ele>690</ele>
<time>2017-03-02T11:36:24Z</time>
</trkpt>
<trkpt lat="40.63310666666666" lon="-3.1581333333333332">
<ele>691</ele>
<time>2017-03-02T11:36:26Z</time>
</trkpt>
<trkpt lat="40.63312333333333" lon="-3.1581133333333336">
<ele>691</ele>
<time>2017-03-02T11:36:28Z</time>
</trkpt>
<trkpt lat="40.63313166666667" lon="-3.1580900000000005">
<ele>691</ele>
<time>2017-03-02T11:36:30Z</time>
</trkpt>
<trkpt lat="40.633136666666665" lon="-3.158088333333333">
<ele>691</ele>
<time>2017-03-02T11:36:32Z</time>
</trkpt>
<trkpt lat="40.63319166666667" lon="-3.15813">
<ele>691</ele>
<time>2017-03-02T11:36:34Z</time>
</trkpt>
<trkpt lat="40.63324" lon="-3.1581933333333336">
<ele>691</ele>
<time>2017-03-02T11:36:36Z</time>
</trkpt>
<trkpt lat="40.63327666666667" lon="-3.1582366666666664">
<ele>692</ele>
<time>2017-03-02T11:36:38Z</time>
</trkpt>
<trkpt lat="40.63329" lon="-3.15828">
<ele>693</ele>
<time>2017-03-02T11:36:40Z</time>
</trkpt>
<trkpt lat="40.6333" lon="-3.158271666666667">
<ele>694</ele>
<time>2017-03-02T11:36:42Z</time>
</trkpt>
<trkpt lat="40.63326" lon="-3.158215">
<ele>696</ele>
<time>2017-03-02T11:36:44Z</time>
</trkpt>
<trkpt lat="40.63321333333333" lon="-3.15817">
<ele>698</ele>
<time>2017-03-02T11:36:46Z</time>
</trkpt>
<trkpt lat="40.633185000000005" lon="-3.15813">
<ele>700</ele>
<time>2017-03-02T11:36:48Z</time>
</trkpt>
<trkpt lat="40.633181666666665" lon="-3.158115">
<ele>700</ele>
<time>2017-03-02T11:36:50Z</time>
</trkpt>
<trkpt lat="40.63319" lon="-3.1581483333333336">
<ele>701</ele>
<time>2017-03-02T11:36:52Z</time>
</trkpt>
<trkpt lat="40.63319" lon="-3.158166666666667">
<ele>702</ele>
<time>2017-03-02T11:36:54Z</time>
</trkpt>
<trkpt lat="40.63317333333334" lon="-3.1581550000000003">
<ele>702</ele>
<time>2017-03-02T11:36:56Z</time>
</trkpt>
<trkpt lat="40.63314833333333" lon="-3.1581316666666672">
<ele>703</ele>
<time>2017-03-02T11:36:58Z</time>
</trkpt>
<trkpt lat="40.63312333333333" lon="-3.1580983333333337">
<ele>703</ele>
<time>2017-03-02T11:37:00Z</time>
</trkpt>
<trkpt lat="40.63311833333333" lon="-3.158066666666666">
<ele>704</ele>
<time>2017-03-02T11:37:02Z</time>
</trkpt>
<trkpt lat="40.63311833333333" lon="-3.1580450000000004">
<ele>705</ele>
<time>2017-03-02T11:37:04Z</time>
</trkpt>
<trkpt lat="40.63312" lon="-3.1580450000000004">
<ele>705</ele>
<time>2017-03-02T11:37:06Z</time>
</trkpt>
<trkpt lat="40.63312" lon="-3.1580450000000004">
<ele>705</ele>
<time>2017-03-02T11:37:08Z</time>
</trkpt>
<trkpt lat="40.63312" lon="-3.1580450000000004">
<ele>705</ele>
<time>2017-03-02T11:37:10Z</time>
</trkpt>
<trkpt lat="40.63312" lon="-3.1580450000000004">
<ele>705</ele>
<time>2017-03-02T11:37:12Z</time>
</trkpt>
<trkpt lat="40.63312" lon="-3.1580450000000004">
<ele>705</ele>
<time>2017-03-02T11:37:14Z</time>
</trkpt>
<trkpt lat="40.63308" lon="-3.1580300000000006">
<ele>708</ele>
<time>2017-03-02T11:37:16Z</time>
</trkpt>
<trkpt lat="40.63306333333333" lon="-3.158043333333333">
<ele>709</ele>
<time>2017-03-02T11:37:18Z</time>
</trkpt>
<trkpt lat="40.63302" lon="-3.158025">
<ele>710</ele>
<time>2017-03-02T11:37:20Z</time>
</trkpt>
<trkpt lat="40.632981666666666" lon="-3.158006666666666">
<ele>710</ele>
<time>2017-03-02T11:37:22Z</time>
</trkpt>
<trkpt lat="40.63295166666667" lon="-3.158028333333333">
<ele>711</ele>
<time>2017-03-02T11:37:24Z</time>
</trkpt>
<trkpt lat="40.63291166666667" lon="-3.1580600000000003">
<ele>711</ele>
<time>2017-03-02T11:37:26Z</time>
</trkpt>
<trkpt lat="40.632895" lon="-3.158078333333333">
<ele>712</ele>
<time>2017-03-02T11:37:28Z</time>
</trkpt>
<trkpt lat="40.63286666666667" lon="-3.158101666666667">
<ele>712</ele>
<time>2017-03-02T11:37:30Z</time>
</trkpt>
<trkpt lat="40.63299166666666" lon="-3.15827">
<ele>711</ele>
<time>2017-03-02T11:37:32Z</time>
</trkpt>
<trkpt lat="40.633183333333335" lon="-3.1582733333333333">
<ele>711</ele>
<time>2017-03-02T11:37:34Z</time>
</trkpt>
<trkpt lat="40.633138333333335" lon="-3.1582000000000003">
<ele>710</ele>
<time>2017-03-02T11:37:36Z</time>
</trkpt>
<trkpt lat="40.633055" lon="-3.15813">
<ele>708</ele>
<time>2017-03-02T11:37:38Z</time>
</trkpt>
<trkpt lat="40.633048333333335" lon="-3.1579850000000005">
<ele>708</ele>
<time>2017-03-02T11:37:40Z</time>
</trkpt>
<trkpt lat="40.63301" lon="-3.1578733333333333">
<ele>708</ele>
<time>2017-03-02T11:37:42Z</time>
</trkpt>
<trkpt lat="40.632978333333334" lon="-3.157805">
<ele>708</ele>
<time>2017-03-02T11:37:44Z</time>
</trkpt>
<trkpt lat="40.63301833333333" lon="-3.15779">
<ele>708</ele>
<time>2017-03-02T11:37:46Z</time>
</trkpt>
<trkpt lat="40.63301833333333" lon="-3.15779">
<ele>708</ele>
<time>2017-03-02T11:37:48Z</time>
</trkpt>
<trkpt lat="40.63304333333333" lon="-3.1577266666666666">
<ele>707</ele>
<time>2017-03-02T11:37:50Z</time>
</trkpt>
<trkpt lat="40.63306" lon="-3.157715">
<ele>708</ele>
<time>2017-03-02T11:37:52Z</time>
</trkpt>
<trkpt lat="40.63306" lon="-3.157715">
<ele>708</ele>
<time>2017-03-02T11:37:54Z</time>
</trkpt>
<trkpt lat="40.63306" lon="-3.157715">
<ele>708</ele>
<time>2017-03-02T11:37:56Z</time>
</trkpt>
<trkpt lat="40.63306" lon="-3.157715">
<ele>708</ele>
<time>2017-03-02T11:37:58Z</time>
</trkpt>
<trkpt lat="40.63317333333334" lon="-3.1576733333333333">
<ele>708</ele>
<time>2017-03-02T11:38:00Z</time>
</trkpt>
<trkpt lat="40.63318666666667" lon="-3.1576166666666667">
<ele>709</ele>
<time>2017-03-02T11:38:02Z</time>
</trkpt>
<trkpt lat="40.63319" lon="-3.1575816666666667">
<ele>710</ele>
<time>2017-03-02T11:38:04Z</time>
</trkpt>
<trkpt lat="40.63319333333333" lon="-3.1575599999999997">
<ele>710</ele>
<time>2017-03-02T11:38:06Z</time>
</trkpt>
<trkpt lat="40.63319833333333" lon="-3.157548333333333">
<ele>711</ele>
<time>2017-03-02T11:38:08Z</time>
</trkpt>
<trkpt lat="40.63319833333333" lon="-3.157548333333333">
<ele>711</ele>
<time>2017-03-02T11:38:10Z</time>
</trkpt>
<trkpt lat="40.63319833333333" lon="-3.157548333333333">
<ele>711</ele>
<time>2017-03-02T11:38:12Z</time>
</trkpt>
<trkpt lat="40.63319833333333" lon="-3.157548333333333">
<ele>711</ele>
<time>2017-03-02T11:38:14Z</time>
</trkpt>
<trkpt lat="40.63326333333334" lon="-3.1574600000000004">
<ele>712</ele>
<time>2017-03-02T11:38:16Z</time>
</trkpt>
<trkpt lat="40.63325666666666" lon="-3.15744">
<ele>713</ele>
<time>2017-03-02T11:38:18Z</time>
</trkpt>
<trkpt lat="40.63323333333334" lon="-3.1574383333333333">
<ele>713</ele>
<time>2017-03-02T11:38:20Z</time>
</trkpt>
<trkpt lat="40.63323333333334" lon="-3.1574383333333333">
<ele>713</ele>
<time>2017-03-02T11:38:22Z</time>
</trkpt>
<trkpt lat="40.63323333333334" lon="-3.1574383333333333">
<ele>713</ele>
<time>2017-03-02T11:38:24Z</time>
</trkpt>
<trkpt lat="40.633113333333334" lon="-3.157421666666666">
<ele>717</ele>
<time>2017-03-02T11:38:26Z</time>
</trkpt>
<trkpt lat="40.63310333333333" lon="-3.1574233333333335">
<ele>717</ele>
<time>2017-03-02T11:38:28Z</time>
</trkpt>
<trkpt lat="40.63310333333333" lon="-3.1574233333333335">
<ele>717</ele>
<time>2017-03-02T11:38:30Z</time>
</trkpt>
<trkpt lat="40.63310333333333" lon="-3.1574233333333335">
<ele>717</ele>
<time>2017-03-02T11:38:32Z</time>
</trkpt>
<trkpt lat="40.63310333333333" lon="-3.1574233333333335">
<ele>717</ele>
<time>2017-03-02T11:38:34Z</time>
</trkpt>
<trkpt lat="40.63310333333333" lon="-3.1574233333333335">
<ele>717</ele>
<time>2017-03-02T11:38:36Z</time>
</trkpt>
<trkpt lat="40.63310333333333" lon="-3.1574233333333335">
<ele>717</ele>
<time>2017-03-02T11:38:38Z</time>
</trkpt>
<trkpt lat="40.63310333333333" lon="-3.1574233333333335">
<ele>717</ele>
<time>2017-03-02T11:38:40Z</time>
</trkpt>
<trkpt lat="40.63310333333333" lon="-3.1574233333333335">
<ele>717</ele>
<time>2017-03-02T11:38:42Z</time>
</trkpt>
<trkpt lat="40.63310333333333" lon="-3.1574233333333335">
<ele>717</ele>
<time>2017-03-02T11:38:44Z</time>
</trkpt>
<trkpt lat="40.63310333333333" lon="-3.1574233333333335">
<ele>717</ele>
<time>2017-03-02T11:38:46Z</time>
</trkpt>
<trkpt lat="40.63310333333333" lon="-3.1574233333333335">
<ele>717</ele>
<time>2017-03-02T11:38:48Z</time>
</trkpt>
<trkpt lat="40.63310333333333" lon="-3.1574233333333335">
<ele>717</ele>
<time>2017-03-02T11:38:50Z</time>
</trkpt>
<trkpt lat="40.63310333333333" lon="-3.1574233333333335">
<ele>717</ele>
<time>2017-03-02T11:38:52Z</time>
</trkpt>
<trkpt lat="40.63310333333333" lon="-3.1574233333333335">
<ele>717</ele>
<time>2017-03-02T11:38:54Z</time>
</trkpt>
<trkpt lat="40.63310333333333" lon="-3.1574233333333335">
<ele>717</ele>
<time>2017-03-02T11:38:56Z</time>
</trkpt>
<trkpt lat="40.63310333333333" lon="-3.1574233333333335">
<ele>717</ele>
<time>2017-03-02T11:38:58Z</time>
</trkpt>
<trkpt lat="40.63310333333333" lon="-3.1574233333333335">
<ele>717</ele>
<time>2017-03-02T11:39:00Z</time>
</trkpt>
<trkpt lat="40.63310333333333" lon="-3.1574233333333335">
<ele>717</ele>
<time>2017-03-02T11:39:02Z</time>
</trkpt>
<trkpt lat="40.63310333333333" lon="-3.1574233333333335">
<ele>717</ele>
<time>2017-03-02T11:39:04Z</time>
</trkpt>
<trkpt lat="40.63310333333333" lon="-3.1574233333333335">
<ele>717</ele>
<time>2017-03-02T11:39:06Z</time>
</trkpt>
<trkpt lat="40.63300666666667" lon="-3.1573816666666668">
<ele>720</ele>
<time>2017-03-02T11:39:08Z</time>
</trkpt>
<trkpt lat="40.633003333333335" lon="-3.1573783333333334">
<ele>720</ele>
<time>2017-03-02T11:39:10Z</time>
</trkpt>
<trkpt lat="40.633003333333335" lon="-3.1573783333333334">
<ele>720</ele>
<time>2017-03-02T11:39:12Z</time>
</trkpt>
<trkpt lat="40.633003333333335" lon="-3.1573783333333334">
<ele>720</ele>
<time>2017-03-02T11:39:14Z</time>
</trkpt>
<trkpt lat="40.633003333333335" lon="-3.1573783333333334">
<ele>720</ele>
<time>2017-03-02T11:39:16Z</time>
</trkpt>
<trkpt lat="40.633003333333335" lon="-3.1573783333333334">
<ele>720</ele>
<time>2017-03-02T11:39:18Z</time>
</trkpt>
<trkpt lat="40.633003333333335" lon="-3.1573783333333334">
<ele>720</ele>
<time>2017-03-02T11:39:20Z</time>
</trkpt>
<trkpt lat="40.63291" lon="-3.1573700000000002">
<ele>719</ele>
<time>2017-03-02T11:39:22Z</time>
</trkpt>
<trkpt lat="40.63289833333333" lon="-3.157368333333333">
<ele>719</ele>
<time>2017-03-02T11:39:24Z</time>
</trkpt>
<trkpt lat="40.63289833333333" lon="-3.157368333333333">
<ele>719</ele>
<time>2017-03-02T11:39:26Z</time>
</trkpt>
<trkpt lat="40.63289833333333" lon="-3.157368333333333">
<ele>719</ele>
<time>2017-03-02T11:39:28Z</time>
</trkpt>
<trkpt lat="40.63289833333333" lon="-3.157368333333333">
<ele>719</ele>
<time>2017-03-02T11:39:30Z</time>
</trkpt>
<trkpt lat="40.63289833333333" lon="-3.157368333333333">
<ele>719</ele>
<time>2017-03-02T11:39:32Z</time>
</trkpt>
<trkpt lat="40.63289833333333" lon="-3.157368333333333">
<ele>719</ele>
<time>2017-03-02T11:39:34Z</time>
</trkpt>
<trkpt lat="40.63289833333333" lon="-3.157368333333333">
<ele>719</ele>
<time>2017-03-02T11:39:36Z</time>
</trkpt>
<trkpt lat="40.63289833333333" lon="-3.157368333333333">
<ele>719</ele>
<time>2017-03-02T11:39:38Z</time>
</trkpt>
<trkpt lat="40.63289833333333" lon="-3.157368333333333">
<ele>719</ele>
<time>2017-03-02T11:39:40Z</time>
</trkpt>
<trkpt lat="40.63289833333333" lon="-3.157368333333333">
<ele>719</ele>
<time>2017-03-02T11:39:42Z</time>
</trkpt>
<trkpt lat="40.63289833333333" lon="-3.157368333333333">
<ele>719</ele>
<time>2017-03-02T11:39:44Z</time>
</trkpt>
<trkpt lat="40.63289833333333" lon="-3.157368333333333">
<ele>719</ele>
<time>2017-03-02T11:39:46Z</time>
</trkpt>
<trkpt lat="40.63289833333333" lon="-3.157368333333333">
<ele>719</ele>
<time>2017-03-02T11:39:48Z</time>
</trkpt>
<trkpt lat="40.63289833333333" lon="-3.157368333333333">
<ele>719</ele>
<time>2017-03-02T11:39:50Z</time>
</trkpt>
<trkpt lat="40.63289833333333" lon="-3.157368333333333">
<ele>719</ele>
<time>2017-03-02T11:39:52Z</time>
</trkpt>
<trkpt lat="40.63289833333333" lon="-3.157368333333333">
<ele>719</ele>
<time>2017-03-02T11:39:54Z</time>
</trkpt>
<trkpt lat="40.63289833333333" lon="-3.157368333333333">
<ele>719</ele>
<time>2017-03-02T11:39:56Z</time>
</trkpt>
<trkpt lat="40.63289833333333" lon="-3.157368333333333">
<ele>719</ele>
<time>2017-03-02T11:39:58Z</time>
</trkpt>
<trkpt lat="40.63289833333333" lon="-3.157368333333333">
<ele>719</ele>
<time>2017-03-02T11:40:00Z</time>
</trkpt>
<trkpt lat="40.63289833333333" lon="-3.157368333333333">
<ele>719</ele>
<time>2017-03-02T11:40:02Z</time>
</trkpt>
<trkpt lat="40.63299" lon="-3.157368333333333">
<ele>717</ele>
<time>2017-03-02T11:40:04Z</time>
</trkpt>
<trkpt lat="40.63299" lon="-3.1573716666666667">
<ele>717</ele>
<time>2017-03-02T11:40:06Z</time>
</trkpt>
<trkpt lat="40.63299333333334" lon="-3.1573733333333336">
<ele>717</ele>
<time>2017-03-02T11:40:08Z</time>
</trkpt>
<trkpt lat="40.63299333333334" lon="-3.1573733333333336">
<ele>717</ele>
<time>2017-03-02T11:40:10Z</time>
</trkpt>
<trkpt lat="40.63299333333334" lon="-3.1573733333333336">
<ele>717</ele>
<time>2017-03-02T11:40:12Z</time>
</trkpt>
<trkpt lat="40.63299333333334" lon="-3.1573733333333336">
<ele>717</ele>
<time>2017-03-02T11:40:14Z</time>
</trkpt>
<trkpt lat="40.63299333333334" lon="-3.1573733333333336">
<ele>717</ele>
<time>2017-03-02T11:40:16Z</time>
</trkpt>
<trkpt lat="40.63299333333334" lon="-3.1573733333333336">
<ele>717</ele>
<time>2017-03-02T11:40:18Z</time>
</trkpt>
<trkpt lat="40.63299333333334" lon="-3.1573733333333336">
<ele>717</ele>
<time>2017-03-02T11:40:20Z</time>
</trkpt>
<trkpt lat="40.633525" lon="-3.1569349999999994">
<ele>702</ele>
<time>2017-03-02T11:41:04Z</time>
</trkpt>
<trkpt lat="40.633498333333335" lon="-3.156998333333333">
<ele>700</ele>
<time>2017-03-02T11:41:06Z</time>
</trkpt>
<trkpt lat="40.63350833333333" lon="-3.156998333333333">
<ele>697</ele>
<time>2017-03-02T11:41:08Z</time>
</trkpt>
<trkpt lat="40.63353" lon="-3.156985">
<ele>694</ele>
<time>2017-03-02T11:41:10Z</time>
</trkpt>
<trkpt lat="40.63353333333334" lon="-3.1569833333333333">
<ele>694</ele>
<time>2017-03-02T11:41:12Z</time>
</trkpt>
<trkpt lat="40.63353333333334" lon="-3.1569833333333333">
<ele>694</ele>
<time>2017-03-02T11:41:14Z</time>
</trkpt>
<trkpt lat="40.63353333333334" lon="-3.1569833333333333">
<ele>694</ele>
<time>2017-03-02T11:41:16Z</time>
</trkpt>
<trkpt lat="40.63354666666667" lon="-3.157095">
<ele>692</ele>
<time>2017-03-02T11:41:18Z</time>
</trkpt>
<trkpt lat="40.63358" lon="-3.157126666666666">
<ele>692</ele>
<time>2017-03-02T11:41:20Z</time>
</trkpt>
<trkpt lat="40.633676666666666" lon="-3.1572733333333334">
<ele>692</ele>
<time>2017-03-02T11:41:22Z</time>
</trkpt>
<trkpt lat="40.633783333333334" lon="-3.157456666666667">
<ele>692</ele>
<time>2017-03-02T11:41:24Z</time>
</trkpt>
<trkpt lat="40.633685" lon="-3.1573266666666666">
<ele>691</ele>
<time>2017-03-02T11:41:26Z</time>
</trkpt>
<trkpt lat="40.633745" lon="-3.1572549999999997">
<ele>691</ele>
<time>2017-03-02T11:41:28Z</time>
</trkpt>
<trkpt lat="40.63383666666667" lon="-3.157168333333333">
<ele>691</ele>
<time>2017-03-02T11:41:30Z</time>
</trkpt>
<trkpt lat="40.63297" lon="-3.1577633333333335">
<ele>649</ele>
<time>2017-03-02T11:44:22Z</time>
</trkpt>
<trkpt lat="40.632960000000004" lon="-3.1577283333333335">
<ele>662</ele>
<time>2017-03-02T11:44:24Z</time>
</trkpt>
<trkpt lat="40.63296166666667" lon="-3.1577116666666663">
<ele>667</ele>
<time>2017-03-02T11:44:26Z</time>
</trkpt>
<trkpt lat="40.63296166666667" lon="-3.1577116666666663">
<ele>667</ele>
<time>2017-03-02T11:44:28Z</time>
</trkpt>
<trkpt lat="40.63296166666667" lon="-3.1577116666666663">
<ele>667</ele>
<time>2017-03-02T11:44:30Z</time>
</trkpt>
<trkpt lat="40.63296166666667" lon="-3.1577116666666663">
<ele>667</ele>
<time>2017-03-02T11:44:32Z</time>
</trkpt>
<trkpt lat="40.632905" lon="-3.15774">
<ele>674</ele>
<time>2017-03-02T11:44:34Z</time>
</trkpt>
<trkpt lat="40.632135" lon="-3.158451666666666">
<ele>690</ele>
<time>2017-03-02T11:44:46Z</time>
</trkpt>
<trkpt lat="40.63195333333333" lon="-3.158618333333334">
<ele>688</ele>
<time>2017-03-02T11:44:48Z</time>
</trkpt>
<trkpt lat="40.63182833333334" lon="-3.15871">
<ele>686</ele>
<time>2017-03-02T11:44:50Z</time>
</trkpt>
<trkpt lat="40.63171333333333" lon="-3.158783333333333">
<ele>682</ele>
<time>2017-03-02T11:44:52Z</time>
</trkpt>
<trkpt lat="40.63182166666666" lon="-3.158655">
<ele>680</ele>
<time>2017-03-02T11:44:54Z</time>
</trkpt>
<trkpt lat="40.631835" lon="-3.1586450000000004">
<ele>677</ele>
<time>2017-03-02T11:44:56Z</time>
</trkpt>
<trkpt lat="40.631840000000004" lon="-3.1586399999999997">
<ele>674</ele>
<time>2017-03-02T11:44:58Z</time>
</trkpt>
<trkpt lat="40.63185166666666" lon="-3.1586633333333327">
<ele>673</ele>
<time>2017-03-02T11:45:00Z</time>
</trkpt>
<trkpt lat="40.63185" lon="-3.158691666666667">
<ele>674</ele>
<time>2017-03-02T11:45:02Z</time>
</trkpt>
<trkpt lat="40.63182833333334" lon="-3.1587183333333333">
<ele>676</ele>
<time>2017-03-02T11:45:04Z</time>
</trkpt>
<trkpt lat="40.631814999999996" lon="-3.158725">
<ele>676</ele>
<time>2017-03-02T11:45:06Z</time>
</trkpt>
<trkpt lat="40.631814999999996" lon="-3.158725">
<ele>676</ele>
<time>2017-03-02T11:45:08Z</time>
</trkpt>
<trkpt lat="40.631814999999996" lon="-3.158725">
<ele>676</ele>
<time>2017-03-02T11:45:10Z</time>
</trkpt>
<trkpt lat="40.631814999999996" lon="-3.158725">
<ele>676</ele>
<time>2017-03-02T11:45:12Z</time>
</trkpt>
<trkpt lat="40.631814999999996" lon="-3.158725">
<ele>676</ele>
<time>2017-03-02T11:45:14Z</time>
</trkpt>
<trkpt lat="40.631814999999996" lon="-3.158725">
<ele>676</ele>
<time>2017-03-02T11:45:16Z</time>
</trkpt>
<trkpt lat="40.631814999999996" lon="-3.158725">
<ele>676</ele>
<time>2017-03-02T11:45:18Z</time>
</trkpt>
<trkpt lat="40.631903333333334" lon="-3.158701666666667">
<ele>681</ele>
<time>2017-03-02T11:45:20Z</time>
</trkpt>
<trkpt lat="40.63191666666667" lon="-3.158686666666667">
<ele>682</ele>
<time>2017-03-02T11:45:26Z</time>
</trkpt>
<trkpt lat="40.631978333333336" lon="-3.15857">
<ele>681</ele>
<time>2017-03-02T11:45:28Z</time>
</trkpt>
<trkpt lat="40.63199833333333" lon="-3.158525">
<ele>681</ele>
<time>2017-03-02T11:45:30Z</time>
</trkpt>
<trkpt lat="40.632085" lon="-3.1581333333333332">
<ele>682</ele>
<time>2017-03-02T11:45:46Z</time>
</trkpt>
<trkpt lat="40.63234" lon="-3.1579499999999996">
<ele>682</ele>
<time>2017-03-02T11:45:48Z</time>
</trkpt>
<trkpt lat="40.632574999999996" lon="-3.157841666666667">
<ele>682</ele>
<time>2017-03-02T11:45:50Z</time>
</trkpt>
<trkpt lat="40.632646666666666" lon="-3.157841666666667">
<ele>682</ele>
<time>2017-03-02T11:45:52Z</time>
</trkpt>
<trkpt lat="40.63270833333333" lon="-3.157878333333333">
<ele>681</ele>
<time>2017-03-02T11:45:54Z</time>
</trkpt>
<trkpt lat="40.63276166666667" lon="-3.1578950000000003">
<ele>681</ele>
<time>2017-03-02T11:45:56Z</time>
</trkpt>
<trkpt lat="40.632805" lon="-3.1578950000000003">
<ele>681</ele>
<time>2017-03-02T11:45:58Z</time>
</trkpt>
<trkpt lat="40.63285833333334" lon="-3.15788">
<ele>681</ele>
<time>2017-03-02T11:46:00Z</time>
</trkpt>
<trkpt lat="40.632889999999996" lon="-3.1578816666666665">
<ele>681</ele>
<time>2017-03-02T11:46:02Z</time>
</trkpt>
<trkpt lat="40.632905" lon="-3.157861666666667">
<ele>682</ele>
<time>2017-03-02T11:46:04Z</time>
</trkpt>
<trkpt lat="40.63291666666667" lon="-3.157835">
<ele>682</ele>
<time>2017-03-02T11:46:06Z</time>
</trkpt>
<trkpt lat="40.632918333333336" lon="-3.1578150000000003">
<ele>682</ele>
<time>2017-03-02T11:46:08Z</time>
</trkpt>
<trkpt lat="40.632915000000004" lon="-3.1577866666666665">
<ele>682</ele>
<time>2017-03-02T11:46:10Z</time>
</trkpt>
<trkpt lat="40.632913333333335" lon="-3.1577916666666663">
<ele>682</ele>
<time>2017-03-02T11:46:12Z</time>
</trkpt>
<trkpt lat="40.632913333333335" lon="-3.1577916666666663">
<ele>682</ele>
<time>2017-03-02T11:46:14Z</time>
</trkpt>
<trkpt lat="40.632913333333335" lon="-3.1577916666666663">
<ele>682</ele>
<time>2017-03-02T11:46:16Z</time>
</trkpt>
<trkpt lat="40.63287666666667" lon="-3.157811666666667">
<ele>682</ele>
<time>2017-03-02T11:46:18Z</time>
</trkpt>
<trkpt lat="40.63286666666667" lon="-3.157833333333334">
<ele>682</ele>
<time>2017-03-02T11:46:20Z</time>
</trkpt>
<trkpt lat="40.63285333333333" lon="-3.1578549999999996">
<ele>682</ele>
<time>2017-03-02T11:46:22Z</time>
</trkpt>
<trkpt lat="40.63285666666666" lon="-3.1578516666666663">
<ele>682</ele>
<time>2017-03-02T11:46:24Z</time>
</trkpt>
<trkpt lat="40.632843333333334" lon="-3.1578083333333336">
<ele>681</ele>
<time>2017-03-02T11:46:26Z</time>
</trkpt>
<trkpt lat="40.63281" lon="-3.15777">
<ele>681</ele>
<time>2017-03-02T11:46:28Z</time>
</trkpt>
<trkpt lat="40.63279333333333" lon="-3.157751666666667">
<ele>681</ele>
<time>2017-03-02T11:46:30Z</time>
</trkpt>
<trkpt lat="40.633451666666666" lon="-3.156781666666667">
<ele>701</ele>
<time>2017-03-02T11:46:52Z</time>
</trkpt>
<trkpt lat="40.63348166666666" lon="-3.156803333333334">
<ele>688</ele>
<time>2017-03-02T11:46:54Z</time>
</trkpt>
<trkpt lat="40.6336" lon="-3.1568549999999997">
<ele>694</ele>
<time>2017-03-02T11:46:56Z</time>
</trkpt>
<trkpt lat="40.63361833333333" lon="-3.156828333333333">
<ele>693</ele>
<time>2017-03-02T11:46:58Z</time>
</trkpt>
<trkpt lat="40.63363666666667" lon="-3.156775">
<ele>694</ele>
<time>2017-03-02T11:47:00Z</time>
</trkpt>
<trkpt lat="40.633646666666664" lon="-3.1567283333333336">
<ele>695</ele>
<time>2017-03-02T11:47:02Z</time>
</trkpt>
<trkpt lat="40.63365666666667" lon="-3.1567250000000002">
<ele>695</ele>
<time>2017-03-02T11:47:04Z</time>
</trkpt>
<trkpt lat="40.63371333333334" lon="-3.156721666666667">
<ele>697</ele>
<time>2017-03-02T11:47:06Z</time>
</trkpt>
<trkpt lat="40.63373333333333" lon="-3.1567149999999997">
<ele>697</ele>
<time>2017-03-02T11:47:08Z</time>
</trkpt>
<trkpt lat="40.63373333333333" lon="-3.1567149999999997">
<ele>697</ele>
<time>2017-03-02T11:47:10Z</time>
</trkpt>
<trkpt lat="40.63373333333333" lon="-3.1567149999999997">
<ele>697</ele>
<time>2017-03-02T11:47:12Z</time>
</trkpt>
<trkpt lat="40.63373333333333" lon="-3.1567149999999997">
<ele>697</ele>
<time>2017-03-02T11:47:14Z</time>
</trkpt>
<trkpt lat="40.63373333333333" lon="-3.1567149999999997">
<ele>697</ele>
<time>2017-03-02T11:47:16Z</time>
</trkpt>
<trkpt lat="40.63373333333333" lon="-3.1567149999999997">
<ele>697</ele>
<time>2017-03-02T11:47:18Z</time>
</trkpt>
<trkpt lat="40.63373333333333" lon="-3.1567149999999997">
<ele>697</ele>
<time>2017-03-02T11:47:20Z</time>
</trkpt>
<trkpt lat="40.63373333333333" lon="-3.1567149999999997">
<ele>697</ele>
<time>2017-03-02T11:47:22Z</time>
</trkpt>
<trkpt lat="40.633754999999994" lon="-3.1568533333333333">
<ele>697</ele>
<time>2017-03-02T11:47:24Z</time>
</trkpt>
<trkpt lat="40.633763333333334" lon="-3.156885">
<ele>697</ele>
<time>2017-03-02T11:47:26Z</time>
</trkpt>
<trkpt lat="40.633810000000004" lon="-3.15688">
<ele>697</ele>
<time>2017-03-02T11:47:28Z</time>
</trkpt>
<trkpt lat="40.633835" lon="-3.1568883333333333">
<ele>697</ele>
<time>2017-03-02T11:47:30Z</time>
</trkpt>
<trkpt lat="40.633871666666664" lon="-3.1569200000000004">
<ele>697</ele>
<time>2017-03-02T11:47:32Z</time>
</trkpt>
<trkpt lat="40.63390666666667" lon="-3.1569466666666672">
<ele>697</ele>
<time>2017-03-02T11:47:34Z</time>
</trkpt>
<trkpt lat="40.63391" lon="-3.1569933333333333">
<ele>697</ele>
<time>2017-03-02T11:47:36Z</time>
</trkpt>
<trkpt lat="40.63393" lon="-3.1570099999999996">
<ele>697</ele>
<time>2017-03-02T11:47:38Z</time>
</trkpt>
<trkpt lat="40.633948333333336" lon="-3.156753333333333">
<ele>697</ele>
<time>2017-03-02T11:47:40Z</time>
</trkpt>
<trkpt lat="40.63396" lon="-3.1567516666666666">
<ele>696</ele>
<time>2017-03-02T11:47:42Z</time>
</trkpt>
<trkpt lat="40.63388166666667" lon="-3.156813333333333">
<ele>696</ele>
<time>2017-03-02T11:47:44Z</time>
</trkpt>
<trkpt lat="40.63381666666667" lon="-3.1568699999999996">
<ele>696</ele>
<time>2017-03-02T11:47:46Z</time>
</trkpt>
<trkpt lat="40.63380666666667" lon="-3.1568650000000003">
<ele>696</ele>
<time>2017-03-02T11:47:48Z</time>
</trkpt>
<trkpt lat="40.63380666666667" lon="-3.1568650000000003">
<ele>696</ele>
<time>2017-03-02T11:47:50Z</time>
</trkpt>
<trkpt lat="40.63380666666667" lon="-3.1568650000000003">
<ele>696</ele>
<time>2017-03-02T11:47:52Z</time>
</trkpt>
<trkpt lat="40.63376" lon="-3.1568766666666668">
<ele>695</ele>
<time>2017-03-02T11:47:54Z</time>
</trkpt>
<trkpt lat="40.633781666666664" lon="-3.156858333333333">
<ele>694</ele>
<time>2017-03-02T11:47:56Z</time>
</trkpt>
<trkpt lat="40.63379833333333" lon="-3.156828333333333">
<ele>694</ele>
<time>2017-03-02T11:47:58Z</time>
</trkpt>
<trkpt lat="40.63379666666666" lon="-3.156811666666667">
<ele>694</ele>
<time>2017-03-02T11:48:00Z</time>
</trkpt>
<trkpt lat="40.633795" lon="-3.1568099999999997">
<ele>694</ele>
<time>2017-03-02T11:48:02Z</time>
</trkpt>
<trkpt lat="40.633795" lon="-3.1568099999999997">
<ele>694</ele>
<time>2017-03-02T11:48:04Z</time>
</trkpt>
<trkpt lat="40.633795" lon="-3.1568099999999997">
<ele>694</ele>
<time>2017-03-02T11:48:06Z</time>
</trkpt>
<trkpt lat="40.633795" lon="-3.1568099999999997">
<ele>694</ele>
<time>2017-03-02T11:48:08Z</time>
</trkpt>
<trkpt lat="40.633795" lon="-3.1568099999999997">
<ele>694</ele>
<time>2017-03-02T11:48:10Z</time>
</trkpt>
<trkpt lat="40.633795" lon="-3.1568099999999997">
<ele>694</ele>
<time>2017-03-02T11:48:12Z</time>
</trkpt>
<trkpt lat="40.633795" lon="-3.1568099999999997">
<ele>694</ele>
<time>2017-03-02T11:48:14Z</time>
</trkpt>
<trkpt lat="40.633795" lon="-3.1568099999999997">
<ele>694</ele>
<time>2017-03-02T11:48:16Z</time>
</trkpt>
<trkpt lat="40.633795" lon="-3.1568099999999997">
<ele>694</ele>
<time>2017-03-02T11:48:18Z</time>
</trkpt>
<trkpt lat="40.633795" lon="-3.1568099999999997">
<ele>694</ele>
<time>2017-03-02T11:48:20Z</time>
</trkpt>
<trkpt lat="40.63381833333334" lon="-3.1566750000000003">
<ele>692</ele>
<time>2017-03-02T11:48:22Z</time>
</trkpt>
<trkpt lat="40.63382333333333" lon="-3.1566750000000003">
<ele>692</ele>
<time>2017-03-02T11:48:24Z</time>
</trkpt>
<trkpt lat="40.63382333333333" lon="-3.1566750000000003">
<ele>692</ele>
<time>2017-03-02T11:48:26Z</time>
</trkpt>
<trkpt lat="40.63382333333333" lon="-3.1566750000000003">
<ele>692</ele>
<time>2017-03-02T11:48:28Z</time>
</trkpt>
<trkpt lat="40.63382333333333" lon="-3.1566750000000003">
<ele>692</ele>
<time>2017-03-02T11:48:30Z</time>
</trkpt>
<trkpt lat="40.63382333333333" lon="-3.1566750000000003">
<ele>692</ele>
<time>2017-03-02T11:48:32Z</time>
</trkpt>
<trkpt lat="40.63382333333333" lon="-3.1566750000000003">
<ele>692</ele>
<time>2017-03-02T11:48:34Z</time>
</trkpt>
<trkpt lat="40.63382333333333" lon="-3.1566750000000003">
<ele>692</ele>
<time>2017-03-02T11:48:36Z</time>
</trkpt>
<trkpt lat="40.63382333333333" lon="-3.1566750000000003">
<ele>692</ele>
<time>2017-03-02T11:48:38Z</time>
</trkpt>
<trkpt lat="40.63382333333333" lon="-3.1566750000000003">
<ele>692</ele>
<time>2017-03-02T11:48:40Z</time>
</trkpt>
<trkpt lat="40.63382333333333" lon="-3.1566750000000003">
<ele>692</ele>
<time>2017-03-02T11:48:42Z</time>
</trkpt>
<trkpt lat="40.63382333333333" lon="-3.1566750000000003">
<ele>692</ele>
<time>2017-03-02T11:48:44Z</time>
</trkpt>
<trkpt lat="40.63382333333333" lon="-3.1566750000000003">
<ele>692</ele>
<time>2017-03-02T11:48:46Z</time>
</trkpt>
<trkpt lat="40.63382333333333" lon="-3.1566750000000003">
<ele>692</ele>
<time>2017-03-02T11:48:48Z</time>
</trkpt>
<trkpt lat="40.63382333333333" lon="-3.1566750000000003">
<ele>692</ele>
<time>2017-03-02T11:48:50Z</time>
</trkpt>
<trkpt lat="40.63382333333333" lon="-3.1566750000000003">
<ele>692</ele>
<time>2017-03-02T11:48:52Z</time>
</trkpt>
<trkpt lat="40.63382333333333" lon="-3.1566750000000003">
<ele>692</ele>
<time>2017-03-02T11:48:54Z</time>
</trkpt>
<trkpt lat="40.63382333333333" lon="-3.1566750000000003">
<ele>692</ele>
<time>2017-03-02T11:48:56Z</time>
</trkpt>
<trkpt lat="40.63382333333333" lon="-3.1566750000000003">
<ele>692</ele>
<time>2017-03-02T11:48:58Z</time>
</trkpt>
<trkpt lat="40.63382333333333" lon="-3.1566750000000003">
<ele>692</ele>
<time>2017-03-02T11:49:00Z</time>
</trkpt>
<trkpt lat="40.63382333333333" lon="-3.1566750000000003">
<ele>692</ele>
<time>2017-03-02T11:49:02Z</time>
</trkpt>
<trkpt lat="40.63382333333333" lon="-3.1566750000000003">
<ele>692</ele>
<time>2017-03-02T11:49:04Z</time>
</trkpt>
<trkpt lat="40.63382333333333" lon="-3.1566750000000003">
<ele>692</ele>
<time>2017-03-02T11:49:06Z</time>
</trkpt>
<trkpt lat="40.63382333333333" lon="-3.1566750000000003">
<ele>692</ele>
<time>2017-03-02T11:49:08Z</time>
</trkpt>
<trkpt lat="40.63382333333333" lon="-3.1566750000000003">
<ele>692</ele>
<time>2017-03-02T11:49:10Z</time>
</trkpt>
<trkpt lat="40.63382333333333" lon="-3.1566750000000003">
<ele>692</ele>
<time>2017-03-02T11:49:12Z</time>
</trkpt>
<trkpt lat="40.63380166666666" lon="-3.15656">
<ele>690</ele>
<time>2017-03-02T11:49:14Z</time>
</trkpt>
<trkpt lat="40.63380333333334" lon="-3.1565499999999997">
<ele>689</ele>
<time>2017-03-02T11:49:16Z</time>
</trkpt>
<trkpt lat="40.63380333333334" lon="-3.156553333333333">
<ele>689</ele>
<time>2017-03-02T11:49:18Z</time>
</trkpt>
<trkpt lat="40.63380333333334" lon="-3.156553333333333">
<ele>689</ele>
<time>2017-03-02T11:49:20Z</time>
</trkpt>
<trkpt lat="40.63380333333334" lon="-3.156553333333333">
<ele>689</ele>
<time>2017-03-02T11:49:22Z</time>
</trkpt>
<trkpt lat="40.63380333333334" lon="-3.156553333333333">
<ele>689</ele>
<time>2017-03-02T11:49:24Z</time>
</trkpt>
<trkpt lat="40.63380333333334" lon="-3.156553333333333">
<ele>689</ele>
<time>2017-03-02T11:49:26Z</time>
</trkpt>
<trkpt lat="40.63380333333334" lon="-3.156553333333333">
<ele>689</ele>
<time>2017-03-02T11:49:28Z</time>
</trkpt>
<trkpt lat="40.63380333333334" lon="-3.156553333333333">
<ele>689</ele>
<time>2017-03-02T11:49:30Z</time>
</trkpt>
<trkpt lat="40.63380333333334" lon="-3.156553333333333">
<ele>689</ele>
<time>2017-03-02T11:49:32Z</time>
</trkpt>
<trkpt lat="40.63380333333334" lon="-3.156553333333333">
<ele>689</ele>
<time>2017-03-02T11:49:34Z</time>
</trkpt>
<trkpt lat="40.63380333333334" lon="-3.156553333333333">
<ele>689</ele>
<time>2017-03-02T11:49:36Z</time>
</trkpt>
<trkpt lat="40.63380333333334" lon="-3.156553333333333">
<ele>689</ele>
<time>2017-03-02T11:49:38Z</time>
</trkpt>
<trkpt lat="40.63380333333334" lon="-3.156553333333333">
<ele>689</ele>
<time>2017-03-02T11:49:40Z</time>
</trkpt>
<trkpt lat="40.63380333333334" lon="-3.156553333333333">
<ele>689</ele>
<time>2017-03-02T11:49:42Z</time>
</trkpt>
<trkpt lat="40.63386666666667" lon="-3.156645">
<ele>688</ele>
<time>2017-03-02T11:49:44Z</time>
</trkpt>
<trkpt lat="40.633876666666666" lon="-3.15665">
<ele>687</ele>
<time>2017-03-02T11:49:46Z</time>
</trkpt>
<trkpt lat="40.633871666666664" lon="-3.1566549999999998">
<ele>687</ele>
<time>2017-03-02T11:49:48Z</time>
</trkpt>
<trkpt lat="40.633871666666664" lon="-3.1566549999999998">
<ele>687</ele>
<time>2017-03-02T11:49:50Z</time>
</trkpt>
<trkpt lat="40.633871666666664" lon="-3.1566549999999998">
<ele>687</ele>
<time>2017-03-02T11:49:52Z</time>
</trkpt>
<trkpt lat="40.633871666666664" lon="-3.1566549999999998">
<ele>687</ele>
<time>2017-03-02T11:49:54Z</time>
</trkpt>
<trkpt lat="40.633871666666664" lon="-3.1566549999999998">
<ele>687</ele>
<time>2017-03-02T11:49:56Z</time>
</trkpt>
<trkpt lat="40.633833333333335" lon="-3.156701666666667">
<ele>686</ele>
<time>2017-03-02T11:49:58Z</time>
</trkpt>
<trkpt lat="40.63382166666667" lon="-3.1567149999999997">
<ele>686</ele>
<time>2017-03-02T11:50:00Z</time>
</trkpt>
<trkpt lat="40.63382166666667" lon="-3.1567149999999997">
<ele>686</ele>
<time>2017-03-02T11:50:02Z</time>
</trkpt>
<trkpt lat="40.63382166666667" lon="-3.1567149999999997">
<ele>686</ele>
<time>2017-03-02T11:50:04Z</time>
</trkpt>
<trkpt lat="40.63382166666667" lon="-3.1567149999999997">
<ele>686</ele>
<time>2017-03-02T11:50:06Z</time>
</trkpt>
<trkpt lat="40.63384333333333" lon="-3.156591666666667">
<ele>685</ele>
<time>2017-03-02T11:50:08Z</time>
</trkpt>
<trkpt lat="40.63385666666667" lon="-3.1565799999999995">
<ele>685</ele>
<time>2017-03-02T11:50:10Z</time>
</trkpt>
<trkpt lat="40.63387" lon="-3.156546666666667">
<ele>685</ele>
<time>2017-03-02T11:50:12Z</time>
</trkpt>
<trkpt lat="40.633885" lon="-3.1565133333333337">
<ele>685</ele>
<time>2017-03-02T11:50:14Z</time>
</trkpt>
<trkpt lat="40.63390666666667" lon="-3.156503333333333">
<ele>685</ele>
<time>2017-03-02T11:50:16Z</time>
</trkpt>
<trkpt lat="40.63391333333333" lon="-3.1565">
<ele>685</ele>
<time>2017-03-02T11:50:18Z</time>
</trkpt>
<trkpt lat="40.63391" lon="-3.156503333333333">
<ele>685</ele>
<time>2017-03-02T11:50:20Z</time>
</trkpt>
<trkpt lat="40.63391" lon="-3.156503333333333">
<ele>685</ele>
<time>2017-03-02T11:50:22Z</time>
</trkpt>
<trkpt lat="40.63391" lon="-3.156503333333333">
<ele>685</ele>
<time>2017-03-02T11:50:24Z</time>
</trkpt>
<trkpt lat="40.633898333333335" lon="-3.1565416666666666">
<ele>686</ele>
<time>2017-03-02T11:50:26Z</time>
</trkpt>
<trkpt lat="40.633795" lon="-3.15669">
<ele>685</ele>
<time>2017-03-02T11:50:28Z</time>
</trkpt>
<trkpt lat="40.63378" lon="-3.15682">
<ele>685</ele>
<time>2017-03-02T11:50:30Z</time>
</trkpt>
<trkpt lat="40.63380333333334" lon="-3.1569133333333337">
<ele>685</ele>
<time>2017-03-02T11:50:32Z</time>
</trkpt>
<trkpt lat="40.63387" lon="-3.15699">
<ele>684</ele>
<time>2017-03-02T11:50:34Z</time>
</trkpt>
<trkpt lat="40.63391166666667" lon="-3.157011666666667">
<ele>682</ele>
<time>2017-03-02T11:50:36Z</time>
</trkpt>
<trkpt lat="40.633964999999996" lon="-3.1570000000000005">
<ele>681</ele>
<time>2017-03-02T11:50:38Z</time>
</trkpt>
<trkpt lat="40.633979999999994" lon="-3.156938333333333">
<ele>680</ele>
<time>2017-03-02T11:50:40Z</time>
</trkpt>
<trkpt lat="40.633981666666664" lon="-3.1568333333333336">
<ele>680</ele>
<time>2017-03-02T11:50:42Z</time>
</trkpt>
<trkpt lat="40.63399166666667" lon="-3.156721666666667">
<ele>680</ele>
<time>2017-03-02T11:50:44Z</time>
</trkpt>
<trkpt lat="40.63398666666667" lon="-3.156723333333333">
<ele>680</ele>
<time>2017-03-02T11:50:46Z</time>
</trkpt>
<trkpt lat="40.633963333333334" lon="-3.156635">
<ele>681</ele>
<time>2017-03-02T11:50:48Z</time>
</trkpt>
<trkpt lat="40.633945000000004" lon="-3.156538333333333">
<ele>681</ele>
<time>2017-03-02T11:50:50Z</time>
</trkpt>
<trkpt lat="40.633943333333335" lon="-3.156486666666667">
<ele>682</ele>
<time>2017-03-02T11:50:52Z</time>
</trkpt>
<trkpt lat="40.63394666666667" lon="-3.1564699999999997">
<ele>683</ele>
<time>2017-03-02T11:50:54Z</time>
</trkpt>
<trkpt lat="40.63395166666667" lon="-3.1564516666666664">
<ele>684</ele>
<time>2017-03-02T11:50:56Z</time>
</trkpt>
<trkpt lat="40.63395166666667" lon="-3.156458333333333">
<ele>685</ele>
<time>2017-03-02T11:50:58Z</time>
</trkpt>
<trkpt lat="40.63395" lon="-3.1564833333333335">
<ele>686</ele>
<time>2017-03-02T11:51:00Z</time>
</trkpt>
<trkpt lat="40.633955" lon="-3.156521666666667">
<ele>687</ele>
<time>2017-03-02T11:51:02Z</time>
</trkpt>
<trkpt lat="40.633948333333336" lon="-3.1565133333333337">
<ele>687</ele>
<time>2017-03-02T11:51:04Z</time>
</trkpt>
<trkpt lat="40.633948333333336" lon="-3.1565133333333337">
<ele>687</ele>
<time>2017-03-02T11:51:06Z</time>
</trkpt>
<trkpt lat="40.633948333333336" lon="-3.1565133333333337">
<ele>687</ele>
<time>2017-03-02T11:51:08Z</time>
</trkpt>
<trkpt lat="40.633948333333336" lon="-3.1565133333333337">
<ele>687</ele>
<time>2017-03-02T11:51:10Z</time>
</trkpt>
<trkpt lat="40.633948333333336" lon="-3.1565133333333337">
<ele>687</ele>
<time>2017-03-02T11:51:12Z</time>
</trkpt>
<trkpt lat="40.633948333333336" lon="-3.1565133333333337">
<ele>687</ele>
<time>2017-03-02T11:51:14Z</time>
</trkpt>
<trkpt lat="40.633948333333336" lon="-3.1565133333333337">
<ele>687</ele>
<time>2017-03-02T11:51:16Z</time>
</trkpt>
<trkpt lat="40.633948333333336" lon="-3.1565133333333337">
<ele>687</ele>
<time>2017-03-02T11:51:18Z</time>
</trkpt>
<trkpt lat="40.633948333333336" lon="-3.1565133333333337">
<ele>687</ele>
<time>2017-03-02T11:51:20Z</time>
</trkpt>
<trkpt lat="40.633948333333336" lon="-3.1565133333333337">
<ele>687</ele>
<time>2017-03-02T11:51:22Z</time>
</trkpt>
<trkpt lat="40.633948333333336" lon="-3.1565133333333337">
<ele>687</ele>
<time>2017-03-02T11:51:24Z</time>
</trkpt>
<trkpt lat="40.633948333333336" lon="-3.1565133333333337">
<ele>687</ele>
<time>2017-03-02T11:51:26Z</time>
</trkpt>
<trkpt lat="40.633966666666666" lon="-3.156636666666666">
<ele>691</ele>
<time>2017-03-02T11:51:28Z</time>
</trkpt>
<trkpt lat="40.633995" lon="-3.1567499999999997">
<ele>691</ele>
<time>2017-03-02T11:51:30Z</time>
</trkpt>
<trkpt lat="40.63402166666666" lon="-3.1568416666666668">
<ele>691</ele>
<time>2017-03-02T11:51:32Z</time>
</trkpt>
<trkpt lat="40.63405" lon="-3.15693">
<ele>692</ele>
<time>2017-03-02T11:51:34Z</time>
</trkpt>
<trkpt lat="40.63408166666667" lon="-3.1570150000000003">
<ele>692</ele>
<time>2017-03-02T11:51:36Z</time>
</trkpt>
<trkpt lat="40.634116666666664" lon="-3.1570883333333333">
<ele>692</ele>
<time>2017-03-02T11:51:38Z</time>
</trkpt>
<trkpt lat="40.63414833333333" lon="-3.1571433333333334">
<ele>693</ele>
<time>2017-03-02T11:51:40Z</time>
</trkpt>
<trkpt lat="40.633919999999996" lon="-3.1565299999999996">
<ele>692</ele>
<time>2017-03-02T11:52:02Z</time>
</trkpt>
<trkpt lat="40.633903333333336" lon="-3.156476666666667">
<ele>692</ele>
<time>2017-03-02T11:52:04Z</time>
</trkpt>
<trkpt lat="40.63391" lon="-3.1564883333333333">
<ele>692</ele>
<time>2017-03-02T11:52:06Z</time>
</trkpt>
<trkpt lat="40.63394666666667" lon="-3.156508333333333">
<ele>691</ele>
<time>2017-03-02T11:52:08Z</time>
</trkpt>
<trkpt lat="40.633981666666664" lon="-3.156518333333333">
<ele>691</ele>
<time>2017-03-02T11:52:10Z</time>
</trkpt>
<trkpt lat="40.63402333333333" lon="-3.1565149999999997">
<ele>691</ele>
<time>2017-03-02T11:52:12Z</time>
</trkpt>
<trkpt lat="40.63404166666667" lon="-3.156476666666667">
<ele>690</ele>
<time>2017-03-02T11:52:14Z</time>
</trkpt>
<trkpt lat="40.63406833333333" lon="-3.156481666666666">
<ele>690</ele>
<time>2017-03-02T11:52:16Z</time>
</trkpt>
<trkpt lat="40.63409166666667" lon="-3.156481666666666">
<ele>690</ele>
<time>2017-03-02T11:52:18Z</time>
</trkpt>
<trkpt lat="40.634114999999994" lon="-3.15648">
<ele>689</ele>
<time>2017-03-02T11:52:20Z</time>
</trkpt>
<trkpt lat="40.63412666666667" lon="-3.156486666666667">
<ele>689</ele>
<time>2017-03-02T11:52:22Z</time>
</trkpt>
<trkpt lat="40.63413333333333" lon="-3.1565200000000004">
<ele>688</ele>
<time>2017-03-02T11:52:24Z</time>
</trkpt>
<trkpt lat="40.63414" lon="-3.1565516666666666">
<ele>688</ele>
<time>2017-03-02T11:52:26Z</time>
</trkpt>
<trkpt lat="40.634146666666666" lon="-3.156563333333333">
<ele>688</ele>
<time>2017-03-02T11:52:28Z</time>
</trkpt>
<trkpt lat="40.634168333333335" lon="-3.1566099999999997">
<ele>688</ele>
<time>2017-03-02T11:52:30Z</time>
</trkpt>
<trkpt lat="40.63418" lon="-3.1566316666666667">
<ele>688</ele>
<time>2017-03-02T11:52:32Z</time>
</trkpt>
<trkpt lat="40.63418" lon="-3.1566316666666667">
<ele>688</ele>
<time>2017-03-02T11:52:34Z</time>
</trkpt>
<trkpt lat="40.63418" lon="-3.1566316666666667">
<ele>688</ele>
<time>2017-03-02T11:52:36Z</time>
</trkpt>
<trkpt lat="40.63418" lon="-3.1566316666666667">
<ele>688</ele>
<time>2017-03-02T11:52:38Z</time>
</trkpt>
<trkpt lat="40.63418" lon="-3.1566316666666667">
<ele>688</ele>
<time>2017-03-02T11:52:40Z</time>
</trkpt>
<trkpt lat="40.63418" lon="-3.1566316666666667">
<ele>688</ele>
<time>2017-03-02T11:52:42Z</time>
</trkpt>
<trkpt lat="40.63418" lon="-3.1566316666666667">
<ele>688</ele>
<time>2017-03-02T11:52:44Z</time>
</trkpt>
<trkpt lat="40.63424333333333" lon="-3.1567466666666673">
<ele>688</ele>
<time>2017-03-02T11:52:46Z</time>
</trkpt>
<trkpt lat="40.634251666666664" lon="-3.1567783333333335">
<ele>688</ele>
<time>2017-03-02T11:52:48Z</time>
</trkpt>
<trkpt lat="40.63440333333333" lon="-3.1568383333333334">
<ele>693</ele>
<time>2017-03-02T11:53:16Z</time>
</trkpt>
<trkpt lat="40.634415" lon="-3.156821666666666">
<ele>694</ele>
<time>2017-03-02T11:53:18Z</time>
</trkpt>
<trkpt lat="40.63433166666667" lon="-3.1568300000000002">
<ele>690</ele>
<time>2017-03-02T11:53:20Z</time>
</trkpt>
<trkpt lat="40.63422333333333" lon="-3.1568883333333333">
<ele>688</ele>
<time>2017-03-02T11:53:22Z</time>
</trkpt>
<trkpt lat="40.63421666666667" lon="-3.1569349999999994">
<ele>687</ele>
<time>2017-03-02T11:53:24Z</time>
</trkpt>
<trkpt lat="40.63411166666666" lon="-3.1569483333333332">
<ele>685</ele>
<time>2017-03-02T11:53:26Z</time>
</trkpt>
<trkpt lat="40.634206666666664" lon="-3.1568750000000003">
<ele>683</ele>
<time>2017-03-02T11:53:28Z</time>
</trkpt>
<trkpt lat="40.634188333333334" lon="-3.1568416666666668">
<ele>683</ele>
<time>2017-03-02T11:53:30Z</time>
</trkpt>
<trkpt lat="40.634168333333335" lon="-3.1568183333333337">
<ele>682</ele>
<time>2017-03-02T11:53:32Z</time>
</trkpt>
<trkpt lat="40.63420333333333" lon="-3.156721666666667">
<ele>683</ele>
<time>2017-03-02T11:53:34Z</time>
</trkpt>
<trkpt lat="40.63417833333333" lon="-3.1566333333333336">
<ele>684</ele>
<time>2017-03-02T11:53:36Z</time>
</trkpt>
<trkpt lat="40.63420333333333" lon="-3.1565749999999997">
<ele>687</ele>
<time>2017-03-02T11:53:38Z</time>
</trkpt>
<trkpt lat="40.634208333333326" lon="-3.15654">
<ele>688</ele>
<time>2017-03-02T11:53:40Z</time>
</trkpt>
<trkpt lat="40.63422666666667" lon="-3.156521666666667">
<ele>690</ele>
<time>2017-03-02T11:53:42Z</time>
</trkpt>
<trkpt lat="40.634236666666666" lon="-3.156495">
<ele>692</ele>
<time>2017-03-02T11:53:44Z</time>
</trkpt>
<trkpt lat="40.634265" lon="-3.156476666666667">
<ele>694</ele>
<time>2017-03-02T11:53:46Z</time>
</trkpt>
<trkpt lat="40.63426166666667" lon="-3.156441666666667">
<ele>696</ele>
<time>2017-03-02T11:53:48Z</time>
</trkpt>
<trkpt lat="40.63426333333334" lon="-3.156403333333334">
<ele>697</ele>
<time>2017-03-02T11:53:50Z</time>
</trkpt>
<trkpt lat="40.63426333333334" lon="-3.156403333333334">
<ele>697</ele>
<time>2017-03-02T11:53:52Z</time>
</trkpt>
<trkpt lat="40.63426333333334" lon="-3.156403333333334">
<ele>697</ele>
<time>2017-03-02T11:53:54Z</time>
</trkpt>
<trkpt lat="40.63426333333334" lon="-3.156403333333334">
<ele>697</ele>
<time>2017-03-02T11:53:56Z</time>
</trkpt>
<trkpt lat="40.63426333333334" lon="-3.156403333333334">
<ele>697</ele>
<time>2017-03-02T11:53:58Z</time>
</trkpt>
<trkpt lat="40.63426333333334" lon="-3.156403333333334">
<ele>697</ele>
<time>2017-03-02T11:54:00Z</time>
</trkpt>
<trkpt lat="40.63429166666666" lon="-3.1562699999999997">
<ele>698</ele>
<time>2017-03-02T11:54:02Z</time>
</trkpt>
<trkpt lat="40.63431833333333" lon="-3.1562433333333333">
<ele>698</ele>
<time>2017-03-02T11:54:04Z</time>
</trkpt>
<trkpt lat="40.63433666666666" lon="-3.1562116666666666">
<ele>698</ele>
<time>2017-03-02T11:54:06Z</time>
</trkpt>
<trkpt lat="40.634375" lon="-3.156168333333333">
<ele>699</ele>
<time>2017-03-02T11:54:08Z</time>
</trkpt>
<trkpt lat="40.63440166666667" lon="-3.15614">
<ele>699</ele>
<time>2017-03-02T11:54:10Z</time>
</trkpt>
<trkpt lat="40.63442166666667" lon="-3.156101666666667">
<ele>699</ele>
<time>2017-03-02T11:54:12Z</time>
</trkpt>
<trkpt lat="40.63442833333333" lon="-3.1560933333333328">
<ele>699</ele>
<time>2017-03-02T11:54:14Z</time>
</trkpt>
<trkpt lat="40.63442833333333" lon="-3.1560933333333328">
<ele>699</ele>
<time>2017-03-02T11:54:16Z</time>
</trkpt>
<trkpt lat="40.63442833333333" lon="-3.1560933333333328">
<ele>699</ele>
<time>2017-03-02T11:54:18Z</time>
</trkpt>
<trkpt lat="40.634555" lon="-3.155978333333333">
<ele>698</ele>
<time>2017-03-02T11:54:20Z</time>
</trkpt>
<trkpt lat="40.634611666666665" lon="-3.155961666666667">
<ele>698</ele>
<time>2017-03-02T11:54:22Z</time>
</trkpt>
<trkpt lat="40.63461666666667" lon="-3.155961666666667">
<ele>698</ele>
<time>2017-03-02T11:54:24Z</time>
</trkpt>
<trkpt lat="40.63464333333333" lon="-3.156021666666667">
<ele>699</ele>
<time>2017-03-02T11:54:26Z</time>
</trkpt>
<trkpt lat="40.63466833333334" lon="-3.1560300000000003">
<ele>699</ele>
<time>2017-03-02T11:54:28Z</time>
</trkpt>
<trkpt lat="40.63472" lon="-3.1560616666666665">
<ele>699</ele>
<time>2017-03-02T11:54:30Z</time>
</trkpt>
<trkpt lat="40.63473333333333" lon="-3.1560616666666665">
<ele>700</ele>
<time>2017-03-02T11:54:32Z</time>
</trkpt>
<trkpt lat="40.63473" lon="-3.1560666666666664">
<ele>700</ele>
<time>2017-03-02T11:54:34Z</time>
</trkpt>
<trkpt lat="40.63473" lon="-3.1560666666666664">
<ele>700</ele>
<time>2017-03-02T11:54:36Z</time>
</trkpt>
<trkpt lat="40.63473" lon="-3.1560666666666664">
<ele>700</ele>
<time>2017-03-02T11:54:38Z</time>
</trkpt>
<trkpt lat="40.63473" lon="-3.1560666666666664">
<ele>700</ele>
<time>2017-03-02T11:54:40Z</time>
</trkpt>
<trkpt lat="40.63473" lon="-3.1560666666666664">
<ele>700</ele>
<time>2017-03-02T11:54:42Z</time>
</trkpt>
<trkpt lat="40.63474833333333" lon="-3.156191666666667">
<ele>701</ele>
<time>2017-03-02T11:54:44Z</time>
</trkpt>
<trkpt lat="40.634751666666666" lon="-3.156213333333333">
<ele>701</ele>
<time>2017-03-02T11:54:46Z</time>
</trkpt>
<trkpt lat="40.634750000000004" lon="-3.15622">
<ele>701</ele>
<time>2017-03-02T11:54:48Z</time>
</trkpt>
<trkpt lat="40.634750000000004" lon="-3.15622">
<ele>701</ele>
<time>2017-03-02T11:54:50Z</time>
</trkpt>
<trkpt lat="40.63485" lon="-3.156181666666667">
<ele>701</ele>
<time>2017-03-02T11:54:52Z</time>
</trkpt>
<trkpt lat="40.634750000000004" lon="-3.156226666666667">
<ele>701</ele>
<time>2017-03-02T11:54:54Z</time>
</trkpt>
<trkpt lat="40.63470333333333" lon="-3.1562099999999997">
<ele>702</ele>
<time>2017-03-02T11:54:56Z</time>
</trkpt>
<trkpt lat="40.634683333333335" lon="-3.156191666666667">
<ele>702</ele>
<time>2017-03-02T11:54:58Z</time>
</trkpt>
<trkpt lat="40.634683333333335" lon="-3.156191666666667">
<ele>702</ele>
<time>2017-03-02T11:55:00Z</time>
</trkpt>
<trkpt lat="40.634615000000004" lon="-3.156116666666667">
<ele>702</ele>
<time>2017-03-02T11:55:02Z</time>
</trkpt>
<trkpt lat="40.6346" lon="-3.1560916666666667">
<ele>702</ele>
<time>2017-03-02T11:55:04Z</time>
</trkpt>
<trkpt lat="40.634585" lon="-3.1560666666666664">
<ele>702</ele>
<time>2017-03-02T11:55:06Z</time>
</trkpt>
<trkpt lat="40.63456833333333" lon="-3.156036666666666">
<ele>702</ele>
<time>2017-03-02T11:55:08Z</time>
</trkpt>
<trkpt lat="40.63455" lon="-3.1560083333333333">
<ele>702</ele>
<time>2017-03-02T11:55:10Z</time>
</trkpt>
<trkpt lat="40.63457833333334" lon="-3.1559266666666663">
<ele>702</ele>
<time>2017-03-02T11:55:12Z</time>
</trkpt>
<trkpt lat="40.63453333333334" lon="-3.1567266666666662">
<ele>737</ele>
<time>2017-03-02T11:58:16Z</time>
</trkpt>
<trkpt lat="40.63455833333333" lon="-3.156763333333333">
<ele>736</ele>
<time>2017-03-02T11:58:18Z</time>
</trkpt>
<trkpt lat="40.634593333333335" lon="-3.156776666666667">
<ele>736</ele>
<time>2017-03-02T11:58:20Z</time>
</trkpt>
<trkpt lat="40.63461333333333" lon="-3.1567966666666667">
<ele>733</ele>
<time>2017-03-02T11:58:22Z</time>
</trkpt>
<trkpt lat="40.634611666666665" lon="-3.15679">
<ele>731</ele>
<time>2017-03-02T11:58:24Z</time>
</trkpt>
<trkpt lat="40.634615000000004" lon="-3.156781666666667">
<ele>730</ele>
<time>2017-03-02T11:58:26Z</time>
</trkpt>
<trkpt lat="40.634615000000004" lon="-3.156781666666667">
<ele>730</ele>
<time>2017-03-02T11:58:28Z</time>
</trkpt>
<trkpt lat="40.634615000000004" lon="-3.156781666666667">
<ele>730</ele>
<time>2017-03-02T11:58:30Z</time>
</trkpt>
<trkpt lat="40.634615000000004" lon="-3.156781666666667">
<ele>730</ele>
<time>2017-03-02T11:58:32Z</time>
</trkpt>
<trkpt lat="40.634615000000004" lon="-3.156781666666667">
<ele>730</ele>
<time>2017-03-02T11:58:34Z</time>
</trkpt>
<trkpt lat="40.634615000000004" lon="-3.156781666666667">
<ele>730</ele>
<time>2017-03-02T11:58:36Z</time>
</trkpt>
<trkpt lat="40.63458166666667" lon="-3.1566933333333327">
<ele>734</ele>
<time>2017-03-02T11:58:38Z</time>
</trkpt>
<trkpt lat="40.63456" lon="-3.15671">
<ele>733</ele>
<time>2017-03-02T11:58:40Z</time>
</trkpt>
<trkpt lat="40.633805" lon="-3.157043333333333">
<ele>733</ele>
<time>2017-03-02T11:58:54Z</time>
</trkpt>
<trkpt lat="40.633705" lon="-3.1570699999999996">
<ele>733</ele>
<time>2017-03-02T11:58:56Z</time>
</trkpt>
<trkpt lat="40.63362333333334" lon="-3.1571133333333337">
<ele>733</ele>
<time>2017-03-02T11:58:58Z</time>
</trkpt>
<trkpt lat="40.633565" lon="-3.157153333333333">
<ele>733</ele>
<time>2017-03-02T11:59:00Z</time>
</trkpt>
<trkpt lat="40.633545000000005" lon="-3.157166666666667">
<ele>733</ele>
<time>2017-03-02T11:59:02Z</time>
</trkpt>
<trkpt lat="40.633538333333334" lon="-3.1571700000000003">
<ele>733</ele>
<time>2017-03-02T11:59:04Z</time>
</trkpt>
<trkpt lat="40.63354833333334" lon="-3.157176666666667">
<ele>733</ele>
<time>2017-03-02T11:59:06Z</time>
</trkpt>
<trkpt lat="40.63354666666667" lon="-3.1571949999999998">
<ele>733</ele>
<time>2017-03-02T11:59:08Z</time>
</trkpt>
<trkpt lat="40.63354833333334" lon="-3.1572066666666663">
<ele>733</ele>
<time>2017-03-02T11:59:10Z</time>
</trkpt>
<trkpt lat="40.63455833333333" lon="-3.1565883333333336">
<ele>732</ele>
<time>2017-03-02T11:59:36Z</time>
</trkpt>
<trkpt lat="40.63480333333334" lon="-3.1563250000000003">
<ele>686</ele>
<time>2017-03-02T11:59:38Z</time>
</trkpt>
<trkpt lat="40.634813333333334" lon="-3.1563033333333332">
<ele>687</ele>
<time>2017-03-02T11:59:40Z</time>
</trkpt>
<trkpt lat="40.634813333333334" lon="-3.1563033333333332">
<ele>687</ele>
<time>2017-03-02T11:59:42Z</time>
</trkpt>
<trkpt lat="40.634813333333334" lon="-3.1563033333333332">
<ele>687</ele>
<time>2017-03-02T11:59:44Z</time>
</trkpt>
<trkpt lat="40.634813333333334" lon="-3.1563033333333332">
<ele>687</ele>
<time>2017-03-02T11:59:46Z</time>
</trkpt>
<trkpt lat="40.634813333333334" lon="-3.1563033333333332">
<ele>687</ele>
<time>2017-03-02T11:59:48Z</time>
</trkpt>
<trkpt lat="40.63489666666667" lon="-3.1562399999999995">
<ele>690</ele>
<time>2017-03-02T11:59:50Z</time>
</trkpt>
<trkpt lat="40.63493166666667" lon="-3.1562316666666663">
<ele>688</ele>
<time>2017-03-02T11:59:52Z</time>
</trkpt>
<trkpt lat="40.634935000000006" lon="-3.156235">
<ele>686</ele>
<time>2017-03-02T11:59:54Z</time>
</trkpt>
<trkpt lat="40.63491666666666" lon="-3.1562333333333337">
<ele>686</ele>
<time>2017-03-02T11:59:56Z</time>
</trkpt>
<trkpt lat="40.63491666666666" lon="-3.1562333333333337">
<ele>686</ele>
<time>2017-03-02T11:59:58Z</time>
</trkpt>
<trkpt lat="40.63491666666666" lon="-3.1562333333333337">
<ele>686</ele>
<time>2017-03-02T12:00:00Z</time>
</trkpt>
<trkpt lat="40.63491666666666" lon="-3.1562333333333337">
<ele>686</ele>
<time>2017-03-02T12:00:02Z</time>
</trkpt>
<trkpt lat="40.63491666666666" lon="-3.1562333333333337">
<ele>686</ele>
<time>2017-03-02T12:00:04Z</time>
</trkpt>
<trkpt lat="40.63491666666666" lon="-3.1562333333333337">
<ele>686</ele>
<time>2017-03-02T12:00:06Z</time>
</trkpt>
<trkpt lat="40.63491666666666" lon="-3.1562333333333337">
<ele>686</ele>
<time>2017-03-02T12:00:08Z</time>
</trkpt>
<trkpt lat="40.63491666666666" lon="-3.1562333333333337">
<ele>686</ele>
<time>2017-03-02T12:00:10Z</time>
</trkpt>
<trkpt lat="40.63491666666666" lon="-3.1562333333333337">
<ele>686</ele>
<time>2017-03-02T12:00:12Z</time>
</trkpt>
<trkpt lat="40.63491666666666" lon="-3.1562333333333337">
<ele>686</ele>
<time>2017-03-02T12:00:14Z</time>
</trkpt>
<trkpt lat="40.63491666666666" lon="-3.1562333333333337">
<ele>686</ele>
<time>2017-03-02T12:00:16Z</time>
</trkpt>
<trkpt lat="40.63491666666666" lon="-3.1562333333333337">
<ele>686</ele>
<time>2017-03-02T12:00:18Z</time>
</trkpt>
<trkpt lat="40.63491666666666" lon="-3.1562333333333337">
<ele>686</ele>
<time>2017-03-02T12:00:20Z</time>
</trkpt>
<trkpt lat="40.63491666666666" lon="-3.1562333333333337">
<ele>686</ele>
<time>2017-03-02T12:00:22Z</time>
</trkpt>
<trkpt lat="40.63491666666666" lon="-3.1562333333333337">
<ele>686</ele>
<time>2017-03-02T12:00:24Z</time>
</trkpt>
<trkpt lat="40.63491666666666" lon="-3.1562333333333337">
<ele>686</ele>
<time>2017-03-02T12:00:26Z</time>
</trkpt>
<trkpt lat="40.635" lon="-3.156181666666667">
<ele>681</ele>
<time>2017-03-02T12:00:28Z</time>
</trkpt>
<trkpt lat="40.63501" lon="-3.1561883333333336">
<ele>681</ele>
<time>2017-03-02T12:00:30Z</time>
</trkpt>
<trkpt lat="40.635014999999996" lon="-3.1561866666666663">
<ele>681</ele>
<time>2017-03-02T12:00:32Z</time>
</trkpt>
<trkpt lat="40.635014999999996" lon="-3.1561866666666663">
<ele>681</ele>
<time>2017-03-02T12:00:34Z</time>
</trkpt>
<trkpt lat="40.635041666666666" lon="-3.1561850000000002">
<ele>681</ele>
<time>2017-03-02T12:00:36Z</time>
</trkpt>
<trkpt lat="40.635040000000004" lon="-3.1561583333333334">
<ele>681</ele>
<time>2017-03-02T12:00:38Z</time>
</trkpt>
<trkpt lat="40.635020000000004" lon="-3.156136666666667">
<ele>681</ele>
<time>2017-03-02T12:00:40Z</time>
</trkpt>
<trkpt lat="40.63496833333333" lon="-3.156063333333334">
<ele>681</ele>
<time>2017-03-02T12:00:42Z</time>
</trkpt>
<trkpt lat="40.63496833333333" lon="-3.156063333333334">
<ele>681</ele>
<time>2017-03-02T12:00:44Z</time>
</trkpt>
<trkpt lat="40.63489166666667" lon="-3.1560016666666666">
<ele>681</ele>
<time>2017-03-02T12:00:46Z</time>
</trkpt>
<trkpt lat="40.63491666666666" lon="-3.1560166666666665">
<ele>681</ele>
<time>2017-03-02T12:00:48Z</time>
</trkpt>
<trkpt lat="40.63491666666666" lon="-3.1560166666666665">
<ele>681</ele>
<time>2017-03-02T12:00:50Z</time>
</trkpt>
<trkpt lat="40.63491666666666" lon="-3.1560166666666665">
<ele>681</ele>
<time>2017-03-02T12:00:52Z</time>
</trkpt>
<trkpt lat="40.63491666666666" lon="-3.1560166666666665">
<ele>681</ele>
<time>2017-03-02T12:00:54Z</time>
</trkpt>
<trkpt lat="40.635" lon="-3.156086666666667">
<ele>681</ele>
<time>2017-03-02T12:00:56Z</time>
</trkpt>
<trkpt lat="40.635023333333336" lon="-3.156108333333333">
<ele>681</ele>
<time>2017-03-02T12:00:58Z</time>
</trkpt>
<trkpt lat="40.635025000000006" lon="-3.1561116666666664">
<ele>681</ele>
<time>2017-03-02T12:01:00Z</time>
</trkpt>
<trkpt lat="40.635025000000006" lon="-3.1561116666666664">
<ele>681</ele>
<time>2017-03-02T12:01:02Z</time>
</trkpt>
<trkpt lat="40.635025000000006" lon="-3.1561116666666664">
<ele>681</ele>
<time>2017-03-02T12:01:04Z</time>
</trkpt>
<trkpt lat="40.635025000000006" lon="-3.1561116666666664">
<ele>681</ele>
<time>2017-03-02T12:01:06Z</time>
</trkpt>
<trkpt lat="40.635025000000006" lon="-3.1561116666666664">
<ele>681</ele>
<time>2017-03-02T12:01:08Z</time>
</trkpt>
<trkpt lat="40.635025000000006" lon="-3.1561116666666664">
<ele>681</ele>
<time>2017-03-02T12:01:10Z</time>
</trkpt>
<trkpt lat="40.635025000000006" lon="-3.1561116666666664">
<ele>681</ele>
<time>2017-03-02T12:01:12Z</time>
</trkpt>
<trkpt lat="40.63495666666667" lon="-3.1559850000000003">
<ele>682</ele>
<time>2017-03-02T12:01:14Z</time>
</trkpt>
<trkpt lat="40.634946666666664" lon="-3.1559700000000004">
<ele>682</ele>
<time>2017-03-02T12:01:16Z</time>
</trkpt>
<trkpt lat="40.634946666666664" lon="-3.1559700000000004">
<ele>682</ele>
<time>2017-03-02T12:01:18Z</time>
</trkpt>
<trkpt lat="40.634946666666664" lon="-3.1559700000000004">
<ele>682</ele>
<time>2017-03-02T12:01:20Z</time>
</trkpt>
<trkpt lat="40.634946666666664" lon="-3.1559700000000004">
<ele>682</ele>
<time>2017-03-02T12:01:22Z</time>
</trkpt>
<trkpt lat="40.634946666666664" lon="-3.1559700000000004">
<ele>682</ele>
<time>2017-03-02T12:01:24Z</time>
</trkpt>
<trkpt lat="40.634946666666664" lon="-3.1559700000000004">
<ele>682</ele>
<time>2017-03-02T12:01:26Z</time>
</trkpt>
<trkpt lat="40.63484666666667" lon="-3.1559116666666664">
<ele>681</ele>
<time>2017-03-02T12:01:28Z</time>
</trkpt>
<trkpt lat="40.634834999999995" lon="-3.1559133333333333">
<ele>681</ele>
<time>2017-03-02T12:01:30Z</time>
</trkpt>
<trkpt lat="40.634834999999995" lon="-3.1559133333333333">
<ele>681</ele>
<time>2017-03-02T12:01:32Z</time>
</trkpt>
<trkpt lat="40.634834999999995" lon="-3.1559133333333333">
<ele>681</ele>
<time>2017-03-02T12:01:34Z</time>
</trkpt>
<trkpt lat="40.634834999999995" lon="-3.1559133333333333">
<ele>681</ele>
<time>2017-03-02T12:01:36Z</time>
</trkpt>
<trkpt lat="40.634834999999995" lon="-3.1559133333333333">
<ele>681</ele>
<time>2017-03-02T12:01:38Z</time>
</trkpt>
<trkpt lat="40.635055" lon="-3.1559200000000005">
<ele>685</ele>
<time>2017-03-02T12:01:40Z</time>
</trkpt>
<trkpt lat="40.63532166666666" lon="-3.155905">
<ele>691</ele>
<time>2017-03-02T12:01:42Z</time>
</trkpt>
<trkpt lat="40.63536" lon="-3.155878333333334">
<ele>692</ele>
<time>2017-03-02T12:01:44Z</time>
</trkpt>
<trkpt lat="40.635486666666665" lon="-3.155873333333333">
<ele>694</ele>
<time>2017-03-02T12:01:46Z</time>
</trkpt>
<trkpt lat="40.635556666666666" lon="-3.1558983333333335">
<ele>695</ele>
<time>2017-03-02T12:01:48Z</time>
</trkpt>
<trkpt lat="40.63556666666667" lon="-3.155886666666667">
<ele>695</ele>
<time>2017-03-02T12:01:50Z</time>
</trkpt>
<trkpt lat="40.63556666666667" lon="-3.155886666666667">
<ele>695</ele>
<time>2017-03-02T12:01:52Z</time>
</trkpt>
<trkpt lat="40.63556666666667" lon="-3.155886666666667">
<ele>695</ele>
<time>2017-03-02T12:01:54Z</time>
</trkpt>
<trkpt lat="40.63565333333334" lon="-3.1559483333333334">
<ele>695</ele>
<time>2017-03-02T12:01:56Z</time>
</trkpt>
<trkpt lat="40.63571" lon="-3.156018333333334">
<ele>695</ele>
<time>2017-03-02T12:01:58Z</time>
</trkpt>
<trkpt lat="40.63576333333333" lon="-3.15608">
<ele>695</ele>
<time>2017-03-02T12:02:00Z</time>
</trkpt>
<trkpt lat="40.63581333333333" lon="-3.1561433333333335">
<ele>696</ele>
<time>2017-03-02T12:02:02Z</time>
</trkpt>
<trkpt lat="40.63585" lon="-3.1562016666666666">
<ele>696</ele>
<time>2017-03-02T12:02:04Z</time>
</trkpt>
<trkpt lat="40.635888333333334" lon="-3.1562466666666666">
<ele>697</ele>
<time>2017-03-02T12:02:06Z</time>
</trkpt>
<trkpt lat="40.63591833333333" lon="-3.156271666666667">
<ele>697</ele>
<time>2017-03-02T12:02:08Z</time>
</trkpt>
<trkpt lat="40.63593166666667" lon="-3.1562766666666664">
<ele>697</ele>
<time>2017-03-02T12:02:10Z</time>
</trkpt>
<trkpt lat="40.63593166666667" lon="-3.1562766666666664">
<ele>697</ele>
<time>2017-03-02T12:02:12Z</time>
</trkpt>
<trkpt lat="40.635981666666666" lon="-3.15628">
<ele>697</ele>
<time>2017-03-02T12:02:14Z</time>
</trkpt>
<trkpt lat="40.63598833333333" lon="-3.156271666666667">
<ele>697</ele>
<time>2017-03-02T12:02:16Z</time>
</trkpt>
<trkpt lat="40.63592666666667" lon="-3.156258333333333">
<ele>697</ele>
<time>2017-03-02T12:02:18Z</time>
</trkpt>
<trkpt lat="40.63590666666666" lon="-3.1562699999999997">
<ele>697</ele>
<time>2017-03-02T12:02:20Z</time>
</trkpt>
<trkpt lat="40.63579333333333" lon="-3.156265">
<ele>697</ele>
<time>2017-03-02T12:02:22Z</time>
</trkpt>
<trkpt lat="40.63572833333333" lon="-3.156263333333334">
<ele>697</ele>
<time>2017-03-02T12:02:24Z</time>
</trkpt>
<trkpt lat="40.635675" lon="-3.1562150000000004">
<ele>697</ele>
<time>2017-03-02T12:02:26Z</time>
</trkpt>
<trkpt lat="40.635533333333335" lon="-3.1562433333333333">
<ele>698</ele>
<time>2017-03-02T12:02:28Z</time>
</trkpt>
<trkpt lat="40.635495" lon="-3.1562616666666665">
<ele>698</ele>
<time>2017-03-02T12:02:30Z</time>
</trkpt>
<trkpt lat="40.63547666666667" lon="-3.1562683333333337">
<ele>698</ele>
<time>2017-03-02T12:02:32Z</time>
</trkpt>
<trkpt lat="40.63545833333333" lon="-3.1562683333333337">
<ele>698</ele>
<time>2017-03-02T12:02:34Z</time>
</trkpt>
<trkpt lat="40.63545833333333" lon="-3.1562683333333337">
<ele>698</ele>
<time>2017-03-02T12:02:36Z</time>
</trkpt>
<trkpt lat="40.63545833333333" lon="-3.1562683333333337">
<ele>698</ele>
<time>2017-03-02T12:02:38Z</time>
</trkpt>
<trkpt lat="40.63545833333333" lon="-3.1562683333333337">
<ele>698</ele>
<time>2017-03-02T12:02:40Z</time>
</trkpt>
<trkpt lat="40.63439833333334" lon="-3.1558983333333335">
<ele>703</ele>
<time>2017-03-02T12:03:10Z</time>
</trkpt>
<trkpt lat="40.634545" lon="-3.155918333333333">
<ele>701</ele>
<time>2017-03-02T12:03:12Z</time>
</trkpt>
<trkpt lat="40.63459833333333" lon="-3.1558399999999995">
<ele>701</ele>
<time>2017-03-02T12:03:14Z</time>
</trkpt>
<trkpt lat="40.63461333333333" lon="-3.15579">
<ele>699</ele>
<time>2017-03-02T12:03:16Z</time>
</trkpt>
<trkpt lat="40.634635" lon="-3.1557749999999998">
<ele>698</ele>
<time>2017-03-02T12:03:18Z</time>
</trkpt>
<trkpt lat="40.63464166666667" lon="-3.1557266666666663">
<ele>697</ele>
<time>2017-03-02T12:03:20Z</time>
</trkpt>
<trkpt lat="40.63467833333333" lon="-3.1557116666666665">
<ele>696</ele>
<time>2017-03-02T12:03:22Z</time>
</trkpt>
<trkpt lat="40.63473666666666" lon="-3.1557033333333333">
<ele>694</ele>
<time>2017-03-02T12:03:24Z</time>
</trkpt>
<trkpt lat="40.634766666666664" lon="-3.155725">
<ele>696</ele>
<time>2017-03-02T12:03:26Z</time>
</trkpt>
<trkpt lat="40.634795000000004" lon="-3.15574">
<ele>696</ele>
<time>2017-03-02T12:03:28Z</time>
</trkpt>
<trkpt lat="40.63480333333334" lon="-3.1557416666666662">
<ele>696</ele>
<time>2017-03-02T12:03:30Z</time>
</trkpt>
<trkpt lat="40.63480333333334" lon="-3.1557416666666662">
<ele>696</ele>
<time>2017-03-02T12:03:32Z</time>
</trkpt>
<trkpt lat="40.63480333333334" lon="-3.1557416666666662">
<ele>696</ele>
<time>2017-03-02T12:03:34Z</time>
</trkpt>
<trkpt lat="40.63480333333334" lon="-3.1557416666666662">
<ele>696</ele>
<time>2017-03-02T12:03:36Z</time>
</trkpt>
<trkpt lat="40.63480333333334" lon="-3.1557416666666662">
<ele>696</ele>
<time>2017-03-02T12:03:38Z</time>
</trkpt>
<trkpt lat="40.634879999999995" lon="-3.1556466666666667">
<ele>700</ele>
<time>2017-03-02T12:03:40Z</time>
</trkpt>
<trkpt lat="40.63487833333333" lon="-3.1556300000000004">
<ele>700</ele>
<time>2017-03-02T12:03:42Z</time>
</trkpt>
<trkpt lat="40.63487833333333" lon="-3.1556300000000004">
<ele>700</ele>
<time>2017-03-02T12:03:44Z</time>
</trkpt>
<trkpt lat="40.634906666666666" lon="-3.1555933333333335">
<ele>703</ele>
<time>2017-03-02T12:03:46Z</time>
</trkpt>
<trkpt lat="40.63494" lon="-3.1555666666666666">
<ele>702</ele>
<time>2017-03-02T12:03:48Z</time>
</trkpt>
<trkpt lat="40.63496166666666" lon="-3.1555299999999997">
<ele>702</ele>
<time>2017-03-02T12:03:50Z</time>
</trkpt>
<trkpt lat="40.634985" lon="-3.1554833333333336">
<ele>701</ele>
<time>2017-03-02T12:03:52Z</time>
</trkpt>
<trkpt lat="40.634998333333336" lon="-3.1554399999999996">
<ele>700</ele>
<time>2017-03-02T12:03:54Z</time>
</trkpt>
<trkpt lat="40.63501333333333" lon="-3.1554">
<ele>700</ele>
<time>2017-03-02T12:03:56Z</time>
</trkpt>
<trkpt lat="40.63503166666667" lon="-3.1553666666666667">
<ele>700</ele>
<time>2017-03-02T12:03:58Z</time>
</trkpt>
<trkpt lat="40.635045" lon="-3.155331666666667">
<ele>699</ele>
<time>2017-03-02T12:04:00Z</time>
</trkpt>
<trkpt lat="40.635056666666664" lon="-3.155296666666666">
<ele>699</ele>
<time>2017-03-02T12:04:02Z</time>
</trkpt>
<trkpt lat="40.63508" lon="-3.1552450000000003">
<ele>698</ele>
<time>2017-03-02T12:04:04Z</time>
</trkpt>
<trkpt lat="40.635110000000005" lon="-3.1552083333333334">
<ele>698</ele>
<time>2017-03-02T12:04:06Z</time>
</trkpt>
<trkpt lat="40.63513833333333" lon="-3.15517">
<ele>698</ele>
<time>2017-03-02T12:04:08Z</time>
</trkpt>
<trkpt lat="40.63518166666667" lon="-3.155156666666666">
<ele>698</ele>
<time>2017-03-02T12:04:10Z</time>
</trkpt>
<trkpt lat="40.635216666666665" lon="-3.155133333333333">
<ele>698</ele>
<time>2017-03-02T12:04:12Z</time>
</trkpt>
<trkpt lat="40.635239999999996" lon="-3.1551183333333332">
<ele>697</ele>
<time>2017-03-02T12:04:14Z</time>
</trkpt>
<trkpt lat="40.63525666666667" lon="-3.15511">
<ele>697</ele>
<time>2017-03-02T12:04:16Z</time>
</trkpt>
<trkpt lat="40.63525666666667" lon="-3.15511">
<ele>697</ele>
<time>2017-03-02T12:04:18Z</time>
</trkpt>
<trkpt lat="40.63525666666667" lon="-3.15511">
<ele>697</ele>
<time>2017-03-02T12:04:20Z</time>
</trkpt>
<trkpt lat="40.63525666666667" lon="-3.15511">
<ele>697</ele>
<time>2017-03-02T12:04:22Z</time>
</trkpt>
<trkpt lat="40.63534833333333" lon="-3.1550816666666663">
<ele>697</ele>
<time>2017-03-02T12:04:24Z</time>
</trkpt>
<trkpt lat="40.63536" lon="-3.1550933333333337">
<ele>697</ele>
<time>2017-03-02T12:04:26Z</time>
</trkpt>
<trkpt lat="40.63538666666667" lon="-3.155175">
<ele>697</ele>
<time>2017-03-02T12:04:28Z</time>
</trkpt>
<trkpt lat="40.63545333333333" lon="-3.155331666666667">
<ele>697</ele>
<time>2017-03-02T12:04:30Z</time>
</trkpt>
<trkpt lat="40.63553" lon="-3.155515">
<ele>697</ele>
<time>2017-03-02T12:04:32Z</time>
</trkpt>
<trkpt lat="40.63561333333334" lon="-3.155718333333333">
<ele>697</ele>
<time>2017-03-02T12:04:34Z</time>
</trkpt>
<trkpt lat="40.63568166666666" lon="-3.1558933333333328">
<ele>697</ele>
<time>2017-03-02T12:04:36Z</time>
</trkpt>
<trkpt lat="40.635758333333335" lon="-3.1560816666666662">
<ele>696</ele>
<time>2017-03-02T12:04:38Z</time>
</trkpt>
<trkpt lat="40.635239999999996" lon="-3.1550616666666667">
<ele>695</ele>
<time>2017-03-02T12:05:54Z</time>
</trkpt>
<trkpt lat="40.635234999999994" lon="-3.155198333333333">
<ele>697</ele>
<time>2017-03-02T12:05:56Z</time>
</trkpt>
<trkpt lat="40.63523166666666" lon="-3.1552249999999997">
<ele>697</ele>
<time>2017-03-02T12:05:58Z</time>
</trkpt>
<trkpt lat="40.63526" lon="-3.155265">
<ele>697</ele>
<time>2017-03-02T12:06:00Z</time>
</trkpt>
<trkpt lat="40.63526" lon="-3.155265">
<ele>697</ele>
<time>2017-03-02T12:06:02Z</time>
</trkpt>
<trkpt lat="40.63526" lon="-3.155265">
<ele>697</ele>
<time>2017-03-02T12:06:04Z</time>
</trkpt>
<trkpt lat="40.63526" lon="-3.155265">
<ele>697</ele>
<time>2017-03-02T12:06:06Z</time>
</trkpt>
<trkpt lat="40.63526" lon="-3.155265">
<ele>697</ele>
<time>2017-03-02T12:06:08Z</time>
</trkpt>
<trkpt lat="40.63526" lon="-3.155265">
<ele>697</ele>
<time>2017-03-02T12:06:10Z</time>
</trkpt>
<trkpt lat="40.63526" lon="-3.155265">
<ele>697</ele>
<time>2017-03-02T12:06:12Z</time>
</trkpt>
<trkpt lat="40.63526" lon="-3.155265">
<ele>697</ele>
<time>2017-03-02T12:06:14Z</time>
</trkpt>
<trkpt lat="40.63526" lon="-3.155265">
<ele>697</ele>
<time>2017-03-02T12:06:16Z</time>
</trkpt>
<trkpt lat="40.63526" lon="-3.155265">
<ele>697</ele>
<time>2017-03-02T12:06:18Z</time>
</trkpt>
<trkpt lat="40.635351666666665" lon="-3.1553116666666665">
<ele>697</ele>
<time>2017-03-02T12:06:20Z</time>
</trkpt>
<trkpt lat="40.63536" lon="-3.15531">
<ele>697</ele>
<time>2017-03-02T12:06:22Z</time>
</trkpt>
<trkpt lat="40.63536" lon="-3.15531">
<ele>697</ele>
<time>2017-03-02T12:06:24Z</time>
</trkpt>
<trkpt lat="40.63536" lon="-3.15531">
<ele>697</ele>
<time>2017-03-02T12:06:26Z</time>
</trkpt>
<trkpt lat="40.63536" lon="-3.15531">
<ele>697</ele>
<time>2017-03-02T12:06:28Z</time>
</trkpt>
<trkpt lat="40.63536" lon="-3.15531">
<ele>697</ele>
<time>2017-03-02T12:06:30Z</time>
</trkpt>
<trkpt lat="40.63536" lon="-3.15531">
<ele>697</ele>
<time>2017-03-02T12:06:32Z</time>
</trkpt>
<trkpt lat="40.63536" lon="-3.15531">
<ele>697</ele>
<time>2017-03-02T12:06:34Z</time>
</trkpt>
<trkpt lat="40.63536" lon="-3.15531">
<ele>697</ele>
<time>2017-03-02T12:06:36Z</time>
</trkpt>
<trkpt lat="40.63536" lon="-3.15531">
<ele>697</ele>
<time>2017-03-02T12:06:38Z</time>
</trkpt>
<trkpt lat="40.63536" lon="-3.15531">
<ele>697</ele>
<time>2017-03-02T12:06:40Z</time>
</trkpt>
<trkpt lat="40.63536" lon="-3.15531">
<ele>697</ele>
<time>2017-03-02T12:06:42Z</time>
</trkpt>
<trkpt lat="40.63536" lon="-3.15531">
<ele>697</ele>
<time>2017-03-02T12:06:44Z</time>
</trkpt>
<trkpt lat="40.63536" lon="-3.15531">
<ele>697</ele>
<time>2017-03-02T12:06:46Z</time>
</trkpt>
<trkpt lat="40.63536" lon="-3.15531">
<ele>697</ele>
<time>2017-03-02T12:06:48Z</time>
</trkpt>
<trkpt lat="40.63536" lon="-3.15531">
<ele>697</ele>
<time>2017-03-02T12:06:50Z</time>
</trkpt>
<trkpt lat="40.635418333333334" lon="-3.155213333333333">
<ele>698</ele>
<time>2017-03-02T12:06:52Z</time>
</trkpt>
<trkpt lat="40.63541333333333" lon="-3.155205">
<ele>697</ele>
<time>2017-03-02T12:06:54Z</time>
</trkpt>
<trkpt lat="40.63541333333333" lon="-3.155205">
<ele>697</ele>
<time>2017-03-02T12:06:56Z</time>
</trkpt>
<trkpt lat="40.63541333333333" lon="-3.155205">
<ele>697</ele>
<time>2017-03-02T12:06:58Z</time>
</trkpt>
<trkpt lat="40.63541333333333" lon="-3.155205">
<ele>697</ele>
<time>2017-03-02T12:07:00Z</time>
</trkpt>
<trkpt lat="40.63541333333333" lon="-3.155205">
<ele>697</ele>
<time>2017-03-02T12:07:02Z</time>
</trkpt>
<trkpt lat="40.63541333333333" lon="-3.155205">
<ele>697</ele>
<time>2017-03-02T12:07:04Z</time>
</trkpt>
<trkpt lat="40.63541333333333" lon="-3.155205">
<ele>697</ele>
<time>2017-03-02T12:07:06Z</time>
</trkpt>
<trkpt lat="40.63541333333333" lon="-3.155205">
<ele>697</ele>
<time>2017-03-02T12:07:08Z</time>
</trkpt>
<trkpt lat="40.63541333333333" lon="-3.155205">
<ele>697</ele>
<time>2017-03-02T12:07:10Z</time>
</trkpt>
<trkpt lat="40.63541333333333" lon="-3.155205">
<ele>697</ele>
<time>2017-03-02T12:07:12Z</time>
</trkpt>
<trkpt lat="40.63541333333333" lon="-3.155205">
<ele>697</ele>
<time>2017-03-02T12:07:14Z</time>
</trkpt>
<trkpt lat="40.63532" lon="-3.1551949999999995">
<ele>695</ele>
<time>2017-03-02T12:07:16Z</time>
</trkpt>
<trkpt lat="40.635315" lon="-3.155175">
<ele>694</ele>
<time>2017-03-02T12:07:18Z</time>
</trkpt>
<trkpt lat="40.635313333333336" lon="-3.155175">
<ele>694</ele>
<time>2017-03-02T12:07:20Z</time>
</trkpt>
<trkpt lat="40.635313333333336" lon="-3.155175">
<ele>694</ele>
<time>2017-03-02T12:07:22Z</time>
</trkpt>
<trkpt lat="40.635313333333336" lon="-3.155175">
<ele>694</ele>
<time>2017-03-02T12:07:24Z</time>
</trkpt>
<trkpt lat="40.635313333333336" lon="-3.155175">
<ele>694</ele>
<time>2017-03-02T12:07:26Z</time>
</trkpt>
<trkpt lat="40.635313333333336" lon="-3.155175">
<ele>694</ele>
<time>2017-03-02T12:07:28Z</time>
</trkpt>
<trkpt lat="40.635313333333336" lon="-3.155175">
<ele>694</ele>
<time>2017-03-02T12:07:30Z</time>
</trkpt>
<trkpt lat="40.635313333333336" lon="-3.155175">
<ele>694</ele>
<time>2017-03-02T12:07:32Z</time>
</trkpt>
<trkpt lat="40.635313333333336" lon="-3.155175">
<ele>694</ele>
<time>2017-03-02T12:07:34Z</time>
</trkpt>
<trkpt lat="40.635313333333336" lon="-3.155175">
<ele>694</ele>
<time>2017-03-02T12:07:36Z</time>
</trkpt>
<trkpt lat="40.635313333333336" lon="-3.155175">
<ele>694</ele>
<time>2017-03-02T12:07:38Z</time>
</trkpt>
<trkpt lat="40.635313333333336" lon="-3.155175">
<ele>694</ele>
<time>2017-03-02T12:07:40Z</time>
</trkpt>
<trkpt lat="40.635313333333336" lon="-3.155175">
<ele>694</ele>
<time>2017-03-02T12:07:42Z</time>
</trkpt>
<trkpt lat="40.635313333333336" lon="-3.155175">
<ele>694</ele>
<time>2017-03-02T12:07:44Z</time>
</trkpt>
<trkpt lat="40.635313333333336" lon="-3.155175">
<ele>694</ele>
<time>2017-03-02T12:07:46Z</time>
</trkpt>
<trkpt lat="40.635313333333336" lon="-3.155175">
<ele>694</ele>
<time>2017-03-02T12:07:48Z</time>
</trkpt>
<trkpt lat="40.635313333333336" lon="-3.155175">
<ele>694</ele>
<time>2017-03-02T12:07:50Z</time>
</trkpt>
<trkpt lat="40.635313333333336" lon="-3.155175">
<ele>694</ele>
<time>2017-03-02T12:07:52Z</time>
</trkpt>
<trkpt lat="40.635313333333336" lon="-3.155175">
<ele>694</ele>
<time>2017-03-02T12:07:54Z</time>
</trkpt>
<trkpt lat="40.635313333333336" lon="-3.155175">
<ele>694</ele>
<time>2017-03-02T12:07:56Z</time>
</trkpt>
<trkpt lat="40.635313333333336" lon="-3.155175">
<ele>694</ele>
<time>2017-03-02T12:07:58Z</time>
</trkpt>
<trkpt lat="40.635313333333336" lon="-3.155175">
<ele>694</ele>
<time>2017-03-02T12:08:00Z</time>
</trkpt>
<trkpt lat="40.635313333333336" lon="-3.155175">
<ele>694</ele>
<time>2017-03-02T12:08:02Z</time>
</trkpt>
<trkpt lat="40.63535666666667" lon="-3.15527">
<ele>693</ele>
<time>2017-03-02T12:08:04Z</time>
</trkpt>
<trkpt lat="40.63534333333334" lon="-3.155288333333333">
<ele>693</ele>
<time>2017-03-02T12:08:06Z</time>
</trkpt>
<trkpt lat="40.63534333333334" lon="-3.155288333333333">
<ele>693</ele>
<time>2017-03-02T12:08:08Z</time>
</trkpt>
<trkpt lat="40.63534333333334" lon="-3.155288333333333">
<ele>693</ele>
<time>2017-03-02T12:08:10Z</time>
</trkpt>
<trkpt lat="40.63534333333334" lon="-3.155288333333333">
<ele>693</ele>
<time>2017-03-02T12:08:12Z</time>
</trkpt>
<trkpt lat="40.63534333333334" lon="-3.155288333333333">
<ele>693</ele>
<time>2017-03-02T12:08:14Z</time>
</trkpt>
<trkpt lat="40.635263333333334" lon="-3.1552316666666664">
<ele>695</ele>
<time>2017-03-02T12:08:16Z</time>
</trkpt>
<trkpt lat="40.635261666666665" lon="-3.15522">
<ele>695</ele>
<time>2017-03-02T12:08:18Z</time>
</trkpt>
<trkpt lat="40.635245000000005" lon="-3.155235">
<ele>695</ele>
<time>2017-03-02T12:08:20Z</time>
</trkpt>
<trkpt lat="40.635245000000005" lon="-3.155235">
<ele>695</ele>
<time>2017-03-02T12:08:22Z</time>
</trkpt>
<trkpt lat="40.635245000000005" lon="-3.155235">
<ele>695</ele>
<time>2017-03-02T12:08:24Z</time>
</trkpt>
<trkpt lat="40.635245000000005" lon="-3.155235">
<ele>695</ele>
<time>2017-03-02T12:08:26Z</time>
</trkpt>
<trkpt lat="40.635335000000005" lon="-3.155213333333333">
<ele>695</ele>
<time>2017-03-02T12:08:28Z</time>
</trkpt>
<trkpt lat="40.63538833333334" lon="-3.1552116666666667">
<ele>695</ele>
<time>2017-03-02T12:08:30Z</time>
</trkpt>
<trkpt lat="40.635435" lon="-3.155241666666667">
<ele>695</ele>
<time>2017-03-02T12:08:32Z</time>
</trkpt>
<trkpt lat="40.63549166666667" lon="-3.15526">
<ele>688</ele>
<time>2017-03-02T12:08:34Z</time>
</trkpt>
<trkpt lat="40.635485" lon="-3.155288333333333">
<ele>683</ele>
<time>2017-03-02T12:08:36Z</time>
</trkpt>
<trkpt lat="40.635545" lon="-3.15531">
<ele>680</ele>
<time>2017-03-02T12:08:38Z</time>
</trkpt>
<trkpt lat="40.635556666666666" lon="-3.155265">
<ele>680</ele>
<time>2017-03-02T12:08:40Z</time>
</trkpt>
<trkpt lat="40.63553666666667" lon="-3.155233333333334">
<ele>678</ele>
<time>2017-03-02T12:08:42Z</time>
</trkpt>
<trkpt lat="40.635551666666665" lon="-3.1552033333333336">
<ele>678</ele>
<time>2017-03-02T12:08:44Z</time>
</trkpt>
<trkpt lat="40.63557166666667" lon="-3.155155">
<ele>679</ele>
<time>2017-03-02T12:08:46Z</time>
</trkpt>
<trkpt lat="40.63558" lon="-3.1550916666666664">
<ele>681</ele>
<time>2017-03-02T12:08:48Z</time>
</trkpt>
<trkpt lat="40.635585" lon="-3.155086666666667">
<ele>682</ele>
<time>2017-03-02T12:08:50Z</time>
</trkpt>
<trkpt lat="40.635598333333334" lon="-3.1550583333333333">
<ele>684</ele>
<time>2017-03-02T12:08:52Z</time>
</trkpt>
<trkpt lat="40.63560333333333" lon="-3.1550266666666666">
<ele>684</ele>
<time>2017-03-02T12:08:54Z</time>
</trkpt>
<trkpt lat="40.63562" lon="-3.1549866666666664">
<ele>685</ele>
<time>2017-03-02T12:08:56Z</time>
</trkpt>
<trkpt lat="40.635650000000005" lon="-3.154968333333333">
<ele>686</ele>
<time>2017-03-02T12:08:58Z</time>
</trkpt>
<trkpt lat="40.635666666666665" lon="-3.1549400000000003">
<ele>688</ele>
<time>2017-03-02T12:09:00Z</time>
</trkpt>
<trkpt lat="40.63567833333333" lon="-3.1549133333333335">
<ele>689</ele>
<time>2017-03-02T12:09:02Z</time>
</trkpt>
<trkpt lat="40.63569833333334" lon="-3.154865">
<ele>690</ele>
<time>2017-03-02T12:09:04Z</time>
</trkpt>
<trkpt lat="40.63571" lon="-3.154828333333333">
<ele>692</ele>
<time>2017-03-02T12:09:06Z</time>
</trkpt>
<trkpt lat="40.63572666666666" lon="-3.154813333333333">
<ele>693</ele>
<time>2017-03-02T12:09:08Z</time>
</trkpt>
<trkpt lat="40.63575166666667" lon="-3.154783333333333">
<ele>694</ele>
<time>2017-03-02T12:09:10Z</time>
</trkpt>
<trkpt lat="40.635776666666665" lon="-3.1547583333333336">
<ele>695</ele>
<time>2017-03-02T12:09:12Z</time>
</trkpt>
<trkpt lat="40.63578666666667" lon="-3.1547183333333333">
<ele>696</ele>
<time>2017-03-02T12:09:14Z</time>
</trkpt>
<trkpt lat="40.63581333333333" lon="-3.1546849999999997">
<ele>697</ele>
<time>2017-03-02T12:09:16Z</time>
</trkpt>
<trkpt lat="40.63583333333334" lon="-3.154641666666667">
<ele>699</ele>
<time>2017-03-02T12:09:18Z</time>
</trkpt>
<trkpt lat="40.63586166666666" lon="-3.154596666666667">
<ele>700</ele>
<time>2017-03-02T12:09:20Z</time>
</trkpt>
<trkpt lat="40.63588" lon="-3.1545599999999996">
<ele>702</ele>
<time>2017-03-02T12:09:22Z</time>
</trkpt>
<trkpt lat="40.63590666666666" lon="-3.154548333333333">
<ele>703</ele>
<time>2017-03-02T12:09:24Z</time>
</trkpt>
<trkpt lat="40.635911666666665" lon="-3.1545266666666665">
<ele>704</ele>
<time>2017-03-02T12:09:26Z</time>
</trkpt>
<trkpt lat="40.635911666666665" lon="-3.1545266666666665">
<ele>704</ele>
<time>2017-03-02T12:09:28Z</time>
</trkpt>
<trkpt lat="40.635911666666665" lon="-3.1545266666666665">
<ele>704</ele>
<time>2017-03-02T12:09:30Z</time>
</trkpt>
<trkpt lat="40.63595333333333" lon="-3.1544999999999996">
<ele>706</ele>
<time>2017-03-02T12:09:32Z</time>
</trkpt>
<trkpt lat="40.63595833333333" lon="-3.154475">
<ele>706</ele>
<time>2017-03-02T12:09:34Z</time>
</trkpt>
<trkpt lat="40.63596" lon="-3.1544683333333334">
<ele>706</ele>
<time>2017-03-02T12:09:36Z</time>
</trkpt>
<trkpt lat="40.63596" lon="-3.1544683333333334">
<ele>706</ele>
<time>2017-03-02T12:09:38Z</time>
</trkpt>
<trkpt lat="40.635999999999996" lon="-3.154393333333333">
<ele>706</ele>
<time>2017-03-02T12:09:40Z</time>
</trkpt>
<trkpt lat="40.63602166666667" lon="-3.1543599999999996">
<ele>706</ele>
<time>2017-03-02T12:09:42Z</time>
</trkpt>
<trkpt lat="40.63603666666667" lon="-3.1543350000000006">
<ele>706</ele>
<time>2017-03-02T12:09:44Z</time>
</trkpt>
<trkpt lat="40.636046666666665" lon="-3.1543216666666667">
<ele>706</ele>
<time>2017-03-02T12:09:46Z</time>
</trkpt>
<trkpt lat="40.63606666666667" lon="-3.1543050000000004">
<ele>706</ele>
<time>2017-03-02T12:09:48Z</time>
</trkpt>
<trkpt lat="40.63608333333333" lon="-3.1542966666666663">
<ele>705</ele>
<time>2017-03-02T12:09:50Z</time>
</trkpt>
<trkpt lat="40.636089999999996" lon="-3.1542633333333336">
<ele>705</ele>
<time>2017-03-02T12:09:52Z</time>
</trkpt>
<trkpt lat="40.636115000000004" lon="-3.1542399999999997">
<ele>704</ele>
<time>2017-03-02T12:09:54Z</time>
</trkpt>
<trkpt lat="40.63613" lon="-3.1542183333333336">
<ele>704</ele>
<time>2017-03-02T12:09:56Z</time>
</trkpt>
<trkpt lat="40.63615166666667" lon="-3.1541883333333334">
<ele>703</ele>
<time>2017-03-02T12:09:58Z</time>
</trkpt>
<trkpt lat="40.63615166666667" lon="-3.1541883333333334">
<ele>703</ele>
<time>2017-03-02T12:10:00Z</time>
</trkpt>
<trkpt lat="40.63615166666667" lon="-3.1541883333333334">
<ele>703</ele>
<time>2017-03-02T12:10:02Z</time>
</trkpt>
<trkpt lat="40.63615166666667" lon="-3.1541883333333334">
<ele>703</ele>
<time>2017-03-02T12:10:04Z</time>
</trkpt>
<trkpt lat="40.63615166666667" lon="-3.1541883333333334">
<ele>703</ele>
<time>2017-03-02T12:10:06Z</time>
</trkpt>
<trkpt lat="40.636255" lon="-3.1541366666666666">
<ele>701</ele>
<time>2017-03-02T12:10:08Z</time>
</trkpt>
<trkpt lat="40.636271666666666" lon="-3.154125">
<ele>701</ele>
<time>2017-03-02T12:10:10Z</time>
</trkpt>
<trkpt lat="40.6363" lon="-3.1540966666666663">
<ele>701</ele>
<time>2017-03-02T12:10:12Z</time>
</trkpt>
<trkpt lat="40.636316666666666" lon="-3.1540733333333333">
<ele>701</ele>
<time>2017-03-02T12:10:14Z</time>
</trkpt>
<trkpt lat="40.63633" lon="-3.1540549999999996">
<ele>701</ele>
<time>2017-03-02T12:10:16Z</time>
</trkpt>
<trkpt lat="40.63635" lon="-3.1540333333333335">
<ele>701</ele>
<time>2017-03-02T12:10:18Z</time>
</trkpt>
<trkpt lat="40.636375" lon="-3.1540049999999997">
<ele>701</ele>
<time>2017-03-02T12:10:20Z</time>
</trkpt>
<trkpt lat="40.636388333333336" lon="-3.1539866666666665">
<ele>701</ele>
<time>2017-03-02T12:10:22Z</time>
</trkpt>
<trkpt lat="40.636388333333336" lon="-3.1539866666666665">
<ele>701</ele>
<time>2017-03-02T12:10:24Z</time>
</trkpt>
<trkpt lat="40.63641833333334" lon="-3.1539449999999998">
<ele>701</ele>
<time>2017-03-02T12:10:26Z</time>
</trkpt>
<trkpt lat="40.63643666666667" lon="-3.1539233333333336">
<ele>701</ele>
<time>2017-03-02T12:10:28Z</time>
</trkpt>
<trkpt lat="40.636451666666666" lon="-3.153893333333334">
<ele>701</ele>
<time>2017-03-02T12:10:30Z</time>
</trkpt>
<trkpt lat="40.636465" lon="-3.153865">
<ele>701</ele>
<time>2017-03-02T12:10:32Z</time>
</trkpt>
<trkpt lat="40.636475000000004" lon="-3.153845">
<ele>701</ele>
<time>2017-03-02T12:10:34Z</time>
</trkpt>
<trkpt lat="40.636496666666666" lon="-3.153828333333333">
<ele>702</ele>
<time>2017-03-02T12:10:36Z</time>
</trkpt>
<trkpt lat="40.6365" lon="-3.1538183333333336">
<ele>702</ele>
<time>2017-03-02T12:10:38Z</time>
</trkpt>
<trkpt lat="40.6365" lon="-3.1538183333333336">
<ele>702</ele>
<time>2017-03-02T12:10:40Z</time>
</trkpt>
<trkpt lat="40.636523333333336" lon="-3.1537966666666666">
<ele>703</ele>
<time>2017-03-02T12:10:42Z</time>
</trkpt>
<trkpt lat="40.636541666666666" lon="-3.1537783333333334">
<ele>703</ele>
<time>2017-03-02T12:10:44Z</time>
</trkpt>
<trkpt lat="40.636565000000004" lon="-3.153748333333333">
<ele>703</ele>
<time>2017-03-02T12:10:46Z</time>
</trkpt>
<trkpt lat="40.636586666666666" lon="-3.1537216666666668">
<ele>703</ele>
<time>2017-03-02T12:10:48Z</time>
</trkpt>
<trkpt lat="40.636606666666665" lon="-3.1537050000000004">
<ele>704</ele>
<time>2017-03-02T12:10:50Z</time>
</trkpt>
<trkpt lat="40.63662333333333" lon="-3.1536966666666664">
<ele>704</ele>
<time>2017-03-02T12:10:52Z</time>
</trkpt>
<trkpt lat="40.63663333333333" lon="-3.153685">
<ele>704</ele>
<time>2017-03-02T12:10:54Z</time>
</trkpt>
<trkpt lat="40.63663333333333" lon="-3.153685">
<ele>704</ele>
<time>2017-03-02T12:10:56Z</time>
</trkpt>
<trkpt lat="40.63668333333333" lon="-3.1536649999999997">
<ele>703</ele>
<time>2017-03-02T12:10:58Z</time>
</trkpt>
<trkpt lat="40.63671166666666" lon="-3.153643333333333">
<ele>704</ele>
<time>2017-03-02T12:11:00Z</time>
</trkpt>
<trkpt lat="40.63673166666667" lon="-3.1536316666666666">
<ele>704</ele>
<time>2017-03-02T12:11:02Z</time>
</trkpt>
<trkpt lat="40.636759999999995" lon="-3.1536100000000005">
<ele>705</ele>
<time>2017-03-02T12:11:04Z</time>
</trkpt>
<trkpt lat="40.63678" lon="-3.1535883333333334">
<ele>706</ele>
<time>2017-03-02T12:11:06Z</time>
</trkpt>
<trkpt lat="40.636804999999995" lon="-3.153561666666667">
<ele>706</ele>
<time>2017-03-02T12:11:08Z</time>
</trkpt>
<trkpt lat="40.63682333333334" lon="-3.15354">
<ele>707</ele>
<time>2017-03-02T12:11:10Z</time>
</trkpt>
<trkpt lat="40.63683666666667" lon="-3.153525">
<ele>707</ele>
<time>2017-03-02T12:11:12Z</time>
</trkpt>
<trkpt lat="40.63686166666666" lon="-3.1534983333333333">
<ele>708</ele>
<time>2017-03-02T12:11:14Z</time>
</trkpt>
<trkpt lat="40.636898333333335" lon="-3.15349">
<ele>708</ele>
<time>2017-03-02T12:11:16Z</time>
</trkpt>
<trkpt lat="40.63690333333333" lon="-3.153471666666667">
<ele>709</ele>
<time>2017-03-02T12:11:18Z</time>
</trkpt>
<trkpt lat="40.63690666666666" lon="-3.153471666666667">
<ele>709</ele>
<time>2017-03-02T12:11:20Z</time>
</trkpt>
<trkpt lat="40.63690666666666" lon="-3.153471666666667">
<ele>709</ele>
<time>2017-03-02T12:11:22Z</time>
</trkpt>
<trkpt lat="40.63690666666666" lon="-3.153471666666667">
<ele>709</ele>
<time>2017-03-02T12:11:24Z</time>
</trkpt>
<trkpt lat="40.63690666666666" lon="-3.153471666666667">
<ele>709</ele>
<time>2017-03-02T12:11:26Z</time>
</trkpt>
<trkpt lat="40.63690666666666" lon="-3.153471666666667">
<ele>709</ele>
<time>2017-03-02T12:11:28Z</time>
</trkpt>
<trkpt lat="40.63690666666666" lon="-3.153471666666667">
<ele>709</ele>
<time>2017-03-02T12:11:30Z</time>
</trkpt>
<trkpt lat="40.63690666666666" lon="-3.153471666666667">
<ele>709</ele>
<time>2017-03-02T12:11:32Z</time>
</trkpt>
<trkpt lat="40.63690666666666" lon="-3.153471666666667">
<ele>709</ele>
<time>2017-03-02T12:11:34Z</time>
</trkpt>
<trkpt lat="40.63690666666666" lon="-3.153471666666667">
<ele>709</ele>
<time>2017-03-02T12:11:36Z</time>
</trkpt>
<trkpt lat="40.63690666666666" lon="-3.153471666666667">
<ele>709</ele>
<time>2017-03-02T12:11:38Z</time>
</trkpt>
<trkpt lat="40.63690666666666" lon="-3.153471666666667">
<ele>709</ele>
<time>2017-03-02T12:11:40Z</time>
</trkpt>
<trkpt lat="40.63684833333333" lon="-3.1533800000000003">
<ele>710</ele>
<time>2017-03-02T12:11:42Z</time>
</trkpt>
<trkpt lat="40.636831666666666" lon="-3.153355">
<ele>710</ele>
<time>2017-03-02T12:11:44Z</time>
</trkpt>
<trkpt lat="40.636835" lon="-3.1533583333333337">
<ele>710</ele>
<time>2017-03-02T12:11:46Z</time>
</trkpt>
<trkpt lat="40.636835" lon="-3.1533583333333337">
<ele>710</ele>
<time>2017-03-02T12:11:48Z</time>
</trkpt>
<trkpt lat="40.636835" lon="-3.1533583333333337">
<ele>710</ele>
<time>2017-03-02T12:11:50Z</time>
</trkpt>
<trkpt lat="40.63690666666666" lon="-3.1532649999999998">
<ele>709</ele>
<time>2017-03-02T12:11:52Z</time>
</trkpt>
<trkpt lat="40.63691166666667" lon="-3.1532249999999995">
<ele>709</ele>
<time>2017-03-02T12:11:54Z</time>
</trkpt>
<trkpt lat="40.63691166666667" lon="-3.1532166666666663">
<ele>709</ele>
<time>2017-03-02T12:11:56Z</time>
</trkpt>
<trkpt lat="40.63691166666667" lon="-3.1532166666666663">
<ele>709</ele>
<time>2017-03-02T12:11:58Z</time>
</trkpt>
<trkpt lat="40.63691166666667" lon="-3.1532166666666663">
<ele>709</ele>
<time>2017-03-02T12:12:00Z</time>
</trkpt>
<trkpt lat="40.63691166666667" lon="-3.1532166666666663">
<ele>709</ele>
<time>2017-03-02T12:12:02Z</time>
</trkpt>
<trkpt lat="40.63691166666667" lon="-3.1532166666666663">
<ele>709</ele>
<time>2017-03-02T12:12:04Z</time>
</trkpt>
<trkpt lat="40.63691166666667" lon="-3.1532166666666663">
<ele>709</ele>
<time>2017-03-02T12:12:06Z</time>
</trkpt>
<trkpt lat="40.63691166666667" lon="-3.1532166666666663">
<ele>709</ele>
<time>2017-03-02T12:12:08Z</time>
</trkpt>
<trkpt lat="40.63691166666667" lon="-3.1532166666666663">
<ele>709</ele>
<time>2017-03-02T12:12:10Z</time>
</trkpt>
<trkpt lat="40.63691166666667" lon="-3.1532166666666663">
<ele>709</ele>
<time>2017-03-02T12:12:12Z</time>
</trkpt>
<trkpt lat="40.63691166666667" lon="-3.1532166666666663">
<ele>709</ele>
<time>2017-03-02T12:12:14Z</time>
</trkpt>
<trkpt lat="40.63691166666667" lon="-3.1532166666666663">
<ele>709</ele>
<time>2017-03-02T12:12:16Z</time>
</trkpt>
<trkpt lat="40.63691166666667" lon="-3.1532166666666663">
<ele>709</ele>
<time>2017-03-02T12:12:18Z</time>
</trkpt>
<trkpt lat="40.63691166666667" lon="-3.1532166666666663">
<ele>709</ele>
<time>2017-03-02T12:12:20Z</time>
</trkpt>
<trkpt lat="40.63691166666667" lon="-3.1532166666666663">
<ele>709</ele>
<time>2017-03-02T12:12:22Z</time>
</trkpt>
<trkpt lat="40.63691166666667" lon="-3.1532166666666663">
<ele>709</ele>
<time>2017-03-02T12:12:24Z</time>
</trkpt>
<trkpt lat="40.63691166666667" lon="-3.1532166666666663">
<ele>709</ele>
<time>2017-03-02T12:12:26Z</time>
</trkpt>
<trkpt lat="40.63691166666667" lon="-3.1532166666666663">
<ele>709</ele>
<time>2017-03-02T12:12:28Z</time>
</trkpt>
<trkpt lat="40.63691166666667" lon="-3.1532166666666663">
<ele>709</ele>
<time>2017-03-02T12:12:30Z</time>
</trkpt>
<trkpt lat="40.63691166666667" lon="-3.1532166666666663">
<ele>709</ele>
<time>2017-03-02T12:12:32Z</time>
</trkpt>
<trkpt lat="40.63691166666667" lon="-3.1532166666666663">
<ele>709</ele>
<time>2017-03-02T12:12:34Z</time>
</trkpt>
<trkpt lat="40.63691166666667" lon="-3.1532166666666663">
<ele>709</ele>
<time>2017-03-02T12:12:36Z</time>
</trkpt>
<trkpt lat="40.63691166666667" lon="-3.1532166666666663">
<ele>709</ele>
<time>2017-03-02T12:12:38Z</time>
</trkpt>
<trkpt lat="40.63691166666667" lon="-3.1532166666666663">
<ele>709</ele>
<time>2017-03-02T12:12:40Z</time>
</trkpt>
<trkpt lat="40.63691166666667" lon="-3.1532166666666663">
<ele>709</ele>
<time>2017-03-02T12:12:42Z</time>
</trkpt>
<trkpt lat="40.63691166666667" lon="-3.1532166666666663">
<ele>709</ele>
<time>2017-03-02T12:12:44Z</time>
</trkpt>
<trkpt lat="40.63691166666667" lon="-3.1532166666666663">
<ele>709</ele>
<time>2017-03-02T12:12:46Z</time>
</trkpt>
<trkpt lat="40.63691166666667" lon="-3.1532166666666663">
<ele>709</ele>
<time>2017-03-02T12:12:48Z</time>
</trkpt>
<trkpt lat="40.63691166666667" lon="-3.1532166666666663">
<ele>709</ele>
<time>2017-03-02T12:12:50Z</time>
</trkpt>
<trkpt lat="40.63694666666667" lon="-3.1532849999999994">
<ele>708</ele>
<time>2017-03-02T12:12:52Z</time>
</trkpt>
<trkpt lat="40.63695333333333" lon="-3.1534916666666666">
<ele>704</ele>
<time>2017-03-02T12:13:34Z</time>
</trkpt>
<trkpt lat="40.636966666666666" lon="-3.153458333333333">
<ele>707</ele>
<time>2017-03-02T12:13:36Z</time>
</trkpt>
<trkpt lat="40.63701833333334" lon="-3.1533816666666667">
<ele>701</ele>
<time>2017-03-02T12:13:38Z</time>
</trkpt>
<trkpt lat="40.63702833333333" lon="-3.1532983333333333">
<ele>701</ele>
<time>2017-03-02T12:13:40Z</time>
</trkpt>
<trkpt lat="40.63704" lon="-3.15328">
<ele>702</ele>
<time>2017-03-02T12:13:42Z</time>
</trkpt>
<trkpt lat="40.63706333333334" lon="-3.1532649999999998">
<ele>703</ele>
<time>2017-03-02T12:13:44Z</time>
</trkpt>
<trkpt lat="40.63708999999999" lon="-3.1532533333333332">
<ele>706</ele>
<time>2017-03-02T12:13:46Z</time>
</trkpt>
<trkpt lat="40.63711" lon="-3.1532183333333337">
<ele>706</ele>
<time>2017-03-02T12:13:48Z</time>
</trkpt>
<trkpt lat="40.637134999999994" lon="-3.153191666666667">
<ele>707</ele>
<time>2017-03-02T12:13:50Z</time>
</trkpt>
<trkpt lat="40.637161666666664" lon="-3.1531599999999997">
<ele>707</ele>
<time>2017-03-02T12:13:52Z</time>
</trkpt>
<trkpt lat="40.637185" lon="-3.153131666666667">
<ele>707</ele>
<time>2017-03-02T12:13:54Z</time>
</trkpt>
<trkpt lat="40.637206666666664" lon="-3.1531050000000005">
<ele>708</ele>
<time>2017-03-02T12:13:56Z</time>
</trkpt>
<trkpt lat="40.637233333333334" lon="-3.1530983333333333">
<ele>708</ele>
<time>2017-03-02T12:13:58Z</time>
</trkpt>
<trkpt lat="40.63725833333333" lon="-3.1530933333333335">
<ele>708</ele>
<time>2017-03-02T12:14:00Z</time>
</trkpt>
<trkpt lat="40.63726833333333" lon="-3.1530783333333336">
<ele>707</ele>
<time>2017-03-02T12:14:02Z</time>
</trkpt>
<trkpt lat="40.63727333333333" lon="-3.153068333333333">
<ele>707</ele>
<time>2017-03-02T12:14:04Z</time>
</trkpt>
<trkpt lat="40.63728833333333" lon="-3.1530783333333336">
<ele>706</ele>
<time>2017-03-02T12:14:06Z</time>
</trkpt>
<trkpt lat="40.63728666666667" lon="-3.153065">
<ele>706</ele>
<time>2017-03-02T12:14:08Z</time>
</trkpt>
<trkpt lat="40.63729" lon="-3.1530516666666673">
<ele>707</ele>
<time>2017-03-02T12:14:10Z</time>
</trkpt>
<trkpt lat="40.63729" lon="-3.1530483333333335">
<ele>707</ele>
<time>2017-03-02T12:14:12Z</time>
</trkpt>
<trkpt lat="40.63729" lon="-3.1530483333333335">
<ele>707</ele>
<time>2017-03-02T12:14:14Z</time>
</trkpt>
<trkpt lat="40.63729" lon="-3.1530483333333335">
<ele>707</ele>
<time>2017-03-02T12:14:16Z</time>
</trkpt>
<trkpt lat="40.63729" lon="-3.1530483333333335">
<ele>707</ele>
<time>2017-03-02T12:14:18Z</time>
</trkpt>
<trkpt lat="40.63729" lon="-3.1530483333333335">
<ele>707</ele>
<time>2017-03-02T12:14:20Z</time>
</trkpt>
<trkpt lat="40.63729" lon="-3.1530483333333335">
<ele>707</ele>
<time>2017-03-02T12:14:22Z</time>
</trkpt>
<trkpt lat="40.63729" lon="-3.1530483333333335">
<ele>707</ele>
<time>2017-03-02T12:14:24Z</time>
</trkpt>
<trkpt lat="40.63729" lon="-3.1530483333333335">
<ele>707</ele>
<time>2017-03-02T12:14:26Z</time>
</trkpt>
<trkpt lat="40.63729" lon="-3.1530483333333335">
<ele>707</ele>
<time>2017-03-02T12:14:28Z</time>
</trkpt>
<trkpt lat="40.63729" lon="-3.1530483333333335">
<ele>707</ele>
<time>2017-03-02T12:14:30Z</time>
</trkpt>
<trkpt lat="40.63729" lon="-3.1530483333333335">
<ele>707</ele>
<time>2017-03-02T12:14:32Z</time>
</trkpt>
<trkpt lat="40.63729" lon="-3.1530483333333335">
<ele>707</ele>
<time>2017-03-02T12:14:34Z</time>
</trkpt>
<trkpt lat="40.63729" lon="-3.1530483333333335">
<ele>707</ele>
<time>2017-03-02T12:14:36Z</time>
</trkpt>
<trkpt lat="40.63729" lon="-3.1530483333333335">
<ele>707</ele>
<time>2017-03-02T12:14:38Z</time>
</trkpt>
<trkpt lat="40.637299999999996" lon="-3.1529700000000003">
<ele>711</ele>
<time>2017-03-02T12:14:40Z</time>
</trkpt>
<trkpt lat="40.637305" lon="-3.1529666666666665">
<ele>711</ele>
<time>2017-03-02T12:14:42Z</time>
</trkpt>
<trkpt lat="40.63730833333333" lon="-3.152963333333333">
<ele>712</ele>
<time>2017-03-02T12:14:44Z</time>
</trkpt>
<trkpt lat="40.63730833333333" lon="-3.152963333333333">
<ele>712</ele>
<time>2017-03-02T12:14:46Z</time>
</trkpt>
<trkpt lat="40.63730833333333" lon="-3.152963333333333">
<ele>712</ele>
<time>2017-03-02T12:14:48Z</time>
</trkpt>
<trkpt lat="40.63730833333333" lon="-3.152963333333333">
<ele>712</ele>
<time>2017-03-02T12:14:50Z</time>
</trkpt>
<trkpt lat="40.63730833333333" lon="-3.152963333333333">
<ele>712</ele>
<time>2017-03-02T12:14:52Z</time>
</trkpt>
<trkpt lat="40.63730833333333" lon="-3.152963333333333">
<ele>712</ele>
<time>2017-03-02T12:14:54Z</time>
</trkpt>
<trkpt lat="40.63730833333333" lon="-3.152963333333333">
<ele>712</ele>
<time>2017-03-02T12:14:56Z</time>
</trkpt>
<trkpt lat="40.637275" lon="-3.1529933333333333">
<ele>713</ele>
<time>2017-03-02T12:14:58Z</time>
</trkpt>
<trkpt lat="40.637269999999994" lon="-3.153185">
<ele>713</ele>
<time>2017-03-02T12:15:00Z</time>
</trkpt>
<trkpt lat="40.637278333333335" lon="-3.153445">
<ele>710</ele>
<time>2017-03-02T12:15:02Z</time>
</trkpt>
<trkpt lat="40.637278333333335" lon="-3.153695">
<ele>709</ele>
<time>2017-03-02T12:15:04Z</time>
</trkpt>
<trkpt lat="40.637275" lon="-3.1538916666666665">
<ele>708</ele>
<time>2017-03-02T12:15:06Z</time>
</trkpt>
<trkpt lat="40.63726833333333" lon="-3.154071666666667">
<ele>708</ele>
<time>2017-03-02T12:15:08Z</time>
</trkpt>
<trkpt lat="40.63726" lon="-3.154256666666667">
<ele>708</ele>
<time>2017-03-02T12:15:10Z</time>
</trkpt>
<trkpt lat="40.637265" lon="-3.1530633333333338">
<ele>709</ele>
<time>2017-03-02T12:15:42Z</time>
</trkpt>
<trkpt lat="40.63727333333333" lon="-3.153036666666667">
<ele>710</ele>
<time>2017-03-02T12:15:44Z</time>
</trkpt>
<trkpt lat="40.63728833333333" lon="-3.15305">
<ele>710</ele>
<time>2017-03-02T12:15:46Z</time>
</trkpt>
<trkpt lat="40.63731333333333" lon="-3.1530516666666673">
<ele>710</ele>
<time>2017-03-02T12:15:48Z</time>
</trkpt>
<trkpt lat="40.63733166666667" lon="-3.1530383333333334">
<ele>709</ele>
<time>2017-03-02T12:15:50Z</time>
</trkpt>
<trkpt lat="40.637346666666666" lon="-3.1530333333333336">
<ele>709</ele>
<time>2017-03-02T12:15:52Z</time>
</trkpt>
<trkpt lat="40.63734833333333" lon="-3.153043333333333">
<ele>709</ele>
<time>2017-03-02T12:15:54Z</time>
</trkpt>
<trkpt lat="40.63734833333333" lon="-3.153043333333333">
<ele>709</ele>
<time>2017-03-02T12:15:56Z</time>
</trkpt>
<trkpt lat="40.63734833333333" lon="-3.153043333333333">
<ele>709</ele>
<time>2017-03-02T12:15:58Z</time>
</trkpt>
<trkpt lat="40.63732666666667" lon="-3.1529933333333333">
<ele>708</ele>
<time>2017-03-02T12:16:00Z</time>
</trkpt>
<trkpt lat="40.63733333333333" lon="-3.152998333333333">
<ele>707</ele>
<time>2017-03-02T12:16:02Z</time>
</trkpt>
<trkpt lat="40.63733333333333" lon="-3.152998333333333">
<ele>707</ele>
<time>2017-03-02T12:16:04Z</time>
</trkpt>
<trkpt lat="40.63733333333333" lon="-3.152998333333333">
<ele>707</ele>
<time>2017-03-02T12:16:06Z</time>
</trkpt>
<trkpt lat="40.63733333333333" lon="-3.152998333333333">
<ele>707</ele>
<time>2017-03-02T12:16:08Z</time>
</trkpt>
<trkpt lat="40.63733333333333" lon="-3.152998333333333">
<ele>707</ele>
<time>2017-03-02T12:16:10Z</time>
</trkpt>
<trkpt lat="40.63733333333333" lon="-3.152998333333333">
<ele>707</ele>
<time>2017-03-02T12:16:12Z</time>
</trkpt>
<trkpt lat="40.63733333333333" lon="-3.152998333333333">
<ele>707</ele>
<time>2017-03-02T12:16:14Z</time>
</trkpt>
<trkpt lat="40.637359999999994" lon="-3.152945">
<ele>706</ele>
<time>2017-03-02T12:16:16Z</time>
</trkpt>
<trkpt lat="40.63737166666667" lon="-3.1529666666666665">
<ele>706</ele>
<time>2017-03-02T12:16:18Z</time>
</trkpt>
<trkpt lat="40.63737166666667" lon="-3.1529666666666665">
<ele>706</ele>
<time>2017-03-02T12:16:20Z</time>
</trkpt>
<trkpt lat="40.63737166666667" lon="-3.1529666666666665">
<ele>706</ele>
<time>2017-03-02T12:16:22Z</time>
</trkpt>
<trkpt lat="40.637328333333336" lon="-3.1531233333333337">
<ele>706</ele>
<time>2017-03-02T12:16:24Z</time>
</trkpt>
<trkpt lat="40.637346666666666" lon="-3.15345">
<ele>706</ele>
<time>2017-03-02T12:16:26Z</time>
</trkpt>
<trkpt lat="40.63733666666667" lon="-3.1536316666666666">
<ele>706</ele>
<time>2017-03-02T12:16:28Z</time>
</trkpt>
<trkpt lat="40.637368333333335" lon="-3.1536100000000005">
<ele>705</ele>
<time>2017-03-02T12:16:30Z</time>
</trkpt>
<trkpt lat="40.637346666666666" lon="-3.153421666666667">
<ele>704</ele>
<time>2017-03-02T12:16:32Z</time>
</trkpt>
<trkpt lat="40.63737666666667" lon="-3.153368333333333">
<ele>704</ele>
<time>2017-03-02T12:16:34Z</time>
</trkpt>
<trkpt lat="40.637388333333334" lon="-3.153348333333333">
<ele>703</ele>
<time>2017-03-02T12:16:36Z</time>
</trkpt>
<trkpt lat="40.63738" lon="-3.1534600000000004">
<ele>703</ele>
<time>2017-03-02T12:16:38Z</time>
</trkpt>
<trkpt lat="40.63736666666667" lon="-3.1534616666666664">
<ele>703</ele>
<time>2017-03-02T12:16:40Z</time>
</trkpt>
<trkpt lat="40.637359999999994" lon="-3.1534316666666666">
<ele>702</ele>
<time>2017-03-02T12:16:42Z</time>
</trkpt>
<trkpt lat="40.637373333333336" lon="-3.1533783333333334">
<ele>702</ele>
<time>2017-03-02T12:16:44Z</time>
</trkpt>
<trkpt lat="40.637373333333336" lon="-3.1532849999999994">
<ele>702</ele>
<time>2017-03-02T12:16:46Z</time>
</trkpt>
<trkpt lat="40.637359999999994" lon="-3.153245">
<ele>702</ele>
<time>2017-03-02T12:16:48Z</time>
</trkpt>
<trkpt lat="40.637404999999994" lon="-3.153131666666667">
<ele>702</ele>
<time>2017-03-02T12:16:50Z</time>
</trkpt>
<trkpt lat="40.63740166666666" lon="-3.152998333333333">
<ele>702</ele>
<time>2017-03-02T12:16:52Z</time>
</trkpt>
<trkpt lat="40.637359999999994" lon="-3.1529933333333333">
<ele>702</ele>
<time>2017-03-02T12:16:54Z</time>
</trkpt>
<trkpt lat="40.637275" lon="-3.153065">
<ele>702</ele>
<time>2017-03-02T12:16:56Z</time>
</trkpt>
<trkpt lat="40.63723" lon="-3.15305">
<ele>702</ele>
<time>2017-03-02T12:16:58Z</time>
</trkpt>
<trkpt lat="40.63725833333333" lon="-3.152858333333333">
<ele>701</ele>
<time>2017-03-02T12:17:00Z</time>
</trkpt>
<trkpt lat="40.637335" lon="-3.152668333333333">
<ele>701</ele>
<time>2017-03-02T12:17:02Z</time>
</trkpt>
<trkpt lat="40.63733666666667" lon="-3.152641666666667">
<ele>701</ele>
<time>2017-03-02T12:17:04Z</time>
</trkpt>
<trkpt lat="40.63738333333333" lon="-3.1526783333333337">
<ele>702</ele>
<time>2017-03-02T12:17:06Z</time>
</trkpt>
<trkpt lat="40.63739333333333" lon="-3.152686666666667">
<ele>702</ele>
<time>2017-03-02T12:17:08Z</time>
</trkpt>
<trkpt lat="40.63735833333333" lon="-3.152626666666667">
<ele>703</ele>
<time>2017-03-02T12:17:10Z</time>
</trkpt>
<trkpt lat="40.63731" lon="-3.152546666666667">
<ele>704</ele>
<time>2017-03-02T12:17:12Z</time>
</trkpt>
<trkpt lat="40.63731666666667" lon="-3.152553333333334">
<ele>705</ele>
<time>2017-03-02T12:17:14Z</time>
</trkpt>
<trkpt lat="40.63730833333333" lon="-3.152546666666667">
<ele>705</ele>
<time>2017-03-02T12:17:16Z</time>
</trkpt>
<trkpt lat="40.63732666666667" lon="-3.1525616666666667">
<ele>706</ele>
<time>2017-03-02T12:17:18Z</time>
</trkpt>
<trkpt lat="40.637323333333335" lon="-3.15255">
<ele>707</ele>
<time>2017-03-02T12:17:20Z</time>
</trkpt>
<trkpt lat="40.63732166666667" lon="-3.152541666666666">
<ele>707</ele>
<time>2017-03-02T12:17:22Z</time>
</trkpt>
<trkpt lat="40.637335" lon="-3.1525350000000003">
<ele>708</ele>
<time>2017-03-02T12:17:24Z</time>
</trkpt>
<trkpt lat="40.63731" lon="-3.152645">
<ele>709</ele>
<time>2017-03-02T12:17:26Z</time>
</trkpt>
<trkpt lat="40.63731" lon="-3.1527650000000005">
<ele>709</ele>
<time>2017-03-02T12:17:28Z</time>
</trkpt>
<trkpt lat="40.63734" lon="-3.1529366666666667">
<ele>708</ele>
<time>2017-03-02T12:17:30Z</time>
</trkpt>
<trkpt lat="40.63735833333333" lon="-3.1530833333333335">
<ele>707</ele>
<time>2017-03-02T12:17:32Z</time>
</trkpt>
<trkpt lat="40.637355" lon="-3.1532166666666663">
<ele>706</ele>
<time>2017-03-02T12:17:34Z</time>
</trkpt>
<trkpt lat="40.637344999999996" lon="-3.153205">
<ele>705</ele>
<time>2017-03-02T12:17:36Z</time>
</trkpt>
<trkpt lat="40.63738166666667" lon="-3.1531950000000006">
<ele>704</ele>
<time>2017-03-02T12:17:38Z</time>
</trkpt>
<trkpt lat="40.63738166666667" lon="-3.1532033333333334">
<ele>703</ele>
<time>2017-03-02T12:17:40Z</time>
</trkpt>
<trkpt lat="40.63738166666667" lon="-3.1532033333333334">
<ele>703</ele>
<time>2017-03-02T12:17:42Z</time>
</trkpt>
<trkpt lat="40.63731666666667" lon="-3.1530983333333333">
<ele>699</ele>
<time>2017-03-02T12:17:44Z</time>
</trkpt>
<trkpt lat="40.63732" lon="-3.1531200000000004">
<ele>698</ele>
<time>2017-03-02T12:17:46Z</time>
</trkpt>
<trkpt lat="40.63732" lon="-3.1531200000000004">
<ele>698</ele>
<time>2017-03-02T12:17:48Z</time>
</trkpt>
<trkpt lat="40.63732" lon="-3.1531200000000004">
<ele>698</ele>
<time>2017-03-02T12:17:50Z</time>
</trkpt>
<trkpt lat="40.63732" lon="-3.1531200000000004">
<ele>698</ele>
<time>2017-03-02T12:17:52Z</time>
</trkpt>
<trkpt lat="40.63732" lon="-3.1531200000000004">
<ele>698</ele>
<time>2017-03-02T12:17:54Z</time>
</trkpt>
<trkpt lat="40.63731666666667" lon="-3.1529883333333335">
<ele>697</ele>
<time>2017-03-02T12:17:56Z</time>
</trkpt>
<trkpt lat="40.63730666666667" lon="-3.1529650000000005">
<ele>697</ele>
<time>2017-03-02T12:17:58Z</time>
</trkpt>
<trkpt lat="40.637299999999996" lon="-3.15294">
<ele>697</ele>
<time>2017-03-02T12:18:00Z</time>
</trkpt>
<trkpt lat="40.637298333333334" lon="-3.15291">
<ele>696</ele>
<time>2017-03-02T12:18:02Z</time>
</trkpt>
<trkpt lat="40.63715333333334" lon="-3.151805">
<ele>697</ele>
<time>2017-03-02T12:18:12Z</time>
</trkpt>
<trkpt lat="40.637146666666666" lon="-3.1519616666666668">
<ele>697</ele>
<time>2017-03-02T12:18:14Z</time>
</trkpt>
<trkpt lat="40.63715833333333" lon="-3.152115">
<ele>697</ele>
<time>2017-03-02T12:18:16Z</time>
</trkpt>
<trkpt lat="40.63720333333333" lon="-3.152228333333333">
<ele>697</ele>
<time>2017-03-02T12:18:18Z</time>
</trkpt>
<trkpt lat="40.637314999999994" lon="-3.152518333333333">
<ele>698</ele>
<time>2017-03-02T12:18:20Z</time>
</trkpt>
<trkpt lat="40.637368333333335" lon="-3.1526300000000003">
<ele>699</ele>
<time>2017-03-02T12:18:22Z</time>
</trkpt>
<trkpt lat="40.63736333333333" lon="-3.1526699999999996">
<ele>699</ele>
<time>2017-03-02T12:18:24Z</time>
</trkpt>
<trkpt lat="40.63737833333333" lon="-3.15266">
<ele>699</ele>
<time>2017-03-02T12:18:26Z</time>
</trkpt>
<trkpt lat="40.637395" lon="-3.152668333333333">
<ele>700</ele>
<time>2017-03-02T12:18:28Z</time>
</trkpt>
<trkpt lat="40.637404999999994" lon="-3.152665">
<ele>700</ele>
<time>2017-03-02T12:18:30Z</time>
</trkpt>
<trkpt lat="40.63742166666667" lon="-3.152665">
<ele>700</ele>
<time>2017-03-02T12:18:32Z</time>
</trkpt>
<trkpt lat="40.63744333333333" lon="-3.152668333333333">
<ele>700</ele>
<time>2017-03-02T12:18:34Z</time>
</trkpt>
<trkpt lat="40.63747166666667" lon="-3.152695">
<ele>701</ele>
<time>2017-03-02T12:18:36Z</time>
</trkpt>
<trkpt lat="40.63747333333333" lon="-3.152716666666667">
<ele>701</ele>
<time>2017-03-02T12:18:38Z</time>
</trkpt>
<trkpt lat="40.63747333333333" lon="-3.152716666666667">
<ele>701</ele>
<time>2017-03-02T12:18:40Z</time>
</trkpt>
<trkpt lat="40.63747333333333" lon="-3.152716666666667">
<ele>701</ele>
<time>2017-03-02T12:18:42Z</time>
</trkpt>
<trkpt lat="40.63747333333333" lon="-3.152716666666667">
<ele>701</ele>
<time>2017-03-02T12:18:44Z</time>
</trkpt>
<trkpt lat="40.63747333333333" lon="-3.152716666666667">
<ele>701</ele>
<time>2017-03-02T12:18:46Z</time>
</trkpt>
<trkpt lat="40.63747333333333" lon="-3.152716666666667">
<ele>701</ele>
<time>2017-03-02T12:18:48Z</time>
</trkpt>
<trkpt lat="40.637539999999994" lon="-3.1528166666666664">
<ele>701</ele>
<time>2017-03-02T12:18:50Z</time>
</trkpt>
<trkpt lat="40.63755666666667" lon="-3.152823333333333">
<ele>701</ele>
<time>2017-03-02T12:18:52Z</time>
</trkpt>
<trkpt lat="40.63755666666667" lon="-3.152823333333333">
<ele>701</ele>
<time>2017-03-02T12:18:54Z</time>
</trkpt>
<trkpt lat="40.63760833333333" lon="-3.1527966666666667">
<ele>701</ele>
<time>2017-03-02T12:18:56Z</time>
</trkpt>
<trkpt lat="40.637635" lon="-3.1528033333333334">
<ele>701</ele>
<time>2017-03-02T12:18:58Z</time>
</trkpt>
<trkpt lat="40.63766666666667" lon="-3.152808333333333">
<ele>701</ele>
<time>2017-03-02T12:19:00Z</time>
</trkpt>
<trkpt lat="40.637346666666666" lon="-3.1524300000000003">
<ele>701</ele>
<time>2017-03-02T12:19:10Z</time>
</trkpt>
<trkpt lat="40.637391666666666" lon="-3.152546666666667">
<ele>701</ele>
<time>2017-03-02T12:19:12Z</time>
</trkpt>
<trkpt lat="40.63742833333333" lon="-3.152568333333334">
<ele>701</ele>
<time>2017-03-02T12:19:14Z</time>
</trkpt>
<trkpt lat="40.637475" lon="-3.1525716666666663">
<ele>702</ele>
<time>2017-03-02T12:19:16Z</time>
</trkpt>
<trkpt lat="40.63751166666667" lon="-3.152563333333333">
<ele>702</ele>
<time>2017-03-02T12:19:18Z</time>
</trkpt>
<trkpt lat="40.63754166666667" lon="-3.152568333333334">
<ele>702</ele>
<time>2017-03-02T12:19:20Z</time>
</trkpt>
<trkpt lat="40.637565" lon="-3.1525350000000003">
<ele>702</ele>
<time>2017-03-02T12:19:22Z</time>
</trkpt>
<trkpt lat="40.637571666666666" lon="-3.152531666666667">
<ele>702</ele>
<time>2017-03-02T12:19:24Z</time>
</trkpt>
<trkpt lat="40.637566666666665" lon="-3.1525299999999996">
<ele>702</ele>
<time>2017-03-02T12:19:26Z</time>
</trkpt>
<trkpt lat="40.637566666666665" lon="-3.1525299999999996">
<ele>702</ele>
<time>2017-03-02T12:19:28Z</time>
</trkpt>
<trkpt lat="40.637566666666665" lon="-3.1525299999999996">
<ele>702</ele>
<time>2017-03-02T12:19:30Z</time>
</trkpt>
<trkpt lat="40.63760333333333" lon="-3.152523333333334">
<ele>702</ele>
<time>2017-03-02T12:19:32Z</time>
</trkpt>
<trkpt lat="40.63760333333333" lon="-3.152496666666667">
<ele>702</ele>
<time>2017-03-02T12:19:34Z</time>
</trkpt>
<trkpt lat="40.637613333333334" lon="-3.152465">
<ele>702</ele>
<time>2017-03-02T12:19:36Z</time>
</trkpt>
<trkpt lat="40.63763166666667" lon="-3.152441666666667">
<ele>703</ele>
<time>2017-03-02T12:19:38Z</time>
</trkpt>
<trkpt lat="40.637638333333335" lon="-3.1524033333333334">
<ele>703</ele>
<time>2017-03-02T12:19:40Z</time>
</trkpt>
<trkpt lat="40.637665" lon="-3.1524016666666665">
<ele>703</ele>
<time>2017-03-02T12:19:42Z</time>
</trkpt>
<trkpt lat="40.63767666666667" lon="-3.152406666666667">
<ele>703</ele>
<time>2017-03-02T12:19:44Z</time>
</trkpt>
<trkpt lat="40.63767666666667" lon="-3.152406666666667">
<ele>703</ele>
<time>2017-03-02T12:19:46Z</time>
</trkpt>
<trkpt lat="40.63767666666667" lon="-3.152406666666667">
<ele>703</ele>
<time>2017-03-02T12:19:48Z</time>
</trkpt>
<trkpt lat="40.63767666666667" lon="-3.152406666666667">
<ele>703</ele>
<time>2017-03-02T12:19:50Z</time>
</trkpt>
<trkpt lat="40.63767666666667" lon="-3.152406666666667">
<ele>703</ele>
<time>2017-03-02T12:19:52Z</time>
</trkpt>
<trkpt lat="40.637638333333335" lon="-3.152323333333334">
<ele>703</ele>
<time>2017-03-02T12:19:54Z</time>
</trkpt>
<trkpt lat="40.637638333333335" lon="-3.1523133333333333">
<ele>703</ele>
<time>2017-03-02T12:19:56Z</time>
</trkpt>
<trkpt lat="40.63763333333333" lon="-3.1523483333333333">
<ele>703</ele>
<time>2017-03-02T12:19:58Z</time>
</trkpt>
<trkpt lat="40.63763333333333" lon="-3.1523483333333333">
<ele>703</ele>
<time>2017-03-02T12:20:00Z</time>
</trkpt>
<trkpt lat="40.63763333333333" lon="-3.1523483333333333">
<ele>703</ele>
<time>2017-03-02T12:20:02Z</time>
</trkpt>
<trkpt lat="40.63763333333333" lon="-3.1523483333333333">
<ele>703</ele>
<time>2017-03-02T12:20:04Z</time>
</trkpt>
<trkpt lat="40.63763333333333" lon="-3.1523483333333333">
<ele>703</ele>
<time>2017-03-02T12:20:06Z</time>
</trkpt>
<trkpt lat="40.63763333333333" lon="-3.1523483333333333">
<ele>703</ele>
<time>2017-03-02T12:20:08Z</time>
</trkpt>
<trkpt lat="40.63763333333333" lon="-3.1523483333333333">
<ele>703</ele>
<time>2017-03-02T12:20:10Z</time>
</trkpt>
<trkpt lat="40.63763333333333" lon="-3.1523483333333333">
<ele>703</ele>
<time>2017-03-02T12:20:12Z</time>
</trkpt>
<trkpt lat="40.63763333333333" lon="-3.1523483333333333">
<ele>703</ele>
<time>2017-03-02T12:20:14Z</time>
</trkpt>
<trkpt lat="40.63763333333333" lon="-3.1523483333333333">
<ele>703</ele>
<time>2017-03-02T12:20:16Z</time>
</trkpt>
<trkpt lat="40.63763333333333" lon="-3.1523483333333333">
<ele>703</ele>
<time>2017-03-02T12:20:18Z</time>
</trkpt>
<trkpt lat="40.637611666666665" lon="-3.152466666666667">
<ele>707</ele>
<time>2017-03-02T12:20:20Z</time>
</trkpt>
<trkpt lat="40.637635" lon="-3.15251">
<ele>707</ele>
<time>2017-03-02T12:20:22Z</time>
</trkpt>
<trkpt lat="40.63764333333334" lon="-3.152518333333333">
<ele>707</ele>
<time>2017-03-02T12:20:24Z</time>
</trkpt>
<trkpt lat="40.63764333333334" lon="-3.152518333333333">
<ele>707</ele>
<time>2017-03-02T12:20:26Z</time>
</trkpt>
<trkpt lat="40.63775" lon="-3.152731666666667">
<ele>707</ele>
<time>2017-03-02T12:20:30Z</time>
</trkpt>
<trkpt lat="40.637745" lon="-3.1527650000000005">
<ele>707</ele>
<time>2017-03-02T12:20:32Z</time>
</trkpt>
<trkpt lat="40.63770833333333" lon="-3.152731666666667">
<ele>707</ele>
<time>2017-03-02T12:20:34Z</time>
</trkpt>
<trkpt lat="40.63771" lon="-3.152673333333333">
<ele>708</ele>
<time>2017-03-02T12:20:36Z</time>
</trkpt>
<trkpt lat="40.637715" lon="-3.1526349999999996">
<ele>708</ele>
<time>2017-03-02T12:20:38Z</time>
</trkpt>
<trkpt lat="40.63771833333333" lon="-3.1525950000000003">
<ele>708</ele>
<time>2017-03-02T12:20:40Z</time>
</trkpt>
<trkpt lat="40.637715" lon="-3.1525800000000004">
<ele>708</ele>
<time>2017-03-02T12:20:42Z</time>
</trkpt>
<trkpt lat="40.63771333333333" lon="-3.1525883333333335">
<ele>709</ele>
<time>2017-03-02T12:20:44Z</time>
</trkpt>
<trkpt lat="40.63771333333333" lon="-3.1525883333333335">
<ele>709</ele>
<time>2017-03-02T12:20:46Z</time>
</trkpt>
<trkpt lat="40.63771333333333" lon="-3.1525883333333335">
<ele>709</ele>
<time>2017-03-02T12:20:48Z</time>
</trkpt>
<trkpt lat="40.637655" lon="-3.152578333333333">
<ele>709</ele>
<time>2017-03-02T12:20:50Z</time>
</trkpt>
<trkpt lat="40.63762833333333" lon="-3.1525449999999995">
<ele>709</ele>
<time>2017-03-02T12:20:52Z</time>
</trkpt>
<trkpt lat="40.63757833333333" lon="-3.1525966666666667">
<ele>709</ele>
<time>2017-03-02T12:20:54Z</time>
</trkpt>
<trkpt lat="40.63756333333333" lon="-3.15257">
<ele>708</ele>
<time>2017-03-02T12:20:56Z</time>
</trkpt>
<trkpt lat="40.63754666666667" lon="-3.1525299999999996">
<ele>707</ele>
<time>2017-03-02T12:20:58Z</time>
</trkpt>
<trkpt lat="40.63754333333333" lon="-3.1524799999999997">
<ele>707</ele>
<time>2017-03-02T12:21:00Z</time>
</trkpt>
<trkpt lat="40.63753" lon="-3.1524349999999997">
<ele>707</ele>
<time>2017-03-02T12:21:02Z</time>
</trkpt>
<trkpt lat="40.63749166666666" lon="-3.152355">
<ele>707</ele>
<time>2017-03-02T12:21:04Z</time>
</trkpt>
<trkpt lat="40.63744" lon="-3.15231">
<ele>707</ele>
<time>2017-03-02T12:21:06Z</time>
</trkpt>
<trkpt lat="40.637425" lon="-3.1523066666666666">
<ele>707</ele>
<time>2017-03-02T12:21:08Z</time>
</trkpt>
<trkpt lat="40.63742833333333" lon="-3.152288333333333">
<ele>708</ele>
<time>2017-03-02T12:21:10Z</time>
</trkpt>
<trkpt lat="40.63744166666667" lon="-3.1522933333333336">
<ele>709</ele>
<time>2017-03-02T12:21:12Z</time>
</trkpt>
<trkpt lat="40.637458333333335" lon="-3.1522799999999997">
<ele>711</ele>
<time>2017-03-02T12:21:14Z</time>
</trkpt>
<trkpt lat="40.63749" lon="-3.152301666666667">
<ele>712</ele>
<time>2017-03-02T12:21:16Z</time>
</trkpt>
<trkpt lat="40.637523333333334" lon="-3.152295">
<ele>714</ele>
<time>2017-03-02T12:21:18Z</time>
</trkpt>
<trkpt lat="40.63753" lon="-3.152295">
<ele>714</ele>
<time>2017-03-02T12:21:20Z</time>
</trkpt>
<trkpt lat="40.63753" lon="-3.152295">
<ele>714</ele>
<time>2017-03-02T12:21:22Z</time>
</trkpt>
<trkpt lat="40.63760333333333" lon="-3.152301666666667">
<ele>717</ele>
<time>2017-03-02T12:21:24Z</time>
</trkpt>
<trkpt lat="40.63762166666667" lon="-3.152288333333333">
<ele>718</ele>
<time>2017-03-02T12:21:26Z</time>
</trkpt>
<trkpt lat="40.63762833333333" lon="-3.1522849999999996">
<ele>718</ele>
<time>2017-03-02T12:21:28Z</time>
</trkpt>
<trkpt lat="40.63762833333333" lon="-3.1522849999999996">
<ele>718</ele>
<time>2017-03-02T12:21:30Z</time>
</trkpt>
<trkpt lat="40.63762833333333" lon="-3.1522849999999996">
<ele>718</ele>
<time>2017-03-02T12:21:32Z</time>
</trkpt>
<trkpt lat="40.63762833333333" lon="-3.1522849999999996">
<ele>718</ele>
<time>2017-03-02T12:21:34Z</time>
</trkpt>
<trkpt lat="40.63762833333333" lon="-3.1522849999999996">
<ele>718</ele>
<time>2017-03-02T12:21:36Z</time>
</trkpt>
<trkpt lat="40.63762833333333" lon="-3.1522849999999996">
<ele>718</ele>
<time>2017-03-02T12:21:38Z</time>
</trkpt>
<trkpt lat="40.63762833333333" lon="-3.1522849999999996">
<ele>718</ele>
<time>2017-03-02T12:21:40Z</time>
</trkpt>
<trkpt lat="40.63762833333333" lon="-3.1522849999999996">
<ele>718</ele>
<time>2017-03-02T12:21:42Z</time>
</trkpt>
<trkpt lat="40.63762833333333" lon="-3.1522849999999996">
<ele>718</ele>
<time>2017-03-02T12:21:44Z</time>
</trkpt>
<trkpt lat="40.63762833333333" lon="-3.1522849999999996">
<ele>718</ele>
<time>2017-03-02T12:21:46Z</time>
</trkpt>
<trkpt lat="40.63762833333333" lon="-3.1522849999999996">
<ele>718</ele>
<time>2017-03-02T12:21:48Z</time>
</trkpt>
<trkpt lat="40.63762833333333" lon="-3.1522849999999996">
<ele>718</ele>
<time>2017-03-02T12:21:50Z</time>
</trkpt>
<trkpt lat="40.63762833333333" lon="-3.1522849999999996">
<ele>718</ele>
<time>2017-03-02T12:21:52Z</time>
</trkpt>
<trkpt lat="40.63762833333333" lon="-3.1522849999999996">
<ele>718</ele>
<time>2017-03-02T12:21:54Z</time>
</trkpt>
<trkpt lat="40.63762833333333" lon="-3.1522849999999996">
<ele>718</ele>
<time>2017-03-02T12:21:56Z</time>
</trkpt>
<trkpt lat="40.63762833333333" lon="-3.1522849999999996">
<ele>718</ele>
<time>2017-03-02T12:21:58Z</time>
</trkpt>
<trkpt lat="40.637715" lon="-3.1522900000000003">
<ele>722</ele>
<time>2017-03-02T12:22:00Z</time>
</trkpt>
<trkpt lat="40.63771666666666" lon="-3.1523066666666666">
<ele>722</ele>
<time>2017-03-02T12:22:02Z</time>
</trkpt>
<trkpt lat="40.63771666666666" lon="-3.1523066666666666">
<ele>722</ele>
<time>2017-03-02T12:22:04Z</time>
</trkpt>
<trkpt lat="40.63771666666666" lon="-3.1523066666666666">
<ele>722</ele>
<time>2017-03-02T12:22:06Z</time>
</trkpt>
<trkpt lat="40.63771666666666" lon="-3.1523066666666666">
<ele>722</ele>
<time>2017-03-02T12:22:08Z</time>
</trkpt>
<trkpt lat="40.63771666666666" lon="-3.1523066666666666">
<ele>722</ele>
<time>2017-03-02T12:22:10Z</time>
</trkpt>
<trkpt lat="40.63771666666666" lon="-3.1523066666666666">
<ele>722</ele>
<time>2017-03-02T12:22:12Z</time>
</trkpt>
<trkpt lat="40.63771666666666" lon="-3.1523066666666666">
<ele>722</ele>
<time>2017-03-02T12:22:14Z</time>
</trkpt>
<trkpt lat="40.63771666666666" lon="-3.1523066666666666">
<ele>722</ele>
<time>2017-03-02T12:22:16Z</time>
</trkpt>
<trkpt lat="40.63771666666666" lon="-3.1523066666666666">
<ele>722</ele>
<time>2017-03-02T12:22:18Z</time>
</trkpt>
<trkpt lat="40.63771666666666" lon="-3.1523066666666666">
<ele>722</ele>
<time>2017-03-02T12:22:20Z</time>
</trkpt>
<trkpt lat="40.63771666666666" lon="-3.1523066666666666">
<ele>722</ele>
<time>2017-03-02T12:22:22Z</time>
</trkpt>
<trkpt lat="40.63771666666666" lon="-3.1523066666666666">
<ele>722</ele>
<time>2017-03-02T12:22:24Z</time>
</trkpt>
<trkpt lat="40.63771666666666" lon="-3.1523066666666666">
<ele>722</ele>
<time>2017-03-02T12:22:26Z</time>
</trkpt>
<trkpt lat="40.63771666666666" lon="-3.1523066666666666">
<ele>722</ele>
<time>2017-03-02T12:22:28Z</time>
</trkpt>
<trkpt lat="40.63775666666667" lon="-3.15222">
<ele>722</ele>
<time>2017-03-02T12:22:30Z</time>
</trkpt>
<trkpt lat="40.63777666666667" lon="-3.1521216666666665">
<ele>721</ele>
<time>2017-03-02T12:22:32Z</time>
</trkpt>
<trkpt lat="40.637818333333335" lon="-3.1521433333333335">
<ele>721</ele>
<time>2017-03-02T12:22:34Z</time>
</trkpt>
<trkpt lat="40.63785" lon="-3.1521866666666662">
<ele>720</ele>
<time>2017-03-02T12:22:36Z</time>
</trkpt>
<trkpt lat="40.63783166666666" lon="-3.152213333333333">
<ele>720</ele>
<time>2017-03-02T12:22:38Z</time>
</trkpt>
<trkpt lat="40.637820000000005" lon="-3.1522250000000005">
<ele>719</ele>
<time>2017-03-02T12:22:40Z</time>
</trkpt>
<trkpt lat="40.637813333333334" lon="-3.152243333333333">
<ele>719</ele>
<time>2017-03-02T12:22:42Z</time>
</trkpt>
<trkpt lat="40.63779" lon="-3.1522933333333336">
<ele>719</ele>
<time>2017-03-02T12:22:44Z</time>
</trkpt>
<trkpt lat="40.637791666666665" lon="-3.1523083333333335">
<ele>719</ele>
<time>2017-03-02T12:22:46Z</time>
</trkpt>
<trkpt lat="40.63778333333333" lon="-3.1523733333333337">
<ele>720</ele>
<time>2017-03-02T12:22:48Z</time>
</trkpt>
<trkpt lat="40.63777666666667" lon="-3.1524250000000005">
<ele>720</ele>
<time>2017-03-02T12:22:50Z</time>
</trkpt>
<trkpt lat="40.63776666666667" lon="-3.1524400000000004">
<ele>720</ele>
<time>2017-03-02T12:22:52Z</time>
</trkpt>
<trkpt lat="40.637764999999995" lon="-3.152473333333333">
<ele>721</ele>
<time>2017-03-02T12:22:54Z</time>
</trkpt>
<trkpt lat="40.63776" lon="-3.1524533333333333">
<ele>721</ele>
<time>2017-03-02T12:22:56Z</time>
</trkpt>
<trkpt lat="40.63775" lon="-3.1524549999999993">
<ele>722</ele>
<time>2017-03-02T12:22:58Z</time>
</trkpt>
<trkpt lat="40.637745" lon="-3.1524616666666665">
<ele>723</ele>
<time>2017-03-02T12:23:00Z</time>
</trkpt>
<trkpt lat="40.63773166666667" lon="-3.1524533333333333">
<ele>723</ele>
<time>2017-03-02T12:23:02Z</time>
</trkpt>
<trkpt lat="40.637725" lon="-3.152445">
<ele>723</ele>
<time>2017-03-02T12:23:04Z</time>
</trkpt>
<trkpt lat="40.637728333333335" lon="-3.1524616666666665">
<ele>724</ele>
<time>2017-03-02T12:23:06Z</time>
</trkpt>
<trkpt lat="40.637735" lon="-3.152465">
<ele>724</ele>
<time>2017-03-02T12:23:08Z</time>
</trkpt>
<trkpt lat="40.637735" lon="-3.152465">
<ele>724</ele>
<time>2017-03-02T12:23:10Z</time>
</trkpt>
<trkpt lat="40.637735" lon="-3.152465">
<ele>724</ele>
<time>2017-03-02T12:23:12Z</time>
</trkpt>
<trkpt lat="40.637735" lon="-3.152465">
<ele>724</ele>
<time>2017-03-02T12:23:14Z</time>
</trkpt>
<trkpt lat="40.637735" lon="-3.152465">
<ele>724</ele>
<time>2017-03-02T12:23:16Z</time>
</trkpt>
<trkpt lat="40.637735" lon="-3.152465">
<ele>724</ele>
<time>2017-03-02T12:23:18Z</time>
</trkpt>
<trkpt lat="40.637735" lon="-3.152465">
<ele>724</ele>
<time>2017-03-02T12:23:20Z</time>
</trkpt>
<trkpt lat="40.637735" lon="-3.152465">
<ele>724</ele>
<time>2017-03-02T12:23:22Z</time>
</trkpt>
<trkpt lat="40.637735" lon="-3.152465">
<ele>724</ele>
<time>2017-03-02T12:23:24Z</time>
</trkpt>
<trkpt lat="40.637735" lon="-3.152465">
<ele>724</ele>
<time>2017-03-02T12:23:26Z</time>
</trkpt>
<trkpt lat="40.63769666666667" lon="-3.152385">
<ele>728</ele>
<time>2017-03-02T12:23:28Z</time>
</trkpt>
<trkpt lat="40.63768666666667" lon="-3.15237">
<ele>727</ele>
<time>2017-03-02T12:23:30Z</time>
</trkpt>
<trkpt lat="40.63767166666666" lon="-3.1523533333333336">
<ele>727</ele>
<time>2017-03-02T12:23:32Z</time>
</trkpt>
<trkpt lat="40.63766333333333" lon="-3.152346666666667">
<ele>727</ele>
<time>2017-03-02T12:23:34Z</time>
</trkpt>
<trkpt lat="40.637655" lon="-3.152341666666666">
<ele>727</ele>
<time>2017-03-02T12:23:36Z</time>
</trkpt>
<trkpt lat="40.63763333333333" lon="-3.1522999999999994">
<ele>726</ele>
<time>2017-03-02T12:23:38Z</time>
</trkpt>
<trkpt lat="40.63762333333333" lon="-3.1522833333333335">
<ele>726</ele>
<time>2017-03-02T12:23:40Z</time>
</trkpt>
<trkpt lat="40.63762" lon="-3.152288333333333">
<ele>726</ele>
<time>2017-03-02T12:23:42Z</time>
</trkpt>
<trkpt lat="40.63762" lon="-3.152288333333333">
<ele>726</ele>
<time>2017-03-02T12:23:44Z</time>
</trkpt>
<trkpt lat="40.63762" lon="-3.152288333333333">
<ele>726</ele>
<time>2017-03-02T12:23:46Z</time>
</trkpt>
<trkpt lat="40.63762" lon="-3.152288333333333">
<ele>726</ele>
<time>2017-03-02T12:23:48Z</time>
</trkpt>
<trkpt lat="40.63762" lon="-3.152288333333333">
<ele>726</ele>
<time>2017-03-02T12:23:50Z</time>
</trkpt>
<trkpt lat="40.63762" lon="-3.152288333333333">
<ele>726</ele>
<time>2017-03-02T12:23:52Z</time>
</trkpt>
<trkpt lat="40.63762" lon="-3.152288333333333">
<ele>726</ele>
<time>2017-03-02T12:23:54Z</time>
</trkpt>
<trkpt lat="40.63762" lon="-3.152288333333333">
<ele>726</ele>
<time>2017-03-02T12:23:56Z</time>
</trkpt>
<trkpt lat="40.637548333333335" lon="-3.1523950000000003">
<ele>725</ele>
<time>2017-03-02T12:23:58Z</time>
</trkpt>
<trkpt lat="40.63753166666667" lon="-3.1523966666666667">
<ele>725</ele>
<time>2017-03-02T12:24:00Z</time>
</trkpt>
<trkpt lat="40.63753166666667" lon="-3.1523966666666667">
<ele>725</ele>
<time>2017-03-02T12:24:02Z</time>
</trkpt>
<trkpt lat="40.63753166666667" lon="-3.1523966666666667">
<ele>725</ele>
<time>2017-03-02T12:24:04Z</time>
</trkpt>
<trkpt lat="40.63753166666667" lon="-3.1523966666666667">
<ele>725</ele>
<time>2017-03-02T12:24:06Z</time>
</trkpt>
<trkpt lat="40.63753166666667" lon="-3.1523966666666667">
<ele>725</ele>
<time>2017-03-02T12:24:08Z</time>
</trkpt>
<trkpt lat="40.63753166666667" lon="-3.1523966666666667">
<ele>725</ele>
<time>2017-03-02T12:24:10Z</time>
</trkpt>
<trkpt lat="40.63753166666667" lon="-3.1523966666666667">
<ele>725</ele>
<time>2017-03-02T12:24:12Z</time>
</trkpt>
<trkpt lat="40.63753166666667" lon="-3.1523966666666667">
<ele>725</ele>
<time>2017-03-02T12:24:14Z</time>
</trkpt>
<trkpt lat="40.63753166666667" lon="-3.1523966666666667">
<ele>725</ele>
<time>2017-03-02T12:24:16Z</time>
</trkpt>
<trkpt lat="40.63753166666667" lon="-3.1523966666666667">
<ele>725</ele>
<time>2017-03-02T12:24:18Z</time>
</trkpt>
<trkpt lat="40.63744333333333" lon="-3.1523350000000003">
<ele>726</ele>
<time>2017-03-02T12:24:20Z</time>
</trkpt>
<trkpt lat="40.637436666666666" lon="-3.1523366666666663">
<ele>726</ele>
<time>2017-03-02T12:24:22Z</time>
</trkpt>
<trkpt lat="40.637436666666666" lon="-3.1523366666666663">
<ele>726</ele>
<time>2017-03-02T12:24:24Z</time>
</trkpt>
<trkpt lat="40.637436666666666" lon="-3.1523366666666663">
<ele>726</ele>
<time>2017-03-02T12:24:26Z</time>
</trkpt>
<trkpt lat="40.637436666666666" lon="-3.1523366666666663">
<ele>726</ele>
<time>2017-03-02T12:24:28Z</time>
</trkpt>
<trkpt lat="40.63744666666666" lon="-3.1522166666666664">
<ele>727</ele>
<time>2017-03-02T12:24:30Z</time>
</trkpt>
<trkpt lat="40.63745166666667" lon="-3.1522100000000006">
<ele>727</ele>
<time>2017-03-02T12:24:32Z</time>
</trkpt>
<trkpt lat="40.637463333333336" lon="-3.1522083333333333">
<ele>727</ele>
<time>2017-03-02T12:24:34Z</time>
</trkpt>
<trkpt lat="40.637463333333336" lon="-3.1522083333333333">
<ele>727</ele>
<time>2017-03-02T12:24:36Z</time>
</trkpt>
<trkpt lat="40.637463333333336" lon="-3.1522083333333333">
<ele>727</ele>
<time>2017-03-02T12:24:38Z</time>
</trkpt>
<trkpt lat="40.63753833333333" lon="-3.152088333333333">
<ele>727</ele>
<time>2017-03-02T12:24:40Z</time>
</trkpt>
<trkpt lat="40.63754333333333" lon="-3.1520533333333334">
<ele>727</ele>
<time>2017-03-02T12:24:42Z</time>
</trkpt>
<trkpt lat="40.63754333333333" lon="-3.1520533333333334">
<ele>727</ele>
<time>2017-03-02T12:24:44Z</time>
</trkpt>
<trkpt lat="40.63754333333333" lon="-3.1520533333333334">
<ele>727</ele>
<time>2017-03-02T12:24:46Z</time>
</trkpt>
<trkpt lat="40.63758" lon="-3.1520083333333333">
<ele>727</ele>
<time>2017-03-02T12:24:48Z</time>
</trkpt>
<trkpt lat="40.637595000000005" lon="-3.151991666666667">
<ele>727</ele>
<time>2017-03-02T12:24:50Z</time>
</trkpt>
<trkpt lat="40.637595000000005" lon="-3.151996666666667">
<ele>727</ele>
<time>2017-03-02T12:24:52Z</time>
</trkpt>
<trkpt lat="40.63758666666667" lon="-3.1520083333333333">
<ele>727</ele>
<time>2017-03-02T12:24:54Z</time>
</trkpt>
<trkpt lat="40.63757666666667" lon="-3.1520183333333334">
<ele>727</ele>
<time>2017-03-02T12:24:56Z</time>
</trkpt>
<trkpt lat="40.637568333333334" lon="-3.1520250000000005">
<ele>727</ele>
<time>2017-03-02T12:24:58Z</time>
</trkpt>
<trkpt lat="40.63758833333333" lon="-3.1520183333333334">
<ele>727</ele>
<time>2017-03-02T12:25:00Z</time>
</trkpt>
<trkpt lat="40.63767166666666" lon="-3.15214">
<ele>727</ele>
<time>2017-03-02T12:25:02Z</time>
</trkpt>
<trkpt lat="40.637683333333335" lon="-3.1521650000000005">
<ele>727</ele>
<time>2017-03-02T12:25:04Z</time>
</trkpt>
<trkpt lat="40.63762666666666" lon="-3.152045">
<ele>727</ele>
<time>2017-03-02T12:25:06Z</time>
</trkpt>
<trkpt lat="40.63760333333333" lon="-3.1519950000000003">
<ele>727</ele>
<time>2017-03-02T12:25:08Z</time>
</trkpt>
<trkpt lat="40.63758833333333" lon="-3.151968333333334">
<ele>727</ele>
<time>2017-03-02T12:25:10Z</time>
</trkpt>
<trkpt lat="40.63758166666666" lon="-3.15196">
<ele>727</ele>
<time>2017-03-02T12:25:12Z</time>
</trkpt>
<trkpt lat="40.63758166666666" lon="-3.15196">
<ele>727</ele>
<time>2017-03-02T12:25:14Z</time>
</trkpt>
<trkpt lat="40.63758166666666" lon="-3.15196">
<ele>727</ele>
<time>2017-03-02T12:25:16Z</time>
</trkpt>
<trkpt lat="40.63758166666666" lon="-3.15196">
<ele>727</ele>
<time>2017-03-02T12:25:18Z</time>
</trkpt>
<trkpt lat="40.63758166666666" lon="-3.15196">
<ele>727</ele>
<time>2017-03-02T12:25:20Z</time>
</trkpt>
<trkpt lat="40.63758166666666" lon="-3.15196">
<ele>727</ele>
<time>2017-03-02T12:25:22Z</time>
</trkpt>
<trkpt lat="40.637481666666666" lon="-3.1520183333333334">
<ele>727</ele>
<time>2017-03-02T12:25:24Z</time>
</trkpt>
<trkpt lat="40.637476666666664" lon="-3.152015">
<ele>727</ele>
<time>2017-03-02T12:25:26Z</time>
</trkpt>
<trkpt lat="40.637476666666664" lon="-3.152015">
<ele>727</ele>
<time>2017-03-02T12:25:28Z</time>
</trkpt>
<trkpt lat="40.637476666666664" lon="-3.152015">
<ele>727</ele>
<time>2017-03-02T12:25:30Z</time>
</trkpt>
<trkpt lat="40.637476666666664" lon="-3.152015">
<ele>727</ele>
<time>2017-03-02T12:25:32Z</time>
</trkpt>
<trkpt lat="40.637476666666664" lon="-3.152015">
<ele>727</ele>
<time>2017-03-02T12:25:34Z</time>
</trkpt>
<trkpt lat="40.637476666666664" lon="-3.152015">
<ele>727</ele>
<time>2017-03-02T12:25:36Z</time>
</trkpt>
<trkpt lat="40.637476666666664" lon="-3.152015">
<ele>727</ele>
<time>2017-03-02T12:25:38Z</time>
</trkpt>
<trkpt lat="40.63746666666667" lon="-3.15211">
<ele>727</ele>
<time>2017-03-02T12:25:40Z</time>
</trkpt>
<trkpt lat="40.63746666666667" lon="-3.152128333333333">
<ele>727</ele>
<time>2017-03-02T12:25:42Z</time>
</trkpt>
<trkpt lat="40.637463333333336" lon="-3.1521266666666663">
<ele>727</ele>
<time>2017-03-02T12:25:44Z</time>
</trkpt>
<trkpt lat="40.637463333333336" lon="-3.1521266666666663">
<ele>727</ele>
<time>2017-03-02T12:25:46Z</time>
</trkpt>
<trkpt lat="40.637463333333336" lon="-3.1521266666666663">
<ele>727</ele>
<time>2017-03-02T12:25:48Z</time>
</trkpt>
<trkpt lat="40.6374" lon="-3.152028333333333">
<ele>727</ele>
<time>2017-03-02T12:25:50Z</time>
</trkpt>
<trkpt lat="40.63740333333333" lon="-3.151983333333334">
<ele>727</ele>
<time>2017-03-02T12:25:52Z</time>
</trkpt>
<trkpt lat="40.63740166666666" lon="-3.151946666666667">
<ele>727</ele>
<time>2017-03-02T12:25:54Z</time>
</trkpt>
<trkpt lat="40.63740166666666" lon="-3.151946666666667">
<ele>727</ele>
<time>2017-03-02T12:25:56Z</time>
</trkpt>
<trkpt lat="40.63740166666666" lon="-3.151946666666667">
<ele>727</ele>
<time>2017-03-02T12:25:58Z</time>
</trkpt>
<trkpt lat="40.63740166666666" lon="-3.151946666666667">
<ele>727</ele>
<time>2017-03-02T12:26:00Z</time>
</trkpt>
<trkpt lat="40.637415000000004" lon="-3.152036666666667">
<ele>726</ele>
<time>2017-03-02T12:26:02Z</time>
</trkpt>
<trkpt lat="40.637418333333336" lon="-3.1520933333333336">
<ele>726</ele>
<time>2017-03-02T12:26:04Z</time>
</trkpt>
<trkpt lat="40.63742333333333" lon="-3.1521433333333335">
<ele>726</ele>
<time>2017-03-02T12:26:06Z</time>
</trkpt>
<trkpt lat="40.63743" lon="-3.1521866666666662">
<ele>726</ele>
<time>2017-03-02T12:26:08Z</time>
</trkpt>
<trkpt lat="40.63747166666667" lon="-3.1520750000000004">
<ele>726</ele>
<time>2017-03-02T12:26:10Z</time>
</trkpt>
<trkpt lat="40.63749666666667" lon="-3.152015">
<ele>726</ele>
<time>2017-03-02T12:26:12Z</time>
</trkpt>
<trkpt lat="40.63752" lon="-3.1519866666666663">
<ele>726</ele>
<time>2017-03-02T12:26:14Z</time>
</trkpt>
<trkpt lat="40.637548333333335" lon="-3.1519433333333335">
<ele>726</ele>
<time>2017-03-02T12:26:16Z</time>
</trkpt>
<trkpt lat="40.63744166666667" lon="-3.1518999999999995">
<ele>726</ele>
<time>2017-03-02T12:26:22Z</time>
</trkpt>
<trkpt lat="40.637465" lon="-3.1519350000000004">
<ele>726</ele>
<time>2017-03-02T12:26:24Z</time>
</trkpt>
<trkpt lat="40.637494999999994" lon="-3.1519533333333336">
<ele>726</ele>
<time>2017-03-02T12:26:26Z</time>
</trkpt>
<trkpt lat="40.63739333333333" lon="-3.1519116666666673">
<ele>726</ele>
<time>2017-03-02T12:26:28Z</time>
</trkpt>
<trkpt lat="40.63738" lon="-3.151901666666667">
<ele>726</ele>
<time>2017-03-02T12:26:30Z</time>
</trkpt>
<trkpt lat="40.63738" lon="-3.151901666666667">
<ele>726</ele>
<time>2017-03-02T12:26:32Z</time>
</trkpt>
<trkpt lat="40.63738" lon="-3.151901666666667">
<ele>726</ele>
<time>2017-03-02T12:26:34Z</time>
</trkpt>
<trkpt lat="40.63738" lon="-3.151901666666667">
<ele>726</ele>
<time>2017-03-02T12:26:36Z</time>
</trkpt>
<trkpt lat="40.63738" lon="-3.151901666666667">
<ele>726</ele>
<time>2017-03-02T12:26:38Z</time>
</trkpt>
<trkpt lat="40.63738" lon="-3.151901666666667">
<ele>726</ele>
<time>2017-03-02T12:26:40Z</time>
</trkpt>
<trkpt lat="40.63738" lon="-3.151901666666667">
<ele>726</ele>
<time>2017-03-02T12:26:42Z</time>
</trkpt>
<trkpt lat="40.63738" lon="-3.151901666666667">
<ele>726</ele>
<time>2017-03-02T12:26:44Z</time>
</trkpt>
<trkpt lat="40.63738" lon="-3.151901666666667">
<ele>726</ele>
<time>2017-03-02T12:26:46Z</time>
</trkpt>
<trkpt lat="40.63738" lon="-3.151901666666667">
<ele>726</ele>
<time>2017-03-02T12:26:48Z</time>
</trkpt>
<trkpt lat="40.63738" lon="-3.151901666666667">
<ele>726</ele>
<time>2017-03-02T12:26:50Z</time>
</trkpt>
<trkpt lat="40.63738" lon="-3.151901666666667">
<ele>726</ele>
<time>2017-03-02T12:26:52Z</time>
</trkpt>
<trkpt lat="40.63727666666667" lon="-3.1518699999999997">
<ele>727</ele>
<time>2017-03-02T12:26:54Z</time>
</trkpt>
<trkpt lat="40.63731" lon="-3.151701666666667">
<ele>727</ele>
<time>2017-03-02T12:27:02Z</time>
</trkpt>
<trkpt lat="40.63733833333333" lon="-3.1517383333333338">
<ele>727</ele>
<time>2017-03-02T12:27:06Z</time>
</trkpt>
<trkpt lat="40.63737833333333" lon="-3.151768333333334">
<ele>727</ele>
<time>2017-03-02T12:27:08Z</time>
</trkpt>
<trkpt lat="40.63725" lon="-3.1517866666666663">
<ele>726</ele>
<time>2017-03-02T12:27:12Z</time>
</trkpt>
<trkpt lat="40.637254999999996" lon="-3.1518766666666664">
<ele>726</ele>
<time>2017-03-02T12:27:14Z</time>
</trkpt>
<trkpt lat="40.637254999999996" lon="-3.1518766666666664">
<ele>726</ele>
<time>2017-03-02T12:27:16Z</time>
</trkpt>
<trkpt lat="40.63717833333333" lon="-3.1519299999999997">
<ele>726</ele>
<time>2017-03-02T12:27:18Z</time>
</trkpt>
<trkpt lat="40.63716" lon="-3.1519216666666665">
<ele>727</ele>
<time>2017-03-02T12:27:20Z</time>
</trkpt>
<trkpt lat="40.637143333333334" lon="-3.151918333333333">
<ele>727</ele>
<time>2017-03-02T12:27:22Z</time>
</trkpt>
<trkpt lat="40.637143333333334" lon="-3.151918333333333">
<ele>727</ele>
<time>2017-03-02T12:27:24Z</time>
</trkpt>
<trkpt lat="40.637143333333334" lon="-3.151918333333333">
<ele>727</ele>
<time>2017-03-02T12:27:26Z</time>
</trkpt>
<trkpt lat="40.637143333333334" lon="-3.151918333333333">
<ele>727</ele>
<time>2017-03-02T12:27:28Z</time>
</trkpt>
<trkpt lat="40.637143333333334" lon="-3.151918333333333">
<ele>727</ele>
<time>2017-03-02T12:27:30Z</time>
</trkpt>
<trkpt lat="40.637143333333334" lon="-3.151918333333333">
<ele>727</ele>
<time>2017-03-02T12:27:32Z</time>
</trkpt>
<trkpt lat="40.637143333333334" lon="-3.151918333333333">
<ele>727</ele>
<time>2017-03-02T12:27:34Z</time>
</trkpt>
<trkpt lat="40.637191666666666" lon="-3.1518450000000002">
<ele>727</ele>
<time>2017-03-02T12:27:38Z</time>
</trkpt>
<trkpt lat="40.63705" lon="-3.1516900000000003">
<ele>731</ele>
<time>2017-03-02T12:28:06Z</time>
</trkpt>
<trkpt lat="40.63705" lon="-3.1516900000000003">
<ele>731</ele>
<time>2017-03-02T12:28:08Z</time>
</trkpt>
<trkpt lat="40.63705" lon="-3.1516900000000003">
<ele>731</ele>
<time>2017-03-02T12:28:10Z</time>
</trkpt>
<trkpt lat="40.63705" lon="-3.1516900000000003">
<ele>731</ele>
<time>2017-03-02T12:28:12Z</time>
</trkpt>
<trkpt lat="40.63705" lon="-3.1516900000000003">
<ele>731</ele>
<time>2017-03-02T12:28:14Z</time>
</trkpt>
<trkpt lat="40.63705" lon="-3.1516900000000003">
<ele>731</ele>
<time>2017-03-02T12:28:16Z</time>
</trkpt>
<trkpt lat="40.63705" lon="-3.1516900000000003">
<ele>731</ele>
<time>2017-03-02T12:28:18Z</time>
</trkpt>
<trkpt lat="40.63705" lon="-3.1516900000000003">
<ele>731</ele>
<time>2017-03-02T12:28:20Z</time>
</trkpt>
<trkpt lat="40.63705" lon="-3.1516900000000003">
<ele>731</ele>
<time>2017-03-02T12:28:22Z</time>
</trkpt>
<trkpt lat="40.63705" lon="-3.1516900000000003">
<ele>731</ele>
<time>2017-03-02T12:28:24Z</time>
</trkpt>
<trkpt lat="40.63705" lon="-3.1516900000000003">
<ele>731</ele>
<time>2017-03-02T12:28:26Z</time>
</trkpt>
<trkpt lat="40.63705" lon="-3.1516900000000003">
<ele>731</ele>
<time>2017-03-02T12:28:28Z</time>
</trkpt>
<trkpt lat="40.63705" lon="-3.1516900000000003">
<ele>731</ele>
<time>2017-03-02T12:28:30Z</time>
</trkpt>
<trkpt lat="40.63705" lon="-3.1516900000000003">
<ele>731</ele>
<time>2017-03-02T12:28:32Z</time>
</trkpt>
<trkpt lat="40.637033333333335" lon="-3.15182">
<ele>732</ele>
<time>2017-03-02T12:28:34Z</time>
</trkpt>
<trkpt lat="40.637035" lon="-3.1518266666666666">
<ele>732</ele>
<time>2017-03-02T12:28:36Z</time>
</trkpt>
<trkpt lat="40.63703833333333" lon="-3.1518316666666664">
<ele>732</ele>
<time>2017-03-02T12:28:38Z</time>
</trkpt>
<trkpt lat="40.63703833333333" lon="-3.1518316666666664">
<ele>732</ele>
<time>2017-03-02T12:28:40Z</time>
</trkpt>
<trkpt lat="40.63703833333333" lon="-3.1518316666666664">
<ele>732</ele>
<time>2017-03-02T12:28:42Z</time>
</trkpt>
<trkpt lat="40.63703833333333" lon="-3.1518316666666664">
<ele>732</ele>
<time>2017-03-02T12:28:44Z</time>
</trkpt>
<trkpt lat="40.63703833333333" lon="-3.1518316666666664">
<ele>732</ele>
<time>2017-03-02T12:28:46Z</time>
</trkpt>
<trkpt lat="40.63703833333333" lon="-3.1518316666666664">
<ele>732</ele>
<time>2017-03-02T12:28:48Z</time>
</trkpt>
<trkpt lat="40.63703833333333" lon="-3.1518316666666664">
<ele>732</ele>
<time>2017-03-02T12:28:50Z</time>
</trkpt>
<trkpt lat="40.63703833333333" lon="-3.1518316666666664">
<ele>732</ele>
<time>2017-03-02T12:28:52Z</time>
</trkpt>
<trkpt lat="40.63703833333333" lon="-3.1518316666666664">
<ele>732</ele>
<time>2017-03-02T12:28:54Z</time>
</trkpt>
<trkpt lat="40.63703833333333" lon="-3.1518316666666664">
<ele>732</ele>
<time>2017-03-02T12:28:58Z</time>
</trkpt>
<trkpt lat="40.63703833333333" lon="-3.1518316666666664">
<ele>732</ele>
<time>2017-03-02T12:29:00Z</time>
</trkpt>
<trkpt lat="40.63695166666666" lon="-3.15166">
<ele>733</ele>
<time>2017-03-02T12:29:02Z</time>
</trkpt>
<trkpt lat="40.63693333333333" lon="-3.1516116666666667">
<ele>733</ele>
<time>2017-03-02T12:29:04Z</time>
</trkpt>
<trkpt lat="40.63693333333333" lon="-3.1516116666666667">
<ele>733</ele>
<time>2017-03-02T12:29:06Z</time>
</trkpt>
<trkpt lat="40.63690333333333" lon="-3.1514849999999996">
<ele>732</ele>
<time>2017-03-02T12:29:08Z</time>
</trkpt>
<trkpt lat="40.63688833333333" lon="-3.151465">
<ele>732</ele>
<time>2017-03-02T12:29:10Z</time>
</trkpt>
<trkpt lat="40.6369" lon="-3.1514533333333334">
<ele>732</ele>
<time>2017-03-02T12:29:12Z</time>
</trkpt>
<trkpt lat="40.63697" lon="-3.15137">
<ele>732</ele>
<time>2017-03-02T12:29:14Z</time>
</trkpt>
<trkpt lat="40.63697" lon="-3.15137">
<ele>732</ele>
<time>2017-03-02T12:29:16Z</time>
</trkpt>
<trkpt lat="40.63697" lon="-3.15137">
<ele>732</ele>
<time>2017-03-02T12:29:18Z</time>
</trkpt>
<trkpt lat="40.637085" lon="-3.1514166666666665">
<ele>732</ele>
<time>2017-03-02T12:29:20Z</time>
</trkpt>
<trkpt lat="40.637085" lon="-3.151443333333333">
<ele>732</ele>
<time>2017-03-02T12:29:22Z</time>
</trkpt>
<trkpt lat="40.637071666666664" lon="-3.151456666666667">
<ele>732</ele>
<time>2017-03-02T12:29:24Z</time>
</trkpt>
<trkpt lat="40.63705166666667" lon="-3.1514183333333334">
<ele>732</ele>
<time>2017-03-02T12:29:26Z</time>
</trkpt>
<trkpt lat="40.637100000000004" lon="-3.151456666666667">
<ele>732</ele>
<time>2017-03-02T12:29:28Z</time>
</trkpt>
<trkpt lat="40.637100000000004" lon="-3.151456666666667">
<ele>732</ele>
<time>2017-03-02T12:29:30Z</time>
</trkpt>
<trkpt lat="40.637100000000004" lon="-3.151456666666667">
<ele>732</ele>
<time>2017-03-02T12:29:32Z</time>
</trkpt>
<trkpt lat="40.637026666666664" lon="-3.151406666666667">
<ele>732</ele>
<time>2017-03-02T12:29:34Z</time>
</trkpt>
<trkpt lat="40.637013333333336" lon="-3.151406666666667">
<ele>732</ele>
<time>2017-03-02T12:29:36Z</time>
</trkpt>
<trkpt lat="40.637005" lon="-3.1514116666666667">
<ele>732</ele>
<time>2017-03-02T12:29:38Z</time>
</trkpt>
<trkpt lat="40.637005" lon="-3.1514116666666667">
<ele>732</ele>
<time>2017-03-02T12:29:40Z</time>
</trkpt>
<trkpt lat="40.637005" lon="-3.1514116666666667">
<ele>732</ele>
<time>2017-03-02T12:29:42Z</time>
</trkpt>
<trkpt lat="40.637005" lon="-3.1514116666666667">
<ele>732</ele>
<time>2017-03-02T12:29:44Z</time>
</trkpt>
<trkpt lat="40.637005" lon="-3.1514116666666667">
<ele>732</ele>
<time>2017-03-02T12:29:46Z</time>
</trkpt>
<trkpt lat="40.637005" lon="-3.1514116666666667">
<ele>732</ele>
<time>2017-03-02T12:29:48Z</time>
</trkpt>
<trkpt lat="40.637005" lon="-3.1514116666666667">
<ele>732</ele>
<time>2017-03-02T12:29:50Z</time>
</trkpt>
<trkpt lat="40.637005" lon="-3.1514116666666667">
<ele>732</ele>
<time>2017-03-02T12:29:52Z</time>
</trkpt>
<trkpt lat="40.637005" lon="-3.1514116666666667">
<ele>732</ele>
<time>2017-03-02T12:29:54Z</time>
</trkpt>
<trkpt lat="40.637026666666664" lon="-3.1512900000000004">
<ele>732</ele>
<time>2017-03-02T12:29:56Z</time>
</trkpt>
<trkpt lat="40.63704833333334" lon="-3.151256666666667">
<ele>732</ele>
<time>2017-03-02T12:29:58Z</time>
</trkpt>
<trkpt lat="40.637008333333334" lon="-3.1511966666666664">
<ele>732</ele>
<time>2017-03-02T12:30:08Z</time>
</trkpt>
<trkpt lat="40.636975" lon="-3.1511800000000005">
<ele>732</ele>
<time>2017-03-02T12:30:10Z</time>
</trkpt>
<trkpt lat="40.636981666666664" lon="-3.15128">
<ele>731</ele>
<time>2017-03-02T12:30:12Z</time>
</trkpt>
<trkpt lat="40.636988333333335" lon="-3.1513866666666663">
<ele>731</ele>
<time>2017-03-02T12:30:14Z</time>
</trkpt>
<trkpt lat="40.63695166666666" lon="-3.1514083333333334">
<ele>731</ele>
<time>2017-03-02T12:30:16Z</time>
</trkpt>
<trkpt lat="40.636898333333335" lon="-3.1514">
<ele>731</ele>
<time>2017-03-02T12:30:18Z</time>
</trkpt>
<trkpt lat="40.63685833333333" lon="-3.151385">
<ele>731</ele>
<time>2017-03-02T12:30:20Z</time>
</trkpt>
<trkpt lat="40.63685833333333" lon="-3.151385">
<ele>731</ele>
<time>2017-03-02T12:30:22Z</time>
</trkpt>
<trkpt lat="40.63685833333333" lon="-3.151385">
<ele>731</ele>
<time>2017-03-02T12:30:24Z</time>
</trkpt>
<trkpt lat="40.636765" lon="-3.1513583333333335">
<ele>731</ele>
<time>2017-03-02T12:30:26Z</time>
</trkpt>
<trkpt lat="40.63673333333334" lon="-3.1513433333333336">
<ele>731</ele>
<time>2017-03-02T12:30:28Z</time>
</trkpt>
<trkpt lat="40.63673166666667" lon="-3.1513316666666666">
<ele>731</ele>
<time>2017-03-02T12:30:30Z</time>
</trkpt>
<trkpt lat="40.636804999999995" lon="-3.1511766666666667">
<ele>731</ele>
<time>2017-03-02T12:30:32Z</time>
</trkpt>
<trkpt lat="40.63685833333333" lon="-3.151053333333333">
<ele>731</ele>
<time>2017-03-02T12:30:34Z</time>
</trkpt>
<trkpt lat="40.63688" lon="-3.150993333333333">
<ele>730</ele>
<time>2017-03-02T12:30:36Z</time>
</trkpt>
<trkpt lat="40.636873333333334" lon="-3.150935">
<ele>730</ele>
<time>2017-03-02T12:30:38Z</time>
</trkpt>
<trkpt lat="40.63686499999999" lon="-3.1508916666666664">
<ele>730</ele>
<time>2017-03-02T12:30:40Z</time>
</trkpt>
<trkpt lat="40.636876666666666" lon="-3.150903333333333">
<ele>730</ele>
<time>2017-03-02T12:30:42Z</time>
</trkpt>
<trkpt lat="40.63688833333333" lon="-3.150903333333333">
<ele>730</ele>
<time>2017-03-02T12:30:44Z</time>
</trkpt>
<trkpt lat="40.63689" lon="-3.150903333333333">
<ele>730</ele>
<time>2017-03-02T12:30:46Z</time>
</trkpt>
<trkpt lat="40.63688166666667" lon="-3.15091">
<ele>730</ele>
<time>2017-03-02T12:30:48Z</time>
</trkpt>
<trkpt lat="40.636875" lon="-3.150918333333333">
<ele>730</ele>
<time>2017-03-02T12:30:50Z</time>
</trkpt>
<trkpt lat="40.63684833333333" lon="-3.1509766666666668">
<ele>730</ele>
<time>2017-03-02T12:30:52Z</time>
</trkpt>
<trkpt lat="40.63684" lon="-3.150993333333333">
<ele>730</ele>
<time>2017-03-02T12:30:54Z</time>
</trkpt>
<trkpt lat="40.636835" lon="-3.1509966666666664">
<ele>730</ele>
<time>2017-03-02T12:30:56Z</time>
</trkpt>
<trkpt lat="40.63682166666667" lon="-3.15097">
<ele>730</ele>
<time>2017-03-02T12:30:58Z</time>
</trkpt>
<trkpt lat="40.63689333333333" lon="-3.1510333333333334">
<ele>730</ele>
<time>2017-03-02T12:31:00Z</time>
</trkpt>
<trkpt lat="40.63689333333333" lon="-3.1510333333333334">
<ele>730</ele>
<time>2017-03-02T12:31:02Z</time>
</trkpt>
<trkpt lat="40.63689333333333" lon="-3.1510333333333334">
<ele>730</ele>
<time>2017-03-02T12:31:04Z</time>
</trkpt>
<trkpt lat="40.63689333333333" lon="-3.1510333333333334">
<ele>730</ele>
<time>2017-03-02T12:31:06Z</time>
</trkpt>
<trkpt lat="40.63681833333333" lon="-3.1509950000000004">
<ele>730</ele>
<time>2017-03-02T12:31:08Z</time>
</trkpt>
<trkpt lat="40.636815" lon="-3.1509816666666666">
<ele>730</ele>
<time>2017-03-02T12:31:10Z</time>
</trkpt>
<trkpt lat="40.636815" lon="-3.1509816666666666">
<ele>730</ele>
<time>2017-03-02T12:31:12Z</time>
</trkpt>
<trkpt lat="40.636815" lon="-3.1509816666666666">
<ele>730</ele>
<time>2017-03-02T12:31:14Z</time>
</trkpt>
<trkpt lat="40.636815" lon="-3.1509816666666666">
<ele>730</ele>
<time>2017-03-02T12:31:16Z</time>
</trkpt>
<trkpt lat="40.636815" lon="-3.1509816666666666">
<ele>730</ele>
<time>2017-03-02T12:31:18Z</time>
</trkpt>
<trkpt lat="40.636695" lon="-3.1509599999999995">
<ele>730</ele>
<time>2017-03-02T12:31:20Z</time>
</trkpt>
<trkpt lat="40.63666666666666" lon="-3.1509583333333335">
<ele>730</ele>
<time>2017-03-02T12:31:22Z</time>
</trkpt>
<trkpt lat="40.636653333333335" lon="-3.150956666666666">
<ele>730</ele>
<time>2017-03-02T12:31:24Z</time>
</trkpt>
<trkpt lat="40.636653333333335" lon="-3.150956666666666">
<ele>730</ele>
<time>2017-03-02T12:31:26Z</time>
</trkpt>
<trkpt lat="40.636653333333335" lon="-3.150956666666666">
<ele>730</ele>
<time>2017-03-02T12:31:28Z</time>
</trkpt>
<trkpt lat="40.636653333333335" lon="-3.150956666666666">
<ele>730</ele>
<time>2017-03-02T12:31:30Z</time>
</trkpt>
<trkpt lat="40.63669166666667" lon="-3.1508333333333334">
<ele>730</ele>
<time>2017-03-02T12:31:32Z</time>
</trkpt>
<trkpt lat="40.636783333333334" lon="-3.150761666666667">
<ele>730</ele>
<time>2017-03-02T12:31:34Z</time>
</trkpt>
<trkpt lat="40.63681999999999" lon="-3.15073">
<ele>730</ele>
<time>2017-03-02T12:31:36Z</time>
</trkpt>
<trkpt lat="40.63684333333333" lon="-3.1506999999999996">
<ele>730</ele>
<time>2017-03-02T12:31:38Z</time>
</trkpt>
<trkpt lat="40.636925" lon="-3.1507283333333334">
<ele>729</ele>
<time>2017-03-02T12:31:40Z</time>
</trkpt>
<trkpt lat="40.636935" lon="-3.1507433333333332">
<ele>729</ele>
<time>2017-03-02T12:31:42Z</time>
</trkpt>
<trkpt lat="40.636921666666666" lon="-3.1507500000000004">
<ele>729</ele>
<time>2017-03-02T12:31:44Z</time>
</trkpt>
<trkpt lat="40.636905" lon="-3.1507966666666665">
<ele>729</ele>
<time>2017-03-02T12:31:46Z</time>
</trkpt>
<trkpt lat="40.636876666666666" lon="-3.150866666666667">
<ele>728</ele>
<time>2017-03-02T12:31:48Z</time>
</trkpt>
<trkpt lat="40.63685666666667" lon="-3.1509533333333337">
<ele>728</ele>
<time>2017-03-02T12:31:50Z</time>
</trkpt>
<trkpt lat="40.63685833333333" lon="-3.1510233333333333">
<ele>728</ele>
<time>2017-03-02T12:31:52Z</time>
</trkpt>
<trkpt lat="40.63688833333333" lon="-3.1510700000000003">
<ele>728</ele>
<time>2017-03-02T12:31:54Z</time>
</trkpt>
<trkpt lat="40.63690333333333" lon="-3.1511366666666665">
<ele>728</ele>
<time>2017-03-02T12:31:56Z</time>
</trkpt>
<trkpt lat="40.63692" lon="-3.1512016666666662">
<ele>728</ele>
<time>2017-03-02T12:31:58Z</time>
</trkpt>
<trkpt lat="40.636581666666665" lon="-3.1512000000000002">
<ele>760</ele>
<time>2017-03-02T12:33:18Z</time>
</trkpt>
<trkpt lat="40.63656833333334" lon="-3.1512000000000002">
<ele>760</ele>
<time>2017-03-02T12:33:20Z</time>
</trkpt>
<trkpt lat="40.63655833333333" lon="-3.1511866666666664">
<ele>759</ele>
<time>2017-03-02T12:33:22Z</time>
</trkpt>
<trkpt lat="40.63655833333333" lon="-3.1511866666666664">
<ele>759</ele>
<time>2017-03-02T12:33:24Z</time>
</trkpt>
<trkpt lat="40.63655833333333" lon="-3.1511866666666664">
<ele>759</ele>
<time>2017-03-02T12:33:26Z</time>
</trkpt>
<trkpt lat="40.63652166666667" lon="-3.1510450000000003">
<ele>738</ele>
<time>2017-03-02T12:33:28Z</time>
</trkpt>
<trkpt lat="40.636518333333335" lon="-3.1510416666666665">
<ele>735</ele>
<time>2017-03-02T12:33:30Z</time>
</trkpt>
<trkpt lat="40.636518333333335" lon="-3.1510416666666665">
<ele>735</ele>
<time>2017-03-02T12:33:32Z</time>
</trkpt>
<trkpt lat="40.636518333333335" lon="-3.1510416666666665">
<ele>735</ele>
<time>2017-03-02T12:33:34Z</time>
</trkpt>
<trkpt lat="40.636518333333335" lon="-3.1510400000000005">
<ele>734</ele>
<time>2017-03-02T12:33:36Z</time>
</trkpt>
<trkpt lat="40.63657166666667" lon="-3.151065">
<ele>735</ele>
<time>2017-03-02T12:33:38Z</time>
</trkpt>
<trkpt lat="40.63659333333333" lon="-3.1510783333333334">
<ele>735</ele>
<time>2017-03-02T12:33:40Z</time>
</trkpt>
<trkpt lat="40.63659333333333" lon="-3.151103333333333">
<ele>735</ele>
<time>2017-03-02T12:33:42Z</time>
</trkpt>
<trkpt lat="40.63659333333333" lon="-3.151103333333333">
<ele>735</ele>
<time>2017-03-02T12:33:44Z</time>
</trkpt>
<trkpt lat="40.63659333333333" lon="-3.151103333333333">
<ele>735</ele>
<time>2017-03-02T12:33:46Z</time>
</trkpt>
<trkpt lat="40.63659333333333" lon="-3.151103333333333">
<ele>735</ele>
<time>2017-03-02T12:33:48Z</time>
</trkpt>
<trkpt lat="40.636536666666665" lon="-3.1510033333333336">
<ele>735</ele>
<time>2017-03-02T12:33:50Z</time>
</trkpt>
<trkpt lat="40.636545" lon="-3.1509516666666664">
<ele>735</ele>
<time>2017-03-02T12:33:52Z</time>
</trkpt>
<trkpt lat="40.63655166666667" lon="-3.150933333333333">
<ele>735</ele>
<time>2017-03-02T12:33:54Z</time>
</trkpt>
<trkpt lat="40.636555" lon="-3.150933333333333">
<ele>735</ele>
<time>2017-03-02T12:33:56Z</time>
</trkpt>
<trkpt lat="40.636565000000004" lon="-3.15092">
<ele>735</ele>
<time>2017-03-02T12:33:58Z</time>
</trkpt>
<trkpt lat="40.636525" lon="-3.150938333333334">
<ele>734</ele>
<time>2017-03-02T12:34:00Z</time>
</trkpt>
<trkpt lat="40.63650333333333" lon="-3.150911666666667">
<ele>734</ele>
<time>2017-03-02T12:34:02Z</time>
</trkpt>
<trkpt lat="40.63650666666667" lon="-3.1509066666666663">
<ele>734</ele>
<time>2017-03-02T12:34:04Z</time>
</trkpt>
<trkpt lat="40.63650833333334" lon="-3.15093">
<ele>734</ele>
<time>2017-03-02T12:34:06Z</time>
</trkpt>
<trkpt lat="40.636495" lon="-3.1509650000000002">
<ele>734</ele>
<time>2017-03-02T12:34:08Z</time>
</trkpt>
<trkpt lat="40.636496666666666" lon="-3.1509650000000002">
<ele>733</ele>
<time>2017-03-02T12:34:10Z</time>
</trkpt>
<trkpt lat="40.63649833333333" lon="-3.1509599999999995">
<ele>733</ele>
<time>2017-03-02T12:34:12Z</time>
</trkpt>
<trkpt lat="40.6365" lon="-3.150955">
<ele>733</ele>
<time>2017-03-02T12:34:14Z</time>
</trkpt>
<trkpt lat="40.63651" lon="-3.15097">
<ele>733</ele>
<time>2017-03-02T12:34:16Z</time>
</trkpt>
<trkpt lat="40.636515" lon="-3.150998333333334">
<ele>733</ele>
<time>2017-03-02T12:34:18Z</time>
</trkpt>
<trkpt lat="40.636520000000004" lon="-3.1509950000000004">
<ele>733</ele>
<time>2017-03-02T12:34:20Z</time>
</trkpt>
<trkpt lat="40.636525" lon="-3.150991666666667">
<ele>733</ele>
<time>2017-03-02T12:34:22Z</time>
</trkpt>
<trkpt lat="40.63652666666667" lon="-3.150956666666666">
<ele>733</ele>
<time>2017-03-02T12:34:24Z</time>
</trkpt>
<trkpt lat="40.636536666666665" lon="-3.1509216666666666">
<ele>733</ele>
<time>2017-03-02T12:34:26Z</time>
</trkpt>
<trkpt lat="40.636516666666665" lon="-3.150943333333333">
<ele>732</ele>
<time>2017-03-02T12:34:28Z</time>
</trkpt>
<trkpt lat="40.63651333333333" lon="-3.150946666666667">
<ele>732</ele>
<time>2017-03-02T12:34:30Z</time>
</trkpt>
<trkpt lat="40.636491666666664" lon="-3.1509266666666673">
<ele>732</ele>
<time>2017-03-02T12:34:32Z</time>
</trkpt>
<trkpt lat="40.63646333333334" lon="-3.1509316666666667">
<ele>732</ele>
<time>2017-03-02T12:34:34Z</time>
</trkpt>
<trkpt lat="40.636455" lon="-3.1509683333333336">
<ele>732</ele>
<time>2017-03-02T12:34:36Z</time>
</trkpt>
<trkpt lat="40.63646166666667" lon="-3.1510333333333334">
<ele>732</ele>
<time>2017-03-02T12:34:38Z</time>
</trkpt>
<trkpt lat="40.6365" lon="-3.1509950000000004">
<ele>732</ele>
<time>2017-03-02T12:34:40Z</time>
</trkpt>
<trkpt lat="40.63650333333333" lon="-3.150983333333334">
<ele>732</ele>
<time>2017-03-02T12:34:42Z</time>
</trkpt>
<trkpt lat="40.63650333333333" lon="-3.150983333333334">
<ele>732</ele>
<time>2017-03-02T12:34:44Z</time>
</trkpt>
<trkpt lat="40.63641166666666" lon="-3.1509666666666667">
<ele>732</ele>
<time>2017-03-02T12:34:46Z</time>
</trkpt>
<trkpt lat="40.636269999999996" lon="-3.150993333333333">
<ele>732</ele>
<time>2017-03-02T12:34:50Z</time>
</trkpt>
<trkpt lat="40.63629" lon="-3.1506333333333334">
<ele>731</ele>
<time>2017-03-02T12:34:52Z</time>
</trkpt>
<trkpt lat="40.636250000000004" lon="-3.150526666666667">
<ele>731</ele>
<time>2017-03-02T12:34:54Z</time>
</trkpt>
<trkpt lat="40.636665" lon="-3.1509366666666665">
<ele>733</ele>
<time>2017-03-02T12:35:20Z</time>
</trkpt>
<trkpt lat="40.63665833333334" lon="-3.150946666666667">
<ele>732</ele>
<time>2017-03-02T12:35:22Z</time>
</trkpt>
<trkpt lat="40.63665833333334" lon="-3.150946666666667">
<ele>732</ele>
<time>2017-03-02T12:35:24Z</time>
</trkpt>
<trkpt lat="40.63662166666666" lon="-3.150971666666666">
<ele>731</ele>
<time>2017-03-02T12:35:26Z</time>
</trkpt>
<trkpt lat="40.63659500000001" lon="-3.15097">
<ele>731</ele>
<time>2017-03-02T12:35:28Z</time>
</trkpt>
<trkpt lat="40.636565000000004" lon="-3.150971666666666">
<ele>731</ele>
<time>2017-03-02T12:35:30Z</time>
</trkpt>
<trkpt lat="40.63654666666666" lon="-3.150985">
<ele>730</ele>
<time>2017-03-02T12:35:32Z</time>
</trkpt>
<trkpt lat="40.63652833333333" lon="-3.1510033333333336">
<ele>730</ele>
<time>2017-03-02T12:35:34Z</time>
</trkpt>
<trkpt lat="40.63650500000001" lon="-3.150998333333334">
<ele>730</ele>
<time>2017-03-02T12:35:36Z</time>
</trkpt>
<trkpt lat="40.63649833333333" lon="-3.1509950000000004">
<ele>730</ele>
<time>2017-03-02T12:35:38Z</time>
</trkpt>
<trkpt lat="40.63648833333333" lon="-3.150971666666666">
<ele>730</ele>
<time>2017-03-02T12:35:40Z</time>
</trkpt>
<trkpt lat="40.636475000000004" lon="-3.1509266666666673">
<ele>730</ele>
<time>2017-03-02T12:35:42Z</time>
</trkpt>
<trkpt lat="40.63633333333333" lon="-3.15097">
<ele>730</ele>
<time>2017-03-02T12:36:02Z</time>
</trkpt>
<trkpt lat="40.63623833333334" lon="-3.15106">
<ele>730</ele>
<time>2017-03-02T12:36:04Z</time>
</trkpt>
<trkpt lat="40.63623833333334" lon="-3.1508016666666663">
<ele>730</ele>
<time>2017-03-02T12:36:06Z</time>
</trkpt>
<trkpt lat="40.636235000000006" lon="-3.150643333333333">
<ele>730</ele>
<time>2017-03-02T12:36:08Z</time>
</trkpt>
<trkpt lat="40.636255" lon="-3.1505133333333335">
<ele>730</ele>
<time>2017-03-02T12:36:10Z</time>
</trkpt>
<trkpt lat="40.636269999999996" lon="-3.1504333333333334">
<ele>730</ele>
<time>2017-03-02T12:36:12Z</time>
</trkpt>
<trkpt lat="40.636295000000004" lon="-3.15038">
<ele>730</ele>
<time>2017-03-02T12:36:14Z</time>
</trkpt>
<trkpt lat="40.636295000000004" lon="-3.15038">
<ele>730</ele>
<time>2017-03-02T12:36:16Z</time>
</trkpt>
<trkpt lat="40.63646166666667" lon="-3.1503233333333336">
<ele>729</ele>
<time>2017-03-02T12:36:18Z</time>
</trkpt>
<trkpt lat="40.63647" lon="-3.150316666666667">
<ele>729</ele>
<time>2017-03-02T12:36:20Z</time>
</trkpt>
<trkpt lat="40.63645833333333" lon="-3.1503099999999997">
<ele>729</ele>
<time>2017-03-02T12:36:22Z</time>
</trkpt>
<trkpt lat="40.63655000000001" lon="-3.1503366666666666">
<ele>728</ele>
<time>2017-03-02T12:36:24Z</time>
</trkpt>
<trkpt lat="40.63660333333333" lon="-3.1503516666666664">
<ele>727</ele>
<time>2017-03-02T12:36:26Z</time>
</trkpt>
<trkpt lat="40.63657166666667" lon="-3.1505233333333336">
<ele>727</ele>
<time>2017-03-02T12:36:28Z</time>
</trkpt>
<trkpt lat="40.636565000000004" lon="-3.1506">
<ele>727</ele>
<time>2017-03-02T12:36:30Z</time>
</trkpt>
<trkpt lat="40.63657833333333" lon="-3.150615">
<ele>726</ele>
<time>2017-03-02T12:36:32Z</time>
</trkpt>
<trkpt lat="40.63660333333333" lon="-3.150651666666667">
<ele>726</ele>
<time>2017-03-02T12:36:34Z</time>
</trkpt>
<trkpt lat="40.63662166666666" lon="-3.150585">
<ele>726</ele>
<time>2017-03-02T12:36:36Z</time>
</trkpt>
<trkpt lat="40.63663666666666" lon="-3.1504633333333336">
<ele>727</ele>
<time>2017-03-02T12:36:38Z</time>
</trkpt>
<trkpt lat="40.636655000000005" lon="-3.15034">
<ele>727</ele>
<time>2017-03-02T12:36:40Z</time>
</trkpt>
<trkpt lat="40.63665833333334" lon="-3.1502616666666663">
<ele>727</ele>
<time>2017-03-02T12:36:42Z</time>
</trkpt>
<trkpt lat="40.63667833333333" lon="-3.1501666666666663">
<ele>727</ele>
<time>2017-03-02T12:36:44Z</time>
</trkpt>
<trkpt lat="40.63670666666667" lon="-3.150076666666666">
<ele>727</ele>
<time>2017-03-02T12:36:46Z</time>
</trkpt>
<trkpt lat="40.63672666666666" lon="-3.149985">
<ele>728</ele>
<time>2017-03-02T12:36:48Z</time>
</trkpt>
<trkpt lat="40.63677333333333" lon="-3.1499416666666673">
<ele>728</ele>
<time>2017-03-02T12:36:50Z</time>
</trkpt>
<trkpt lat="40.636808333333335" lon="-3.1499200000000003">
<ele>728</ele>
<time>2017-03-02T12:36:52Z</time>
</trkpt>
<trkpt lat="40.63683" lon="-3.1498983333333332">
<ele>728</ele>
<time>2017-03-02T12:36:54Z</time>
</trkpt>
<trkpt lat="40.63686499999999" lon="-3.1498416666666667">
<ele>729</ele>
<time>2017-03-02T12:36:56Z</time>
</trkpt>
<trkpt lat="40.63689" lon="-3.1497933333333332">
<ele>729</ele>
<time>2017-03-02T12:36:58Z</time>
</trkpt>
<trkpt lat="40.636915" lon="-3.149755">
<ele>729</ele>
<time>2017-03-02T12:37:00Z</time>
</trkpt>
<trkpt lat="40.636941666666665" lon="-3.149733333333333">
<ele>729</ele>
<time>2017-03-02T12:37:02Z</time>
</trkpt>
<trkpt lat="40.636968333333336" lon="-3.1497283333333335">
<ele>730</ele>
<time>2017-03-02T12:37:04Z</time>
</trkpt>
<trkpt lat="40.636375" lon="-3.149935">
<ele>677</ele>
<time>2017-03-02T12:37:48Z</time>
</trkpt>
<trkpt lat="40.63628666666667" lon="-3.149835">
<ele>673</ele>
<time>2017-03-02T12:37:50Z</time>
</trkpt>
<trkpt lat="40.636246666666665" lon="-3.1498033333333333">
<ele>670</ele>
<time>2017-03-02T12:37:52Z</time>
</trkpt>
<trkpt lat="40.636246666666665" lon="-3.1498033333333333">
<ele>670</ele>
<time>2017-03-02T12:37:54Z</time>
</trkpt>
<trkpt lat="40.63629" lon="-3.1497599999999997">
<ele>673</ele>
<time>2017-03-02T12:37:56Z</time>
</trkpt>
<trkpt lat="40.636359999999996" lon="-3.1498033333333333">
<ele>678</ele>
<time>2017-03-02T12:37:58Z</time>
</trkpt>
<trkpt lat="40.636485" lon="-3.149903333333333">
<ele>691</ele>
<time>2017-03-02T12:38:00Z</time>
</trkpt>
<trkpt lat="40.63656" lon="-3.1499666666666664">
<ele>698</ele>
<time>2017-03-02T12:38:02Z</time>
</trkpt>
<trkpt lat="40.636561666666665" lon="-3.1499683333333337">
<ele>698</ele>
<time>2017-03-02T12:38:04Z</time>
</trkpt>
<trkpt lat="40.636561666666665" lon="-3.1499683333333337">
<ele>698</ele>
<time>2017-03-02T12:38:06Z</time>
</trkpt>
<trkpt lat="40.636561666666665" lon="-3.1499683333333337">
<ele>698</ele>
<time>2017-03-02T12:38:08Z</time>
</trkpt>
<trkpt lat="40.636561666666665" lon="-3.1499683333333337">
<ele>698</ele>
<time>2017-03-02T12:38:10Z</time>
</trkpt>
<trkpt lat="40.636561666666665" lon="-3.1499683333333337">
<ele>698</ele>
<time>2017-03-02T12:38:12Z</time>
</trkpt>
<trkpt lat="40.636561666666665" lon="-3.1499683333333337">
<ele>698</ele>
<time>2017-03-02T12:38:14Z</time>
</trkpt>
<trkpt lat="40.636561666666665" lon="-3.1499683333333337">
<ele>698</ele>
<time>2017-03-02T12:38:16Z</time>
</trkpt>
<trkpt lat="40.636561666666665" lon="-3.1499683333333337">
<ele>698</ele>
<time>2017-03-02T12:38:18Z</time>
</trkpt>
<trkpt lat="40.636561666666665" lon="-3.1499683333333337">
<ele>698</ele>
<time>2017-03-02T12:38:20Z</time>
</trkpt>
<trkpt lat="40.63657833333333" lon="-3.15009">
<ele>702</ele>
<time>2017-03-02T12:38:22Z</time>
</trkpt>
<trkpt lat="40.63656666666667" lon="-3.150088333333333">
<ele>702</ele>
<time>2017-03-02T12:38:24Z</time>
</trkpt>
<trkpt lat="40.63657166666667" lon="-3.1500916666666665">
<ele>702</ele>
<time>2017-03-02T12:38:26Z</time>
</trkpt>
<trkpt lat="40.63657166666667" lon="-3.1500916666666665">
<ele>702</ele>
<time>2017-03-02T12:38:28Z</time>
</trkpt>
<trkpt lat="40.63657166666667" lon="-3.1500916666666665">
<ele>702</ele>
<time>2017-03-02T12:38:30Z</time>
</trkpt>
<trkpt lat="40.63657166666667" lon="-3.1500916666666665">
<ele>702</ele>
<time>2017-03-02T12:38:32Z</time>
</trkpt>
<trkpt lat="40.63657166666667" lon="-3.1500916666666665">
<ele>702</ele>
<time>2017-03-02T12:38:34Z</time>
</trkpt>
<trkpt lat="40.636565000000004" lon="-3.150118333333333">
<ele>700</ele>
<time>2017-03-02T12:38:36Z</time>
</trkpt>
<trkpt lat="40.63656666666667" lon="-3.150111666666667">
<ele>700</ele>
<time>2017-03-02T12:38:38Z</time>
</trkpt>
<trkpt lat="40.636575" lon="-3.150076666666666">
<ele>700</ele>
<time>2017-03-02T12:38:40Z</time>
</trkpt>
<trkpt lat="40.636575" lon="-3.150076666666666">
<ele>700</ele>
<time>2017-03-02T12:38:42Z</time>
</trkpt>
<trkpt lat="40.636575" lon="-3.150076666666666">
<ele>700</ele>
<time>2017-03-02T12:38:44Z</time>
</trkpt>
<trkpt lat="40.636575" lon="-3.150076666666666">
<ele>700</ele>
<time>2017-03-02T12:38:46Z</time>
</trkpt>
<trkpt lat="40.636575" lon="-3.150076666666666">
<ele>700</ele>
<time>2017-03-02T12:38:48Z</time>
</trkpt>
<trkpt lat="40.636575" lon="-3.150076666666666">
<ele>700</ele>
<time>2017-03-02T12:38:50Z</time>
</trkpt>
<trkpt lat="40.636575" lon="-3.150076666666666">
<ele>700</ele>
<time>2017-03-02T12:38:52Z</time>
</trkpt>
<trkpt lat="40.636575" lon="-3.150076666666666">
<ele>700</ele>
<time>2017-03-02T12:38:54Z</time>
</trkpt>
<trkpt lat="40.636575" lon="-3.150076666666666">
<ele>700</ele>
<time>2017-03-02T12:38:56Z</time>
</trkpt>
<trkpt lat="40.636575" lon="-3.150076666666666">
<ele>700</ele>
<time>2017-03-02T12:38:58Z</time>
</trkpt>
<trkpt lat="40.636575" lon="-3.150076666666666">
<ele>700</ele>
<time>2017-03-02T12:39:00Z</time>
</trkpt>
<trkpt lat="40.63662166666666" lon="-3.150008333333333">
<ele>695</ele>
<time>2017-03-02T12:39:02Z</time>
</trkpt>
<trkpt lat="40.636625" lon="-3.1499816666666667">
<ele>695</ele>
<time>2017-03-02T12:39:04Z</time>
</trkpt>
<trkpt lat="40.63663333333333" lon="-3.149971666666666">
<ele>695</ele>
<time>2017-03-02T12:39:06Z</time>
</trkpt>
<trkpt lat="40.636628333333334" lon="-3.1499416666666673">
<ele>695</ele>
<time>2017-03-02T12:39:08Z</time>
</trkpt>
<trkpt lat="40.63662" lon="-3.1499233333333336">
<ele>695</ele>
<time>2017-03-02T12:39:10Z</time>
</trkpt>
<trkpt lat="40.63664000000001" lon="-3.1499200000000003">
<ele>694</ele>
<time>2017-03-02T12:39:12Z</time>
</trkpt>
<trkpt lat="40.63664666666667" lon="-3.149911666666667">
<ele>694</ele>
<time>2017-03-02T12:39:14Z</time>
</trkpt>
<trkpt lat="40.63664666666667" lon="-3.149911666666667">
<ele>694</ele>
<time>2017-03-02T12:39:16Z</time>
</trkpt>
<trkpt lat="40.63664666666667" lon="-3.149911666666667">
<ele>694</ele>
<time>2017-03-02T12:39:18Z</time>
</trkpt>
<trkpt lat="40.63664666666667" lon="-3.149911666666667">
<ele>694</ele>
<time>2017-03-02T12:39:20Z</time>
</trkpt>
<trkpt lat="40.63664666666667" lon="-3.149911666666667">
<ele>694</ele>
<time>2017-03-02T12:39:22Z</time>
</trkpt>
<trkpt lat="40.63674" lon="-3.1498466666666665">
<ele>694</ele>
<time>2017-03-02T12:39:24Z</time>
</trkpt>
<trkpt lat="40.636763333333334" lon="-3.149851666666667">
<ele>693</ele>
<time>2017-03-02T12:39:26Z</time>
</trkpt>
<trkpt lat="40.63677666666667" lon="-3.1498416666666667">
<ele>693</ele>
<time>2017-03-02T12:39:28Z</time>
</trkpt>
<trkpt lat="40.636786666666666" lon="-3.149831666666666">
<ele>693</ele>
<time>2017-03-02T12:39:30Z</time>
</trkpt>
<trkpt lat="40.636786666666666" lon="-3.149831666666666">
<ele>693</ele>
<time>2017-03-02T12:39:32Z</time>
</trkpt>
<trkpt lat="40.636786666666666" lon="-3.149831666666666">
<ele>693</ele>
<time>2017-03-02T12:39:34Z</time>
</trkpt>
<trkpt lat="40.636786666666666" lon="-3.149831666666666">
<ele>693</ele>
<time>2017-03-02T12:39:36Z</time>
</trkpt>
<trkpt lat="40.636786666666666" lon="-3.149831666666666">
<ele>693</ele>
<time>2017-03-02T12:39:38Z</time>
</trkpt>
<trkpt lat="40.636786666666666" lon="-3.149831666666666">
<ele>693</ele>
<time>2017-03-02T12:39:40Z</time>
</trkpt>
<trkpt lat="40.636786666666666" lon="-3.149831666666666">
<ele>693</ele>
<time>2017-03-02T12:39:42Z</time>
</trkpt>
<trkpt lat="40.636786666666666" lon="-3.149831666666666">
<ele>693</ele>
<time>2017-03-02T12:39:44Z</time>
</trkpt>
<trkpt lat="40.636786666666666" lon="-3.149831666666666">
<ele>693</ele>
<time>2017-03-02T12:39:46Z</time>
</trkpt>
<trkpt lat="40.63686" lon="-3.149733333333333">
<ele>695</ele>
<time>2017-03-02T12:39:48Z</time>
</trkpt>
<trkpt lat="40.63683833333334" lon="-3.1497000000000006">
<ele>695</ele>
<time>2017-03-02T12:39:50Z</time>
</trkpt>
<trkpt lat="40.63683833333334" lon="-3.1497000000000006">
<ele>695</ele>
<time>2017-03-02T12:39:52Z</time>
</trkpt>
<trkpt lat="40.63683833333334" lon="-3.1497000000000006">
<ele>695</ele>
<time>2017-03-02T12:39:54Z</time>
</trkpt>
<trkpt lat="40.63683833333334" lon="-3.1497000000000006">
<ele>695</ele>
<time>2017-03-02T12:39:56Z</time>
</trkpt>
<trkpt lat="40.63683833333334" lon="-3.1497000000000006">
<ele>695</ele>
<time>2017-03-02T12:39:58Z</time>
</trkpt>
<trkpt lat="40.63683833333334" lon="-3.1497000000000006">
<ele>695</ele>
<time>2017-03-02T12:40:00Z</time>
</trkpt>
<trkpt lat="40.63683833333334" lon="-3.1497000000000006">
<ele>695</ele>
<time>2017-03-02T12:40:02Z</time>
</trkpt>
<trkpt lat="40.63682666666667" lon="-3.149711666666667">
<ele>695</ele>
<time>2017-03-02T12:40:04Z</time>
</trkpt>
<trkpt lat="40.63683666666667" lon="-3.14974">
<ele>695</ele>
<time>2017-03-02T12:40:06Z</time>
</trkpt>
<trkpt lat="40.636851666666665" lon="-3.1497833333333336">
<ele>695</ele>
<time>2017-03-02T12:40:08Z</time>
</trkpt>
<trkpt lat="40.636853333333335" lon="-3.1498250000000003">
<ele>696</ele>
<time>2017-03-02T12:40:10Z</time>
</trkpt>
<trkpt lat="40.636878333333335" lon="-3.149875">
<ele>696</ele>
<time>2017-03-02T12:40:12Z</time>
</trkpt>
<trkpt lat="40.63690666666666" lon="-3.1499383333333335">
<ele>696</ele>
<time>2017-03-02T12:40:14Z</time>
</trkpt>
<trkpt lat="40.636921666666666" lon="-3.1498649999999997">
<ele>696</ele>
<time>2017-03-02T12:40:16Z</time>
</trkpt>
<trkpt lat="40.636918333333334" lon="-3.1498199999999996">
<ele>696</ele>
<time>2017-03-02T12:40:18Z</time>
</trkpt>
<trkpt lat="40.636918333333334" lon="-3.1498033333333333">
<ele>696</ele>
<time>2017-03-02T12:40:20Z</time>
</trkpt>
<trkpt lat="40.636918333333334" lon="-3.1498033333333333">
<ele>696</ele>
<time>2017-03-02T12:40:22Z</time>
</trkpt>
<trkpt lat="40.63692" lon="-3.1497933333333332">
<ele>696</ele>
<time>2017-03-02T12:40:24Z</time>
</trkpt>
<trkpt lat="40.637013333333336" lon="-3.1497933333333332">
<ele>689</ele>
<time>2017-03-02T12:40:44Z</time>
</trkpt>
<trkpt lat="40.63690666666666" lon="-3.1496833333333334">
<ele>688</ele>
<time>2017-03-02T12:40:46Z</time>
</trkpt>
<trkpt lat="40.63688833333333" lon="-3.1496383333333333">
<ele>691</ele>
<time>2017-03-02T12:40:48Z</time>
</trkpt>
<trkpt lat="40.63688833333333" lon="-3.1496383333333333">
<ele>691</ele>
<time>2017-03-02T12:40:50Z</time>
</trkpt>
<trkpt lat="40.63688833333333" lon="-3.1496383333333333">
<ele>691</ele>
<time>2017-03-02T12:40:52Z</time>
</trkpt>
<trkpt lat="40.63688833333333" lon="-3.1496383333333333">
<ele>691</ele>
<time>2017-03-02T12:40:54Z</time>
</trkpt>
<trkpt lat="40.63688833333333" lon="-3.1496383333333333">
<ele>691</ele>
<time>2017-03-02T12:40:56Z</time>
</trkpt>
<trkpt lat="40.63688833333333" lon="-3.1496383333333333">
<ele>691</ele>
<time>2017-03-02T12:40:58Z</time>
</trkpt>
<trkpt lat="40.63688833333333" lon="-3.1496383333333333">
<ele>691</ele>
<time>2017-03-02T12:41:00Z</time>
</trkpt>
<trkpt lat="40.63688833333333" lon="-3.1496383333333333">
<ele>691</ele>
<time>2017-03-02T12:41:02Z</time>
</trkpt>
<trkpt lat="40.63688833333333" lon="-3.1496383333333333">
<ele>691</ele>
<time>2017-03-02T12:41:04Z</time>
</trkpt>
<trkpt lat="40.63688833333333" lon="-3.1496383333333333">
<ele>691</ele>
<time>2017-03-02T12:41:06Z</time>
</trkpt>
<trkpt lat="40.63688833333333" lon="-3.1496383333333333">
<ele>691</ele>
<time>2017-03-02T12:41:08Z</time>
</trkpt>
<trkpt lat="40.63688833333333" lon="-3.1496383333333333">
<ele>691</ele>
<time>2017-03-02T12:41:10Z</time>
</trkpt>
<trkpt lat="40.63688833333333" lon="-3.1496383333333333">
<ele>691</ele>
<time>2017-03-02T12:41:12Z</time>
</trkpt>
<trkpt lat="40.63697" lon="-3.1496033333333333">
<ele>690</ele>
<time>2017-03-02T12:41:14Z</time>
</trkpt>
<trkpt lat="40.63697" lon="-3.149591666666667">
<ele>690</ele>
<time>2017-03-02T12:41:16Z</time>
</trkpt>
<trkpt lat="40.63697" lon="-3.149591666666667">
<ele>690</ele>
<time>2017-03-02T12:41:18Z</time>
</trkpt>
<trkpt lat="40.63697" lon="-3.149591666666667">
<ele>690</ele>
<time>2017-03-02T12:41:20Z</time>
</trkpt>
<trkpt lat="40.63697" lon="-3.149591666666667">
<ele>690</ele>
<time>2017-03-02T12:41:22Z</time>
</trkpt>
<trkpt lat="40.63697" lon="-3.149591666666667">
<ele>690</ele>
<time>2017-03-02T12:41:24Z</time>
</trkpt>
<trkpt lat="40.63697" lon="-3.149591666666667">
<ele>690</ele>
<time>2017-03-02T12:41:26Z</time>
</trkpt>
<trkpt lat="40.63697" lon="-3.149591666666667">
<ele>690</ele>
<time>2017-03-02T12:41:28Z</time>
</trkpt>
<trkpt lat="40.63695333333333" lon="-3.1497433333333333">
<ele>692</ele>
<time>2017-03-02T12:41:30Z</time>
</trkpt>
<trkpt lat="40.63695" lon="-3.14975">
<ele>692</ele>
<time>2017-03-02T12:41:32Z</time>
</trkpt>
<trkpt lat="40.636945" lon="-3.149748333333333">
<ele>692</ele>
<time>2017-03-02T12:41:34Z</time>
</trkpt>
<trkpt lat="40.63692833333334" lon="-3.149711666666667">
<ele>692</ele>
<time>2017-03-02T12:41:36Z</time>
</trkpt>
<trkpt lat="40.63693" lon="-3.1497083333333338">
<ele>693</ele>
<time>2017-03-02T12:41:38Z</time>
</trkpt>
<trkpt lat="40.63693" lon="-3.1497083333333338">
<ele>693</ele>
<time>2017-03-02T12:41:40Z</time>
</trkpt>
<trkpt lat="40.63693" lon="-3.1497083333333338">
<ele>693</ele>
<time>2017-03-02T12:41:42Z</time>
</trkpt>
<trkpt lat="40.63693" lon="-3.1497083333333338">
<ele>693</ele>
<time>2017-03-02T12:41:44Z</time>
</trkpt>
<trkpt lat="40.63693" lon="-3.1497083333333338">
<ele>693</ele>
<time>2017-03-02T12:41:46Z</time>
</trkpt>
<trkpt lat="40.63693" lon="-3.1497083333333338">
<ele>693</ele>
<time>2017-03-02T12:41:48Z</time>
</trkpt>
<trkpt lat="40.63693" lon="-3.1497083333333338">
<ele>693</ele>
<time>2017-03-02T12:41:50Z</time>
</trkpt>
<trkpt lat="40.63693" lon="-3.1497083333333338">
<ele>693</ele>
<time>2017-03-02T12:41:52Z</time>
</trkpt>
<trkpt lat="40.63698333333333" lon="-3.14964">
<ele>698</ele>
<time>2017-03-02T12:41:54Z</time>
</trkpt>
<trkpt lat="40.636945" lon="-3.1496883333333328">
<ele>698</ele>
<time>2017-03-02T12:41:56Z</time>
</trkpt>
<trkpt lat="40.63692833333334" lon="-3.1497599999999997">
<ele>698</ele>
<time>2017-03-02T12:41:58Z</time>
</trkpt>
<trkpt lat="40.63692833333334" lon="-3.1497683333333337">
<ele>698</ele>
<time>2017-03-02T12:42:00Z</time>
</trkpt>
<trkpt lat="40.63686833333334" lon="-3.1498116666666665">
<ele>697</ele>
<time>2017-03-02T12:42:02Z</time>
</trkpt>
<trkpt lat="40.6368" lon="-3.1496983333333333">
<ele>697</ele>
<time>2017-03-02T12:42:04Z</time>
</trkpt>
<trkpt lat="40.636763333333334" lon="-3.1495016666666666">
<ele>697</ele>
<time>2017-03-02T12:42:06Z</time>
</trkpt>
<trkpt lat="40.63674833333334" lon="-3.1494199999999997">
<ele>697</ele>
<time>2017-03-02T12:42:08Z</time>
</trkpt>
<trkpt lat="40.63675666666666" lon="-3.149468333333333">
<ele>696</ele>
<time>2017-03-02T12:42:10Z</time>
</trkpt>
<trkpt lat="40.63678166666667" lon="-3.1496">
<ele>696</ele>
<time>2017-03-02T12:42:12Z</time>
</trkpt>
<trkpt lat="40.636761666666665" lon="-3.1497016666666666">
<ele>695</ele>
<time>2017-03-02T12:42:14Z</time>
</trkpt>
<trkpt lat="40.63673666666667" lon="-3.149741666666667">
<ele>695</ele>
<time>2017-03-02T12:42:16Z</time>
</trkpt>
<trkpt lat="40.636700000000005" lon="-3.149726666666667">
<ele>694</ele>
<time>2017-03-02T12:42:18Z</time>
</trkpt>
<trkpt lat="40.63668666666667" lon="-3.1497299999999995">
<ele>694</ele>
<time>2017-03-02T12:42:20Z</time>
</trkpt>
<trkpt lat="40.636675" lon="-3.1497283333333335">
<ele>693</ele>
<time>2017-03-02T12:42:22Z</time>
</trkpt>
<trkpt lat="40.63668666666667" lon="-3.1496799999999996">
<ele>693</ele>
<time>2017-03-02T12:42:24Z</time>
</trkpt>
<trkpt lat="40.636741666666666" lon="-3.1495566666666672">
<ele>692</ele>
<time>2017-03-02T12:42:26Z</time>
</trkpt>
<trkpt lat="40.63678" lon="-3.1494766666666663">
<ele>692</ele>
<time>2017-03-02T12:42:28Z</time>
</trkpt>
<trkpt lat="40.636815" lon="-3.1494566666666666">
<ele>692</ele>
<time>2017-03-02T12:42:30Z</time>
</trkpt>
<trkpt lat="40.63684333333333" lon="-3.1494283333333337">
<ele>692</ele>
<time>2017-03-02T12:42:32Z</time>
</trkpt>
<trkpt lat="40.63688666666667" lon="-3.1493933333333333">
<ele>691</ele>
<time>2017-03-02T12:42:34Z</time>
</trkpt>
<trkpt lat="40.63693333333333" lon="-3.149296666666667">
<ele>691</ele>
<time>2017-03-02T12:42:36Z</time>
</trkpt>
<trkpt lat="40.63695666666667" lon="-3.149105">
<ele>691</ele>
<time>2017-03-02T12:42:38Z</time>
</trkpt>
<trkpt lat="40.63699" lon="-3.1490283333333338">
<ele>692</ele>
<time>2017-03-02T12:42:40Z</time>
</trkpt>
<trkpt lat="40.637035" lon="-3.1490983333333333">
<ele>692</ele>
<time>2017-03-02T12:42:42Z</time>
</trkpt>
<trkpt lat="40.63702333333333" lon="-3.1491599999999997">
<ele>693</ele>
<time>2017-03-02T12:42:44Z</time>
</trkpt>
<trkpt lat="40.637076666666665" lon="-3.1492">
<ele>694</ele>
<time>2017-03-02T12:42:46Z</time>
</trkpt>
<trkpt lat="40.637071666666664" lon="-3.1492766666666663">
<ele>694</ele>
<time>2017-03-02T12:42:48Z</time>
</trkpt>
<trkpt lat="40.636885" lon="-3.149415">
<ele>693</ele>
<time>2017-03-02T12:42:50Z</time>
</trkpt>
<trkpt lat="40.636849999999995" lon="-3.149431666666666">
<ele>694</ele>
<time>2017-03-02T12:42:52Z</time>
</trkpt>
<trkpt lat="40.63684666666666" lon="-3.14945">
<ele>695</ele>
<time>2017-03-02T12:42:54Z</time>
</trkpt>
<trkpt lat="40.636851666666665" lon="-3.1494550000000006">
<ele>695</ele>
<time>2017-03-02T12:42:56Z</time>
</trkpt>
<trkpt lat="40.636851666666665" lon="-3.1494550000000006">
<ele>695</ele>
<time>2017-03-02T12:42:58Z</time>
</trkpt>
<trkpt lat="40.636851666666665" lon="-3.1494550000000006">
<ele>695</ele>
<time>2017-03-02T12:43:00Z</time>
</trkpt>
<trkpt lat="40.636851666666665" lon="-3.1494550000000006">
<ele>695</ele>
<time>2017-03-02T12:43:02Z</time>
</trkpt>
<trkpt lat="40.636851666666665" lon="-3.1494550000000006">
<ele>695</ele>
<time>2017-03-02T12:43:04Z</time>
</trkpt>
<trkpt lat="40.636851666666665" lon="-3.1494550000000006">
<ele>695</ele>
<time>2017-03-02T12:43:06Z</time>
</trkpt>
<trkpt lat="40.63689166666666" lon="-3.1495166666666665">
<ele>698</ele>
<time>2017-03-02T12:43:08Z</time>
</trkpt>
<trkpt lat="40.6369" lon="-3.149533333333333">
<ele>699</ele>
<time>2017-03-02T12:43:10Z</time>
</trkpt>
<trkpt lat="40.63692666666667" lon="-3.1495216666666663">
<ele>700</ele>
<time>2017-03-02T12:43:12Z</time>
</trkpt>
<trkpt lat="40.63695333333333" lon="-3.149511666666667">
<ele>700</ele>
<time>2017-03-02T12:43:14Z</time>
</trkpt>
<trkpt lat="40.63697" lon="-3.149496666666667">
<ele>700</ele>
<time>2017-03-02T12:43:16Z</time>
</trkpt>
<trkpt lat="40.63697833333333" lon="-3.149508333333334">
<ele>701</ele>
<time>2017-03-02T12:43:18Z</time>
</trkpt>
<trkpt lat="40.637026666666664" lon="-3.149495">
<ele>701</ele>
<time>2017-03-02T12:43:20Z</time>
</trkpt>
<trkpt lat="40.63709333333334" lon="-3.1494866666666668">
<ele>702</ele>
<time>2017-03-02T12:43:22Z</time>
</trkpt>
<trkpt lat="40.63713" lon="-3.1494633333333337">
<ele>702</ele>
<time>2017-03-02T12:43:24Z</time>
</trkpt>
<trkpt lat="40.63715666666667" lon="-3.1494333333333335">
<ele>703</ele>
<time>2017-03-02T12:43:26Z</time>
</trkpt>
<trkpt lat="40.63717666666666" lon="-3.1494199999999997">
<ele>703</ele>
<time>2017-03-02T12:43:28Z</time>
</trkpt>
<trkpt lat="40.637179999999994" lon="-3.149421666666667">
<ele>703</ele>
<time>2017-03-02T12:43:30Z</time>
</trkpt>
<trkpt lat="40.637161666666664" lon="-3.1494483333333334">
<ele>704</ele>
<time>2017-03-02T12:43:32Z</time>
</trkpt>
<trkpt lat="40.63715833333333" lon="-3.1494383333333333">
<ele>704</ele>
<time>2017-03-02T12:43:34Z</time>
</trkpt>
<trkpt lat="40.63715666666667" lon="-3.1494416666666667">
<ele>703</ele>
<time>2017-03-02T12:43:36Z</time>
</trkpt>
<trkpt lat="40.637164999999996" lon="-3.1494383333333333">
<ele>702</ele>
<time>2017-03-02T12:43:38Z</time>
</trkpt>
<trkpt lat="40.63715" lon="-3.1495066666666665">
<ele>703</ele>
<time>2017-03-02T12:43:40Z</time>
</trkpt>
<trkpt lat="40.63709333333334" lon="-3.1495683333333337">
<ele>702</ele>
<time>2017-03-02T12:43:42Z</time>
</trkpt>
<trkpt lat="40.637076666666665" lon="-3.1495800000000003">
<ele>703</ele>
<time>2017-03-02T12:43:44Z</time>
</trkpt>
<trkpt lat="40.63706" lon="-3.149598333333334">
<ele>702</ele>
<time>2017-03-02T12:43:46Z</time>
</trkpt>
<trkpt lat="40.637029999999996" lon="-3.149621666666667">
<ele>701</ele>
<time>2017-03-02T12:43:48Z</time>
</trkpt>
<trkpt lat="40.637011666666666" lon="-3.1496416666666667">
<ele>702</ele>
<time>2017-03-02T12:43:50Z</time>
</trkpt>
<trkpt lat="40.637011666666666" lon="-3.1496416666666667">
<ele>702</ele>
<time>2017-03-02T12:43:52Z</time>
</trkpt>
<trkpt lat="40.637011666666666" lon="-3.1496416666666667">
<ele>702</ele>
<time>2017-03-02T12:43:54Z</time>
</trkpt>
<trkpt lat="40.637011666666666" lon="-3.1496416666666667">
<ele>702</ele>
<time>2017-03-02T12:43:56Z</time>
</trkpt>
<trkpt lat="40.637011666666666" lon="-3.1496416666666667">
<ele>702</ele>
<time>2017-03-02T12:43:58Z</time>
</trkpt>
<trkpt lat="40.637011666666666" lon="-3.1496416666666667">
<ele>702</ele>
<time>2017-03-02T12:44:00Z</time>
</trkpt>
<trkpt lat="40.637011666666666" lon="-3.1496416666666667">
<ele>702</ele>
<time>2017-03-02T12:44:02Z</time>
</trkpt>
<trkpt lat="40.637011666666666" lon="-3.1496416666666667">
<ele>702</ele>
<time>2017-03-02T12:44:04Z</time>
</trkpt>
<trkpt lat="40.637011666666666" lon="-3.1496416666666667">
<ele>702</ele>
<time>2017-03-02T12:44:06Z</time>
</trkpt>
<trkpt lat="40.637011666666666" lon="-3.1496416666666667">
<ele>702</ele>
<time>2017-03-02T12:44:08Z</time>
</trkpt>
<trkpt lat="" lon="">
<ele></ele>
<time>2017-03-02TZ</time>
</trkpt>
</trkseg>
</trk>
<wpt lat="" lon="">
	<name></name>
	<desc></desc>
	<cmt></cmt>
	<photoid></photoid>
	<type></type>
</wpt>
</gpx>
